<?xml version="1.0" encoding="UTF-8" standalone="no" ?>
<gpx xmlns="http://www.topografix.com/GPX/1/1" xmlns:xsi="http://www.w3.org/2001/XMLSchema-instance" xsi:schemaLocation="http://www.topografix.com/GPX/1/1 http://www.topografix.com/GPX/1/1/gpx.xsd" version="1.1" creator="VisuGPX - https://www.visugpx.com">
  <metadata>
    <name>Course à pied en soirée</name>
  </metadata>
  <trk>
    <name><![CDATA[Course à pied en soirée_1]]></name>
    <trkseg>
      <trkpt lat="43.64786" lon="1.37615">
        <ele>149</ele>
        <time>2024-04-25T16:19:19Z</time>
      </trkpt>
      <trkpt lat="43.64791" lon="1.37612">
        <ele>149</ele>
        <time>2024-04-25T16:19:20Z</time>
      </trkpt>
      <trkpt lat="43.64794" lon="1.3761">
        <ele>149</ele>
        <time>2024-04-25T16:19:21Z</time>
      </trkpt>
      <trkpt lat="43.64796" lon="1.37609">
        <ele>149</ele>
        <time>2024-04-25T16:19:22Z</time>
      </trkpt>
      <trkpt lat="43.64798" lon="1.37608">
        <ele>149</ele>
        <time>2024-04-25T16:19:23Z</time>
      </trkpt>
      <trkpt lat="43.64798" lon="1.37608">
        <ele>149</ele>
        <time>2024-04-25T16:19:24Z</time>
      </trkpt>
      <trkpt lat="43.64799" lon="1.37607">
        <ele>149</ele>
        <time>2024-04-25T16:19:25Z</time>
      </trkpt>
      <trkpt lat="43.64802" lon="1.37604">
        <ele>149</ele>
        <time>2024-04-25T16:19:26Z</time>
      </trkpt>
      <trkpt lat="43.64802" lon="1.37604">
        <ele>149</ele>
        <time>2024-04-25T16:19:27Z</time>
      </trkpt>
      <trkpt lat="43.64805" lon="1.37602">
        <ele>150</ele>
        <time>2024-04-25T16:19:28Z</time>
      </trkpt>
      <trkpt lat="43.64807" lon="1.37601">
        <ele>150</ele>
        <time>2024-04-25T16:19:29Z</time>
      </trkpt>
      <trkpt lat="43.64809" lon="1.37602">
        <ele>150</ele>
        <time>2024-04-25T16:19:30Z</time>
      </trkpt>
      <trkpt lat="43.64809" lon="1.37602">
        <ele>150</ele>
        <time>2024-04-25T16:19:31Z</time>
      </trkpt>
      <trkpt lat="43.64812" lon="1.37603">
        <ele>150</ele>
        <time>2024-04-25T16:19:32Z</time>
      </trkpt>
      <trkpt lat="43.64816" lon="1.37606">
        <ele>150</ele>
        <time>2024-04-25T16:19:33Z</time>
      </trkpt>
      <trkpt lat="43.64818" lon="1.37607">
        <ele>150</ele>
        <time>2024-04-25T16:19:34Z</time>
      </trkpt>
      <trkpt lat="43.64818" lon="1.37607">
        <ele>150</ele>
        <time>2024-04-25T16:19:35Z</time>
      </trkpt>
      <trkpt lat="43.64821" lon="1.37609">
        <ele>150</ele>
        <time>2024-04-25T16:19:36Z</time>
      </trkpt>
      <trkpt lat="43.64823" lon="1.37611">
        <ele>149</ele>
        <time>2024-04-25T16:19:38Z</time>
      </trkpt>
      <trkpt lat="43.64828" lon="1.37613">
        <ele>149</ele>
        <time>2024-04-25T16:19:39Z</time>
      </trkpt>
      <trkpt lat="43.6483" lon="1.37614">
        <ele>149</ele>
        <time>2024-04-25T16:19:40Z</time>
      </trkpt>
      <trkpt lat="43.64832" lon="1.37615">
        <ele>149</ele>
        <time>2024-04-25T16:19:41Z</time>
      </trkpt>
      <trkpt lat="43.64832" lon="1.37615">
        <ele>150</ele>
        <time>2024-04-25T16:19:43Z</time>
      </trkpt>
      <trkpt lat="43.64838" lon="1.37617">
        <ele>150</ele>
        <time>2024-04-25T16:19:44Z</time>
      </trkpt>
      <trkpt lat="43.6484" lon="1.37618">
        <ele>150</ele>
        <time>2024-04-25T16:19:45Z</time>
      </trkpt>
      <trkpt lat="43.64842" lon="1.37619">
        <ele>150</ele>
        <time>2024-04-25T16:19:46Z</time>
      </trkpt>
      <trkpt lat="43.64845" lon="1.37621">
        <ele>149</ele>
        <time>2024-04-25T16:19:47Z</time>
      </trkpt>
      <trkpt lat="43.64847" lon="1.37622">
        <ele>149</ele>
        <time>2024-04-25T16:19:48Z</time>
      </trkpt>
      <trkpt lat="43.64849" lon="1.37625">
        <ele>149</ele>
        <time>2024-04-25T16:19:49Z</time>
      </trkpt>
      <trkpt lat="43.64849" lon="1.37625">
        <ele>149</ele>
        <time>2024-04-25T16:19:50Z</time>
      </trkpt>
      <trkpt lat="43.64854" lon="1.3763">
        <ele>149</ele>
        <time>2024-04-25T16:19:51Z</time>
      </trkpt>
      <trkpt lat="43.64856" lon="1.37632">
        <ele>148</ele>
        <time>2024-04-25T16:19:52Z</time>
      </trkpt>
      <trkpt lat="43.64856" lon="1.37632">
        <ele>148</ele>
        <time>2024-04-25T16:19:53Z</time>
      </trkpt>
      <trkpt lat="43.6486" lon="1.37636">
        <ele>148</ele>
        <time>2024-04-25T16:19:54Z</time>
      </trkpt>
      <trkpt lat="43.64862" lon="1.37638">
        <ele>148</ele>
        <time>2024-04-25T16:19:55Z</time>
      </trkpt>
      <trkpt lat="43.64866" lon="1.37641">
        <ele>148</ele>
        <time>2024-04-25T16:19:57Z</time>
      </trkpt>
      <trkpt lat="43.64869" lon="1.37643">
        <ele>148</ele>
        <time>2024-04-25T16:19:58Z</time>
      </trkpt>
      <trkpt lat="43.64869" lon="1.37643">
        <ele>148</ele>
        <time>2024-04-25T16:19:59Z</time>
      </trkpt>
      <trkpt lat="43.64873" lon="1.37648">
        <ele>149</ele>
        <time>2024-04-25T16:20:00Z</time>
      </trkpt>
      <trkpt lat="43.64873" lon="1.37648">
        <ele>149</ele>
        <time>2024-04-25T16:20:01Z</time>
      </trkpt>
      <trkpt lat="43.64876" lon="1.37653">
        <ele>149</ele>
        <time>2024-04-25T16:20:02Z</time>
      </trkpt>
      <trkpt lat="43.64877" lon="1.37654">
        <ele>148</ele>
        <time>2024-04-25T16:20:03Z</time>
      </trkpt>
      <trkpt lat="43.6488" lon="1.37662">
        <ele>148</ele>
        <time>2024-04-25T16:20:04Z</time>
      </trkpt>
      <trkpt lat="43.6488" lon="1.37662">
        <ele>149</ele>
        <time>2024-04-25T16:20:05Z</time>
      </trkpt>
      <trkpt lat="43.64883" lon="1.37669">
        <ele>149</ele>
        <time>2024-04-25T16:20:06Z</time>
      </trkpt>
      <trkpt lat="43.64884" lon="1.37673">
        <ele>149</ele>
        <time>2024-04-25T16:20:07Z</time>
      </trkpt>
      <trkpt lat="43.64885" lon="1.37677">
        <ele>149</ele>
        <time>2024-04-25T16:20:08Z</time>
      </trkpt>
      <trkpt lat="43.64885" lon="1.3768">
        <ele>149</ele>
        <time>2024-04-25T16:20:09Z</time>
      </trkpt>
      <trkpt lat="43.64886" lon="1.37683">
        <ele>149</ele>
        <time>2024-04-25T16:20:10Z</time>
      </trkpt>
      <trkpt lat="43.64886" lon="1.37683">
        <ele>149</ele>
        <time>2024-04-25T16:20:11Z</time>
      </trkpt>
      <trkpt lat="43.64888" lon="1.3769">
        <ele>149</ele>
        <time>2024-04-25T16:20:12Z</time>
      </trkpt>
      <trkpt lat="43.64888" lon="1.3769">
        <ele>149</ele>
        <time>2024-04-25T16:20:13Z</time>
      </trkpt>
      <trkpt lat="43.64889" lon="1.37697">
        <ele>149</ele>
        <time>2024-04-25T16:20:14Z</time>
      </trkpt>
      <trkpt lat="43.64891" lon="1.37703">
        <ele>149</ele>
        <time>2024-04-25T16:20:16Z</time>
      </trkpt>
      <trkpt lat="43.64892" lon="1.37707">
        <ele>149</ele>
        <time>2024-04-25T16:20:17Z</time>
      </trkpt>
      <trkpt lat="43.64892" lon="1.37707">
        <ele>149</ele>
        <time>2024-04-25T16:20:18Z</time>
      </trkpt>
      <trkpt lat="43.64893" lon="1.3771">
        <ele>149</ele>
        <time>2024-04-25T16:20:19Z</time>
      </trkpt>
      <trkpt lat="43.64894" lon="1.37715">
        <ele>149</ele>
        <time>2024-04-25T16:20:20Z</time>
      </trkpt>
      <trkpt lat="43.64895" lon="1.37717">
        <ele>149</ele>
        <time>2024-04-25T16:20:21Z</time>
      </trkpt>
      <trkpt lat="43.64896" lon="1.37724">
        <ele>149</ele>
        <time>2024-04-25T16:20:22Z</time>
      </trkpt>
      <trkpt lat="43.64896" lon="1.37724">
        <ele>148</ele>
        <time>2024-04-25T16:20:23Z</time>
      </trkpt>
      <trkpt lat="43.64898" lon="1.37731">
        <ele>148</ele>
        <time>2024-04-25T16:20:24Z</time>
      </trkpt>
      <trkpt lat="43.64899" lon="1.37734">
        <ele>148</ele>
        <time>2024-04-25T16:20:25Z</time>
      </trkpt>
      <trkpt lat="43.64899" lon="1.37737">
        <ele>148</ele>
        <time>2024-04-25T16:20:26Z</time>
      </trkpt>
      <trkpt lat="43.649" lon="1.3774">
        <ele>148</ele>
        <time>2024-04-25T16:20:27Z</time>
      </trkpt>
      <trkpt lat="43.649" lon="1.3774">
        <ele>148</ele>
        <time>2024-04-25T16:20:28Z</time>
      </trkpt>
      <trkpt lat="43.64902" lon="1.37746">
        <ele>148</ele>
        <time>2024-04-25T16:20:29Z</time>
      </trkpt>
      <trkpt lat="43.64903" lon="1.37749">
        <ele>148</ele>
        <time>2024-04-25T16:20:30Z</time>
      </trkpt>
      <trkpt lat="43.64903" lon="1.37749">
        <ele>148</ele>
        <time>2024-04-25T16:20:31Z</time>
      </trkpt>
      <trkpt lat="43.64904" lon="1.37752">
        <ele>148</ele>
        <time>2024-04-25T16:20:32Z</time>
      </trkpt>
      <trkpt lat="43.64905" lon="1.37756">
        <ele>148</ele>
        <time>2024-04-25T16:20:33Z</time>
      </trkpt>
      <trkpt lat="43.64906" lon="1.37762">
        <ele>148</ele>
        <time>2024-04-25T16:20:34Z</time>
      </trkpt>
      <trkpt lat="43.64907" lon="1.37766">
        <ele>148</ele>
        <time>2024-04-25T16:20:35Z</time>
      </trkpt>
      <trkpt lat="43.64907" lon="1.37766">
        <ele>148</ele>
        <time>2024-04-25T16:20:36Z</time>
      </trkpt>
      <trkpt lat="43.64907" lon="1.37769">
        <ele>148</ele>
        <time>2024-04-25T16:20:37Z</time>
      </trkpt>
      <trkpt lat="43.64909" lon="1.37776">
        <ele>148</ele>
        <time>2024-04-25T16:20:38Z</time>
      </trkpt>
      <trkpt lat="43.64909" lon="1.37776">
        <ele>148</ele>
        <time>2024-04-25T16:20:39Z</time>
      </trkpt>
      <trkpt lat="43.6491" lon="1.37782">
        <ele>148</ele>
        <time>2024-04-25T16:20:40Z</time>
      </trkpt>
      <trkpt lat="43.6491" lon="1.37786">
        <ele>148</ele>
        <time>2024-04-25T16:20:41Z</time>
      </trkpt>
      <trkpt lat="43.6491" lon="1.37786">
        <ele>148</ele>
        <time>2024-04-25T16:20:42Z</time>
      </trkpt>
      <trkpt lat="43.64912" lon="1.37792">
        <ele>148</ele>
        <time>2024-04-25T16:20:43Z</time>
      </trkpt>
      <trkpt lat="43.64912" lon="1.37792">
        <ele>148</ele>
        <time>2024-04-25T16:20:44Z</time>
      </trkpt>
      <trkpt lat="43.64913" lon="1.37799">
        <ele>148</ele>
        <time>2024-04-25T16:20:45Z</time>
      </trkpt>
      <trkpt lat="43.64913" lon="1.37799">
        <ele>148</ele>
        <time>2024-04-25T16:20:46Z</time>
      </trkpt>
      <trkpt lat="43.64915" lon="1.37805">
        <ele>148</ele>
        <time>2024-04-25T16:20:47Z</time>
      </trkpt>
      <trkpt lat="43.64916" lon="1.37809">
        <ele>148</ele>
        <time>2024-04-25T16:20:48Z</time>
      </trkpt>
      <trkpt lat="43.64917" lon="1.37812">
        <ele>148</ele>
        <time>2024-04-25T16:20:49Z</time>
      </trkpt>
      <trkpt lat="43.64918" lon="1.37815">
        <ele>148</ele>
        <time>2024-04-25T16:20:50Z</time>
      </trkpt>
      <trkpt lat="43.64918" lon="1.37815">
        <ele>148</ele>
        <time>2024-04-25T16:20:51Z</time>
      </trkpt>
      <trkpt lat="43.6492" lon="1.37822">
        <ele>148</ele>
        <time>2024-04-25T16:20:52Z</time>
      </trkpt>
      <trkpt lat="43.64921" lon="1.37828">
        <ele>148</ele>
        <time>2024-04-25T16:20:54Z</time>
      </trkpt>
      <trkpt lat="43.64921" lon="1.37831">
        <ele>148</ele>
        <time>2024-04-25T16:20:55Z</time>
      </trkpt>
      <trkpt lat="43.64921" lon="1.37831">
        <ele>148</ele>
        <time>2024-04-25T16:20:56Z</time>
      </trkpt>
      <trkpt lat="43.64923" lon="1.37837">
        <ele>148</ele>
        <time>2024-04-25T16:20:57Z</time>
      </trkpt>
      <trkpt lat="43.64923" lon="1.37837">
        <ele>148</ele>
        <time>2024-04-25T16:20:58Z</time>
      </trkpt>
      <trkpt lat="43.64925" lon="1.37844">
        <ele>148</ele>
        <time>2024-04-25T16:20:59Z</time>
      </trkpt>
      <trkpt lat="43.64926" lon="1.37847">
        <ele>148</ele>
        <time>2024-04-25T16:21:01Z</time>
      </trkpt>
      <trkpt lat="43.64927" lon="1.37854">
        <ele>148</ele>
        <time>2024-04-25T16:21:02Z</time>
      </trkpt>
      <trkpt lat="43.64927" lon="1.37854">
        <ele>148</ele>
        <time>2024-04-25T16:21:03Z</time>
      </trkpt>
      <trkpt lat="43.64929" lon="1.37861">
        <ele>148</ele>
        <time>2024-04-25T16:21:04Z</time>
      </trkpt>
      <trkpt lat="43.6493" lon="1.37864">
        <ele>148</ele>
        <time>2024-04-25T16:21:05Z</time>
      </trkpt>
      <trkpt lat="43.6493" lon="1.37867">
        <ele>148</ele>
        <time>2024-04-25T16:21:06Z</time>
      </trkpt>
      <trkpt lat="43.64931" lon="1.3787">
        <ele>148</ele>
        <time>2024-04-25T16:21:07Z</time>
      </trkpt>
      <trkpt lat="43.64931" lon="1.3787">
        <ele>148</ele>
        <time>2024-04-25T16:21:08Z</time>
      </trkpt>
      <trkpt lat="43.64932" lon="1.37877">
        <ele>148</ele>
        <time>2024-04-25T16:21:09Z</time>
      </trkpt>
      <trkpt lat="43.64933" lon="1.3788">
        <ele>148</ele>
        <time>2024-04-25T16:21:10Z</time>
      </trkpt>
      <trkpt lat="43.64933" lon="1.3788">
        <ele>148</ele>
        <time>2024-04-25T16:21:11Z</time>
      </trkpt>
      <trkpt lat="43.64935" lon="1.37887">
        <ele>148</ele>
        <time>2024-04-25T16:21:12Z</time>
      </trkpt>
      <trkpt lat="43.64936" lon="1.3789">
        <ele>147</ele>
        <time>2024-04-25T16:21:13Z</time>
      </trkpt>
      <trkpt lat="43.64938" lon="1.37894">
        <ele>147</ele>
        <time>2024-04-25T16:21:14Z</time>
      </trkpt>
      <trkpt lat="43.64938" lon="1.37894">
        <ele>147</ele>
        <time>2024-04-25T16:21:15Z</time>
      </trkpt>
      <trkpt lat="43.64939" lon="1.37897">
        <ele>148</ele>
        <time>2024-04-25T16:21:16Z</time>
      </trkpt>
      <trkpt lat="43.6494" lon="1.379">
        <ele>148</ele>
        <time>2024-04-25T16:21:17Z</time>
      </trkpt>
      <trkpt lat="43.64942" lon="1.37907">
        <ele>147</ele>
        <time>2024-04-25T16:21:18Z</time>
      </trkpt>
      <trkpt lat="43.64942" lon="1.37907">
        <ele>147</ele>
        <time>2024-04-25T16:21:19Z</time>
      </trkpt>
      <trkpt lat="43.64943" lon="1.37912">
        <ele>147</ele>
        <time>2024-04-25T16:21:20Z</time>
      </trkpt>
      <trkpt lat="43.64943" lon="1.37913">
        <ele>147</ele>
        <time>2024-04-25T16:21:21Z</time>
      </trkpt>
      <trkpt lat="43.64945" lon="1.3792">
        <ele>147</ele>
        <time>2024-04-25T16:21:22Z</time>
      </trkpt>
      <trkpt lat="43.64945" lon="1.3792">
        <ele>147</ele>
        <time>2024-04-25T16:21:23Z</time>
      </trkpt>
      <trkpt lat="43.64947" lon="1.37926">
        <ele>147</ele>
        <time>2024-04-25T16:21:24Z</time>
      </trkpt>
      <trkpt lat="43.64947" lon="1.37929">
        <ele>147</ele>
        <time>2024-04-25T16:21:25Z</time>
      </trkpt>
      <trkpt lat="43.64947" lon="1.37929">
        <ele>148</ele>
        <time>2024-04-25T16:21:26Z</time>
      </trkpt>
      <trkpt lat="43.64949" lon="1.37936">
        <ele>148</ele>
        <time>2024-04-25T16:21:27Z</time>
      </trkpt>
      <trkpt lat="43.6495" lon="1.37939">
        <ele>148</ele>
        <time>2024-04-25T16:21:28Z</time>
      </trkpt>
      <trkpt lat="43.6495" lon="1.37942">
        <ele>148</ele>
        <time>2024-04-25T16:21:29Z</time>
      </trkpt>
      <trkpt lat="43.6495" lon="1.37942">
        <ele>148</ele>
        <time>2024-04-25T16:21:30Z</time>
      </trkpt>
      <trkpt lat="43.64951" lon="1.37945">
        <ele>148</ele>
        <time>2024-04-25T16:21:31Z</time>
      </trkpt>
      <trkpt lat="43.64952" lon="1.37949">
        <ele>148</ele>
        <time>2024-04-25T16:21:32Z</time>
      </trkpt>
      <trkpt lat="43.64953" lon="1.37955">
        <ele>148</ele>
        <time>2024-04-25T16:21:33Z</time>
      </trkpt>
      <trkpt lat="43.64954" lon="1.37958">
        <ele>148</ele>
        <time>2024-04-25T16:21:34Z</time>
      </trkpt>
      <trkpt lat="43.64955" lon="1.37962">
        <ele>148</ele>
        <time>2024-04-25T16:21:35Z</time>
      </trkpt>
      <trkpt lat="43.64955" lon="1.37962">
        <ele>147</ele>
        <time>2024-04-25T16:21:36Z</time>
      </trkpt>
      <trkpt lat="43.64956" lon="1.37969">
        <ele>147</ele>
        <time>2024-04-25T16:21:37Z</time>
      </trkpt>
      <trkpt lat="43.64956" lon="1.37969">
        <ele>147</ele>
        <time>2024-04-25T16:21:38Z</time>
      </trkpt>
      <trkpt lat="43.64957" lon="1.37974">
        <ele>147</ele>
        <time>2024-04-25T16:21:39Z</time>
      </trkpt>
      <trkpt lat="43.64957" lon="1.37976">
        <ele>147</ele>
        <time>2024-04-25T16:21:40Z</time>
      </trkpt>
      <trkpt lat="43.64957" lon="1.3798">
        <ele>147</ele>
        <time>2024-04-25T16:21:41Z</time>
      </trkpt>
      <trkpt lat="43.64958" lon="1.37987">
        <ele>147</ele>
        <time>2024-04-25T16:21:42Z</time>
      </trkpt>
      <trkpt lat="43.64959" lon="1.3799">
        <ele>147</ele>
        <time>2024-04-25T16:21:43Z</time>
      </trkpt>
      <trkpt lat="43.6496" lon="1.37992">
        <ele>147</ele>
        <time>2024-04-25T16:21:44Z</time>
      </trkpt>
      <trkpt lat="43.64961" lon="1.37995">
        <ele>147</ele>
        <time>2024-04-25T16:21:45Z</time>
      </trkpt>
      <trkpt lat="43.64961" lon="1.37995">
        <ele>147</ele>
        <time>2024-04-25T16:21:46Z</time>
      </trkpt>
      <trkpt lat="43.64963" lon="1.37998">
        <ele>147</ele>
        <time>2024-04-25T16:21:47Z</time>
      </trkpt>
      <trkpt lat="43.64964" lon="1.38">
        <ele>147</ele>
        <time>2024-04-25T16:21:48Z</time>
      </trkpt>
      <trkpt lat="43.64966" lon="1.38006">
        <ele>147</ele>
        <time>2024-04-25T16:21:49Z</time>
      </trkpt>
      <trkpt lat="43.64967" lon="1.38009">
        <ele>147</ele>
        <time>2024-04-25T16:21:51Z</time>
      </trkpt>
      <trkpt lat="43.64969" lon="1.38015">
        <ele>147</ele>
        <time>2024-04-25T16:21:52Z</time>
      </trkpt>
      <trkpt lat="43.6497" lon="1.38018">
        <ele>147</ele>
        <time>2024-04-25T16:21:53Z</time>
      </trkpt>
      <trkpt lat="43.64971" lon="1.38021">
        <ele>147</ele>
        <time>2024-04-25T16:21:54Z</time>
      </trkpt>
      <trkpt lat="43.64971" lon="1.38021">
        <ele>147</ele>
        <time>2024-04-25T16:21:55Z</time>
      </trkpt>
      <trkpt lat="43.64973" lon="1.38027">
        <ele>147</ele>
        <time>2024-04-25T16:21:56Z</time>
      </trkpt>
      <trkpt lat="43.64973" lon="1.38027">
        <ele>147</ele>
        <time>2024-04-25T16:21:57Z</time>
      </trkpt>
      <trkpt lat="43.64974" lon="1.38033">
        <ele>147</ele>
        <time>2024-04-25T16:21:58Z</time>
      </trkpt>
      <trkpt lat="43.64974" lon="1.38033">
        <ele>147</ele>
        <time>2024-04-25T16:21:59Z</time>
      </trkpt>
      <trkpt lat="43.64976" lon="1.38038">
        <ele>147</ele>
        <time>2024-04-25T16:22:00Z</time>
      </trkpt>
      <trkpt lat="43.64977" lon="1.38041">
        <ele>147</ele>
        <time>2024-04-25T16:22:02Z</time>
      </trkpt>
      <trkpt lat="43.64979" lon="1.38048">
        <ele>147</ele>
        <time>2024-04-25T16:22:03Z</time>
      </trkpt>
      <trkpt lat="43.6498" lon="1.38051">
        <ele>148</ele>
        <time>2024-04-25T16:22:04Z</time>
      </trkpt>
      <trkpt lat="43.64981" lon="1.38054">
        <ele>148</ele>
        <time>2024-04-25T16:22:05Z</time>
      </trkpt>
      <trkpt lat="43.64982" lon="1.38057">
        <ele>148</ele>
        <time>2024-04-25T16:22:06Z</time>
      </trkpt>
      <trkpt lat="43.64982" lon="1.38057">
        <ele>148</ele>
        <time>2024-04-25T16:22:07Z</time>
      </trkpt>
      <trkpt lat="43.64984" lon="1.38063">
        <ele>148</ele>
        <time>2024-04-25T16:22:08Z</time>
      </trkpt>
      <trkpt lat="43.64984" lon="1.38065">
        <ele>148</ele>
        <time>2024-04-25T16:22:10Z</time>
      </trkpt>
      <trkpt lat="43.64986" lon="1.38071">
        <ele>148</ele>
        <time>2024-04-25T16:22:11Z</time>
      </trkpt>
      <trkpt lat="43.64986" lon="1.38071">
        <ele>148</ele>
        <time>2024-04-25T16:22:12Z</time>
      </trkpt>
      <trkpt lat="43.64988" lon="1.38077">
        <ele>148</ele>
        <time>2024-04-25T16:22:13Z</time>
      </trkpt>
      <trkpt lat="43.64988" lon="1.38077">
        <ele>148</ele>
        <time>2024-04-25T16:22:14Z</time>
      </trkpt>
      <trkpt lat="43.6499" lon="1.38083">
        <ele>148</ele>
        <time>2024-04-25T16:22:15Z</time>
      </trkpt>
      <trkpt lat="43.6499" lon="1.38083">
        <ele>148</ele>
        <time>2024-04-25T16:22:16Z</time>
      </trkpt>
      <trkpt lat="43.64991" lon="1.38086">
        <ele>148</ele>
        <time>2024-04-25T16:22:17Z</time>
      </trkpt>
      <trkpt lat="43.64993" lon="1.38092">
        <ele>148</ele>
        <time>2024-04-25T16:22:18Z</time>
      </trkpt>
      <trkpt lat="43.64993" lon="1.38092">
        <ele>148</ele>
        <time>2024-04-25T16:22:19Z</time>
      </trkpt>
      <trkpt lat="43.64995" lon="1.38098">
        <ele>148</ele>
        <time>2024-04-25T16:22:20Z</time>
      </trkpt>
      <trkpt lat="43.64995" lon="1.38098">
        <ele>148</ele>
        <time>2024-04-25T16:22:21Z</time>
      </trkpt>
      <trkpt lat="43.64997" lon="1.38104">
        <ele>148</ele>
        <time>2024-04-25T16:22:22Z</time>
      </trkpt>
      <trkpt lat="43.64998" lon="1.38107">
        <ele>148</ele>
        <time>2024-04-25T16:22:23Z</time>
      </trkpt>
      <trkpt lat="43.64998" lon="1.38107">
        <ele>148</ele>
        <time>2024-04-25T16:22:24Z</time>
      </trkpt>
      <trkpt lat="43.65001" lon="1.38113">
        <ele>148</ele>
        <time>2024-04-25T16:22:25Z</time>
      </trkpt>
      <trkpt lat="43.65001" lon="1.38113">
        <ele>148</ele>
        <time>2024-04-25T16:22:26Z</time>
      </trkpt>
      <trkpt lat="43.65003" lon="1.38119">
        <ele>148</ele>
        <time>2024-04-25T16:22:27Z</time>
      </trkpt>
      <trkpt lat="43.65007" lon="1.38126">
        <ele>148</ele>
        <time>2024-04-25T16:22:29Z</time>
      </trkpt>
      <trkpt lat="43.65008" lon="1.3813">
        <ele>148</ele>
        <time>2024-04-25T16:22:30Z</time>
      </trkpt>
      <trkpt lat="43.65009" lon="1.38133">
        <ele>148</ele>
        <time>2024-04-25T16:22:31Z</time>
      </trkpt>
      <trkpt lat="43.65011" lon="1.38137">
        <ele>148</ele>
        <time>2024-04-25T16:22:32Z</time>
      </trkpt>
      <trkpt lat="43.65013" lon="1.38141">
        <ele>148</ele>
        <time>2024-04-25T16:22:33Z</time>
      </trkpt>
      <trkpt lat="43.65013" lon="1.38141">
        <ele>148</ele>
        <time>2024-04-25T16:22:34Z</time>
      </trkpt>
      <trkpt lat="43.65013" lon="1.38148">
        <ele>148</ele>
        <time>2024-04-25T16:22:35Z</time>
      </trkpt>
      <trkpt lat="43.65012" lon="1.38152">
        <ele>149</ele>
        <time>2024-04-25T16:22:36Z</time>
      </trkpt>
      <trkpt lat="43.65011" lon="1.38155">
        <ele>149</ele>
        <time>2024-04-25T16:22:37Z</time>
      </trkpt>
      <trkpt lat="43.6501" lon="1.38158">
        <ele>149</ele>
        <time>2024-04-25T16:22:38Z</time>
      </trkpt>
      <trkpt lat="43.6501" lon="1.38158">
        <ele>149</ele>
        <time>2024-04-25T16:22:39Z</time>
      </trkpt>
      <trkpt lat="43.65008" lon="1.38164">
        <ele>149</ele>
        <time>2024-04-25T16:22:40Z</time>
      </trkpt>
      <trkpt lat="43.65008" lon="1.38168">
        <ele>149</ele>
        <time>2024-04-25T16:22:41Z</time>
      </trkpt>
      <trkpt lat="43.65008" lon="1.38168">
        <ele>149</ele>
        <time>2024-04-25T16:22:42Z</time>
      </trkpt>
      <trkpt lat="43.65007" lon="1.38171">
        <ele>149</ele>
        <time>2024-04-25T16:22:43Z</time>
      </trkpt>
      <trkpt lat="43.65007" lon="1.38174">
        <ele>149</ele>
        <time>2024-04-25T16:22:44Z</time>
      </trkpt>
      <trkpt lat="43.65007" lon="1.3818">
        <ele>149</ele>
        <time>2024-04-25T16:22:45Z</time>
      </trkpt>
      <trkpt lat="43.65008" lon="1.38183">
        <ele>148</ele>
        <time>2024-04-25T16:22:46Z</time>
      </trkpt>
      <trkpt lat="43.65009" lon="1.38186">
        <ele>148</ele>
        <time>2024-04-25T16:22:48Z</time>
      </trkpt>
      <trkpt lat="43.65012" lon="1.3819">
        <ele>148</ele>
        <time>2024-04-25T16:22:49Z</time>
      </trkpt>
      <trkpt lat="43.65012" lon="1.3819">
        <ele>149</ele>
        <time>2024-04-25T16:22:50Z</time>
      </trkpt>
      <trkpt lat="43.65014" lon="1.38196">
        <ele>149</ele>
        <time>2024-04-25T16:22:51Z</time>
      </trkpt>
      <trkpt lat="43.65016" lon="1.38198">
        <ele>149</ele>
        <time>2024-04-25T16:22:52Z</time>
      </trkpt>
      <trkpt lat="43.65017" lon="1.38201">
        <ele>149</ele>
        <time>2024-04-25T16:22:53Z</time>
      </trkpt>
      <trkpt lat="43.65018" lon="1.38204">
        <ele>149</ele>
        <time>2024-04-25T16:22:54Z</time>
      </trkpt>
      <trkpt lat="43.65018" lon="1.38204">
        <ele>149</ele>
        <time>2024-04-25T16:22:55Z</time>
      </trkpt>
      <trkpt lat="43.6502" lon="1.38211">
        <ele>149</ele>
        <time>2024-04-25T16:22:56Z</time>
      </trkpt>
      <trkpt lat="43.65021" lon="1.38214">
        <ele>149</ele>
        <time>2024-04-25T16:22:57Z</time>
      </trkpt>
      <trkpt lat="43.65022" lon="1.38217">
        <ele>149</ele>
        <time>2024-04-25T16:22:58Z</time>
      </trkpt>
      <trkpt lat="43.65023" lon="1.38221">
        <ele>149</ele>
        <time>2024-04-25T16:22:59Z</time>
      </trkpt>
      <trkpt lat="43.65023" lon="1.38221">
        <ele>149</ele>
        <time>2024-04-25T16:23:00Z</time>
      </trkpt>
      <trkpt lat="43.65024" lon="1.38225">
        <ele>149</ele>
        <time>2024-04-25T16:23:01Z</time>
      </trkpt>
      <trkpt lat="43.65025" lon="1.38227">
        <ele>149</ele>
        <time>2024-04-25T16:23:02Z</time>
      </trkpt>
      <trkpt lat="43.65027" lon="1.38232">
        <ele>149</ele>
        <time>2024-04-25T16:23:03Z</time>
      </trkpt>
      <trkpt lat="43.65027" lon="1.38232">
        <ele>149</ele>
        <time>2024-04-25T16:23:04Z</time>
      </trkpt>
      <trkpt lat="43.65028" lon="1.38235">
        <ele>149</ele>
        <time>2024-04-25T16:23:05Z</time>
      </trkpt>
      <trkpt lat="43.65028" lon="1.38235">
        <ele>149</ele>
        <time>2024-04-25T16:23:07Z</time>
      </trkpt>
      <trkpt lat="43.65028" lon="1.38235">
        <ele>149</ele>
        <time>2024-04-25T16:23:08Z</time>
      </trkpt>
      <trkpt lat="43.65029" lon="1.38238">
        <ele>149</ele>
        <time>2024-04-25T16:23:09Z</time>
      </trkpt>
      <trkpt lat="43.65029" lon="1.38238">
        <ele>149</ele>
        <time>2024-04-25T16:23:10Z</time>
      </trkpt>
      <trkpt lat="43.65029" lon="1.38238">
        <ele>149</ele>
        <time>2024-04-25T16:23:11Z</time>
      </trkpt>
      <trkpt lat="43.65031" lon="1.38246">
        <ele>149</ele>
        <time>2024-04-25T16:23:12Z</time>
      </trkpt>
      <trkpt lat="43.65032" lon="1.3825">
        <ele>149</ele>
        <time>2024-04-25T16:23:13Z</time>
      </trkpt>
      <trkpt lat="43.65032" lon="1.3825">
        <ele>149</ele>
        <time>2024-04-25T16:23:14Z</time>
      </trkpt>
      <trkpt lat="43.65034" lon="1.38254">
        <ele>149</ele>
        <time>2024-04-25T16:23:15Z</time>
      </trkpt>
      <trkpt lat="43.65036" lon="1.38261">
        <ele>149</ele>
        <time>2024-04-25T16:23:16Z</time>
      </trkpt>
      <trkpt lat="43.65037" lon="1.38264">
        <ele>149</ele>
        <time>2024-04-25T16:23:17Z</time>
      </trkpt>
      <trkpt lat="43.65037" lon="1.38264">
        <ele>149</ele>
        <time>2024-04-25T16:23:18Z</time>
      </trkpt>
      <trkpt lat="43.6504" lon="1.38271">
        <ele>149</ele>
        <time>2024-04-25T16:23:19Z</time>
      </trkpt>
      <trkpt lat="43.6504" lon="1.38271">
        <ele>149</ele>
        <time>2024-04-25T16:23:20Z</time>
      </trkpt>
      <trkpt lat="43.65042" lon="1.38277">
        <ele>149</ele>
        <time>2024-04-25T16:23:21Z</time>
      </trkpt>
      <trkpt lat="43.65044" lon="1.3828">
        <ele>149</ele>
        <time>2024-04-25T16:23:22Z</time>
      </trkpt>
      <trkpt lat="43.65044" lon="1.3828">
        <ele>149</ele>
        <time>2024-04-25T16:23:23Z</time>
      </trkpt>
      <trkpt lat="43.65045" lon="1.38284">
        <ele>149</ele>
        <time>2024-04-25T16:23:24Z</time>
      </trkpt>
      <trkpt lat="43.65046" lon="1.38289">
        <ele>149</ele>
        <time>2024-04-25T16:23:25Z</time>
      </trkpt>
      <trkpt lat="43.65046" lon="1.3829">
        <ele>150</ele>
        <time>2024-04-25T16:23:26Z</time>
      </trkpt>
      <trkpt lat="43.65047" lon="1.38293">
        <ele>150</ele>
        <time>2024-04-25T16:23:27Z</time>
      </trkpt>
      <trkpt lat="43.65048" lon="1.38297">
        <ele>149</ele>
        <time>2024-04-25T16:23:28Z</time>
      </trkpt>
      <trkpt lat="43.6505" lon="1.38304">
        <ele>149</ele>
        <time>2024-04-25T16:23:29Z</time>
      </trkpt>
      <trkpt lat="43.65051" lon="1.38308">
        <ele>149</ele>
        <time>2024-04-25T16:23:30Z</time>
      </trkpt>
      <trkpt lat="43.65051" lon="1.38308">
        <ele>149</ele>
        <time>2024-04-25T16:23:31Z</time>
      </trkpt>
      <trkpt lat="43.65052" lon="1.38315">
        <ele>149</ele>
        <time>2024-04-25T16:23:32Z</time>
      </trkpt>
      <trkpt lat="43.65053" lon="1.38318">
        <ele>149</ele>
        <time>2024-04-25T16:23:33Z</time>
      </trkpt>
      <trkpt lat="43.65054" lon="1.38322">
        <ele>149</ele>
        <time>2024-04-25T16:23:34Z</time>
      </trkpt>
      <trkpt lat="43.65054" lon="1.38322">
        <ele>149</ele>
        <time>2024-04-25T16:23:35Z</time>
      </trkpt>
      <trkpt lat="43.65056" lon="1.38329">
        <ele>149</ele>
        <time>2024-04-25T16:23:36Z</time>
      </trkpt>
      <trkpt lat="43.65056" lon="1.38329">
        <ele>149</ele>
        <time>2024-04-25T16:23:37Z</time>
      </trkpt>
      <trkpt lat="43.65059" lon="1.38335">
        <ele>149</ele>
        <time>2024-04-25T16:23:38Z</time>
      </trkpt>
      <trkpt lat="43.65059" lon="1.38338">
        <ele>149</ele>
        <time>2024-04-25T16:23:39Z</time>
      </trkpt>
      <trkpt lat="43.65059" lon="1.38338">
        <ele>149</ele>
        <time>2024-04-25T16:23:40Z</time>
      </trkpt>
      <trkpt lat="43.6506" lon="1.38342">
        <ele>149</ele>
        <time>2024-04-25T16:23:41Z</time>
      </trkpt>
      <trkpt lat="43.65061" lon="1.38345">
        <ele>149</ele>
        <time>2024-04-25T16:23:42Z</time>
      </trkpt>
      <trkpt lat="43.65062" lon="1.38352">
        <ele>149</ele>
        <time>2024-04-25T16:23:43Z</time>
      </trkpt>
      <trkpt lat="43.65063" lon="1.38354">
        <ele>149</ele>
        <time>2024-04-25T16:23:45Z</time>
      </trkpt>
      <trkpt lat="43.65064" lon="1.38358">
        <ele>149</ele>
        <time>2024-04-25T16:23:46Z</time>
      </trkpt>
      <trkpt lat="43.65065" lon="1.38361">
        <ele>149</ele>
        <time>2024-04-25T16:23:47Z</time>
      </trkpt>
      <trkpt lat="43.65068" lon="1.38368">
        <ele>149</ele>
        <time>2024-04-25T16:23:48Z</time>
      </trkpt>
      <trkpt lat="43.65069" lon="1.38371">
        <ele>149</ele>
        <time>2024-04-25T16:23:49Z</time>
      </trkpt>
      <trkpt lat="43.6507" lon="1.38374">
        <ele>149</ele>
        <time>2024-04-25T16:23:50Z</time>
      </trkpt>
      <trkpt lat="43.6507" lon="1.38374">
        <ele>149</ele>
        <time>2024-04-25T16:23:51Z</time>
      </trkpt>
      <trkpt lat="43.65071" lon="1.38378">
        <ele>149</ele>
        <time>2024-04-25T16:23:52Z</time>
      </trkpt>
      <trkpt lat="43.65072" lon="1.38381">
        <ele>149</ele>
        <time>2024-04-25T16:23:53Z</time>
      </trkpt>
      <trkpt lat="43.65073" lon="1.38385">
        <ele>149</ele>
        <time>2024-04-25T16:23:54Z</time>
      </trkpt>
      <trkpt lat="43.65075" lon="1.38392">
        <ele>149</ele>
        <time>2024-04-25T16:23:55Z</time>
      </trkpt>
      <trkpt lat="43.65075" lon="1.38392">
        <ele>149</ele>
        <time>2024-04-25T16:23:56Z</time>
      </trkpt>
      <trkpt lat="43.65078" lon="1.38399">
        <ele>149</ele>
        <time>2024-04-25T16:23:57Z</time>
      </trkpt>
      <trkpt lat="43.65078" lon="1.38399">
        <ele>149</ele>
        <time>2024-04-25T16:23:58Z</time>
      </trkpt>
      <trkpt lat="43.6508" lon="1.38405">
        <ele>149</ele>
        <time>2024-04-25T16:23:59Z</time>
      </trkpt>
      <trkpt lat="43.65081" lon="1.38408">
        <ele>149</ele>
        <time>2024-04-25T16:24:00Z</time>
      </trkpt>
      <trkpt lat="43.65081" lon="1.38408">
        <ele>149</ele>
        <time>2024-04-25T16:24:01Z</time>
      </trkpt>
      <trkpt lat="43.65082" lon="1.38414">
        <ele>149</ele>
        <time>2024-04-25T16:24:02Z</time>
      </trkpt>
      <trkpt lat="43.65083" lon="1.38417">
        <ele>149</ele>
        <time>2024-04-25T16:24:04Z</time>
      </trkpt>
      <trkpt lat="43.65085" lon="1.38424">
        <ele>149</ele>
        <time>2024-04-25T16:24:05Z</time>
      </trkpt>
      <trkpt lat="43.65085" lon="1.38424">
        <ele>149</ele>
        <time>2024-04-25T16:24:06Z</time>
      </trkpt>
      <trkpt lat="43.65087" lon="1.3843">
        <ele>149</ele>
        <time>2024-04-25T16:24:07Z</time>
      </trkpt>
      <trkpt lat="43.65088" lon="1.38434">
        <ele>149</ele>
        <time>2024-04-25T16:24:08Z</time>
      </trkpt>
      <trkpt lat="43.65088" lon="1.38434">
        <ele>149</ele>
        <time>2024-04-25T16:24:09Z</time>
      </trkpt>
      <trkpt lat="43.65089" lon="1.38437">
        <ele>149</ele>
        <time>2024-04-25T16:24:10Z</time>
      </trkpt>
      <trkpt lat="43.65091" lon="1.38443">
        <ele>149</ele>
        <time>2024-04-25T16:24:11Z</time>
      </trkpt>
      <trkpt lat="43.65091" lon="1.38443">
        <ele>149</ele>
        <time>2024-04-25T16:24:12Z</time>
      </trkpt>
      <trkpt lat="43.65093" lon="1.38449">
        <ele>149</ele>
        <time>2024-04-25T16:24:13Z</time>
      </trkpt>
      <trkpt lat="43.65094" lon="1.38452">
        <ele>149</ele>
        <time>2024-04-25T16:24:14Z</time>
      </trkpt>
      <trkpt lat="43.65094" lon="1.38452">
        <ele>149</ele>
        <time>2024-04-25T16:24:15Z</time>
      </trkpt>
      <trkpt lat="43.65096" lon="1.38456">
        <ele>149</ele>
        <time>2024-04-25T16:24:16Z</time>
      </trkpt>
      <trkpt lat="43.65097" lon="1.38462">
        <ele>149</ele>
        <time>2024-04-25T16:24:17Z</time>
      </trkpt>
      <trkpt lat="43.65098" lon="1.38465">
        <ele>149</ele>
        <time>2024-04-25T16:24:18Z</time>
      </trkpt>
      <trkpt lat="43.65098" lon="1.38465">
        <ele>149</ele>
        <time>2024-04-25T16:24:19Z</time>
      </trkpt>
      <trkpt lat="43.65101" lon="1.38471">
        <ele>149</ele>
        <time>2024-04-25T16:24:20Z</time>
      </trkpt>
      <trkpt lat="43.65101" lon="1.38471">
        <ele>149</ele>
        <time>2024-04-25T16:24:21Z</time>
      </trkpt>
      <trkpt lat="43.65101" lon="1.38475">
        <ele>149</ele>
        <time>2024-04-25T16:24:22Z</time>
      </trkpt>
      <trkpt lat="43.65102" lon="1.38478">
        <ele>149</ele>
        <time>2024-04-25T16:24:23Z</time>
      </trkpt>
      <trkpt lat="43.65104" lon="1.38485">
        <ele>149</ele>
        <time>2024-04-25T16:24:24Z</time>
      </trkpt>
      <trkpt lat="43.65105" lon="1.38488">
        <ele>148</ele>
        <time>2024-04-25T16:24:25Z</time>
      </trkpt>
      <trkpt lat="43.65107" lon="1.38494">
        <ele>147</ele>
        <time>2024-04-25T16:24:27Z</time>
      </trkpt>
      <trkpt lat="43.65109" lon="1.38497">
        <ele>147</ele>
        <time>2024-04-25T16:24:28Z</time>
      </trkpt>
      <trkpt lat="43.6511" lon="1.38501">
        <ele>147</ele>
        <time>2024-04-25T16:24:29Z</time>
      </trkpt>
      <trkpt lat="43.6511" lon="1.38505">
        <ele>147</ele>
        <time>2024-04-25T16:24:30Z</time>
      </trkpt>
      <trkpt lat="43.6511" lon="1.38505">
        <ele>147</ele>
        <time>2024-04-25T16:24:31Z</time>
      </trkpt>
      <trkpt lat="43.6511" lon="1.38512">
        <ele>147</ele>
        <time>2024-04-25T16:24:32Z</time>
      </trkpt>
      <trkpt lat="43.65107" lon="1.38519">
        <ele>147</ele>
        <time>2024-04-25T16:24:34Z</time>
      </trkpt>
      <trkpt lat="43.65107" lon="1.38522">
        <ele>147</ele>
        <time>2024-04-25T16:24:35Z</time>
      </trkpt>
      <trkpt lat="43.65107" lon="1.38522">
        <ele>147</ele>
        <time>2024-04-25T16:24:36Z</time>
      </trkpt>
      <trkpt lat="43.65105" lon="1.38529">
        <ele>147</ele>
        <time>2024-04-25T16:24:37Z</time>
      </trkpt>
      <trkpt lat="43.65106" lon="1.38533">
        <ele>147</ele>
        <time>2024-04-25T16:24:38Z</time>
      </trkpt>
      <trkpt lat="43.65106" lon="1.38533">
        <ele>147</ele>
        <time>2024-04-25T16:24:39Z</time>
      </trkpt>
      <trkpt lat="43.6511" lon="1.38538">
        <ele>147</ele>
        <time>2024-04-25T16:24:40Z</time>
      </trkpt>
      <trkpt lat="43.65113" lon="1.3854">
        <ele>147</ele>
        <time>2024-04-25T16:24:42Z</time>
      </trkpt>
      <trkpt lat="43.65114" lon="1.38541">
        <ele>148</ele>
        <time>2024-04-25T16:24:43Z</time>
      </trkpt>
      <trkpt lat="43.65119" lon="1.38543">
        <ele>148</ele>
        <time>2024-04-25T16:24:44Z</time>
      </trkpt>
      <trkpt lat="43.65119" lon="1.38543">
        <ele>147</ele>
        <time>2024-04-25T16:24:45Z</time>
      </trkpt>
      <trkpt lat="43.65124" lon="1.38547">
        <ele>147</ele>
        <time>2024-04-25T16:24:46Z</time>
      </trkpt>
      <trkpt lat="43.65126" lon="1.3855">
        <ele>147</ele>
        <time>2024-04-25T16:24:47Z</time>
      </trkpt>
      <trkpt lat="43.65126" lon="1.3855">
        <ele>147</ele>
        <time>2024-04-25T16:24:48Z</time>
      </trkpt>
      <trkpt lat="43.65128" lon="1.38557">
        <ele>147</ele>
        <time>2024-04-25T16:24:49Z</time>
      </trkpt>
      <trkpt lat="43.65128" lon="1.38557">
        <ele>147</ele>
        <time>2024-04-25T16:24:50Z</time>
      </trkpt>
      <trkpt lat="43.6513" lon="1.38564">
        <ele>147</ele>
        <time>2024-04-25T16:24:51Z</time>
      </trkpt>
      <trkpt lat="43.6513" lon="1.38564">
        <ele>147</ele>
        <time>2024-04-25T16:24:52Z</time>
      </trkpt>
      <trkpt lat="43.65131" lon="1.38567">
        <ele>147</ele>
        <time>2024-04-25T16:24:53Z</time>
      </trkpt>
      <trkpt lat="43.65133" lon="1.38575">
        <ele>147</ele>
        <time>2024-04-25T16:24:54Z</time>
      </trkpt>
      <trkpt lat="43.65133" lon="1.38575">
        <ele>147</ele>
        <time>2024-04-25T16:24:55Z</time>
      </trkpt>
      <trkpt lat="43.65134" lon="1.38582">
        <ele>147</ele>
        <time>2024-04-25T16:24:56Z</time>
      </trkpt>
      <trkpt lat="43.65134" lon="1.38582">
        <ele>147</ele>
        <time>2024-04-25T16:24:57Z</time>
      </trkpt>
      <trkpt lat="43.65135" lon="1.38586">
        <ele>147</ele>
        <time>2024-04-25T16:24:58Z</time>
      </trkpt>
      <trkpt lat="43.65136" lon="1.38589">
        <ele>147</ele>
        <time>2024-04-25T16:24:59Z</time>
      </trkpt>
      <trkpt lat="43.65137" lon="1.38594">
        <ele>147</ele>
        <time>2024-04-25T16:25:00Z</time>
      </trkpt>
      <trkpt lat="43.65137" lon="1.38596">
        <ele>147</ele>
        <time>2024-04-25T16:25:01Z</time>
      </trkpt>
      <trkpt lat="43.65139" lon="1.38603">
        <ele>147</ele>
        <time>2024-04-25T16:25:02Z</time>
      </trkpt>
      <trkpt lat="43.65139" lon="1.38603">
        <ele>146</ele>
        <time>2024-04-25T16:25:03Z</time>
      </trkpt>
      <trkpt lat="43.6514" lon="1.38606">
        <ele>146</ele>
        <time>2024-04-25T16:25:04Z</time>
      </trkpt>
      <trkpt lat="43.65141" lon="1.38609">
        <ele>146</ele>
        <time>2024-04-25T16:25:05Z</time>
      </trkpt>
      <trkpt lat="43.65142" lon="1.38613">
        <ele>146</ele>
        <time>2024-04-25T16:25:06Z</time>
      </trkpt>
      <trkpt lat="43.65144" lon="1.38619">
        <ele>146</ele>
        <time>2024-04-25T16:25:07Z</time>
      </trkpt>
      <trkpt lat="43.65145" lon="1.38622">
        <ele>146</ele>
        <time>2024-04-25T16:25:08Z</time>
      </trkpt>
      <trkpt lat="43.65147" lon="1.38625">
        <ele>146</ele>
        <time>2024-04-25T16:25:09Z</time>
      </trkpt>
      <trkpt lat="43.65147" lon="1.38625">
        <ele>146</ele>
        <time>2024-04-25T16:25:10Z</time>
      </trkpt>
      <trkpt lat="43.65148" lon="1.38628">
        <ele>146</ele>
        <time>2024-04-25T16:25:11Z</time>
      </trkpt>
      <trkpt lat="43.65149" lon="1.38631">
        <ele>146</ele>
        <time>2024-04-25T16:25:12Z</time>
      </trkpt>
      <trkpt lat="43.6515" lon="1.38634">
        <ele>146</ele>
        <time>2024-04-25T16:25:13Z</time>
      </trkpt>
      <trkpt lat="43.65151" lon="1.38641">
        <ele>146</ele>
        <time>2024-04-25T16:25:14Z</time>
      </trkpt>
      <trkpt lat="43.65152" lon="1.38644">
        <ele>146</ele>
        <time>2024-04-25T16:25:15Z</time>
      </trkpt>
      <trkpt lat="43.65154" lon="1.38647">
        <ele>146</ele>
        <time>2024-04-25T16:25:16Z</time>
      </trkpt>
      <trkpt lat="43.65155" lon="1.3865">
        <ele>146</ele>
        <time>2024-04-25T16:25:17Z</time>
      </trkpt>
      <trkpt lat="43.65155" lon="1.3865">
        <ele>146</ele>
        <time>2024-04-25T16:25:18Z</time>
      </trkpt>
      <trkpt lat="43.65156" lon="1.38653">
        <ele>146</ele>
        <time>2024-04-25T16:25:19Z</time>
      </trkpt>
      <trkpt lat="43.65157" lon="1.38656">
        <ele>146</ele>
        <time>2024-04-25T16:25:20Z</time>
      </trkpt>
      <trkpt lat="43.65158" lon="1.3866">
        <ele>146</ele>
        <time>2024-04-25T16:25:21Z</time>
      </trkpt>
      <trkpt lat="43.65159" lon="1.38663">
        <ele>146</ele>
        <time>2024-04-25T16:25:22Z</time>
      </trkpt>
      <trkpt lat="43.65161" lon="1.3867">
        <ele>146</ele>
        <time>2024-04-25T16:25:23Z</time>
      </trkpt>
      <trkpt lat="43.65162" lon="1.38672">
        <ele>146</ele>
        <time>2024-04-25T16:25:24Z</time>
      </trkpt>
      <trkpt lat="43.65162" lon="1.38672">
        <ele>146</ele>
        <time>2024-04-25T16:25:25Z</time>
      </trkpt>
      <trkpt lat="43.65164" lon="1.38678">
        <ele>146</ele>
        <time>2024-04-25T16:25:26Z</time>
      </trkpt>
      <trkpt lat="43.65164" lon="1.38678">
        <ele>146</ele>
        <time>2024-04-25T16:25:27Z</time>
      </trkpt>
      <trkpt lat="43.65166" lon="1.38684">
        <ele>146</ele>
        <time>2024-04-25T16:25:28Z</time>
      </trkpt>
      <trkpt lat="43.65166" lon="1.38684">
        <ele>146</ele>
        <time>2024-04-25T16:25:29Z</time>
      </trkpt>
      <trkpt lat="43.65167" lon="1.38687">
        <ele>146</ele>
        <time>2024-04-25T16:25:30Z</time>
      </trkpt>
      <trkpt lat="43.6517" lon="1.38693">
        <ele>146</ele>
        <time>2024-04-25T16:25:31Z</time>
      </trkpt>
      <trkpt lat="43.6517" lon="1.38693">
        <ele>147</ele>
        <time>2024-04-25T16:25:32Z</time>
      </trkpt>
      <trkpt lat="43.65173" lon="1.38699">
        <ele>147</ele>
        <time>2024-04-25T16:25:33Z</time>
      </trkpt>
      <trkpt lat="43.65173" lon="1.38699">
        <ele>147</ele>
        <time>2024-04-25T16:25:34Z</time>
      </trkpt>
      <trkpt lat="43.65176" lon="1.38705">
        <ele>147</ele>
        <time>2024-04-25T16:25:35Z</time>
      </trkpt>
      <trkpt lat="43.65177" lon="1.38708">
        <ele>147</ele>
        <time>2024-04-25T16:25:36Z</time>
      </trkpt>
      <trkpt lat="43.65177" lon="1.38708">
        <ele>147</ele>
        <time>2024-04-25T16:25:37Z</time>
      </trkpt>
      <trkpt lat="43.6518" lon="1.38714">
        <ele>147</ele>
        <time>2024-04-25T16:25:38Z</time>
      </trkpt>
      <trkpt lat="43.65181" lon="1.38717">
        <ele>147</ele>
        <time>2024-04-25T16:25:39Z</time>
      </trkpt>
      <trkpt lat="43.65183" lon="1.38723">
        <ele>147</ele>
        <time>2024-04-25T16:25:41Z</time>
      </trkpt>
      <trkpt lat="43.65184" lon="1.38727">
        <ele>147</ele>
        <time>2024-04-25T16:25:42Z</time>
      </trkpt>
      <trkpt lat="43.65185" lon="1.3873">
        <ele>147</ele>
        <time>2024-04-25T16:25:43Z</time>
      </trkpt>
      <trkpt lat="43.65185" lon="1.3873">
        <ele>147</ele>
        <time>2024-04-25T16:25:44Z</time>
      </trkpt>
      <trkpt lat="43.65187" lon="1.38737">
        <ele>148</ele>
        <time>2024-04-25T16:25:45Z</time>
      </trkpt>
      <trkpt lat="43.65188" lon="1.3874">
        <ele>148</ele>
        <time>2024-04-25T16:25:46Z</time>
      </trkpt>
      <trkpt lat="43.65188" lon="1.3874">
        <ele>148</ele>
        <time>2024-04-25T16:25:47Z</time>
      </trkpt>
      <trkpt lat="43.65189" lon="1.38746">
        <ele>148</ele>
        <time>2024-04-25T16:25:48Z</time>
      </trkpt>
      <trkpt lat="43.65189" lon="1.38746">
        <ele>148</ele>
        <time>2024-04-25T16:25:49Z</time>
      </trkpt>
      <trkpt lat="43.65191" lon="1.38753">
        <ele>148</ele>
        <time>2024-04-25T16:25:50Z</time>
      </trkpt>
      <trkpt lat="43.65191" lon="1.38753">
        <ele>148</ele>
        <time>2024-04-25T16:25:51Z</time>
      </trkpt>
      <trkpt lat="43.65192" lon="1.38756">
        <ele>148</ele>
        <time>2024-04-25T16:25:52Z</time>
      </trkpt>
      <trkpt lat="43.65194" lon="1.38764">
        <ele>148</ele>
        <time>2024-04-25T16:25:53Z</time>
      </trkpt>
      <trkpt lat="43.65194" lon="1.38764">
        <ele>147</ele>
        <time>2024-04-25T16:25:54Z</time>
      </trkpt>
      <trkpt lat="43.65198" lon="1.38771">
        <ele>147</ele>
        <time>2024-04-25T16:25:55Z</time>
      </trkpt>
      <trkpt lat="43.65198" lon="1.38771">
        <ele>147</ele>
        <time>2024-04-25T16:25:56Z</time>
      </trkpt>
      <trkpt lat="43.652" lon="1.38773">
        <ele>147</ele>
        <time>2024-04-25T16:25:57Z</time>
      </trkpt>
      <trkpt lat="43.65202" lon="1.38776">
        <ele>147</ele>
        <time>2024-04-25T16:25:58Z</time>
      </trkpt>
      <trkpt lat="43.65206" lon="1.38781">
        <ele>147</ele>
        <time>2024-04-25T16:25:59Z</time>
      </trkpt>
      <trkpt lat="43.65207" lon="1.38784">
        <ele>147</ele>
        <time>2024-04-25T16:26:00Z</time>
      </trkpt>
      <trkpt lat="43.65209" lon="1.38787">
        <ele>147</ele>
        <time>2024-04-25T16:26:01Z</time>
      </trkpt>
      <trkpt lat="43.65211" lon="1.38789">
        <ele>147</ele>
        <time>2024-04-25T16:26:02Z</time>
      </trkpt>
      <trkpt lat="43.65212" lon="1.38792">
        <ele>147</ele>
        <time>2024-04-25T16:26:03Z</time>
      </trkpt>
      <trkpt lat="43.65212" lon="1.38792">
        <ele>146</ele>
        <time>2024-04-25T16:26:04Z</time>
      </trkpt>
      <trkpt lat="43.65216" lon="1.38797">
        <ele>146</ele>
        <time>2024-04-25T16:26:05Z</time>
      </trkpt>
      <trkpt lat="43.65216" lon="1.38797">
        <ele>146</ele>
        <time>2024-04-25T16:26:06Z</time>
      </trkpt>
      <trkpt lat="43.6522" lon="1.38802">
        <ele>146</ele>
        <time>2024-04-25T16:26:07Z</time>
      </trkpt>
      <trkpt lat="43.65222" lon="1.38805">
        <ele>146</ele>
        <time>2024-04-25T16:26:08Z</time>
      </trkpt>
      <trkpt lat="43.65223" lon="1.38807">
        <ele>146</ele>
        <time>2024-04-25T16:26:09Z</time>
      </trkpt>
      <trkpt lat="43.65225" lon="1.3881">
        <ele>146</ele>
        <time>2024-04-25T16:26:10Z</time>
      </trkpt>
      <trkpt lat="43.65225" lon="1.3881">
        <ele>147</ele>
        <time>2024-04-25T16:26:11Z</time>
      </trkpt>
      <trkpt lat="43.65228" lon="1.38815">
        <ele>147</ele>
        <time>2024-04-25T16:26:12Z</time>
      </trkpt>
      <trkpt lat="43.6523" lon="1.38818">
        <ele>147</ele>
        <time>2024-04-25T16:26:13Z</time>
      </trkpt>
      <trkpt lat="43.65231" lon="1.3882">
        <ele>146</ele>
        <time>2024-04-25T16:26:14Z</time>
      </trkpt>
      <trkpt lat="43.65231" lon="1.3882">
        <ele>146</ele>
        <time>2024-04-25T16:26:15Z</time>
      </trkpt>
      <trkpt lat="43.65234" lon="1.38824">
        <ele>146</ele>
        <time>2024-04-25T16:26:16Z</time>
      </trkpt>
      <trkpt lat="43.65235" lon="1.38825">
        <ele>145</ele>
        <time>2024-04-25T16:26:17Z</time>
      </trkpt>
      <trkpt lat="43.65237" lon="1.3883">
        <ele>145</ele>
        <time>2024-04-25T16:26:18Z</time>
      </trkpt>
      <trkpt lat="43.65238" lon="1.38831">
        <ele>145</ele>
        <time>2024-04-25T16:26:19Z</time>
      </trkpt>
      <trkpt lat="43.65242" lon="1.38835">
        <ele>144</ele>
        <time>2024-04-25T16:26:20Z</time>
      </trkpt>
      <trkpt lat="43.65244" lon="1.38838">
        <ele>144</ele>
        <time>2024-04-25T16:26:21Z</time>
      </trkpt>
      <trkpt lat="43.65244" lon="1.38838">
        <ele>144</ele>
        <time>2024-04-25T16:26:22Z</time>
      </trkpt>
      <trkpt lat="43.65246" lon="1.3884">
        <ele>144</ele>
        <time>2024-04-25T16:26:23Z</time>
      </trkpt>
      <trkpt lat="43.65247" lon="1.38843">
        <ele>144</ele>
        <time>2024-04-25T16:26:24Z</time>
      </trkpt>
      <trkpt lat="43.6525" lon="1.38848">
        <ele>144</ele>
        <time>2024-04-25T16:26:25Z</time>
      </trkpt>
      <trkpt lat="43.6525" lon="1.38848">
        <ele>145</ele>
        <time>2024-04-25T16:26:26Z</time>
      </trkpt>
      <trkpt lat="43.65254" lon="1.38853">
        <ele>145</ele>
        <time>2024-04-25T16:26:27Z</time>
      </trkpt>
      <trkpt lat="43.65254" lon="1.38853">
        <ele>145</ele>
        <time>2024-04-25T16:26:28Z</time>
      </trkpt>
      <trkpt lat="43.65256" lon="1.38858">
        <ele>144</ele>
        <time>2024-04-25T16:26:29Z</time>
      </trkpt>
      <trkpt lat="43.65258" lon="1.3886">
        <ele>144</ele>
        <time>2024-04-25T16:26:30Z</time>
      </trkpt>
      <trkpt lat="43.6526" lon="1.38863">
        <ele>144</ele>
        <time>2024-04-25T16:26:31Z</time>
      </trkpt>
      <trkpt lat="43.65262" lon="1.38865">
        <ele>143</ele>
        <time>2024-04-25T16:26:32Z</time>
      </trkpt>
      <trkpt lat="43.65262" lon="1.38865">
        <ele>143</ele>
        <time>2024-04-25T16:26:33Z</time>
      </trkpt>
      <trkpt lat="43.65265" lon="1.38869">
        <ele>143</ele>
        <time>2024-04-25T16:26:34Z</time>
      </trkpt>
      <trkpt lat="43.65266" lon="1.38872">
        <ele>143</ele>
        <time>2024-04-25T16:26:36Z</time>
      </trkpt>
      <trkpt lat="43.65269" lon="1.38877">
        <ele>143</ele>
        <time>2024-04-25T16:26:37Z</time>
      </trkpt>
      <trkpt lat="43.65269" lon="1.38877">
        <ele>143</ele>
        <time>2024-04-25T16:26:38Z</time>
      </trkpt>
      <trkpt lat="43.65273" lon="1.38881">
        <ele>143</ele>
        <time>2024-04-25T16:26:39Z</time>
      </trkpt>
      <trkpt lat="43.65274" lon="1.38883">
        <ele>142</ele>
        <time>2024-04-25T16:26:40Z</time>
      </trkpt>
      <trkpt lat="43.65274" lon="1.38883">
        <ele>142</ele>
        <time>2024-04-25T16:26:41Z</time>
      </trkpt>
      <trkpt lat="43.65276" lon="1.38886">
        <ele>142</ele>
        <time>2024-04-25T16:26:42Z</time>
      </trkpt>
      <trkpt lat="43.65278" lon="1.38889">
        <ele>141</ele>
        <time>2024-04-25T16:26:43Z</time>
      </trkpt>
      <trkpt lat="43.6528" lon="1.38895">
        <ele>141</ele>
        <time>2024-04-25T16:26:44Z</time>
      </trkpt>
      <trkpt lat="43.6528" lon="1.38895">
        <ele>141</ele>
        <time>2024-04-25T16:26:45Z</time>
      </trkpt>
      <trkpt lat="43.65283" lon="1.38901">
        <ele>141</ele>
        <time>2024-04-25T16:26:46Z</time>
      </trkpt>
      <trkpt lat="43.65283" lon="1.38901">
        <ele>141</ele>
        <time>2024-04-25T16:26:47Z</time>
      </trkpt>
      <trkpt lat="43.65287" lon="1.38907">
        <ele>141</ele>
        <time>2024-04-25T16:26:48Z</time>
      </trkpt>
      <trkpt lat="43.65289" lon="1.38909">
        <ele>140</ele>
        <time>2024-04-25T16:26:49Z</time>
      </trkpt>
      <trkpt lat="43.65289" lon="1.38909">
        <ele>140</ele>
        <time>2024-04-25T16:26:50Z</time>
      </trkpt>
      <trkpt lat="43.65293" lon="1.38913">
        <ele>140</ele>
        <time>2024-04-25T16:26:51Z</time>
      </trkpt>
      <trkpt lat="43.65293" lon="1.38913">
        <ele>140</ele>
        <time>2024-04-25T16:26:52Z</time>
      </trkpt>
      <trkpt lat="43.65298" lon="1.38915">
        <ele>140</ele>
        <time>2024-04-25T16:26:53Z</time>
      </trkpt>
      <trkpt lat="43.65303" lon="1.38919">
        <ele>139</ele>
        <time>2024-04-25T16:26:55Z</time>
      </trkpt>
      <trkpt lat="43.65305" lon="1.3892">
        <ele>139</ele>
        <time>2024-04-25T16:26:56Z</time>
      </trkpt>
      <trkpt lat="43.65309" lon="1.38922">
        <ele>139</ele>
        <time>2024-04-25T16:26:57Z</time>
      </trkpt>
      <trkpt lat="43.65311" lon="1.38924">
        <ele>138</ele>
        <time>2024-04-25T16:26:59Z</time>
      </trkpt>
      <trkpt lat="43.65314" lon="1.38927">
        <ele>138</ele>
        <time>2024-04-25T16:27:00Z</time>
      </trkpt>
      <trkpt lat="43.65318" lon="1.38934">
        <ele>138</ele>
        <time>2024-04-25T16:27:01Z</time>
      </trkpt>
      <trkpt lat="43.65318" lon="1.38934">
        <ele>137</ele>
        <time>2024-04-25T16:27:02Z</time>
      </trkpt>
      <trkpt lat="43.65321" lon="1.38943">
        <ele>136</ele>
        <time>2024-04-25T16:27:03Z</time>
      </trkpt>
      <trkpt lat="43.65321" lon="1.38943">
        <ele>135</ele>
        <time>2024-04-25T16:27:04Z</time>
      </trkpt>
      <trkpt lat="43.65323" lon="1.38952">
        <ele>135</ele>
        <time>2024-04-25T16:27:05Z</time>
      </trkpt>
      <trkpt lat="43.65324" lon="1.38956">
        <ele>134</ele>
        <time>2024-04-25T16:27:06Z</time>
      </trkpt>
      <trkpt lat="43.65324" lon="1.38961">
        <ele>134</ele>
        <time>2024-04-25T16:27:07Z</time>
      </trkpt>
      <trkpt lat="43.65326" lon="1.38965">
        <ele>133</ele>
        <time>2024-04-25T16:27:08Z</time>
      </trkpt>
      <trkpt lat="43.65327" lon="1.38969">
        <ele>133</ele>
        <time>2024-04-25T16:27:09Z</time>
      </trkpt>
      <trkpt lat="43.65328" lon="1.38973">
        <ele>132</ele>
        <time>2024-04-25T16:27:10Z</time>
      </trkpt>
      <trkpt lat="43.65328" lon="1.38973">
        <ele>132</ele>
        <time>2024-04-25T16:27:11Z</time>
      </trkpt>
      <trkpt lat="43.6533" lon="1.3898">
        <ele>132</ele>
        <time>2024-04-25T16:27:12Z</time>
      </trkpt>
      <trkpt lat="43.65332" lon="1.38984">
        <ele>132</ele>
        <time>2024-04-25T16:27:14Z</time>
      </trkpt>
      <trkpt lat="43.65335" lon="1.3899">
        <ele>132</ele>
        <time>2024-04-25T16:27:15Z</time>
      </trkpt>
      <trkpt lat="43.65335" lon="1.3899">
        <ele>131</ele>
        <time>2024-04-25T16:27:16Z</time>
      </trkpt>
      <trkpt lat="43.65333" lon="1.38999">
        <ele>131</ele>
        <time>2024-04-25T16:27:17Z</time>
      </trkpt>
      <trkpt lat="43.65332" lon="1.39003">
        <ele>131</ele>
        <time>2024-04-25T16:27:18Z</time>
      </trkpt>
      <trkpt lat="43.6533" lon="1.39006">
        <ele>131</ele>
        <time>2024-04-25T16:27:19Z</time>
      </trkpt>
      <trkpt lat="43.6533" lon="1.39006">
        <ele>130</ele>
        <time>2024-04-25T16:27:20Z</time>
      </trkpt>
      <trkpt lat="43.65329" lon="1.3901">
        <ele>129</ele>
        <time>2024-04-25T16:27:21Z</time>
      </trkpt>
      <trkpt lat="43.65326" lon="1.39018">
        <ele>129</ele>
        <time>2024-04-25T16:27:22Z</time>
      </trkpt>
      <trkpt lat="43.65324" lon="1.39022">
        <ele>129</ele>
        <time>2024-04-25T16:27:23Z</time>
      </trkpt>
      <trkpt lat="43.65323" lon="1.39026">
        <ele>129</ele>
        <time>2024-04-25T16:27:24Z</time>
      </trkpt>
      <trkpt lat="43.65321" lon="1.3903">
        <ele>129</ele>
        <time>2024-04-25T16:27:25Z</time>
      </trkpt>
      <trkpt lat="43.65321" lon="1.3903">
        <ele>129</ele>
        <time>2024-04-25T16:27:26Z</time>
      </trkpt>
      <trkpt lat="43.65319" lon="1.39034">
        <ele>129</ele>
        <time>2024-04-25T16:27:27Z</time>
      </trkpt>
      <trkpt lat="43.65317" lon="1.39037">
        <ele>129</ele>
        <time>2024-04-25T16:27:28Z</time>
      </trkpt>
      <trkpt lat="43.65313" lon="1.39041">
        <ele>129</ele>
        <time>2024-04-25T16:27:29Z</time>
      </trkpt>
      <trkpt lat="43.65312" lon="1.39043">
        <ele>129</ele>
        <time>2024-04-25T16:27:30Z</time>
      </trkpt>
      <trkpt lat="43.65305" lon="1.39045">
        <ele>129</ele>
        <time>2024-04-25T16:27:31Z</time>
      </trkpt>
      <trkpt lat="43.65302" lon="1.39046">
        <ele>129</ele>
        <time>2024-04-25T16:27:33Z</time>
      </trkpt>
      <trkpt lat="43.65299" lon="1.39045">
        <ele>129</ele>
        <time>2024-04-25T16:27:34Z</time>
      </trkpt>
      <trkpt lat="43.65296" lon="1.39044">
        <ele>129</ele>
        <time>2024-04-25T16:27:35Z</time>
      </trkpt>
      <trkpt lat="43.65289" lon="1.39042">
        <ele>129</ele>
        <time>2024-04-25T16:27:36Z</time>
      </trkpt>
      <trkpt lat="43.65286" lon="1.39042">
        <ele>129</ele>
        <time>2024-04-25T16:27:37Z</time>
      </trkpt>
      <trkpt lat="43.65283" lon="1.39041">
        <ele>129</ele>
        <time>2024-04-25T16:27:38Z</time>
      </trkpt>
      <trkpt lat="43.6528" lon="1.3904">
        <ele>129</ele>
        <time>2024-04-25T16:27:39Z</time>
      </trkpt>
      <trkpt lat="43.65278" lon="1.3904">
        <ele>129</ele>
        <time>2024-04-25T16:27:40Z</time>
      </trkpt>
      <trkpt lat="43.65278" lon="1.3904">
        <ele>129</ele>
        <time>2024-04-25T16:27:41Z</time>
      </trkpt>
      <trkpt lat="43.65275" lon="1.39039">
        <ele>129</ele>
        <time>2024-04-25T16:27:42Z</time>
      </trkpt>
      <trkpt lat="43.65269" lon="1.39038">
        <ele>129</ele>
        <time>2024-04-25T16:27:43Z</time>
      </trkpt>
      <trkpt lat="43.65269" lon="1.39038">
        <ele>129</ele>
        <time>2024-04-25T16:27:44Z</time>
      </trkpt>
      <trkpt lat="43.65263" lon="1.39038">
        <ele>129</ele>
        <time>2024-04-25T16:27:45Z</time>
      </trkpt>
      <trkpt lat="43.6526" lon="1.39037">
        <ele>129</ele>
        <time>2024-04-25T16:27:46Z</time>
      </trkpt>
      <trkpt lat="43.6526" lon="1.39037">
        <ele>129</ele>
        <time>2024-04-25T16:27:47Z</time>
      </trkpt>
      <trkpt lat="43.65255" lon="1.39037">
        <ele>129</ele>
        <time>2024-04-25T16:27:48Z</time>
      </trkpt>
      <trkpt lat="43.65255" lon="1.39037">
        <ele>130</ele>
        <time>2024-04-25T16:27:49Z</time>
      </trkpt>
      <trkpt lat="43.6525" lon="1.39035">
        <ele>130</ele>
        <time>2024-04-25T16:27:50Z</time>
      </trkpt>
      <trkpt lat="43.65247" lon="1.39034">
        <ele>129</ele>
        <time>2024-04-25T16:27:52Z</time>
      </trkpt>
      <trkpt lat="43.65244" lon="1.39033">
        <ele>129</ele>
        <time>2024-04-25T16:27:53Z</time>
      </trkpt>
      <trkpt lat="43.65241" lon="1.39032">
        <ele>129</ele>
        <time>2024-04-25T16:27:54Z</time>
      </trkpt>
      <trkpt lat="43.65236" lon="1.3903">
        <ele>129</ele>
        <time>2024-04-25T16:27:55Z</time>
      </trkpt>
      <trkpt lat="43.65233" lon="1.39029">
        <ele>129</ele>
        <time>2024-04-25T16:27:56Z</time>
      </trkpt>
      <trkpt lat="43.6523" lon="1.39028">
        <ele>129</ele>
        <time>2024-04-25T16:27:57Z</time>
      </trkpt>
      <trkpt lat="43.65228" lon="1.39027">
        <ele>129</ele>
        <time>2024-04-25T16:27:58Z</time>
      </trkpt>
      <trkpt lat="43.65225" lon="1.39025">
        <ele>129</ele>
        <time>2024-04-25T16:27:59Z</time>
      </trkpt>
      <trkpt lat="43.65225" lon="1.39025">
        <ele>129</ele>
        <time>2024-04-25T16:28:00Z</time>
      </trkpt>
      <trkpt lat="43.65223" lon="1.39024">
        <ele>129</ele>
        <time>2024-04-25T16:28:01Z</time>
      </trkpt>
      <trkpt lat="43.65218" lon="1.39021">
        <ele>129</ele>
        <time>2024-04-25T16:28:02Z</time>
      </trkpt>
      <trkpt lat="43.65216" lon="1.3902">
        <ele>129</ele>
        <time>2024-04-25T16:28:03Z</time>
      </trkpt>
      <trkpt lat="43.65213" lon="1.3902">
        <ele>129</ele>
        <time>2024-04-25T16:28:04Z</time>
      </trkpt>
      <trkpt lat="43.65213" lon="1.3902">
        <ele>129</ele>
        <time>2024-04-25T16:28:05Z</time>
      </trkpt>
      <trkpt lat="43.65211" lon="1.39019">
        <ele>129</ele>
        <time>2024-04-25T16:28:06Z</time>
      </trkpt>
      <trkpt lat="43.65205" lon="1.39018">
        <ele>129</ele>
        <time>2024-04-25T16:28:07Z</time>
      </trkpt>
      <trkpt lat="43.65205" lon="1.39018">
        <ele>129</ele>
        <time>2024-04-25T16:28:08Z</time>
      </trkpt>
      <trkpt lat="43.652" lon="1.39017">
        <ele>129</ele>
        <time>2024-04-25T16:28:09Z</time>
      </trkpt>
      <trkpt lat="43.65198" lon="1.39016">
        <ele>129</ele>
        <time>2024-04-25T16:28:11Z</time>
      </trkpt>
      <trkpt lat="43.65195" lon="1.39016">
        <ele>129</ele>
        <time>2024-04-25T16:28:12Z</time>
      </trkpt>
      <trkpt lat="43.65193" lon="1.39016">
        <ele>129</ele>
        <time>2024-04-25T16:28:13Z</time>
      </trkpt>
      <trkpt lat="43.65187" lon="1.39016">
        <ele>129</ele>
        <time>2024-04-25T16:28:14Z</time>
      </trkpt>
      <trkpt lat="43.65187" lon="1.39016">
        <ele>129</ele>
        <time>2024-04-25T16:28:15Z</time>
      </trkpt>
      <trkpt lat="43.65182" lon="1.39015">
        <ele>129</ele>
        <time>2024-04-25T16:28:16Z</time>
      </trkpt>
      <trkpt lat="43.65182" lon="1.39015">
        <ele>129</ele>
        <time>2024-04-25T16:28:17Z</time>
      </trkpt>
      <trkpt lat="43.65177" lon="1.39015">
        <ele>129</ele>
        <time>2024-04-25T16:28:18Z</time>
      </trkpt>
      <trkpt lat="43.65174" lon="1.39015">
        <ele>129</ele>
        <time>2024-04-25T16:28:19Z</time>
      </trkpt>
      <trkpt lat="43.65172" lon="1.39015">
        <ele>129</ele>
        <time>2024-04-25T16:28:20Z</time>
      </trkpt>
      <trkpt lat="43.65169" lon="1.39015">
        <ele>129</ele>
        <time>2024-04-25T16:28:21Z</time>
      </trkpt>
      <trkpt lat="43.65166" lon="1.39015">
        <ele>129</ele>
        <time>2024-04-25T16:28:23Z</time>
      </trkpt>
      <trkpt lat="43.6516" lon="1.39015">
        <ele>129</ele>
        <time>2024-04-25T16:28:24Z</time>
      </trkpt>
      <trkpt lat="43.65157" lon="1.39015">
        <ele>129</ele>
        <time>2024-04-25T16:28:25Z</time>
      </trkpt>
      <trkpt lat="43.65157" lon="1.39015">
        <ele>129</ele>
        <time>2024-04-25T16:28:26Z</time>
      </trkpt>
      <trkpt lat="43.65155" lon="1.39015">
        <ele>129</ele>
        <time>2024-04-25T16:28:27Z</time>
      </trkpt>
      <trkpt lat="43.65152" lon="1.39015">
        <ele>129</ele>
        <time>2024-04-25T16:28:28Z</time>
      </trkpt>
      <trkpt lat="43.65148" lon="1.39015">
        <ele>129</ele>
        <time>2024-04-25T16:28:29Z</time>
      </trkpt>
      <trkpt lat="43.65147" lon="1.39016">
        <ele>129</ele>
        <time>2024-04-25T16:28:30Z</time>
      </trkpt>
      <trkpt lat="43.65141" lon="1.39016">
        <ele>129</ele>
        <time>2024-04-25T16:28:31Z</time>
      </trkpt>
      <trkpt lat="43.65141" lon="1.39016">
        <ele>129</ele>
        <time>2024-04-25T16:28:32Z</time>
      </trkpt>
      <trkpt lat="43.65136" lon="1.39016">
        <ele>129</ele>
        <time>2024-04-25T16:28:33Z</time>
      </trkpt>
      <trkpt lat="43.65133" lon="1.39017">
        <ele>129</ele>
        <time>2024-04-25T16:28:34Z</time>
      </trkpt>
      <trkpt lat="43.65133" lon="1.39017">
        <ele>129</ele>
        <time>2024-04-25T16:28:35Z</time>
      </trkpt>
      <trkpt lat="43.6513" lon="1.39016">
        <ele>129</ele>
        <time>2024-04-25T16:28:36Z</time>
      </trkpt>
      <trkpt lat="43.65128" lon="1.39016">
        <ele>129</ele>
        <time>2024-04-25T16:28:37Z</time>
      </trkpt>
      <trkpt lat="43.65122" lon="1.39017">
        <ele>129</ele>
        <time>2024-04-25T16:28:38Z</time>
      </trkpt>
      <trkpt lat="43.65122" lon="1.39017">
        <ele>129</ele>
        <time>2024-04-25T16:28:39Z</time>
      </trkpt>
      <trkpt lat="43.65118" lon="1.39017">
        <ele>129</ele>
        <time>2024-04-25T16:28:40Z</time>
      </trkpt>
      <trkpt lat="43.65117" lon="1.39017">
        <ele>129</ele>
        <time>2024-04-25T16:28:41Z</time>
      </trkpt>
      <trkpt lat="43.65114" lon="1.39017">
        <ele>129</ele>
        <time>2024-04-25T16:28:42Z</time>
      </trkpt>
      <trkpt lat="43.65111" lon="1.39017">
        <ele>129</ele>
        <time>2024-04-25T16:28:43Z</time>
      </trkpt>
      <trkpt lat="43.65108" lon="1.39018">
        <ele>129</ele>
        <time>2024-04-25T16:28:44Z</time>
      </trkpt>
      <trkpt lat="43.65103" lon="1.39017">
        <ele>129</ele>
        <time>2024-04-25T16:28:45Z</time>
      </trkpt>
      <trkpt lat="43.65101" lon="1.39018">
        <ele>129</ele>
        <time>2024-04-25T16:28:46Z</time>
      </trkpt>
      <trkpt lat="43.65101" lon="1.39018">
        <ele>129</ele>
        <time>2024-04-25T16:28:47Z</time>
      </trkpt>
      <trkpt lat="43.65096" lon="1.39019">
        <ele>129</ele>
        <time>2024-04-25T16:28:48Z</time>
      </trkpt>
      <trkpt lat="43.65093" lon="1.39019">
        <ele>129</ele>
        <time>2024-04-25T16:28:49Z</time>
      </trkpt>
      <trkpt lat="43.65091" lon="1.3902">
        <ele>129</ele>
        <time>2024-04-25T16:28:50Z</time>
      </trkpt>
      <trkpt lat="43.65091" lon="1.3902">
        <ele>129</ele>
        <time>2024-04-25T16:28:51Z</time>
      </trkpt>
      <trkpt lat="43.65088" lon="1.39022">
        <ele>129</ele>
        <time>2024-04-25T16:28:52Z</time>
      </trkpt>
      <trkpt lat="43.65086" lon="1.39024">
        <ele>129</ele>
        <time>2024-04-25T16:28:53Z</time>
      </trkpt>
      <trkpt lat="43.65081" lon="1.39028">
        <ele>129</ele>
        <time>2024-04-25T16:28:54Z</time>
      </trkpt>
      <trkpt lat="43.65079" lon="1.39029">
        <ele>129</ele>
        <time>2024-04-25T16:28:55Z</time>
      </trkpt>
      <trkpt lat="43.65076" lon="1.39031">
        <ele>129</ele>
        <time>2024-04-25T16:28:56Z</time>
      </trkpt>
      <trkpt lat="43.65076" lon="1.39031">
        <ele>129</ele>
        <time>2024-04-25T16:28:57Z</time>
      </trkpt>
      <trkpt lat="43.65074" lon="1.39034">
        <ele>129</ele>
        <time>2024-04-25T16:28:58Z</time>
      </trkpt>
      <trkpt lat="43.65071" lon="1.39039">
        <ele>129</ele>
        <time>2024-04-25T16:28:59Z</time>
      </trkpt>
      <trkpt lat="43.6507" lon="1.39042">
        <ele>129</ele>
        <time>2024-04-25T16:29:00Z</time>
      </trkpt>
      <trkpt lat="43.6507" lon="1.39042">
        <ele>129</ele>
        <time>2024-04-25T16:29:01Z</time>
      </trkpt>
      <trkpt lat="43.65069" lon="1.39049">
        <ele>129</ele>
        <time>2024-04-25T16:29:02Z</time>
      </trkpt>
      <trkpt lat="43.65069" lon="1.39049">
        <ele>129</ele>
        <time>2024-04-25T16:29:03Z</time>
      </trkpt>
      <trkpt lat="43.65069" lon="1.39056">
        <ele>129</ele>
        <time>2024-04-25T16:29:04Z</time>
      </trkpt>
      <trkpt lat="43.65069" lon="1.39056">
        <ele>129</ele>
        <time>2024-04-25T16:29:05Z</time>
      </trkpt>
      <trkpt lat="43.65069" lon="1.39059">
        <ele>129</ele>
        <time>2024-04-25T16:29:06Z</time>
      </trkpt>
      <trkpt lat="43.65069" lon="1.39064">
        <ele>129</ele>
        <time>2024-04-25T16:29:07Z</time>
      </trkpt>
      <trkpt lat="43.65069" lon="1.39066">
        <ele>129</ele>
        <time>2024-04-25T16:29:08Z</time>
      </trkpt>
      <trkpt lat="43.6507" lon="1.39069">
        <ele>129</ele>
        <time>2024-04-25T16:29:09Z</time>
      </trkpt>
      <trkpt lat="43.6507" lon="1.39073">
        <ele>129</ele>
        <time>2024-04-25T16:29:10Z</time>
      </trkpt>
      <trkpt lat="43.65071" lon="1.3908">
        <ele>129</ele>
        <time>2024-04-25T16:29:11Z</time>
      </trkpt>
      <trkpt lat="43.65072" lon="1.39083">
        <ele>129</ele>
        <time>2024-04-25T16:29:12Z</time>
      </trkpt>
      <trkpt lat="43.65072" lon="1.39087">
        <ele>129</ele>
        <time>2024-04-25T16:29:13Z</time>
      </trkpt>
      <trkpt lat="43.65072" lon="1.39091">
        <ele>129</ele>
        <time>2024-04-25T16:29:14Z</time>
      </trkpt>
      <trkpt lat="43.65072" lon="1.39091">
        <ele>129</ele>
        <time>2024-04-25T16:29:15Z</time>
      </trkpt>
      <trkpt lat="43.65072" lon="1.39094">
        <ele>129</ele>
        <time>2024-04-25T16:29:16Z</time>
      </trkpt>
      <trkpt lat="43.65072" lon="1.39098">
        <ele>129</ele>
        <time>2024-04-25T16:29:17Z</time>
      </trkpt>
      <trkpt lat="43.65073" lon="1.39106">
        <ele>129</ele>
        <time>2024-04-25T16:29:18Z</time>
      </trkpt>
      <trkpt lat="43.65073" lon="1.3911">
        <ele>129</ele>
        <time>2024-04-25T16:29:19Z</time>
      </trkpt>
      <trkpt lat="43.65073" lon="1.3911">
        <ele>129</ele>
        <time>2024-04-25T16:29:20Z</time>
      </trkpt>
      <trkpt lat="43.65073" lon="1.39113">
        <ele>129</ele>
        <time>2024-04-25T16:29:21Z</time>
      </trkpt>
      <trkpt lat="43.65073" lon="1.39117">
        <ele>129</ele>
        <time>2024-04-25T16:29:22Z</time>
      </trkpt>
      <trkpt lat="43.65072" lon="1.39125">
        <ele>129</ele>
        <time>2024-04-25T16:29:23Z</time>
      </trkpt>
      <trkpt lat="43.65072" lon="1.39128">
        <ele>129</ele>
        <time>2024-04-25T16:29:24Z</time>
      </trkpt>
      <trkpt lat="43.6507" lon="1.39132">
        <ele>129</ele>
        <time>2024-04-25T16:29:25Z</time>
      </trkpt>
      <trkpt lat="43.65068" lon="1.39135">
        <ele>130</ele>
        <time>2024-04-25T16:29:27Z</time>
      </trkpt>
      <trkpt lat="43.65065" lon="1.39141">
        <ele>130</ele>
        <time>2024-04-25T16:29:28Z</time>
      </trkpt>
      <trkpt lat="43.65062" lon="1.39143">
        <ele>130</ele>
        <time>2024-04-25T16:29:29Z</time>
      </trkpt>
      <trkpt lat="43.6506" lon="1.39145">
        <ele>130</ele>
        <time>2024-04-25T16:29:30Z</time>
      </trkpt>
      <trkpt lat="43.6506" lon="1.39145">
        <ele>130</ele>
        <time>2024-04-25T16:29:31Z</time>
      </trkpt>
      <trkpt lat="43.65054" lon="1.39147">
        <ele>130</ele>
        <time>2024-04-25T16:29:32Z</time>
      </trkpt>
      <trkpt lat="43.65054" lon="1.39147">
        <ele>130</ele>
        <time>2024-04-25T16:29:33Z</time>
      </trkpt>
      <trkpt lat="43.65049" lon="1.39147">
        <ele>130</ele>
        <time>2024-04-25T16:29:34Z</time>
      </trkpt>
      <trkpt lat="43.65049" lon="1.39147">
        <ele>130</ele>
        <time>2024-04-25T16:29:35Z</time>
      </trkpt>
      <trkpt lat="43.65043" lon="1.39148">
        <ele>130</ele>
        <time>2024-04-25T16:29:36Z</time>
      </trkpt>
      <trkpt lat="43.65041" lon="1.39149">
        <ele>129</ele>
        <time>2024-04-25T16:29:37Z</time>
      </trkpt>
      <trkpt lat="43.65038" lon="1.39149">
        <ele>129</ele>
        <time>2024-04-25T16:29:38Z</time>
      </trkpt>
      <trkpt lat="43.65036" lon="1.39149">
        <ele>129</ele>
        <time>2024-04-25T16:29:39Z</time>
      </trkpt>
      <trkpt lat="43.65033" lon="1.3915">
        <ele>129</ele>
        <time>2024-04-25T16:29:40Z</time>
      </trkpt>
      <trkpt lat="43.6503" lon="1.3915">
        <ele>129</ele>
        <time>2024-04-25T16:29:41Z</time>
      </trkpt>
      <trkpt lat="43.6503" lon="1.3915">
        <ele>129</ele>
        <time>2024-04-25T16:29:42Z</time>
      </trkpt>
      <trkpt lat="43.65025" lon="1.39151">
        <ele>129</ele>
        <time>2024-04-25T16:29:43Z</time>
      </trkpt>
      <trkpt lat="43.65025" lon="1.39151">
        <ele>130</ele>
        <time>2024-04-25T16:29:44Z</time>
      </trkpt>
      <trkpt lat="43.65021" lon="1.39152">
        <ele>130</ele>
        <time>2024-04-25T16:29:45Z</time>
      </trkpt>
      <trkpt lat="43.65019" lon="1.39152">
        <ele>129</ele>
        <time>2024-04-25T16:29:46Z</time>
      </trkpt>
      <trkpt lat="43.65013" lon="1.39153">
        <ele>129</ele>
        <time>2024-04-25T16:29:47Z</time>
      </trkpt>
      <trkpt lat="43.65013" lon="1.39153">
        <ele>129</ele>
        <time>2024-04-25T16:29:48Z</time>
      </trkpt>
      <trkpt lat="43.6501" lon="1.39154">
        <ele>129</ele>
        <time>2024-04-25T16:29:49Z</time>
      </trkpt>
      <trkpt lat="43.65005" lon="1.39156">
        <ele>130</ele>
        <time>2024-04-25T16:29:50Z</time>
      </trkpt>
      <trkpt lat="43.65005" lon="1.39156">
        <ele>130</ele>
        <time>2024-04-25T16:29:51Z</time>
      </trkpt>
      <trkpt lat="43.65" lon="1.39157">
        <ele>130</ele>
        <time>2024-04-25T16:29:52Z</time>
      </trkpt>
      <trkpt lat="43.65" lon="1.39157">
        <ele>130</ele>
        <time>2024-04-25T16:29:53Z</time>
      </trkpt>
      <trkpt lat="43.64996" lon="1.39157">
        <ele>130</ele>
        <time>2024-04-25T16:29:54Z</time>
      </trkpt>
      <trkpt lat="43.64994" lon="1.39158">
        <ele>130</ele>
        <time>2024-04-25T16:29:55Z</time>
      </trkpt>
      <trkpt lat="43.64992" lon="1.39158">
        <ele>130</ele>
        <time>2024-04-25T16:29:56Z</time>
      </trkpt>
      <trkpt lat="43.64986" lon="1.39159">
        <ele>129</ele>
        <time>2024-04-25T16:29:57Z</time>
      </trkpt>
      <trkpt lat="43.64986" lon="1.39159">
        <ele>129</ele>
        <time>2024-04-25T16:29:58Z</time>
      </trkpt>
      <trkpt lat="43.64983" lon="1.3916">
        <ele>129</ele>
        <time>2024-04-25T16:29:59Z</time>
      </trkpt>
      <trkpt lat="43.6498" lon="1.3916">
        <ele>129</ele>
        <time>2024-04-25T16:30:00Z</time>
      </trkpt>
      <trkpt lat="43.64978" lon="1.39161">
        <ele>129</ele>
        <time>2024-04-25T16:30:01Z</time>
      </trkpt>
      <trkpt lat="43.64972" lon="1.39162">
        <ele>129</ele>
        <time>2024-04-25T16:30:02Z</time>
      </trkpt>
      <trkpt lat="43.64969" lon="1.39163">
        <ele>130</ele>
        <time>2024-04-25T16:30:03Z</time>
      </trkpt>
      <trkpt lat="43.64966" lon="1.39163">
        <ele>129</ele>
        <time>2024-04-25T16:30:05Z</time>
      </trkpt>
      <trkpt lat="43.64961" lon="1.39161">
        <ele>129</ele>
        <time>2024-04-25T16:30:06Z</time>
      </trkpt>
      <trkpt lat="43.64958" lon="1.39159">
        <ele>130</ele>
        <time>2024-04-25T16:30:07Z</time>
      </trkpt>
      <trkpt lat="43.64956" lon="1.39157">
        <ele>130</ele>
        <time>2024-04-25T16:30:08Z</time>
      </trkpt>
      <trkpt lat="43.64956" lon="1.39157">
        <ele>130</ele>
        <time>2024-04-25T16:30:09Z</time>
      </trkpt>
      <trkpt lat="43.64954" lon="1.3915">
        <ele>129</ele>
        <time>2024-04-25T16:30:10Z</time>
      </trkpt>
      <trkpt lat="43.64953" lon="1.39146">
        <ele>129</ele>
        <time>2024-04-25T16:30:11Z</time>
      </trkpt>
      <trkpt lat="43.64951" lon="1.39139">
        <ele>129</ele>
        <time>2024-04-25T16:30:13Z</time>
      </trkpt>
      <trkpt lat="43.64951" lon="1.39139">
        <ele>129</ele>
        <time>2024-04-25T16:30:14Z</time>
      </trkpt>
      <trkpt lat="43.64948" lon="1.39131">
        <ele>129</ele>
        <time>2024-04-25T16:30:15Z</time>
      </trkpt>
      <trkpt lat="43.64948" lon="1.39131">
        <ele>129</ele>
        <time>2024-04-25T16:30:16Z</time>
      </trkpt>
      <trkpt lat="43.64945" lon="1.39126">
        <ele>129</ele>
        <time>2024-04-25T16:30:17Z</time>
      </trkpt>
      <trkpt lat="43.64945" lon="1.39126">
        <ele>129</ele>
        <time>2024-04-25T16:30:18Z</time>
      </trkpt>
      <trkpt lat="43.6494" lon="1.39122">
        <ele>129</ele>
        <time>2024-04-25T16:30:19Z</time>
      </trkpt>
      <trkpt lat="43.64937" lon="1.39121">
        <ele>129</ele>
        <time>2024-04-25T16:30:20Z</time>
      </trkpt>
      <trkpt lat="43.64937" lon="1.39121">
        <ele>130</ele>
        <time>2024-04-25T16:30:21Z</time>
      </trkpt>
      <trkpt lat="43.64932" lon="1.3912">
        <ele>130</ele>
        <time>2024-04-25T16:30:22Z</time>
      </trkpt>
      <trkpt lat="43.64929" lon="1.39119">
        <ele>130</ele>
        <time>2024-04-25T16:30:24Z</time>
      </trkpt>
      <trkpt lat="43.64924" lon="1.39118">
        <ele>130</ele>
        <time>2024-04-25T16:30:25Z</time>
      </trkpt>
      <trkpt lat="43.64921" lon="1.39118">
        <ele>130</ele>
        <time>2024-04-25T16:30:26Z</time>
      </trkpt>
      <trkpt lat="43.64919" lon="1.39118">
        <ele>130</ele>
        <time>2024-04-25T16:30:27Z</time>
      </trkpt>
      <trkpt lat="43.64919" lon="1.39118">
        <ele>130</ele>
        <time>2024-04-25T16:30:28Z</time>
      </trkpt>
      <trkpt lat="43.64913" lon="1.39118">
        <ele>130</ele>
        <time>2024-04-25T16:30:29Z</time>
      </trkpt>
      <trkpt lat="43.64908" lon="1.39118">
        <ele>129</ele>
        <time>2024-04-25T16:30:31Z</time>
      </trkpt>
      <trkpt lat="43.64905" lon="1.39118">
        <ele>129</ele>
        <time>2024-04-25T16:30:32Z</time>
      </trkpt>
      <trkpt lat="43.64905" lon="1.39118">
        <ele>129</ele>
        <time>2024-04-25T16:30:33Z</time>
      </trkpt>
      <trkpt lat="43.64899" lon="1.39119">
        <ele>129</ele>
        <time>2024-04-25T16:30:34Z</time>
      </trkpt>
      <trkpt lat="43.64896" lon="1.3912">
        <ele>129</ele>
        <time>2024-04-25T16:30:35Z</time>
      </trkpt>
      <trkpt lat="43.64896" lon="1.3912">
        <ele>130</ele>
        <time>2024-04-25T16:30:36Z</time>
      </trkpt>
      <trkpt lat="43.64891" lon="1.39121">
        <ele>130</ele>
        <time>2024-04-25T16:30:37Z</time>
      </trkpt>
      <trkpt lat="43.64888" lon="1.39121">
        <ele>130</ele>
        <time>2024-04-25T16:30:38Z</time>
      </trkpt>
      <trkpt lat="43.64885" lon="1.39122">
        <ele>129</ele>
        <time>2024-04-25T16:30:39Z</time>
      </trkpt>
      <trkpt lat="43.64885" lon="1.39122">
        <ele>130</ele>
        <time>2024-04-25T16:30:40Z</time>
      </trkpt>
      <trkpt lat="43.6488" lon="1.39123">
        <ele>130</ele>
        <time>2024-04-25T16:30:41Z</time>
      </trkpt>
      <trkpt lat="43.64874" lon="1.39125">
        <ele>130</ele>
        <time>2024-04-25T16:30:43Z</time>
      </trkpt>
      <trkpt lat="43.64871" lon="1.39125">
        <ele>130</ele>
        <time>2024-04-25T16:30:44Z</time>
      </trkpt>
      <trkpt lat="43.64868" lon="1.39126">
        <ele>129</ele>
        <time>2024-04-25T16:30:45Z</time>
      </trkpt>
      <trkpt lat="43.64866" lon="1.39127">
        <ele>129</ele>
        <time>2024-04-25T16:30:46Z</time>
      </trkpt>
      <trkpt lat="43.64866" lon="1.39127">
        <ele>129</ele>
        <time>2024-04-25T16:30:47Z</time>
      </trkpt>
      <trkpt lat="43.64862" lon="1.39128">
        <ele>129</ele>
        <time>2024-04-25T16:30:48Z</time>
      </trkpt>
      <trkpt lat="43.6486" lon="1.39128">
        <ele>129</ele>
        <time>2024-04-25T16:30:49Z</time>
      </trkpt>
      <trkpt lat="43.64855" lon="1.3913">
        <ele>129</ele>
        <time>2024-04-25T16:30:50Z</time>
      </trkpt>
      <trkpt lat="43.64855" lon="1.3913">
        <ele>129</ele>
        <time>2024-04-25T16:30:51Z</time>
      </trkpt>
      <trkpt lat="43.6485" lon="1.39133">
        <ele>129</ele>
        <time>2024-04-25T16:30:52Z</time>
      </trkpt>
      <trkpt lat="43.6485" lon="1.39133">
        <ele>129</ele>
        <time>2024-04-25T16:30:53Z</time>
      </trkpt>
      <trkpt lat="43.64845" lon="1.39136">
        <ele>129</ele>
        <time>2024-04-25T16:30:54Z</time>
      </trkpt>
      <trkpt lat="43.64845" lon="1.39136">
        <ele>129</ele>
        <time>2024-04-25T16:30:55Z</time>
      </trkpt>
      <trkpt lat="43.6484" lon="1.3914">
        <ele>129</ele>
        <time>2024-04-25T16:30:56Z</time>
      </trkpt>
      <trkpt lat="43.64837" lon="1.39142">
        <ele>129</ele>
        <time>2024-04-25T16:30:57Z</time>
      </trkpt>
      <trkpt lat="43.64837" lon="1.39142">
        <ele>129</ele>
        <time>2024-04-25T16:30:58Z</time>
      </trkpt>
      <trkpt lat="43.64832" lon="1.39146">
        <ele>129</ele>
        <time>2024-04-25T16:30:59Z</time>
      </trkpt>
      <trkpt lat="43.64832" lon="1.39146">
        <ele>130</ele>
        <time>2024-04-25T16:31:00Z</time>
      </trkpt>
      <trkpt lat="43.64829" lon="1.39149">
        <ele>130</ele>
        <time>2024-04-25T16:31:01Z</time>
      </trkpt>
      <trkpt lat="43.64827" lon="1.3915">
        <ele>130</ele>
        <time>2024-04-25T16:31:02Z</time>
      </trkpt>
      <trkpt lat="43.64822" lon="1.39154">
        <ele>130</ele>
        <time>2024-04-25T16:31:03Z</time>
      </trkpt>
      <trkpt lat="43.6482" lon="1.39155">
        <ele>130</ele>
        <time>2024-04-25T16:31:04Z</time>
      </trkpt>
      <trkpt lat="43.64817" lon="1.39157">
        <ele>130</ele>
        <time>2024-04-25T16:31:06Z</time>
      </trkpt>
      <trkpt lat="43.64812" lon="1.3916">
        <ele>130</ele>
        <time>2024-04-25T16:31:07Z</time>
      </trkpt>
      <trkpt lat="43.64812" lon="1.3916">
        <ele>129</ele>
        <time>2024-04-25T16:31:08Z</time>
      </trkpt>
      <trkpt lat="43.64809" lon="1.39161">
        <ele>129</ele>
        <time>2024-04-25T16:31:09Z</time>
      </trkpt>
      <trkpt lat="43.64803" lon="1.39164">
        <ele>129</ele>
        <time>2024-04-25T16:31:10Z</time>
      </trkpt>
      <trkpt lat="43.64801" lon="1.39165">
        <ele>129</ele>
        <time>2024-04-25T16:31:11Z</time>
      </trkpt>
      <trkpt lat="43.64799" lon="1.39166">
        <ele>129</ele>
        <time>2024-04-25T16:31:12Z</time>
      </trkpt>
      <trkpt lat="43.64796" lon="1.39168">
        <ele>129</ele>
        <time>2024-04-25T16:31:13Z</time>
      </trkpt>
      <trkpt lat="43.64794" lon="1.39169">
        <ele>129</ele>
        <time>2024-04-25T16:31:14Z</time>
      </trkpt>
      <trkpt lat="43.64794" lon="1.39169">
        <ele>129</ele>
        <time>2024-04-25T16:31:15Z</time>
      </trkpt>
      <trkpt lat="43.64791" lon="1.39171">
        <ele>129</ele>
        <time>2024-04-25T16:31:16Z</time>
      </trkpt>
      <trkpt lat="43.64786" lon="1.39174">
        <ele>129</ele>
        <time>2024-04-25T16:31:17Z</time>
      </trkpt>
      <trkpt lat="43.64786" lon="1.39174">
        <ele>129</ele>
        <time>2024-04-25T16:31:18Z</time>
      </trkpt>
      <trkpt lat="43.64781" lon="1.39178">
        <ele>129</ele>
        <time>2024-04-25T16:31:19Z</time>
      </trkpt>
      <trkpt lat="43.64776" lon="1.39181">
        <ele>129</ele>
        <time>2024-04-25T16:31:21Z</time>
      </trkpt>
      <trkpt lat="43.64773" lon="1.39183">
        <ele>129</ele>
        <time>2024-04-25T16:31:22Z</time>
      </trkpt>
      <trkpt lat="43.64771" lon="1.39184">
        <ele>129</ele>
        <time>2024-04-25T16:31:24Z</time>
      </trkpt>
      <trkpt lat="43.64766" lon="1.39187">
        <ele>129</ele>
        <time>2024-04-25T16:31:25Z</time>
      </trkpt>
      <trkpt lat="43.64766" lon="1.39187">
        <ele>129</ele>
        <time>2024-04-25T16:31:26Z</time>
      </trkpt>
      <trkpt lat="43.64761" lon="1.3919">
        <ele>129</ele>
        <time>2024-04-25T16:31:27Z</time>
      </trkpt>
      <trkpt lat="43.64761" lon="1.3919">
        <ele>129</ele>
        <time>2024-04-25T16:31:28Z</time>
      </trkpt>
      <trkpt lat="43.64758" lon="1.39191">
        <ele>129</ele>
        <time>2024-04-25T16:31:29Z</time>
      </trkpt>
      <trkpt lat="43.64754" lon="1.39194">
        <ele>129</ele>
        <time>2024-04-25T16:31:30Z</time>
      </trkpt>
      <trkpt lat="43.64751" lon="1.39196">
        <ele>129</ele>
        <time>2024-04-25T16:31:31Z</time>
      </trkpt>
      <trkpt lat="43.64749" lon="1.39197">
        <ele>129</ele>
        <time>2024-04-25T16:31:32Z</time>
      </trkpt>
      <trkpt lat="43.64746" lon="1.39199">
        <ele>129</ele>
        <time>2024-04-25T16:31:33Z</time>
      </trkpt>
      <trkpt lat="43.64744" lon="1.392">
        <ele>130</ele>
        <time>2024-04-25T16:31:34Z</time>
      </trkpt>
      <trkpt lat="43.64744" lon="1.392">
        <ele>130</ele>
        <time>2024-04-25T16:31:35Z</time>
      </trkpt>
      <trkpt lat="43.64741" lon="1.39202">
        <ele>129</ele>
        <time>2024-04-25T16:31:36Z</time>
      </trkpt>
      <trkpt lat="43.64737" lon="1.39206">
        <ele>129</ele>
        <time>2024-04-25T16:31:37Z</time>
      </trkpt>
      <trkpt lat="43.64737" lon="1.39206">
        <ele>129</ele>
        <time>2024-04-25T16:31:38Z</time>
      </trkpt>
      <trkpt lat="43.64733" lon="1.39209">
        <ele>129</ele>
        <time>2024-04-25T16:31:39Z</time>
      </trkpt>
      <trkpt lat="43.64732" lon="1.3921">
        <ele>129</ele>
        <time>2024-04-25T16:31:40Z</time>
      </trkpt>
      <trkpt lat="43.64727" lon="1.39213">
        <ele>129</ele>
        <time>2024-04-25T16:31:41Z</time>
      </trkpt>
      <trkpt lat="43.64724" lon="1.39215">
        <ele>129</ele>
        <time>2024-04-25T16:31:43Z</time>
      </trkpt>
      <trkpt lat="43.64719" lon="1.39218">
        <ele>129</ele>
        <time>2024-04-25T16:31:44Z</time>
      </trkpt>
      <trkpt lat="43.64719" lon="1.39218">
        <ele>130</ele>
        <time>2024-04-25T16:31:45Z</time>
      </trkpt>
      <trkpt lat="43.64717" lon="1.3922">
        <ele>130</ele>
        <time>2024-04-25T16:31:46Z</time>
      </trkpt>
      <trkpt lat="43.64712" lon="1.39223">
        <ele>129</ele>
        <time>2024-04-25T16:31:47Z</time>
      </trkpt>
      <trkpt lat="43.64712" lon="1.39223">
        <ele>129</ele>
        <time>2024-04-25T16:31:48Z</time>
      </trkpt>
      <trkpt lat="43.64707" lon="1.39227">
        <ele>129</ele>
        <time>2024-04-25T16:31:49Z</time>
      </trkpt>
      <trkpt lat="43.64707" lon="1.39227">
        <ele>129</ele>
        <time>2024-04-25T16:31:50Z</time>
      </trkpt>
      <trkpt lat="43.64702" lon="1.3923">
        <ele>129</ele>
        <time>2024-04-25T16:31:51Z</time>
      </trkpt>
      <trkpt lat="43.64702" lon="1.3923">
        <ele>129</ele>
        <time>2024-04-25T16:31:52Z</time>
      </trkpt>
      <trkpt lat="43.64697" lon="1.39233">
        <ele>129</ele>
        <time>2024-04-25T16:31:53Z</time>
      </trkpt>
      <trkpt lat="43.64697" lon="1.39233">
        <ele>129</ele>
        <time>2024-04-25T16:31:54Z</time>
      </trkpt>
      <trkpt lat="43.64694" lon="1.39235">
        <ele>130</ele>
        <time>2024-04-25T16:31:55Z</time>
      </trkpt>
      <trkpt lat="43.6469" lon="1.39238">
        <ele>130</ele>
        <time>2024-04-25T16:31:56Z</time>
      </trkpt>
      <trkpt lat="43.6469" lon="1.39238">
        <ele>129</ele>
        <time>2024-04-25T16:31:57Z</time>
      </trkpt>
      <trkpt lat="43.64686" lon="1.3924">
        <ele>129</ele>
        <time>2024-04-25T16:31:58Z</time>
      </trkpt>
      <trkpt lat="43.64685" lon="1.39241">
        <ele>130</ele>
        <time>2024-04-25T16:31:59Z</time>
      </trkpt>
      <trkpt lat="43.64681" lon="1.39243">
        <ele>130</ele>
        <time>2024-04-25T16:32:00Z</time>
      </trkpt>
      <trkpt lat="43.6468" lon="1.39244">
        <ele>129</ele>
        <time>2024-04-25T16:32:01Z</time>
      </trkpt>
      <trkpt lat="43.64677" lon="1.39245">
        <ele>129</ele>
        <time>2024-04-25T16:32:02Z</time>
      </trkpt>
      <trkpt lat="43.64674" lon="1.39247">
        <ele>129</ele>
        <time>2024-04-25T16:32:03Z</time>
      </trkpt>
      <trkpt lat="43.64672" lon="1.39248">
        <ele>129</ele>
        <time>2024-04-25T16:32:04Z</time>
      </trkpt>
      <trkpt lat="43.64667" lon="1.3925">
        <ele>129</ele>
        <time>2024-04-25T16:32:05Z</time>
      </trkpt>
      <trkpt lat="43.64667" lon="1.3925">
        <ele>129</ele>
        <time>2024-04-25T16:32:06Z</time>
      </trkpt>
      <trkpt lat="43.64662" lon="1.39253">
        <ele>129</ele>
        <time>2024-04-25T16:32:07Z</time>
      </trkpt>
      <trkpt lat="43.64662" lon="1.39253">
        <ele>130</ele>
        <time>2024-04-25T16:32:08Z</time>
      </trkpt>
      <trkpt lat="43.64657" lon="1.39255">
        <ele>130</ele>
        <time>2024-04-25T16:32:09Z</time>
      </trkpt>
      <trkpt lat="43.64655" lon="1.39256">
        <ele>130</ele>
        <time>2024-04-25T16:32:10Z</time>
      </trkpt>
      <trkpt lat="43.64655" lon="1.39256">
        <ele>130</ele>
        <time>2024-04-25T16:32:11Z</time>
      </trkpt>
      <trkpt lat="43.6465" lon="1.39259">
        <ele>130</ele>
        <time>2024-04-25T16:32:12Z</time>
      </trkpt>
      <trkpt lat="43.6465" lon="1.39259">
        <ele>130</ele>
        <time>2024-04-25T16:32:13Z</time>
      </trkpt>
      <trkpt lat="43.64645" lon="1.39261">
        <ele>130</ele>
        <time>2024-04-25T16:32:14Z</time>
      </trkpt>
      <trkpt lat="43.64645" lon="1.39261">
        <ele>130</ele>
        <time>2024-04-25T16:32:15Z</time>
      </trkpt>
      <trkpt lat="43.64642" lon="1.39263">
        <ele>130</ele>
        <time>2024-04-25T16:32:16Z</time>
      </trkpt>
      <trkpt lat="43.64639" lon="1.39264">
        <ele>130</ele>
        <time>2024-04-25T16:32:17Z</time>
      </trkpt>
      <trkpt lat="43.64636" lon="1.39265">
        <ele>130</ele>
        <time>2024-04-25T16:32:18Z</time>
      </trkpt>
      <trkpt lat="43.64634" lon="1.39266">
        <ele>130</ele>
        <time>2024-04-25T16:32:19Z</time>
      </trkpt>
      <trkpt lat="43.64628" lon="1.39269">
        <ele>130</ele>
        <time>2024-04-25T16:32:20Z</time>
      </trkpt>
      <trkpt lat="43.64626" lon="1.3927">
        <ele>130</ele>
        <time>2024-04-25T16:32:21Z</time>
      </trkpt>
      <trkpt lat="43.64626" lon="1.3927">
        <ele>130</ele>
        <time>2024-04-25T16:32:22Z</time>
      </trkpt>
      <trkpt lat="43.64623" lon="1.39271">
        <ele>129</ele>
        <time>2024-04-25T16:32:23Z</time>
      </trkpt>
      <trkpt lat="43.64621" lon="1.39272">
        <ele>130</ele>
        <time>2024-04-25T16:32:24Z</time>
      </trkpt>
      <trkpt lat="43.64616" lon="1.39275">
        <ele>130</ele>
        <time>2024-04-25T16:32:25Z</time>
      </trkpt>
      <trkpt lat="43.64616" lon="1.39275">
        <ele>130</ele>
        <time>2024-04-25T16:32:26Z</time>
      </trkpt>
      <trkpt lat="43.64611" lon="1.39277">
        <ele>130</ele>
        <time>2024-04-25T16:32:27Z</time>
      </trkpt>
      <trkpt lat="43.64611" lon="1.39277">
        <ele>130</ele>
        <time>2024-04-25T16:32:28Z</time>
      </trkpt>
      <trkpt lat="43.64605" lon="1.39279">
        <ele>130</ele>
        <time>2024-04-25T16:32:29Z</time>
      </trkpt>
      <trkpt lat="43.64602" lon="1.39281">
        <ele>130</ele>
        <time>2024-04-25T16:32:30Z</time>
      </trkpt>
      <trkpt lat="43.646" lon="1.39282">
        <ele>130</ele>
        <time>2024-04-25T16:32:31Z</time>
      </trkpt>
      <trkpt lat="43.64597" lon="1.39283">
        <ele>130</ele>
        <time>2024-04-25T16:32:32Z</time>
      </trkpt>
      <trkpt lat="43.64597" lon="1.39283">
        <ele>130</ele>
        <time>2024-04-25T16:32:33Z</time>
      </trkpt>
      <trkpt lat="43.64591" lon="1.39286">
        <ele>130</ele>
        <time>2024-04-25T16:32:34Z</time>
      </trkpt>
      <trkpt lat="43.64591" lon="1.39286">
        <ele>130</ele>
        <time>2024-04-25T16:32:35Z</time>
      </trkpt>
      <trkpt lat="43.64587" lon="1.39287">
        <ele>130</ele>
        <time>2024-04-25T16:32:36Z</time>
      </trkpt>
      <trkpt lat="43.64586" lon="1.39288">
        <ele>129</ele>
        <time>2024-04-25T16:32:37Z</time>
      </trkpt>
      <trkpt lat="43.6458" lon="1.39289">
        <ele>129</ele>
        <time>2024-04-25T16:32:38Z</time>
      </trkpt>
      <trkpt lat="43.6458" lon="1.39289">
        <ele>129</ele>
        <time>2024-04-25T16:32:39Z</time>
      </trkpt>
      <trkpt lat="43.64575" lon="1.39291">
        <ele>129</ele>
        <time>2024-04-25T16:32:40Z</time>
      </trkpt>
      <trkpt lat="43.64575" lon="1.39291">
        <ele>130</ele>
        <time>2024-04-25T16:32:41Z</time>
      </trkpt>
      <trkpt lat="43.6457" lon="1.39292">
        <ele>130</ele>
        <time>2024-04-25T16:32:42Z</time>
      </trkpt>
      <trkpt lat="43.6457" lon="1.39292">
        <ele>130</ele>
        <time>2024-04-25T16:32:43Z</time>
      </trkpt>
      <trkpt lat="43.64564" lon="1.39295">
        <ele>130</ele>
        <time>2024-04-25T16:32:44Z</time>
      </trkpt>
      <trkpt lat="43.64562" lon="1.39296">
        <ele>130</ele>
        <time>2024-04-25T16:32:45Z</time>
      </trkpt>
      <trkpt lat="43.64562" lon="1.39296">
        <ele>130</ele>
        <time>2024-04-25T16:32:46Z</time>
      </trkpt>
      <trkpt lat="43.64556" lon="1.39297">
        <ele>130</ele>
        <time>2024-04-25T16:32:47Z</time>
      </trkpt>
      <trkpt lat="43.64556" lon="1.39297">
        <ele>130</ele>
        <time>2024-04-25T16:32:48Z</time>
      </trkpt>
      <trkpt lat="43.64551" lon="1.39298">
        <ele>130</ele>
        <time>2024-04-25T16:32:49Z</time>
      </trkpt>
      <trkpt lat="43.64551" lon="1.39298">
        <ele>130</ele>
        <time>2024-04-25T16:32:50Z</time>
      </trkpt>
      <trkpt lat="43.64545" lon="1.39299">
        <ele>130</ele>
        <time>2024-04-25T16:32:51Z</time>
      </trkpt>
      <trkpt lat="43.64545" lon="1.39299">
        <ele>130</ele>
        <time>2024-04-25T16:32:52Z</time>
      </trkpt>
      <trkpt lat="43.64543" lon="1.39299">
        <ele>130</ele>
        <time>2024-04-25T16:32:53Z</time>
      </trkpt>
      <trkpt lat="43.6454" lon="1.393">
        <ele>130</ele>
        <time>2024-04-25T16:32:54Z</time>
      </trkpt>
      <trkpt lat="43.64538" lon="1.393">
        <ele>130</ele>
        <time>2024-04-25T16:32:55Z</time>
      </trkpt>
      <trkpt lat="43.64535" lon="1.39301">
        <ele>129</ele>
        <time>2024-04-25T16:32:56Z</time>
      </trkpt>
      <trkpt lat="43.64532" lon="1.39302">
        <ele>129</ele>
        <time>2024-04-25T16:32:57Z</time>
      </trkpt>
      <trkpt lat="43.64527" lon="1.39303">
        <ele>129</ele>
        <time>2024-04-25T16:32:58Z</time>
      </trkpt>
      <trkpt lat="43.64524" lon="1.39304">
        <ele>129</ele>
        <time>2024-04-25T16:32:59Z</time>
      </trkpt>
      <trkpt lat="43.64524" lon="1.39304">
        <ele>129</ele>
        <time>2024-04-25T16:33:00Z</time>
      </trkpt>
      <trkpt lat="43.64518" lon="1.39305">
        <ele>129</ele>
        <time>2024-04-25T16:33:01Z</time>
      </trkpt>
      <trkpt lat="43.64515" lon="1.39306">
        <ele>129</ele>
        <time>2024-04-25T16:33:02Z</time>
      </trkpt>
      <trkpt lat="43.64513" lon="1.39306">
        <ele>129</ele>
        <time>2024-04-25T16:33:03Z</time>
      </trkpt>
      <trkpt lat="43.6451" lon="1.39306">
        <ele>129</ele>
        <time>2024-04-25T16:33:04Z</time>
      </trkpt>
      <trkpt lat="43.6451" lon="1.39306">
        <ele>129</ele>
        <time>2024-04-25T16:33:05Z</time>
      </trkpt>
      <trkpt lat="43.64507" lon="1.39306">
        <ele>129</ele>
        <time>2024-04-25T16:33:06Z</time>
      </trkpt>
      <trkpt lat="43.64504" lon="1.39307">
        <ele>129</ele>
        <time>2024-04-25T16:33:07Z</time>
      </trkpt>
      <trkpt lat="43.64499" lon="1.39307">
        <ele>130</ele>
        <time>2024-04-25T16:33:08Z</time>
      </trkpt>
      <trkpt lat="43.64499" lon="1.39307">
        <ele>130</ele>
        <time>2024-04-25T16:33:09Z</time>
      </trkpt>
      <trkpt lat="43.64494" lon="1.39306">
        <ele>130</ele>
        <time>2024-04-25T16:33:10Z</time>
      </trkpt>
      <trkpt lat="43.64491" lon="1.39307">
        <ele>130</ele>
        <time>2024-04-25T16:33:11Z</time>
      </trkpt>
      <trkpt lat="43.64488" lon="1.39307">
        <ele>130</ele>
        <time>2024-04-25T16:33:12Z</time>
      </trkpt>
      <trkpt lat="43.64484" lon="1.39307">
        <ele>130</ele>
        <time>2024-04-25T16:33:14Z</time>
      </trkpt>
      <trkpt lat="43.64482" lon="1.39308">
        <ele>130</ele>
        <time>2024-04-25T16:33:15Z</time>
      </trkpt>
      <trkpt lat="43.64477" lon="1.39308">
        <ele>130</ele>
        <time>2024-04-25T16:33:16Z</time>
      </trkpt>
      <trkpt lat="43.64477" lon="1.39308">
        <ele>131</ele>
        <time>2024-04-25T16:33:17Z</time>
      </trkpt>
      <trkpt lat="43.64474" lon="1.39308">
        <ele>131</ele>
        <time>2024-04-25T16:33:18Z</time>
      </trkpt>
      <trkpt lat="43.64472" lon="1.39308">
        <ele>132</ele>
        <time>2024-04-25T16:33:19Z</time>
      </trkpt>
      <trkpt lat="43.64467" lon="1.39308">
        <ele>132</ele>
        <time>2024-04-25T16:33:20Z</time>
      </trkpt>
      <trkpt lat="43.64465" lon="1.39308">
        <ele>132</ele>
        <time>2024-04-25T16:33:21Z</time>
      </trkpt>
      <trkpt lat="43.64462" lon="1.39308">
        <ele>132</ele>
        <time>2024-04-25T16:33:22Z</time>
      </trkpt>
      <trkpt lat="43.6446" lon="1.39308">
        <ele>132</ele>
        <time>2024-04-25T16:33:23Z</time>
      </trkpt>
      <trkpt lat="43.6446" lon="1.39308">
        <ele>133</ele>
        <time>2024-04-25T16:33:24Z</time>
      </trkpt>
      <trkpt lat="43.64457" lon="1.3931">
        <ele>133</ele>
        <time>2024-04-25T16:33:25Z</time>
      </trkpt>
      <trkpt lat="43.64457" lon="1.3931">
        <ele>133</ele>
        <time>2024-04-25T16:33:26Z</time>
      </trkpt>
      <trkpt lat="43.64454" lon="1.39311">
        <ele>133</ele>
        <time>2024-04-25T16:33:27Z</time>
      </trkpt>
      <trkpt lat="43.64454" lon="1.39311">
        <ele>133</ele>
        <time>2024-04-25T16:33:28Z</time>
      </trkpt>
      <trkpt lat="43.64454" lon="1.39311">
        <ele>133</ele>
        <time>2024-04-25T16:33:29Z</time>
      </trkpt>
      <trkpt lat="43.64451" lon="1.39311">
        <ele>133</ele>
        <time>2024-04-25T16:33:30Z</time>
      </trkpt>
      <trkpt lat="43.64451" lon="1.39311">
        <ele>133</ele>
        <time>2024-04-25T16:33:31Z</time>
      </trkpt>
      <trkpt lat="43.64448" lon="1.39311">
        <ele>133</ele>
        <time>2024-04-25T16:33:32Z</time>
      </trkpt>
      <trkpt lat="43.64445" lon="1.39311">
        <ele>133</ele>
        <time>2024-04-25T16:33:34Z</time>
      </trkpt>
      <trkpt lat="43.64443" lon="1.39311">
        <ele>132</ele>
        <time>2024-04-25T16:33:35Z</time>
      </trkpt>
      <trkpt lat="43.64443" lon="1.39311">
        <ele>132</ele>
        <time>2024-04-25T16:33:36Z</time>
      </trkpt>
      <trkpt lat="43.6444" lon="1.39311">
        <ele>132</ele>
        <time>2024-04-25T16:33:37Z</time>
      </trkpt>
      <trkpt lat="43.64437" lon="1.39311">
        <ele>132</ele>
        <time>2024-04-25T16:33:39Z</time>
      </trkpt>
      <trkpt lat="43.64437" lon="1.39311">
        <ele>131</ele>
        <time>2024-04-25T16:33:40Z</time>
      </trkpt>
      <trkpt lat="43.64437" lon="1.39311">
        <ele>131</ele>
        <time>2024-04-25T16:33:41Z</time>
      </trkpt>
      <trkpt lat="43.64432" lon="1.3931">
        <ele>131</ele>
        <time>2024-04-25T16:33:42Z</time>
      </trkpt>
      <trkpt lat="43.64429" lon="1.3931">
        <ele>131</ele>
        <time>2024-04-25T16:33:43Z</time>
      </trkpt>
      <trkpt lat="43.64429" lon="1.3931">
        <ele>130</ele>
        <time>2024-04-25T16:33:44Z</time>
      </trkpt>
      <trkpt lat="43.64423" lon="1.39312">
        <ele>131</ele>
        <time>2024-04-25T16:33:45Z</time>
      </trkpt>
      <trkpt lat="43.6442" lon="1.39312">
        <ele>131</ele>
        <time>2024-04-25T16:33:46Z</time>
      </trkpt>
      <trkpt lat="43.6442" lon="1.39312">
        <ele>130</ele>
        <time>2024-04-25T16:33:47Z</time>
      </trkpt>
      <trkpt lat="43.64421" lon="1.39313">
        <ele>130</ele>
        <time>2024-04-25T16:33:48Z</time>
      </trkpt>
      <trkpt lat="43.64422" lon="1.39313">
        <ele>130</ele>
        <time>2024-04-25T16:33:49Z</time>
      </trkpt>
      <trkpt lat="43.64423" lon="1.39314">
        <ele>130</ele>
        <time>2024-04-25T16:33:50Z</time>
      </trkpt>
      <trkpt lat="43.64424" lon="1.39314">
        <ele>130</ele>
        <time>2024-04-25T16:33:51Z</time>
      </trkpt>
      <trkpt lat="43.64427" lon="1.39313">
        <ele>130</ele>
        <time>2024-04-25T16:33:52Z</time>
      </trkpt>
      <trkpt lat="43.64433" lon="1.39311">
        <ele>130</ele>
        <time>2024-04-25T16:33:53Z</time>
      </trkpt>
      <trkpt lat="43.64435" lon="1.3931">
        <ele>130</ele>
        <time>2024-04-25T16:33:54Z</time>
      </trkpt>
      <trkpt lat="43.64438" lon="1.3931">
        <ele>131</ele>
        <time>2024-04-25T16:33:55Z</time>
      </trkpt>
      <trkpt lat="43.64438" lon="1.3931">
        <ele>131</ele>
        <time>2024-04-25T16:33:56Z</time>
      </trkpt>
      <trkpt lat="43.6444" lon="1.39309">
        <ele>131</ele>
        <time>2024-04-25T16:33:57Z</time>
      </trkpt>
      <trkpt lat="43.64446" lon="1.39308">
        <ele>132</ele>
        <time>2024-04-25T16:33:58Z</time>
      </trkpt>
      <trkpt lat="43.64446" lon="1.39308">
        <ele>132</ele>
        <time>2024-04-25T16:33:59Z</time>
      </trkpt>
      <trkpt lat="43.64451" lon="1.39307">
        <ele>132</ele>
        <time>2024-04-25T16:34:00Z</time>
      </trkpt>
      <trkpt lat="43.64457" lon="1.39309">
        <ele>131</ele>
        <time>2024-04-25T16:34:02Z</time>
      </trkpt>
      <trkpt lat="43.64459" lon="1.39312">
        <ele>132</ele>
        <time>2024-04-25T16:34:03Z</time>
      </trkpt>
      <trkpt lat="43.6446" lon="1.39317">
        <ele>132</ele>
        <time>2024-04-25T16:34:04Z</time>
      </trkpt>
      <trkpt lat="43.6446" lon="1.39317">
        <ele>132</ele>
        <time>2024-04-25T16:34:05Z</time>
      </trkpt>
      <trkpt lat="43.64462" lon="1.39321">
        <ele>133</ele>
        <time>2024-04-25T16:34:06Z</time>
      </trkpt>
      <trkpt lat="43.64463" lon="1.39325">
        <ele>133</ele>
        <time>2024-04-25T16:34:07Z</time>
      </trkpt>
      <trkpt lat="43.64465" lon="1.39333">
        <ele>133</ele>
        <time>2024-04-25T16:34:08Z</time>
      </trkpt>
      <trkpt lat="43.64466" lon="1.39336">
        <ele>133</ele>
        <time>2024-04-25T16:34:09Z</time>
      </trkpt>
      <trkpt lat="43.64467" lon="1.3934">
        <ele>133</ele>
        <time>2024-04-25T16:34:10Z</time>
      </trkpt>
      <trkpt lat="43.64468" lon="1.39344">
        <ele>133</ele>
        <time>2024-04-25T16:34:12Z</time>
      </trkpt>
      <trkpt lat="43.6447" lon="1.39352">
        <ele>133</ele>
        <time>2024-04-25T16:34:13Z</time>
      </trkpt>
      <trkpt lat="43.6447" lon="1.39352">
        <ele>132</ele>
        <time>2024-04-25T16:34:14Z</time>
      </trkpt>
      <trkpt lat="43.64471" lon="1.3936">
        <ele>132</ele>
        <time>2024-04-25T16:34:15Z</time>
      </trkpt>
      <trkpt lat="43.64471" lon="1.3936">
        <ele>132</ele>
        <time>2024-04-25T16:34:16Z</time>
      </trkpt>
      <trkpt lat="43.64472" lon="1.39366">
        <ele>132</ele>
        <time>2024-04-25T16:34:17Z</time>
      </trkpt>
      <trkpt lat="43.64473" lon="1.39368">
        <ele>132</ele>
        <time>2024-04-25T16:34:18Z</time>
      </trkpt>
      <trkpt lat="43.64473" lon="1.39372">
        <ele>132</ele>
        <time>2024-04-25T16:34:19Z</time>
      </trkpt>
      <trkpt lat="43.64474" lon="1.3938">
        <ele>132</ele>
        <time>2024-04-25T16:34:20Z</time>
      </trkpt>
      <trkpt lat="43.64475" lon="1.39384">
        <ele>132</ele>
        <time>2024-04-25T16:34:21Z</time>
      </trkpt>
      <trkpt lat="43.64476" lon="1.39388">
        <ele>132</ele>
        <time>2024-04-25T16:34:22Z</time>
      </trkpt>
      <trkpt lat="43.64476" lon="1.39392">
        <ele>132</ele>
        <time>2024-04-25T16:34:23Z</time>
      </trkpt>
      <trkpt lat="43.64476" lon="1.39392">
        <ele>132</ele>
        <time>2024-04-25T16:34:24Z</time>
      </trkpt>
      <trkpt lat="43.64477" lon="1.39395">
        <ele>132</ele>
        <time>2024-04-25T16:34:25Z</time>
      </trkpt>
      <trkpt lat="43.64478" lon="1.39399">
        <ele>132</ele>
        <time>2024-04-25T16:34:26Z</time>
      </trkpt>
      <trkpt lat="43.64479" lon="1.39407">
        <ele>132</ele>
        <time>2024-04-25T16:34:27Z</time>
      </trkpt>
      <trkpt lat="43.64479" lon="1.39411">
        <ele>133</ele>
        <time>2024-04-25T16:34:28Z</time>
      </trkpt>
      <trkpt lat="43.64479" lon="1.39414">
        <ele>133</ele>
        <time>2024-04-25T16:34:29Z</time>
      </trkpt>
      <trkpt lat="43.6448" lon="1.39418">
        <ele>132</ele>
        <time>2024-04-25T16:34:31Z</time>
      </trkpt>
      <trkpt lat="43.6448" lon="1.39422">
        <ele>132</ele>
        <time>2024-04-25T16:34:32Z</time>
      </trkpt>
      <trkpt lat="43.64481" lon="1.3943">
        <ele>132</ele>
        <time>2024-04-25T16:34:33Z</time>
      </trkpt>
      <trkpt lat="43.64481" lon="1.3943">
        <ele>132</ele>
        <time>2024-04-25T16:34:34Z</time>
      </trkpt>
      <trkpt lat="43.64482" lon="1.39435">
        <ele>132</ele>
        <time>2024-04-25T16:34:35Z</time>
      </trkpt>
      <trkpt lat="43.64483" lon="1.39437">
        <ele>132</ele>
        <time>2024-04-25T16:34:36Z</time>
      </trkpt>
      <trkpt lat="43.64484" lon="1.39445">
        <ele>132</ele>
        <time>2024-04-25T16:34:37Z</time>
      </trkpt>
      <trkpt lat="43.64486" lon="1.39449">
        <ele>132</ele>
        <time>2024-04-25T16:34:38Z</time>
      </trkpt>
      <trkpt lat="43.64486" lon="1.39449">
        <ele>132</ele>
        <time>2024-04-25T16:34:39Z</time>
      </trkpt>
      <trkpt lat="43.64487" lon="1.39452">
        <ele>132</ele>
        <time>2024-04-25T16:34:40Z</time>
      </trkpt>
      <trkpt lat="43.64487" lon="1.39456">
        <ele>132</ele>
        <time>2024-04-25T16:34:41Z</time>
      </trkpt>
      <trkpt lat="43.64489" lon="1.39463">
        <ele>132</ele>
        <time>2024-04-25T16:34:42Z</time>
      </trkpt>
      <trkpt lat="43.6449" lon="1.39467">
        <ele>132</ele>
        <time>2024-04-25T16:34:43Z</time>
      </trkpt>
      <trkpt lat="43.6449" lon="1.39471">
        <ele>132</ele>
        <time>2024-04-25T16:34:44Z</time>
      </trkpt>
      <trkpt lat="43.64491" lon="1.39475">
        <ele>132</ele>
        <time>2024-04-25T16:34:45Z</time>
      </trkpt>
      <trkpt lat="43.64491" lon="1.39475">
        <ele>132</ele>
        <time>2024-04-25T16:34:46Z</time>
      </trkpt>
      <trkpt lat="43.64492" lon="1.39482">
        <ele>132</ele>
        <time>2024-04-25T16:34:47Z</time>
      </trkpt>
      <trkpt lat="43.64492" lon="1.39482">
        <ele>132</ele>
        <time>2024-04-25T16:34:48Z</time>
      </trkpt>
      <trkpt lat="43.64494" lon="1.39488">
        <ele>132</ele>
        <time>2024-04-25T16:34:49Z</time>
      </trkpt>
      <trkpt lat="43.64494" lon="1.3949">
        <ele>132</ele>
        <time>2024-04-25T16:34:50Z</time>
      </trkpt>
      <trkpt lat="43.64495" lon="1.39497">
        <ele>132</ele>
        <time>2024-04-25T16:34:51Z</time>
      </trkpt>
      <trkpt lat="43.64496" lon="1.39501">
        <ele>132</ele>
        <time>2024-04-25T16:34:53Z</time>
      </trkpt>
      <trkpt lat="43.64498" lon="1.39508">
        <ele>133</ele>
        <time>2024-04-25T16:34:54Z</time>
      </trkpt>
      <trkpt lat="43.64498" lon="1.39508">
        <ele>133</ele>
        <time>2024-04-25T16:34:55Z</time>
      </trkpt>
      <trkpt lat="43.64498" lon="1.39512">
        <ele>133</ele>
        <time>2024-04-25T16:34:56Z</time>
      </trkpt>
      <trkpt lat="43.64499" lon="1.3952">
        <ele>132</ele>
        <time>2024-04-25T16:34:57Z</time>
      </trkpt>
      <trkpt lat="43.64499" lon="1.3952">
        <ele>132</ele>
        <time>2024-04-25T16:34:58Z</time>
      </trkpt>
      <trkpt lat="43.645" lon="1.39527">
        <ele>132</ele>
        <time>2024-04-25T16:34:59Z</time>
      </trkpt>
      <trkpt lat="43.645" lon="1.39527">
        <ele>132</ele>
        <time>2024-04-25T16:35:00Z</time>
      </trkpt>
      <trkpt lat="43.645" lon="1.39535">
        <ele>132</ele>
        <time>2024-04-25T16:35:01Z</time>
      </trkpt>
      <trkpt lat="43.645" lon="1.39535">
        <ele>132</ele>
        <time>2024-04-25T16:35:02Z</time>
      </trkpt>
      <trkpt lat="43.64501" lon="1.39539">
        <ele>132</ele>
        <time>2024-04-25T16:35:03Z</time>
      </trkpt>
      <trkpt lat="43.64501" lon="1.39547">
        <ele>132</ele>
        <time>2024-04-25T16:35:04Z</time>
      </trkpt>
      <trkpt lat="43.64501" lon="1.39547">
        <ele>132</ele>
        <time>2024-04-25T16:35:05Z</time>
      </trkpt>
      <trkpt lat="43.64502" lon="1.3955">
        <ele>132</ele>
        <time>2024-04-25T16:35:06Z</time>
      </trkpt>
      <trkpt lat="43.64502" lon="1.39554">
        <ele>132</ele>
        <time>2024-04-25T16:35:07Z</time>
      </trkpt>
      <trkpt lat="43.64503" lon="1.3956">
        <ele>132</ele>
        <time>2024-04-25T16:35:08Z</time>
      </trkpt>
      <trkpt lat="43.64503" lon="1.39561">
        <ele>132</ele>
        <time>2024-04-25T16:35:09Z</time>
      </trkpt>
      <trkpt lat="43.64503" lon="1.39569">
        <ele>132</ele>
        <time>2024-04-25T16:35:10Z</time>
      </trkpt>
      <trkpt lat="43.64504" lon="1.39573">
        <ele>132</ele>
        <time>2024-04-25T16:35:11Z</time>
      </trkpt>
      <trkpt lat="43.64504" lon="1.39573">
        <ele>132</ele>
        <time>2024-04-25T16:35:12Z</time>
      </trkpt>
      <trkpt lat="43.64504" lon="1.39576">
        <ele>132</ele>
        <time>2024-04-25T16:35:13Z</time>
      </trkpt>
      <trkpt lat="43.64504" lon="1.3958">
        <ele>132</ele>
        <time>2024-04-25T16:35:14Z</time>
      </trkpt>
      <trkpt lat="43.64505" lon="1.39588">
        <ele>132</ele>
        <time>2024-04-25T16:35:15Z</time>
      </trkpt>
      <trkpt lat="43.64506" lon="1.39592">
        <ele>132</ele>
        <time>2024-04-25T16:35:16Z</time>
      </trkpt>
      <trkpt lat="43.64506" lon="1.39595">
        <ele>132</ele>
        <time>2024-04-25T16:35:17Z</time>
      </trkpt>
      <trkpt lat="43.64507" lon="1.39599">
        <ele>132</ele>
        <time>2024-04-25T16:35:18Z</time>
      </trkpt>
      <trkpt lat="43.64507" lon="1.39603">
        <ele>132</ele>
        <time>2024-04-25T16:35:19Z</time>
      </trkpt>
      <trkpt lat="43.64507" lon="1.39603">
        <ele>132</ele>
        <time>2024-04-25T16:35:20Z</time>
      </trkpt>
      <trkpt lat="43.64507" lon="1.39607">
        <ele>132</ele>
        <time>2024-04-25T16:35:21Z</time>
      </trkpt>
      <trkpt lat="43.64508" lon="1.39614">
        <ele>132</ele>
        <time>2024-04-25T16:35:22Z</time>
      </trkpt>
      <trkpt lat="43.64508" lon="1.39614">
        <ele>132</ele>
        <time>2024-04-25T16:35:23Z</time>
      </trkpt>
      <trkpt lat="43.64509" lon="1.39622">
        <ele>132</ele>
        <time>2024-04-25T16:35:24Z</time>
      </trkpt>
      <trkpt lat="43.64509" lon="1.39626">
        <ele>132</ele>
        <time>2024-04-25T16:35:25Z</time>
      </trkpt>
      <trkpt lat="43.64509" lon="1.3963">
        <ele>132</ele>
        <time>2024-04-25T16:35:26Z</time>
      </trkpt>
      <trkpt lat="43.64509" lon="1.39636">
        <ele>132</ele>
        <time>2024-04-25T16:35:28Z</time>
      </trkpt>
      <trkpt lat="43.64509" lon="1.39638">
        <ele>132</ele>
        <time>2024-04-25T16:35:29Z</time>
      </trkpt>
      <trkpt lat="43.64509" lon="1.39641">
        <ele>132</ele>
        <time>2024-04-25T16:35:30Z</time>
      </trkpt>
      <trkpt lat="43.6451" lon="1.39645">
        <ele>131</ele>
        <time>2024-04-25T16:35:31Z</time>
      </trkpt>
      <trkpt lat="43.64509" lon="1.39653">
        <ele>132</ele>
        <time>2024-04-25T16:35:32Z</time>
      </trkpt>
      <trkpt lat="43.64509" lon="1.39657">
        <ele>132</ele>
        <time>2024-04-25T16:35:33Z</time>
      </trkpt>
      <trkpt lat="43.64509" lon="1.39661">
        <ele>132</ele>
        <time>2024-04-25T16:35:34Z</time>
      </trkpt>
      <trkpt lat="43.64509" lon="1.39665">
        <ele>132</ele>
        <time>2024-04-25T16:35:35Z</time>
      </trkpt>
      <trkpt lat="43.64509" lon="1.39669">
        <ele>132</ele>
        <time>2024-04-25T16:35:36Z</time>
      </trkpt>
      <trkpt lat="43.64509" lon="1.39669">
        <ele>132</ele>
        <time>2024-04-25T16:35:37Z</time>
      </trkpt>
      <trkpt lat="43.64509" lon="1.39672">
        <ele>132</ele>
        <time>2024-04-25T16:35:38Z</time>
      </trkpt>
      <trkpt lat="43.64509" lon="1.3968">
        <ele>132</ele>
        <time>2024-04-25T16:35:39Z</time>
      </trkpt>
      <trkpt lat="43.64509" lon="1.3968">
        <ele>132</ele>
        <time>2024-04-25T16:35:40Z</time>
      </trkpt>
      <trkpt lat="43.64509" lon="1.39688">
        <ele>132</ele>
        <time>2024-04-25T16:35:41Z</time>
      </trkpt>
      <trkpt lat="43.64509" lon="1.39688">
        <ele>132</ele>
        <time>2024-04-25T16:35:42Z</time>
      </trkpt>
      <trkpt lat="43.64509" lon="1.39692">
        <ele>132</ele>
        <time>2024-04-25T16:35:43Z</time>
      </trkpt>
      <trkpt lat="43.64509" lon="1.397">
        <ele>132</ele>
        <time>2024-04-25T16:35:44Z</time>
      </trkpt>
      <trkpt lat="43.64509" lon="1.397">
        <ele>132</ele>
        <time>2024-04-25T16:35:45Z</time>
      </trkpt>
      <trkpt lat="43.64509" lon="1.39705">
        <ele>132</ele>
        <time>2024-04-25T16:35:46Z</time>
      </trkpt>
      <trkpt lat="43.64509" lon="1.39707">
        <ele>132</ele>
        <time>2024-04-25T16:35:47Z</time>
      </trkpt>
      <trkpt lat="43.64508" lon="1.39715">
        <ele>132</ele>
        <time>2024-04-25T16:35:48Z</time>
      </trkpt>
      <trkpt lat="43.64508" lon="1.39715">
        <ele>132</ele>
        <time>2024-04-25T16:35:49Z</time>
      </trkpt>
      <trkpt lat="43.64508" lon="1.39723">
        <ele>132</ele>
        <time>2024-04-25T16:35:50Z</time>
      </trkpt>
      <trkpt lat="43.64508" lon="1.39723">
        <ele>132</ele>
        <time>2024-04-25T16:35:51Z</time>
      </trkpt>
      <trkpt lat="43.64508" lon="1.3973">
        <ele>132</ele>
        <time>2024-04-25T16:35:52Z</time>
      </trkpt>
      <trkpt lat="43.64508" lon="1.39734">
        <ele>132</ele>
        <time>2024-04-25T16:35:53Z</time>
      </trkpt>
      <trkpt lat="43.64508" lon="1.39734">
        <ele>132</ele>
        <time>2024-04-25T16:35:54Z</time>
      </trkpt>
      <trkpt lat="43.64508" lon="1.39742">
        <ele>132</ele>
        <time>2024-04-25T16:35:55Z</time>
      </trkpt>
      <trkpt lat="43.64508" lon="1.39742">
        <ele>132</ele>
        <time>2024-04-25T16:35:56Z</time>
      </trkpt>
      <trkpt lat="43.64508" lon="1.39749">
        <ele>132</ele>
        <time>2024-04-25T16:35:57Z</time>
      </trkpt>
      <trkpt lat="43.64508" lon="1.39749">
        <ele>132</ele>
        <time>2024-04-25T16:35:58Z</time>
      </trkpt>
      <trkpt lat="43.64508" lon="1.39753">
        <ele>132</ele>
        <time>2024-04-25T16:35:59Z</time>
      </trkpt>
      <trkpt lat="43.64508" lon="1.39761">
        <ele>132</ele>
        <time>2024-04-25T16:36:00Z</time>
      </trkpt>
      <trkpt lat="43.64508" lon="1.39761">
        <ele>132</ele>
        <time>2024-04-25T16:36:01Z</time>
      </trkpt>
      <trkpt lat="43.64509" lon="1.39764">
        <ele>132</ele>
        <time>2024-04-25T16:36:02Z</time>
      </trkpt>
      <trkpt lat="43.64509" lon="1.39768">
        <ele>133</ele>
        <time>2024-04-25T16:36:03Z</time>
      </trkpt>
      <trkpt lat="43.6451" lon="1.39771">
        <ele>133</ele>
        <time>2024-04-25T16:36:04Z</time>
      </trkpt>
      <trkpt lat="43.6451" lon="1.39775">
        <ele>133</ele>
        <time>2024-04-25T16:36:05Z</time>
      </trkpt>
      <trkpt lat="43.64511" lon="1.39779">
        <ele>132</ele>
        <time>2024-04-25T16:36:06Z</time>
      </trkpt>
      <trkpt lat="43.64512" lon="1.39782">
        <ele>132</ele>
        <time>2024-04-25T16:36:07Z</time>
      </trkpt>
      <trkpt lat="43.64513" lon="1.3979">
        <ele>132</ele>
        <time>2024-04-25T16:36:08Z</time>
      </trkpt>
      <trkpt lat="43.64514" lon="1.39793">
        <ele>132</ele>
        <time>2024-04-25T16:36:09Z</time>
      </trkpt>
      <trkpt lat="43.64514" lon="1.39793">
        <ele>132</ele>
        <time>2024-04-25T16:36:10Z</time>
      </trkpt>
      <trkpt lat="43.64514" lon="1.39801">
        <ele>132</ele>
        <time>2024-04-25T16:36:11Z</time>
      </trkpt>
      <trkpt lat="43.64514" lon="1.39801">
        <ele>132</ele>
        <time>2024-04-25T16:36:12Z</time>
      </trkpt>
      <trkpt lat="43.64514" lon="1.39808">
        <ele>132</ele>
        <time>2024-04-25T16:36:13Z</time>
      </trkpt>
      <trkpt lat="43.64514" lon="1.39808">
        <ele>132</ele>
        <time>2024-04-25T16:36:14Z</time>
      </trkpt>
      <trkpt lat="43.64513" lon="1.39811">
        <ele>132</ele>
        <time>2024-04-25T16:36:15Z</time>
      </trkpt>
      <trkpt lat="43.64513" lon="1.39815">
        <ele>132</ele>
        <time>2024-04-25T16:36:16Z</time>
      </trkpt>
      <trkpt lat="43.64512" lon="1.39818">
        <ele>132</ele>
        <time>2024-04-25T16:36:17Z</time>
      </trkpt>
      <trkpt lat="43.64512" lon="1.39826">
        <ele>132</ele>
        <time>2024-04-25T16:36:18Z</time>
      </trkpt>
      <trkpt lat="43.64511" lon="1.39829">
        <ele>132</ele>
        <time>2024-04-25T16:36:19Z</time>
      </trkpt>
      <trkpt lat="43.64511" lon="1.39833">
        <ele>132</ele>
        <time>2024-04-25T16:36:20Z</time>
      </trkpt>
      <trkpt lat="43.64511" lon="1.39837">
        <ele>132</ele>
        <time>2024-04-25T16:36:21Z</time>
      </trkpt>
      <trkpt lat="43.64511" lon="1.39837">
        <ele>132</ele>
        <time>2024-04-25T16:36:22Z</time>
      </trkpt>
      <trkpt lat="43.64511" lon="1.39841">
        <ele>132</ele>
        <time>2024-04-25T16:36:23Z</time>
      </trkpt>
      <trkpt lat="43.6451" lon="1.39845">
        <ele>132</ele>
        <time>2024-04-25T16:36:24Z</time>
      </trkpt>
      <trkpt lat="43.6451" lon="1.39849">
        <ele>132</ele>
        <time>2024-04-25T16:36:25Z</time>
      </trkpt>
      <trkpt lat="43.64509" lon="1.39853">
        <ele>132</ele>
        <time>2024-04-25T16:36:26Z</time>
      </trkpt>
      <trkpt lat="43.64509" lon="1.39861">
        <ele>132</ele>
        <time>2024-04-25T16:36:27Z</time>
      </trkpt>
      <trkpt lat="43.64508" lon="1.39865">
        <ele>132</ele>
        <time>2024-04-25T16:36:28Z</time>
      </trkpt>
      <trkpt lat="43.64508" lon="1.39865">
        <ele>132</ele>
        <time>2024-04-25T16:36:29Z</time>
      </trkpt>
      <trkpt lat="43.64506" lon="1.39872">
        <ele>133</ele>
        <time>2024-04-25T16:36:30Z</time>
      </trkpt>
      <trkpt lat="43.64506" lon="1.39872">
        <ele>133</ele>
        <time>2024-04-25T16:36:31Z</time>
      </trkpt>
      <trkpt lat="43.64504" lon="1.39878">
        <ele>133</ele>
        <time>2024-04-25T16:36:32Z</time>
      </trkpt>
      <trkpt lat="43.64504" lon="1.39881">
        <ele>132</ele>
        <time>2024-04-25T16:36:33Z</time>
      </trkpt>
      <trkpt lat="43.64504" lon="1.39881">
        <ele>132</ele>
        <time>2024-04-25T16:36:34Z</time>
      </trkpt>
      <trkpt lat="43.64504" lon="1.39883">
        <ele>132</ele>
        <time>2024-04-25T16:36:35Z</time>
      </trkpt>
      <trkpt lat="43.64494" lon="1.39928">
        <ele>132</ele>
        <time>2024-04-25T16:37:26Z</time>
      </trkpt>
      <trkpt lat="43.64496" lon="1.39929">
        <ele>133</ele>
        <time>2024-04-25T16:37:27Z</time>
      </trkpt>
      <trkpt lat="43.64499" lon="1.39931">
        <ele>133</ele>
        <time>2024-04-25T16:37:28Z</time>
      </trkpt>
      <trkpt lat="43.64499" lon="1.39931">
        <ele>133</ele>
        <time>2024-04-25T16:37:29Z</time>
      </trkpt>
      <trkpt lat="43.64502" lon="1.39934">
        <ele>133</ele>
        <time>2024-04-25T16:37:30Z</time>
      </trkpt>
      <trkpt lat="43.64502" lon="1.39934">
        <ele>133</ele>
        <time>2024-04-25T16:37:31Z</time>
      </trkpt>
      <trkpt lat="43.64505" lon="1.39939">
        <ele>132</ele>
        <time>2024-04-25T16:37:32Z</time>
      </trkpt>
      <trkpt lat="43.64505" lon="1.39939">
        <ele>132</ele>
        <time>2024-04-25T16:37:33Z</time>
      </trkpt>
      <trkpt lat="43.64506" lon="1.39945">
        <ele>132</ele>
        <time>2024-04-25T16:37:34Z</time>
      </trkpt>
      <trkpt lat="43.64506" lon="1.39948">
        <ele>132</ele>
        <time>2024-04-25T16:37:36Z</time>
      </trkpt>
      <trkpt lat="43.64505" lon="1.39951">
        <ele>132</ele>
        <time>2024-04-25T16:37:37Z</time>
      </trkpt>
      <trkpt lat="43.64503" lon="1.39954">
        <ele>132</ele>
        <time>2024-04-25T16:37:38Z</time>
      </trkpt>
      <trkpt lat="43.64502" lon="1.39955">
        <ele>132</ele>
        <time>2024-04-25T16:37:39Z</time>
      </trkpt>
      <trkpt lat="43.64498" lon="1.39956">
        <ele>132</ele>
        <time>2024-04-25T16:37:40Z</time>
      </trkpt>
      <trkpt lat="43.64498" lon="1.39956">
        <ele>132</ele>
        <time>2024-04-25T16:37:41Z</time>
      </trkpt>
      <trkpt lat="43.64494" lon="1.39957">
        <ele>132</ele>
        <time>2024-04-25T16:37:42Z</time>
      </trkpt>
      <trkpt lat="43.64492" lon="1.39958">
        <ele>132</ele>
        <time>2024-04-25T16:37:43Z</time>
      </trkpt>
      <trkpt lat="43.64492" lon="1.39958">
        <ele>132</ele>
        <time>2024-04-25T16:37:44Z</time>
      </trkpt>
      <trkpt lat="43.6449" lon="1.39957">
        <ele>132</ele>
        <time>2024-04-25T16:37:45Z</time>
      </trkpt>
      <trkpt lat="43.64488" lon="1.39957">
        <ele>131</ele>
        <time>2024-04-25T16:37:46Z</time>
      </trkpt>
      <trkpt lat="43.64484" lon="1.39958">
        <ele>131</ele>
        <time>2024-04-25T16:37:47Z</time>
      </trkpt>
      <trkpt lat="43.64484" lon="1.39958">
        <ele>131</ele>
        <time>2024-04-25T16:37:48Z</time>
      </trkpt>
      <trkpt lat="43.64479" lon="1.3996">
        <ele>131</ele>
        <time>2024-04-25T16:37:49Z</time>
      </trkpt>
      <trkpt lat="43.64477" lon="1.39961">
        <ele>131</ele>
        <time>2024-04-25T16:37:50Z</time>
      </trkpt>
      <trkpt lat="43.64477" lon="1.39961">
        <ele>131</ele>
        <time>2024-04-25T16:37:51Z</time>
      </trkpt>
      <trkpt lat="43.64475" lon="1.39962">
        <ele>131</ele>
        <time>2024-04-25T16:37:52Z</time>
      </trkpt>
      <trkpt lat="43.64471" lon="1.39963">
        <ele>131</ele>
        <time>2024-04-25T16:37:53Z</time>
      </trkpt>
      <trkpt lat="43.64469" lon="1.39962">
        <ele>131</ele>
        <time>2024-04-25T16:37:54Z</time>
      </trkpt>
      <trkpt lat="43.64469" lon="1.39962">
        <ele>131</ele>
        <time>2024-04-25T16:37:55Z</time>
      </trkpt>
      <trkpt lat="43.64465" lon="1.39963">
        <ele>131</ele>
        <time>2024-04-25T16:37:56Z</time>
      </trkpt>
      <trkpt lat="43.64465" lon="1.39963">
        <ele>131</ele>
        <time>2024-04-25T16:37:57Z</time>
      </trkpt>
      <trkpt lat="43.64461" lon="1.39963">
        <ele>131</ele>
        <time>2024-04-25T16:37:58Z</time>
      </trkpt>
      <trkpt lat="43.64456" lon="1.39964">
        <ele>130</ele>
        <time>2024-04-25T16:38:00Z</time>
      </trkpt>
      <trkpt lat="43.64453" lon="1.39965">
        <ele>130</ele>
        <time>2024-04-25T16:38:01Z</time>
      </trkpt>
      <trkpt lat="43.6445" lon="1.39965">
        <ele>130</ele>
        <time>2024-04-25T16:38:02Z</time>
      </trkpt>
      <trkpt lat="43.64448" lon="1.39966">
        <ele>130</ele>
        <time>2024-04-25T16:38:03Z</time>
      </trkpt>
      <trkpt lat="43.64445" lon="1.39966">
        <ele>130</ele>
        <time>2024-04-25T16:38:05Z</time>
      </trkpt>
      <trkpt lat="43.64441" lon="1.39965">
        <ele>130</ele>
        <time>2024-04-25T16:38:06Z</time>
      </trkpt>
      <trkpt lat="43.64439" lon="1.39965">
        <ele>130</ele>
        <time>2024-04-25T16:38:07Z</time>
      </trkpt>
      <trkpt lat="43.64437" lon="1.39965">
        <ele>130</ele>
        <time>2024-04-25T16:38:08Z</time>
      </trkpt>
      <trkpt lat="43.64437" lon="1.39965">
        <ele>130</ele>
        <time>2024-04-25T16:38:09Z</time>
      </trkpt>
      <trkpt lat="43.64432" lon="1.39965">
        <ele>130</ele>
        <time>2024-04-25T16:38:10Z</time>
      </trkpt>
      <trkpt lat="43.64432" lon="1.39965">
        <ele>130</ele>
        <time>2024-04-25T16:38:11Z</time>
      </trkpt>
      <trkpt lat="43.64428" lon="1.39964">
        <ele>130</ele>
        <time>2024-04-25T16:38:12Z</time>
      </trkpt>
      <trkpt lat="43.64426" lon="1.39964">
        <ele>130</ele>
        <time>2024-04-25T16:38:13Z</time>
      </trkpt>
      <trkpt lat="43.64426" lon="1.39964">
        <ele>130</ele>
        <time>2024-04-25T16:38:14Z</time>
      </trkpt>
      <trkpt lat="43.64424" lon="1.39964">
        <ele>131</ele>
        <time>2024-04-25T16:38:15Z</time>
      </trkpt>
      <trkpt lat="43.64422" lon="1.39964">
        <ele>131</ele>
        <time>2024-04-25T16:38:16Z</time>
      </trkpt>
      <trkpt lat="43.64417" lon="1.39964">
        <ele>131</ele>
        <time>2024-04-25T16:38:17Z</time>
      </trkpt>
      <trkpt lat="43.64417" lon="1.39964">
        <ele>131</ele>
        <time>2024-04-25T16:38:18Z</time>
      </trkpt>
      <trkpt lat="43.64412" lon="1.39964">
        <ele>131</ele>
        <time>2024-04-25T16:38:19Z</time>
      </trkpt>
      <trkpt lat="43.6441" lon="1.39964">
        <ele>130</ele>
        <time>2024-04-25T16:38:21Z</time>
      </trkpt>
      <trkpt lat="43.64406" lon="1.39964">
        <ele>130</ele>
        <time>2024-04-25T16:38:22Z</time>
      </trkpt>
      <trkpt lat="43.64404" lon="1.39963">
        <ele>130</ele>
        <time>2024-04-25T16:38:24Z</time>
      </trkpt>
      <trkpt lat="43.64399" lon="1.39964">
        <ele>130</ele>
        <time>2024-04-25T16:38:25Z</time>
      </trkpt>
      <trkpt lat="43.64399" lon="1.39964">
        <ele>130</ele>
        <time>2024-04-25T16:38:26Z</time>
      </trkpt>
      <trkpt lat="43.64395" lon="1.39964">
        <ele>130</ele>
        <time>2024-04-25T16:38:27Z</time>
      </trkpt>
      <trkpt lat="43.64395" lon="1.39964">
        <ele>130</ele>
        <time>2024-04-25T16:38:28Z</time>
      </trkpt>
      <trkpt lat="43.6439" lon="1.39963">
        <ele>130</ele>
        <time>2024-04-25T16:38:29Z</time>
      </trkpt>
      <trkpt lat="43.64388" lon="1.39963">
        <ele>130</ele>
        <time>2024-04-25T16:38:30Z</time>
      </trkpt>
      <trkpt lat="43.64388" lon="1.39963">
        <ele>130</ele>
        <time>2024-04-25T16:38:31Z</time>
      </trkpt>
      <trkpt lat="43.64388" lon="1.39963">
        <ele>130</ele>
        <time>2024-04-25T16:38:32Z</time>
      </trkpt>
      <trkpt lat="43.64385" lon="1.39962">
        <ele>130</ele>
        <time>2024-04-25T16:38:33Z</time>
      </trkpt>
      <trkpt lat="43.64381" lon="1.39962">
        <ele>130</ele>
        <time>2024-04-25T16:38:34Z</time>
      </trkpt>
      <trkpt lat="43.64381" lon="1.39962">
        <ele>130</ele>
        <time>2024-04-25T16:38:35Z</time>
      </trkpt>
      <trkpt lat="43.64377" lon="1.39962">
        <ele>130</ele>
        <time>2024-04-25T16:38:36Z</time>
      </trkpt>
      <trkpt lat="43.64375" lon="1.39962">
        <ele>130</ele>
        <time>2024-04-25T16:38:37Z</time>
      </trkpt>
      <trkpt lat="43.64375" lon="1.39962">
        <ele>130</ele>
        <time>2024-04-25T16:38:38Z</time>
      </trkpt>
      <trkpt lat="43.64372" lon="1.39963">
        <ele>130</ele>
        <time>2024-04-25T16:38:39Z</time>
      </trkpt>
      <trkpt lat="43.64369" lon="1.39962">
        <ele>130</ele>
        <time>2024-04-25T16:38:40Z</time>
      </trkpt>
      <trkpt lat="43.64364" lon="1.39962">
        <ele>130</ele>
        <time>2024-04-25T16:38:41Z</time>
      </trkpt>
      <trkpt lat="43.64362" lon="1.39961">
        <ele>130</ele>
        <time>2024-04-25T16:38:43Z</time>
      </trkpt>
      <trkpt lat="43.64357" lon="1.39959">
        <ele>130</ele>
        <time>2024-04-25T16:38:44Z</time>
      </trkpt>
      <trkpt lat="43.64355" lon="1.39958">
        <ele>130</ele>
        <time>2024-04-25T16:38:45Z</time>
      </trkpt>
      <trkpt lat="43.64353" lon="1.39957">
        <ele>130</ele>
        <time>2024-04-25T16:38:46Z</time>
      </trkpt>
      <trkpt lat="43.64353" lon="1.39957">
        <ele>131</ele>
        <time>2024-04-25T16:38:47Z</time>
      </trkpt>
      <trkpt lat="43.6435" lon="1.39956">
        <ele>131</ele>
        <time>2024-04-25T16:38:48Z</time>
      </trkpt>
      <trkpt lat="43.64345" lon="1.39955">
        <ele>131</ele>
        <time>2024-04-25T16:38:49Z</time>
      </trkpt>
      <trkpt lat="43.64345" lon="1.39955">
        <ele>131</ele>
        <time>2024-04-25T16:38:50Z</time>
      </trkpt>
      <trkpt lat="43.64341" lon="1.39954">
        <ele>131</ele>
        <time>2024-04-25T16:38:51Z</time>
      </trkpt>
      <trkpt lat="43.64341" lon="1.39954">
        <ele>131</ele>
        <time>2024-04-25T16:38:52Z</time>
      </trkpt>
      <trkpt lat="43.64339" lon="1.39953">
        <ele>131</ele>
        <time>2024-04-25T16:38:53Z</time>
      </trkpt>
      <trkpt lat="43.64337" lon="1.39953">
        <ele>131</ele>
        <time>2024-04-25T16:38:54Z</time>
      </trkpt>
      <trkpt lat="43.64335" lon="1.39953">
        <ele>131</ele>
        <time>2024-04-25T16:38:55Z</time>
      </trkpt>
      <trkpt lat="43.64331" lon="1.39951">
        <ele>131</ele>
        <time>2024-04-25T16:38:56Z</time>
      </trkpt>
      <trkpt lat="43.64331" lon="1.39951">
        <ele>131</ele>
        <time>2024-04-25T16:38:57Z</time>
      </trkpt>
      <trkpt lat="43.64326" lon="1.39952">
        <ele>131</ele>
        <time>2024-04-25T16:38:58Z</time>
      </trkpt>
      <trkpt lat="43.64326" lon="1.39952">
        <ele>131</ele>
        <time>2024-04-25T16:38:59Z</time>
      </trkpt>
      <trkpt lat="43.64321" lon="1.39951">
        <ele>131</ele>
        <time>2024-04-25T16:39:00Z</time>
      </trkpt>
      <trkpt lat="43.64319" lon="1.3995">
        <ele>131</ele>
        <time>2024-04-25T16:39:02Z</time>
      </trkpt>
      <trkpt lat="43.64317" lon="1.39949">
        <ele>131</ele>
        <time>2024-04-25T16:39:03Z</time>
      </trkpt>
      <trkpt lat="43.64314" lon="1.39947">
        <ele>131</ele>
        <time>2024-04-25T16:39:04Z</time>
      </trkpt>
      <trkpt lat="43.64312" lon="1.39946">
        <ele>131</ele>
        <time>2024-04-25T16:39:06Z</time>
      </trkpt>
      <trkpt lat="43.6431" lon="1.39945">
        <ele>131</ele>
        <time>2024-04-25T16:39:07Z</time>
      </trkpt>
      <trkpt lat="43.64305" lon="1.39944">
        <ele>131</ele>
        <time>2024-04-25T16:39:08Z</time>
      </trkpt>
      <trkpt lat="43.64305" lon="1.39944">
        <ele>131</ele>
        <time>2024-04-25T16:39:09Z</time>
      </trkpt>
      <trkpt lat="43.64301" lon="1.39942">
        <ele>131</ele>
        <time>2024-04-25T16:39:10Z</time>
      </trkpt>
      <trkpt lat="43.64301" lon="1.39942">
        <ele>131</ele>
        <time>2024-04-25T16:39:11Z</time>
      </trkpt>
      <trkpt lat="43.64297" lon="1.39941">
        <ele>131</ele>
        <time>2024-04-25T16:39:12Z</time>
      </trkpt>
      <trkpt lat="43.64297" lon="1.39941">
        <ele>131</ele>
        <time>2024-04-25T16:39:13Z</time>
      </trkpt>
      <trkpt lat="43.64294" lon="1.3994">
        <ele>131</ele>
        <time>2024-04-25T16:39:14Z</time>
      </trkpt>
      <trkpt lat="43.64292" lon="1.39939">
        <ele>131</ele>
        <time>2024-04-25T16:39:15Z</time>
      </trkpt>
      <trkpt lat="43.6429" lon="1.39939">
        <ele>131</ele>
        <time>2024-04-25T16:39:16Z</time>
      </trkpt>
      <trkpt lat="43.64288" lon="1.39938">
        <ele>131</ele>
        <time>2024-04-25T16:39:17Z</time>
      </trkpt>
      <trkpt lat="43.64288" lon="1.39938">
        <ele>131</ele>
        <time>2024-04-25T16:39:18Z</time>
      </trkpt>
      <trkpt lat="43.64285" lon="1.39936">
        <ele>131</ele>
        <time>2024-04-25T16:39:19Z</time>
      </trkpt>
      <trkpt lat="43.64285" lon="1.39936">
        <ele>131</ele>
        <time>2024-04-25T16:39:21Z</time>
      </trkpt>
      <trkpt lat="43.64282" lon="1.39934">
        <ele>131</ele>
        <time>2024-04-25T16:39:22Z</time>
      </trkpt>
      <trkpt lat="43.64278" lon="1.39933">
        <ele>131</ele>
        <time>2024-04-25T16:39:23Z</time>
      </trkpt>
      <trkpt lat="43.64276" lon="1.39933">
        <ele>131</ele>
        <time>2024-04-25T16:39:24Z</time>
      </trkpt>
      <trkpt lat="43.64276" lon="1.39933">
        <ele>131</ele>
        <time>2024-04-25T16:39:25Z</time>
      </trkpt>
      <trkpt lat="43.64271" lon="1.39933">
        <ele>131</ele>
        <time>2024-04-25T16:39:26Z</time>
      </trkpt>
      <trkpt lat="43.64271" lon="1.39933">
        <ele>131</ele>
        <time>2024-04-25T16:39:27Z</time>
      </trkpt>
      <trkpt lat="43.64266" lon="1.39932">
        <ele>131</ele>
        <time>2024-04-25T16:39:28Z</time>
      </trkpt>
      <trkpt lat="43.64264" lon="1.39932">
        <ele>131</ele>
        <time>2024-04-25T16:39:29Z</time>
      </trkpt>
      <trkpt lat="43.64262" lon="1.39931">
        <ele>131</ele>
        <time>2024-04-25T16:39:31Z</time>
      </trkpt>
      <trkpt lat="43.64257" lon="1.3993">
        <ele>131</ele>
        <time>2024-04-25T16:39:32Z</time>
      </trkpt>
      <trkpt lat="43.64255" lon="1.3993">
        <ele>131</ele>
        <time>2024-04-25T16:39:34Z</time>
      </trkpt>
      <trkpt lat="43.64253" lon="1.3993">
        <ele>131</ele>
        <time>2024-04-25T16:39:35Z</time>
      </trkpt>
      <trkpt lat="43.64251" lon="1.39929">
        <ele>131</ele>
        <time>2024-04-25T16:39:36Z</time>
      </trkpt>
      <trkpt lat="43.64246" lon="1.3993">
        <ele>131</ele>
        <time>2024-04-25T16:39:37Z</time>
      </trkpt>
      <trkpt lat="43.64244" lon="1.39931">
        <ele>131</ele>
        <time>2024-04-25T16:39:38Z</time>
      </trkpt>
      <trkpt lat="43.6424" lon="1.39932">
        <ele>131</ele>
        <time>2024-04-25T16:39:40Z</time>
      </trkpt>
      <trkpt lat="43.64238" lon="1.39932">
        <ele>131</ele>
        <time>2024-04-25T16:39:41Z</time>
      </trkpt>
      <trkpt lat="43.64238" lon="1.39932">
        <ele>131</ele>
        <time>2024-04-25T16:39:42Z</time>
      </trkpt>
      <trkpt lat="43.64236" lon="1.39934">
        <ele>131</ele>
        <time>2024-04-25T16:39:43Z</time>
      </trkpt>
      <trkpt lat="43.64232" lon="1.39936">
        <ele>131</ele>
        <time>2024-04-25T16:39:44Z</time>
      </trkpt>
      <trkpt lat="43.64232" lon="1.39936">
        <ele>131</ele>
        <time>2024-04-25T16:39:45Z</time>
      </trkpt>
      <trkpt lat="43.6423" lon="1.39938">
        <ele>131</ele>
        <time>2024-04-25T16:39:46Z</time>
      </trkpt>
      <trkpt lat="43.64228" lon="1.39939">
        <ele>131</ele>
        <time>2024-04-25T16:39:47Z</time>
      </trkpt>
      <trkpt lat="43.64224" lon="1.39942">
        <ele>131</ele>
        <time>2024-04-25T16:39:48Z</time>
      </trkpt>
      <trkpt lat="43.64222" lon="1.39943">
        <ele>131</ele>
        <time>2024-04-25T16:39:49Z</time>
      </trkpt>
      <trkpt lat="43.64222" lon="1.39943">
        <ele>131</ele>
        <time>2024-04-25T16:39:50Z</time>
      </trkpt>
      <trkpt lat="43.6422" lon="1.39944">
        <ele>131</ele>
        <time>2024-04-25T16:39:51Z</time>
      </trkpt>
      <trkpt lat="43.64218" lon="1.39946">
        <ele>131</ele>
        <time>2024-04-25T16:39:52Z</time>
      </trkpt>
      <trkpt lat="43.64217" lon="1.39952">
        <ele>131</ele>
        <time>2024-04-25T16:39:53Z</time>
      </trkpt>
      <trkpt lat="43.64215" lon="1.39955">
        <ele>131</ele>
        <time>2024-04-25T16:39:54Z</time>
      </trkpt>
      <trkpt lat="43.64213" lon="1.39957">
        <ele>131</ele>
        <time>2024-04-25T16:39:55Z</time>
      </trkpt>
      <trkpt lat="43.64211" lon="1.39959">
        <ele>131</ele>
        <time>2024-04-25T16:39:56Z</time>
      </trkpt>
      <trkpt lat="43.64209" lon="1.3996">
        <ele>131</ele>
        <time>2024-04-25T16:39:57Z</time>
      </trkpt>
      <trkpt lat="43.64208" lon="1.39962">
        <ele>131</ele>
        <time>2024-04-25T16:39:59Z</time>
      </trkpt>
      <trkpt lat="43.64203" lon="1.39965">
        <ele>131</ele>
        <time>2024-04-25T16:40:00Z</time>
      </trkpt>
      <trkpt lat="43.64203" lon="1.39965">
        <ele>131</ele>
        <time>2024-04-25T16:40:01Z</time>
      </trkpt>
      <trkpt lat="43.64201" lon="1.39967">
        <ele>130</ele>
        <time>2024-04-25T16:40:02Z</time>
      </trkpt>
      <trkpt lat="43.64199" lon="1.39969">
        <ele>130</ele>
        <time>2024-04-25T16:40:03Z</time>
      </trkpt>
      <trkpt lat="43.64195" lon="1.3997">
        <ele>131</ele>
        <time>2024-04-25T16:40:04Z</time>
      </trkpt>
      <trkpt lat="43.64195" lon="1.3997">
        <ele>131</ele>
        <time>2024-04-25T16:40:05Z</time>
      </trkpt>
      <trkpt lat="43.64193" lon="1.39971">
        <ele>131</ele>
        <time>2024-04-25T16:40:06Z</time>
      </trkpt>
      <trkpt lat="43.64189" lon="1.39973">
        <ele>131</ele>
        <time>2024-04-25T16:40:07Z</time>
      </trkpt>
      <trkpt lat="43.64189" lon="1.39973">
        <ele>131</ele>
        <time>2024-04-25T16:40:08Z</time>
      </trkpt>
      <trkpt lat="43.64186" lon="1.39973">
        <ele>131</ele>
        <time>2024-04-25T16:40:09Z</time>
      </trkpt>
      <trkpt lat="43.64184" lon="1.39974">
        <ele>131</ele>
        <time>2024-04-25T16:40:10Z</time>
      </trkpt>
      <trkpt lat="43.64179" lon="1.39975">
        <ele>131</ele>
        <time>2024-04-25T16:40:11Z</time>
      </trkpt>
      <trkpt lat="43.64177" lon="1.39975">
        <ele>131</ele>
        <time>2024-04-25T16:40:12Z</time>
      </trkpt>
      <trkpt lat="43.64175" lon="1.39976">
        <ele>131</ele>
        <time>2024-04-25T16:40:13Z</time>
      </trkpt>
      <trkpt lat="43.64171" lon="1.39977">
        <ele>131</ele>
        <time>2024-04-25T16:40:15Z</time>
      </trkpt>
      <trkpt lat="43.64169" lon="1.39978">
        <ele>131</ele>
        <time>2024-04-25T16:40:16Z</time>
      </trkpt>
      <trkpt lat="43.64167" lon="1.39979">
        <ele>131</ele>
        <time>2024-04-25T16:40:18Z</time>
      </trkpt>
      <trkpt lat="43.64162" lon="1.39981">
        <ele>131</ele>
        <time>2024-04-25T16:40:19Z</time>
      </trkpt>
      <trkpt lat="43.64159" lon="1.39981">
        <ele>131</ele>
        <time>2024-04-25T16:40:20Z</time>
      </trkpt>
      <trkpt lat="43.64157" lon="1.39982">
        <ele>131</ele>
        <time>2024-04-25T16:40:21Z</time>
      </trkpt>
      <trkpt lat="43.64157" lon="1.39982">
        <ele>131</ele>
        <time>2024-04-25T16:40:22Z</time>
      </trkpt>
      <trkpt lat="43.64153" lon="1.39983">
        <ele>131</ele>
        <time>2024-04-25T16:40:23Z</time>
      </trkpt>
      <trkpt lat="43.64153" lon="1.39983">
        <ele>131</ele>
        <time>2024-04-25T16:40:24Z</time>
      </trkpt>
      <trkpt lat="43.64149" lon="1.39983">
        <ele>131</ele>
        <time>2024-04-25T16:40:25Z</time>
      </trkpt>
      <trkpt lat="43.64149" lon="1.39983">
        <ele>131</ele>
        <time>2024-04-25T16:40:26Z</time>
      </trkpt>
      <trkpt lat="43.64146" lon="1.39983">
        <ele>131</ele>
        <time>2024-04-25T16:40:27Z</time>
      </trkpt>
      <trkpt lat="43.64146" lon="1.39983">
        <ele>131</ele>
        <time>2024-04-25T16:40:28Z</time>
      </trkpt>
      <trkpt lat="43.64146" lon="1.39983">
        <ele>131</ele>
        <time>2024-04-25T16:40:29Z</time>
      </trkpt>
      <trkpt lat="43.64141" lon="1.39983">
        <ele>131</ele>
        <time>2024-04-25T16:40:30Z</time>
      </trkpt>
      <trkpt lat="43.64141" lon="1.39983">
        <ele>131</ele>
        <time>2024-04-25T16:40:31Z</time>
      </trkpt>
      <trkpt lat="43.64138" lon="1.39984">
        <ele>131</ele>
        <time>2024-04-25T16:40:32Z</time>
      </trkpt>
      <trkpt lat="43.64138" lon="1.39984">
        <ele>131</ele>
        <time>2024-04-25T16:40:33Z</time>
      </trkpt>
      <trkpt lat="43.64133" lon="1.39985">
        <ele>131</ele>
        <time>2024-04-25T16:40:34Z</time>
      </trkpt>
      <trkpt lat="43.64132" lon="1.39985">
        <ele>131</ele>
        <time>2024-04-25T16:40:35Z</time>
      </trkpt>
      <trkpt lat="43.64129" lon="1.39987">
        <ele>131</ele>
        <time>2024-04-25T16:40:37Z</time>
      </trkpt>
      <trkpt lat="43.64126" lon="1.39992">
        <ele>131</ele>
        <time>2024-04-25T16:40:38Z</time>
      </trkpt>
      <trkpt lat="43.64124" lon="1.39995">
        <ele>131</ele>
        <time>2024-04-25T16:40:39Z</time>
      </trkpt>
      <trkpt lat="43.64123" lon="1.39998">
        <ele>132</ele>
        <time>2024-04-25T16:40:40Z</time>
      </trkpt>
      <trkpt lat="43.64121" lon="1.40002">
        <ele>132</ele>
        <time>2024-04-25T16:40:41Z</time>
      </trkpt>
      <trkpt lat="43.64121" lon="1.40002">
        <ele>132</ele>
        <time>2024-04-25T16:40:42Z</time>
      </trkpt>
      <trkpt lat="43.64118" lon="1.40007">
        <ele>132</ele>
        <time>2024-04-25T16:40:43Z</time>
      </trkpt>
      <trkpt lat="43.64118" lon="1.40007">
        <ele>132</ele>
        <time>2024-04-25T16:40:44Z</time>
      </trkpt>
      <trkpt lat="43.64116" lon="1.40013">
        <ele>132</ele>
        <time>2024-04-25T16:40:45Z</time>
      </trkpt>
      <trkpt lat="43.64116" lon="1.40013">
        <ele>132</ele>
        <time>2024-04-25T16:40:46Z</time>
      </trkpt>
      <trkpt lat="43.64113" lon="1.40019">
        <ele>132</ele>
        <time>2024-04-25T16:40:47Z</time>
      </trkpt>
      <trkpt lat="43.64112" lon="1.40022">
        <ele>132</ele>
        <time>2024-04-25T16:40:48Z</time>
      </trkpt>
      <trkpt lat="43.64111" lon="1.40025">
        <ele>132</ele>
        <time>2024-04-25T16:40:49Z</time>
      </trkpt>
      <trkpt lat="43.64111" lon="1.40025">
        <ele>132</ele>
        <time>2024-04-25T16:40:50Z</time>
      </trkpt>
      <trkpt lat="43.6411" lon="1.40028">
        <ele>132</ele>
        <time>2024-04-25T16:40:51Z</time>
      </trkpt>
      <trkpt lat="43.64107" lon="1.40034">
        <ele>132</ele>
        <time>2024-04-25T16:40:52Z</time>
      </trkpt>
      <trkpt lat="43.64107" lon="1.40034">
        <ele>132</ele>
        <time>2024-04-25T16:40:53Z</time>
      </trkpt>
      <trkpt lat="43.64105" lon="1.40041">
        <ele>132</ele>
        <time>2024-04-25T16:40:54Z</time>
      </trkpt>
      <trkpt lat="43.64104" lon="1.40044">
        <ele>132</ele>
        <time>2024-04-25T16:40:56Z</time>
      </trkpt>
      <trkpt lat="43.64102" lon="1.40046">
        <ele>132</ele>
        <time>2024-04-25T16:40:57Z</time>
      </trkpt>
      <trkpt lat="43.641" lon="1.40051">
        <ele>132</ele>
        <time>2024-04-25T16:40:58Z</time>
      </trkpt>
      <trkpt lat="43.64099" lon="1.40052">
        <ele>132</ele>
        <time>2024-04-25T16:40:59Z</time>
      </trkpt>
      <trkpt lat="43.64096" lon="1.40058">
        <ele>132</ele>
        <time>2024-04-25T16:41:00Z</time>
      </trkpt>
      <trkpt lat="43.64094" lon="1.40061">
        <ele>132</ele>
        <time>2024-04-25T16:41:01Z</time>
      </trkpt>
      <trkpt lat="43.64093" lon="1.40064">
        <ele>132</ele>
        <time>2024-04-25T16:41:02Z</time>
      </trkpt>
      <trkpt lat="43.64091" lon="1.40066">
        <ele>132</ele>
        <time>2024-04-25T16:41:03Z</time>
      </trkpt>
      <trkpt lat="43.64091" lon="1.40066">
        <ele>132</ele>
        <time>2024-04-25T16:41:04Z</time>
      </trkpt>
      <trkpt lat="43.64089" lon="1.40069">
        <ele>132</ele>
        <time>2024-04-25T16:41:05Z</time>
      </trkpt>
      <trkpt lat="43.64085" lon="1.40074">
        <ele>132</ele>
        <time>2024-04-25T16:41:06Z</time>
      </trkpt>
      <trkpt lat="43.64083" lon="1.40077">
        <ele>133</ele>
        <time>2024-04-25T16:41:07Z</time>
      </trkpt>
      <trkpt lat="43.64081" lon="1.40079">
        <ele>133</ele>
        <time>2024-04-25T16:41:08Z</time>
      </trkpt>
      <trkpt lat="43.6408" lon="1.40081">
        <ele>133</ele>
        <time>2024-04-25T16:41:09Z</time>
      </trkpt>
      <trkpt lat="43.6408" lon="1.40081">
        <ele>133</ele>
        <time>2024-04-25T16:41:10Z</time>
      </trkpt>
      <trkpt lat="43.64076" lon="1.40085">
        <ele>133</ele>
        <time>2024-04-25T16:41:11Z</time>
      </trkpt>
      <trkpt lat="43.64076" lon="1.40085">
        <ele>132</ele>
        <time>2024-04-25T16:41:12Z</time>
      </trkpt>
      <trkpt lat="43.64072" lon="1.4009">
        <ele>132</ele>
        <time>2024-04-25T16:41:13Z</time>
      </trkpt>
      <trkpt lat="43.6407" lon="1.40092">
        <ele>133</ele>
        <time>2024-04-25T16:41:15Z</time>
      </trkpt>
      <trkpt lat="43.64068" lon="1.40094">
        <ele>133</ele>
        <time>2024-04-25T16:41:16Z</time>
      </trkpt>
      <trkpt lat="43.64065" lon="1.40097">
        <ele>133</ele>
        <time>2024-04-25T16:41:17Z</time>
      </trkpt>
      <trkpt lat="43.64064" lon="1.40098">
        <ele>133</ele>
        <time>2024-04-25T16:41:18Z</time>
      </trkpt>
      <trkpt lat="43.6406" lon="1.40102">
        <ele>133</ele>
        <time>2024-04-25T16:41:19Z</time>
      </trkpt>
      <trkpt lat="43.6406" lon="1.40102">
        <ele>133</ele>
        <time>2024-04-25T16:41:20Z</time>
      </trkpt>
      <trkpt lat="43.64056" lon="1.40106">
        <ele>133</ele>
        <time>2024-04-25T16:41:21Z</time>
      </trkpt>
      <trkpt lat="43.64054" lon="1.40108">
        <ele>133</ele>
        <time>2024-04-25T16:41:22Z</time>
      </trkpt>
      <trkpt lat="43.64051" lon="1.4011">
        <ele>133</ele>
        <time>2024-04-25T16:41:23Z</time>
      </trkpt>
      <trkpt lat="43.64049" lon="1.40112">
        <ele>132</ele>
        <time>2024-04-25T16:41:24Z</time>
      </trkpt>
      <trkpt lat="43.64049" lon="1.40112">
        <ele>132</ele>
        <time>2024-04-25T16:41:25Z</time>
      </trkpt>
      <trkpt lat="43.64046" lon="1.40116">
        <ele>132</ele>
        <time>2024-04-25T16:41:26Z</time>
      </trkpt>
      <trkpt lat="43.64046" lon="1.40116">
        <ele>133</ele>
        <time>2024-04-25T16:41:27Z</time>
      </trkpt>
      <trkpt lat="43.64041" lon="1.40119">
        <ele>133</ele>
        <time>2024-04-25T16:41:28Z</time>
      </trkpt>
      <trkpt lat="43.6404" lon="1.40121">
        <ele>132</ele>
        <time>2024-04-25T16:41:29Z</time>
      </trkpt>
      <trkpt lat="43.6404" lon="1.40121">
        <ele>133</ele>
        <time>2024-04-25T16:41:30Z</time>
      </trkpt>
      <trkpt lat="43.64036" lon="1.40126">
        <ele>133</ele>
        <time>2024-04-25T16:41:31Z</time>
      </trkpt>
      <trkpt lat="43.64036" lon="1.40126">
        <ele>133</ele>
        <time>2024-04-25T16:41:32Z</time>
      </trkpt>
      <trkpt lat="43.64033" lon="1.40129">
        <ele>133</ele>
        <time>2024-04-25T16:41:33Z</time>
      </trkpt>
      <trkpt lat="43.64032" lon="1.4013">
        <ele>133</ele>
        <time>2024-04-25T16:41:34Z</time>
      </trkpt>
      <trkpt lat="43.64028" lon="1.40134">
        <ele>133</ele>
        <time>2024-04-25T16:41:35Z</time>
      </trkpt>
      <trkpt lat="43.64028" lon="1.40134">
        <ele>132</ele>
        <time>2024-04-25T16:41:36Z</time>
      </trkpt>
      <trkpt lat="43.64026" lon="1.40137">
        <ele>132</ele>
        <time>2024-04-25T16:41:37Z</time>
      </trkpt>
      <trkpt lat="43.64025" lon="1.40138">
        <ele>132</ele>
        <time>2024-04-25T16:41:38Z</time>
      </trkpt>
      <trkpt lat="43.64023" lon="1.4014">
        <ele>132</ele>
        <time>2024-04-25T16:41:39Z</time>
      </trkpt>
      <trkpt lat="43.64019" lon="1.40145">
        <ele>132</ele>
        <time>2024-04-25T16:41:40Z</time>
      </trkpt>
      <trkpt lat="43.64017" lon="1.40147">
        <ele>132</ele>
        <time>2024-04-25T16:41:41Z</time>
      </trkpt>
      <trkpt lat="43.64016" lon="1.40149">
        <ele>132</ele>
        <time>2024-04-25T16:41:42Z</time>
      </trkpt>
      <trkpt lat="43.64014" lon="1.40151">
        <ele>132</ele>
        <time>2024-04-25T16:41:43Z</time>
      </trkpt>
      <trkpt lat="43.64014" lon="1.40151">
        <ele>132</ele>
        <time>2024-04-25T16:41:44Z</time>
      </trkpt>
      <trkpt lat="43.6401" lon="1.40155">
        <ele>132</ele>
        <time>2024-04-25T16:41:45Z</time>
      </trkpt>
      <trkpt lat="43.6401" lon="1.40155">
        <ele>132</ele>
        <time>2024-04-25T16:41:46Z</time>
      </trkpt>
      <trkpt lat="43.64008" lon="1.40157">
        <ele>132</ele>
        <time>2024-04-25T16:41:47Z</time>
      </trkpt>
      <trkpt lat="43.64006" lon="1.40158">
        <ele>132</ele>
        <time>2024-04-25T16:41:48Z</time>
      </trkpt>
      <trkpt lat="43.64001" lon="1.4016">
        <ele>132</ele>
        <time>2024-04-25T16:41:49Z</time>
      </trkpt>
      <trkpt lat="43.63999" lon="1.40161">
        <ele>132</ele>
        <time>2024-04-25T16:41:50Z</time>
      </trkpt>
      <trkpt lat="43.63997" lon="1.40163">
        <ele>132</ele>
        <time>2024-04-25T16:41:51Z</time>
      </trkpt>
      <trkpt lat="43.63993" lon="1.40166">
        <ele>132</ele>
        <time>2024-04-25T16:41:53Z</time>
      </trkpt>
      <trkpt lat="43.63991" lon="1.40168">
        <ele>132</ele>
        <time>2024-04-25T16:41:54Z</time>
      </trkpt>
      <trkpt lat="43.63991" lon="1.40168">
        <ele>132</ele>
        <time>2024-04-25T16:41:55Z</time>
      </trkpt>
      <trkpt lat="43.63987" lon="1.40171">
        <ele>132</ele>
        <time>2024-04-25T16:41:56Z</time>
      </trkpt>
      <trkpt lat="43.63987" lon="1.40171">
        <ele>132</ele>
        <time>2024-04-25T16:41:57Z</time>
      </trkpt>
      <trkpt lat="43.63984" lon="1.40175">
        <ele>132</ele>
        <time>2024-04-25T16:41:58Z</time>
      </trkpt>
      <trkpt lat="43.63982" lon="1.40176">
        <ele>132</ele>
        <time>2024-04-25T16:42:00Z</time>
      </trkpt>
      <trkpt lat="43.63978" lon="1.4018">
        <ele>132</ele>
        <time>2024-04-25T16:42:01Z</time>
      </trkpt>
      <trkpt lat="43.63978" lon="1.4018">
        <ele>132</ele>
        <time>2024-04-25T16:42:02Z</time>
      </trkpt>
      <trkpt lat="43.63976" lon="1.40181">
        <ele>132</ele>
        <time>2024-04-25T16:42:03Z</time>
      </trkpt>
      <trkpt lat="43.63973" lon="1.40185">
        <ele>132</ele>
        <time>2024-04-25T16:42:04Z</time>
      </trkpt>
      <trkpt lat="43.63973" lon="1.40185">
        <ele>132</ele>
        <time>2024-04-25T16:42:05Z</time>
      </trkpt>
      <trkpt lat="43.63971" lon="1.40186">
        <ele>132</ele>
        <time>2024-04-25T16:42:06Z</time>
      </trkpt>
      <trkpt lat="43.63969" lon="1.40188">
        <ele>132</ele>
        <time>2024-04-25T16:42:07Z</time>
      </trkpt>
      <trkpt lat="43.63965" lon="1.40191">
        <ele>132</ele>
        <time>2024-04-25T16:42:08Z</time>
      </trkpt>
      <trkpt lat="43.63963" lon="1.40192">
        <ele>132</ele>
        <time>2024-04-25T16:42:09Z</time>
      </trkpt>
      <trkpt lat="43.63961" lon="1.40193">
        <ele>132</ele>
        <time>2024-04-25T16:42:10Z</time>
      </trkpt>
      <trkpt lat="43.63959" lon="1.40195">
        <ele>132</ele>
        <time>2024-04-25T16:42:12Z</time>
      </trkpt>
      <trkpt lat="43.63957" lon="1.40198">
        <ele>132</ele>
        <time>2024-04-25T16:42:13Z</time>
      </trkpt>
      <trkpt lat="43.63954" lon="1.40201">
        <ele>132</ele>
        <time>2024-04-25T16:42:14Z</time>
      </trkpt>
      <trkpt lat="43.63952" lon="1.40203">
        <ele>132</ele>
        <time>2024-04-25T16:42:15Z</time>
      </trkpt>
      <trkpt lat="43.63952" lon="1.40203">
        <ele>132</ele>
        <time>2024-04-25T16:42:16Z</time>
      </trkpt>
      <trkpt lat="43.63948" lon="1.40207">
        <ele>133</ele>
        <time>2024-04-25T16:42:17Z</time>
      </trkpt>
      <trkpt lat="43.63948" lon="1.40207">
        <ele>133</ele>
        <time>2024-04-25T16:42:18Z</time>
      </trkpt>
      <trkpt lat="43.63944" lon="1.40209">
        <ele>133</ele>
        <time>2024-04-25T16:42:19Z</time>
      </trkpt>
      <trkpt lat="43.63941" lon="1.4021">
        <ele>133</ele>
        <time>2024-04-25T16:42:20Z</time>
      </trkpt>
      <trkpt lat="43.63938" lon="1.40213">
        <ele>133</ele>
        <time>2024-04-25T16:42:22Z</time>
      </trkpt>
      <trkpt lat="43.63936" lon="1.40214">
        <ele>133</ele>
        <time>2024-04-25T16:42:23Z</time>
      </trkpt>
      <trkpt lat="43.63936" lon="1.40214">
        <ele>133</ele>
        <time>2024-04-25T16:42:24Z</time>
      </trkpt>
      <trkpt lat="43.63934" lon="1.40215">
        <ele>133</ele>
        <time>2024-04-25T16:42:25Z</time>
      </trkpt>
      <trkpt lat="43.63932" lon="1.40216">
        <ele>133</ele>
        <time>2024-04-25T16:42:26Z</time>
      </trkpt>
      <trkpt lat="43.6393" lon="1.40217">
        <ele>133</ele>
        <time>2024-04-25T16:42:27Z</time>
      </trkpt>
      <trkpt lat="43.63926" lon="1.40219">
        <ele>133</ele>
        <time>2024-04-25T16:42:28Z</time>
      </trkpt>
      <trkpt lat="43.63924" lon="1.4022">
        <ele>133</ele>
        <time>2024-04-25T16:42:29Z</time>
      </trkpt>
      <trkpt lat="43.63923" lon="1.40221">
        <ele>133</ele>
        <time>2024-04-25T16:42:31Z</time>
      </trkpt>
      <trkpt lat="43.63919" lon="1.40223">
        <ele>133</ele>
        <time>2024-04-25T16:42:32Z</time>
      </trkpt>
      <trkpt lat="43.63917" lon="1.40224">
        <ele>133</ele>
        <time>2024-04-25T16:42:33Z</time>
      </trkpt>
      <trkpt lat="43.63915" lon="1.40225">
        <ele>133</ele>
        <time>2024-04-25T16:42:34Z</time>
      </trkpt>
      <trkpt lat="43.63915" lon="1.40225">
        <ele>133</ele>
        <time>2024-04-25T16:42:35Z</time>
      </trkpt>
      <trkpt lat="43.63913" lon="1.40226">
        <ele>133</ele>
        <time>2024-04-25T16:42:36Z</time>
      </trkpt>
      <trkpt lat="43.63911" lon="1.40227">
        <ele>133</ele>
        <time>2024-04-25T16:42:37Z</time>
      </trkpt>
      <trkpt lat="43.63909" lon="1.40229">
        <ele>133</ele>
        <time>2024-04-25T16:42:38Z</time>
      </trkpt>
      <trkpt lat="43.63904" lon="1.4023">
        <ele>133</ele>
        <time>2024-04-25T16:42:39Z</time>
      </trkpt>
      <trkpt lat="43.63904" lon="1.4023">
        <ele>133</ele>
        <time>2024-04-25T16:42:40Z</time>
      </trkpt>
      <trkpt lat="43.63899" lon="1.40232">
        <ele>133</ele>
        <time>2024-04-25T16:42:41Z</time>
      </trkpt>
      <trkpt lat="43.63897" lon="1.40233">
        <ele>133</ele>
        <time>2024-04-25T16:42:42Z</time>
      </trkpt>
      <trkpt lat="43.63897" lon="1.40233">
        <ele>133</ele>
        <time>2024-04-25T16:42:43Z</time>
      </trkpt>
      <trkpt lat="43.63893" lon="1.40234">
        <ele>133</ele>
        <time>2024-04-25T16:42:44Z</time>
      </trkpt>
      <trkpt lat="43.63892" lon="1.40234">
        <ele>133</ele>
        <time>2024-04-25T16:42:45Z</time>
      </trkpt>
      <trkpt lat="43.63887" lon="1.40236">
        <ele>133</ele>
        <time>2024-04-25T16:42:46Z</time>
      </trkpt>
      <trkpt lat="43.63887" lon="1.40236">
        <ele>133</ele>
        <time>2024-04-25T16:42:47Z</time>
      </trkpt>
      <trkpt lat="43.63883" lon="1.40237">
        <ele>133</ele>
        <time>2024-04-25T16:42:48Z</time>
      </trkpt>
      <trkpt lat="43.6388" lon="1.40239">
        <ele>133</ele>
        <time>2024-04-25T16:42:50Z</time>
      </trkpt>
      <trkpt lat="43.63878" lon="1.40239">
        <ele>133</ele>
        <time>2024-04-25T16:42:51Z</time>
      </trkpt>
      <trkpt lat="43.63875" lon="1.4024">
        <ele>133</ele>
        <time>2024-04-25T16:42:52Z</time>
      </trkpt>
      <trkpt lat="43.63871" lon="1.40241">
        <ele>133</ele>
        <time>2024-04-25T16:42:53Z</time>
      </trkpt>
      <trkpt lat="43.63868" lon="1.40241">
        <ele>133</ele>
        <time>2024-04-25T16:42:54Z</time>
      </trkpt>
      <trkpt lat="43.63866" lon="1.40242">
        <ele>133</ele>
        <time>2024-04-25T16:42:55Z</time>
      </trkpt>
      <trkpt lat="43.63864" lon="1.40243">
        <ele>133</ele>
        <time>2024-04-25T16:42:56Z</time>
      </trkpt>
      <trkpt lat="43.63864" lon="1.40243">
        <ele>133</ele>
        <time>2024-04-25T16:42:57Z</time>
      </trkpt>
      <trkpt lat="43.63859" lon="1.40246">
        <ele>133</ele>
        <time>2024-04-25T16:42:58Z</time>
      </trkpt>
      <trkpt lat="43.63859" lon="1.40246">
        <ele>133</ele>
        <time>2024-04-25T16:42:59Z</time>
      </trkpt>
      <trkpt lat="43.63857" lon="1.40246">
        <ele>133</ele>
        <time>2024-04-25T16:43:00Z</time>
      </trkpt>
      <trkpt lat="43.63855" lon="1.40247">
        <ele>133</ele>
        <time>2024-04-25T16:43:01Z</time>
      </trkpt>
      <trkpt lat="43.6385" lon="1.40249">
        <ele>133</ele>
        <time>2024-04-25T16:43:02Z</time>
      </trkpt>
      <trkpt lat="43.6385" lon="1.40249">
        <ele>133</ele>
        <time>2024-04-25T16:43:03Z</time>
      </trkpt>
      <trkpt lat="43.63848" lon="1.4025">
        <ele>133</ele>
        <time>2024-04-25T16:43:04Z</time>
      </trkpt>
      <trkpt lat="43.63845" lon="1.4025">
        <ele>133</ele>
        <time>2024-04-25T16:43:05Z</time>
      </trkpt>
      <trkpt lat="43.63843" lon="1.40251">
        <ele>132</ele>
        <time>2024-04-25T16:43:06Z</time>
      </trkpt>
      <trkpt lat="43.63838" lon="1.40252">
        <ele>132</ele>
        <time>2024-04-25T16:43:07Z</time>
      </trkpt>
      <trkpt lat="43.63834" lon="1.40253">
        <ele>132</ele>
        <time>2024-04-25T16:43:09Z</time>
      </trkpt>
      <trkpt lat="43.63831" lon="1.40254">
        <ele>132</ele>
        <time>2024-04-25T16:43:10Z</time>
      </trkpt>
      <trkpt lat="43.63831" lon="1.40254">
        <ele>132</ele>
        <time>2024-04-25T16:43:11Z</time>
      </trkpt>
      <trkpt lat="43.63826" lon="1.40255">
        <ele>132</ele>
        <time>2024-04-25T16:43:12Z</time>
      </trkpt>
      <trkpt lat="43.63826" lon="1.40255">
        <ele>132</ele>
        <time>2024-04-25T16:43:13Z</time>
      </trkpt>
      <trkpt lat="43.63821" lon="1.40256">
        <ele>132</ele>
        <time>2024-04-25T16:43:14Z</time>
      </trkpt>
      <trkpt lat="43.63821" lon="1.40256">
        <ele>132</ele>
        <time>2024-04-25T16:43:15Z</time>
      </trkpt>
      <trkpt lat="43.63817" lon="1.40257">
        <ele>132</ele>
        <time>2024-04-25T16:43:16Z</time>
      </trkpt>
      <trkpt lat="43.63814" lon="1.40258">
        <ele>132</ele>
        <time>2024-04-25T16:43:17Z</time>
      </trkpt>
      <trkpt lat="43.63811" lon="1.40258">
        <ele>132</ele>
        <time>2024-04-25T16:43:18Z</time>
      </trkpt>
      <trkpt lat="43.63809" lon="1.40259">
        <ele>132</ele>
        <time>2024-04-25T16:43:19Z</time>
      </trkpt>
      <trkpt lat="43.63809" lon="1.40259">
        <ele>132</ele>
        <time>2024-04-25T16:43:20Z</time>
      </trkpt>
      <trkpt lat="43.63804" lon="1.4026">
        <ele>132</ele>
        <time>2024-04-25T16:43:21Z</time>
      </trkpt>
      <trkpt lat="43.63804" lon="1.4026">
        <ele>132</ele>
        <time>2024-04-25T16:43:22Z</time>
      </trkpt>
      <trkpt lat="43.638" lon="1.40261">
        <ele>132</ele>
        <time>2024-04-25T16:43:23Z</time>
      </trkpt>
      <trkpt lat="43.638" lon="1.40261">
        <ele>131</ele>
        <time>2024-04-25T16:43:24Z</time>
      </trkpt>
      <trkpt lat="43.63795" lon="1.40263">
        <ele>131</ele>
        <time>2024-04-25T16:43:25Z</time>
      </trkpt>
      <trkpt lat="43.63793" lon="1.40263">
        <ele>131</ele>
        <time>2024-04-25T16:43:26Z</time>
      </trkpt>
      <trkpt lat="43.63788" lon="1.40264">
        <ele>131</ele>
        <time>2024-04-25T16:43:28Z</time>
      </trkpt>
      <trkpt lat="43.63785" lon="1.40265">
        <ele>131</ele>
        <time>2024-04-25T16:43:29Z</time>
      </trkpt>
      <trkpt lat="43.63785" lon="1.40265">
        <ele>131</ele>
        <time>2024-04-25T16:43:30Z</time>
      </trkpt>
      <trkpt lat="43.63781" lon="1.40266">
        <ele>131</ele>
        <time>2024-04-25T16:43:31Z</time>
      </trkpt>
      <trkpt lat="43.63778" lon="1.40266">
        <ele>131</ele>
        <time>2024-04-25T16:43:32Z</time>
      </trkpt>
      <trkpt lat="43.63778" lon="1.40266">
        <ele>131</ele>
        <time>2024-04-25T16:43:33Z</time>
      </trkpt>
      <trkpt lat="43.63774" lon="1.40267">
        <ele>131</ele>
        <time>2024-04-25T16:43:34Z</time>
      </trkpt>
      <trkpt lat="43.63774" lon="1.40267">
        <ele>131</ele>
        <time>2024-04-25T16:43:35Z</time>
      </trkpt>
      <trkpt lat="43.63769" lon="1.40268">
        <ele>131</ele>
        <time>2024-04-25T16:43:36Z</time>
      </trkpt>
      <trkpt lat="43.63769" lon="1.40268">
        <ele>131</ele>
        <time>2024-04-25T16:43:37Z</time>
      </trkpt>
      <trkpt lat="43.63767" lon="1.40268">
        <ele>131</ele>
        <time>2024-04-25T16:43:38Z</time>
      </trkpt>
      <trkpt lat="43.63762" lon="1.40268">
        <ele>131</ele>
        <time>2024-04-25T16:43:39Z</time>
      </trkpt>
      <trkpt lat="43.63762" lon="1.40268">
        <ele>131</ele>
        <time>2024-04-25T16:43:40Z</time>
      </trkpt>
      <trkpt lat="43.6376" lon="1.40268">
        <ele>131</ele>
        <time>2024-04-25T16:43:41Z</time>
      </trkpt>
      <trkpt lat="43.63758" lon="1.40269">
        <ele>131</ele>
        <time>2024-04-25T16:43:42Z</time>
      </trkpt>
      <trkpt lat="43.63753" lon="1.4027">
        <ele>131</ele>
        <time>2024-04-25T16:43:43Z</time>
      </trkpt>
      <trkpt lat="43.63753" lon="1.4027">
        <ele>131</ele>
        <time>2024-04-25T16:43:44Z</time>
      </trkpt>
      <trkpt lat="43.63751" lon="1.4027">
        <ele>131</ele>
        <time>2024-04-25T16:43:45Z</time>
      </trkpt>
      <trkpt lat="43.63749" lon="1.4027">
        <ele>131</ele>
        <time>2024-04-25T16:43:46Z</time>
      </trkpt>
      <trkpt lat="43.63744" lon="1.40271">
        <ele>131</ele>
        <time>2024-04-25T16:43:47Z</time>
      </trkpt>
      <trkpt lat="43.63744" lon="1.40271">
        <ele>131</ele>
        <time>2024-04-25T16:43:48Z</time>
      </trkpt>
      <trkpt lat="43.6374" lon="1.40272">
        <ele>131</ele>
        <time>2024-04-25T16:43:49Z</time>
      </trkpt>
      <trkpt lat="43.6374" lon="1.40272">
        <ele>131</ele>
        <time>2024-04-25T16:43:50Z</time>
      </trkpt>
      <trkpt lat="43.63735" lon="1.40273">
        <ele>131</ele>
        <time>2024-04-25T16:43:51Z</time>
      </trkpt>
      <trkpt lat="43.63735" lon="1.40273">
        <ele>131</ele>
        <time>2024-04-25T16:43:52Z</time>
      </trkpt>
      <trkpt lat="43.6373" lon="1.40273">
        <ele>132</ele>
        <time>2024-04-25T16:43:53Z</time>
      </trkpt>
      <trkpt lat="43.63728" lon="1.40273">
        <ele>132</ele>
        <time>2024-04-25T16:43:54Z</time>
      </trkpt>
      <trkpt lat="43.63728" lon="1.40273">
        <ele>133</ele>
        <time>2024-04-25T16:43:55Z</time>
      </trkpt>
      <trkpt lat="43.63723" lon="1.40275">
        <ele>133</ele>
        <time>2024-04-25T16:43:56Z</time>
      </trkpt>
      <trkpt lat="43.63723" lon="1.40275">
        <ele>132</ele>
        <time>2024-04-25T16:43:57Z</time>
      </trkpt>
      <trkpt lat="43.63719" lon="1.40276">
        <ele>132</ele>
        <time>2024-04-25T16:43:58Z</time>
      </trkpt>
      <trkpt lat="43.63716" lon="1.40276">
        <ele>132</ele>
        <time>2024-04-25T16:43:59Z</time>
      </trkpt>
      <trkpt lat="43.63714" lon="1.40277">
        <ele>132</ele>
        <time>2024-04-25T16:44:00Z</time>
      </trkpt>
      <trkpt lat="43.63712" lon="1.40277">
        <ele>132</ele>
        <time>2024-04-25T16:44:01Z</time>
      </trkpt>
      <trkpt lat="43.63712" lon="1.40277">
        <ele>131</ele>
        <time>2024-04-25T16:44:02Z</time>
      </trkpt>
      <trkpt lat="43.63707" lon="1.40278">
        <ele>131</ele>
        <time>2024-04-25T16:44:03Z</time>
      </trkpt>
      <trkpt lat="43.63707" lon="1.40278">
        <ele>131</ele>
        <time>2024-04-25T16:44:04Z</time>
      </trkpt>
      <trkpt lat="43.63704" lon="1.40279">
        <ele>131</ele>
        <time>2024-04-25T16:44:05Z</time>
      </trkpt>
      <trkpt lat="43.63702" lon="1.40279">
        <ele>131</ele>
        <time>2024-04-25T16:44:06Z</time>
      </trkpt>
      <trkpt lat="43.637" lon="1.40279">
        <ele>131</ele>
        <time>2024-04-25T16:44:07Z</time>
      </trkpt>
      <trkpt lat="43.63697" lon="1.40279">
        <ele>131</ele>
        <time>2024-04-25T16:44:08Z</time>
      </trkpt>
      <trkpt lat="43.63695" lon="1.40279">
        <ele>132</ele>
        <time>2024-04-25T16:44:09Z</time>
      </trkpt>
      <trkpt lat="43.63691" lon="1.4028">
        <ele>131</ele>
        <time>2024-04-25T16:44:10Z</time>
      </trkpt>
      <trkpt lat="43.63691" lon="1.4028">
        <ele>132</ele>
        <time>2024-04-25T16:44:11Z</time>
      </trkpt>
      <trkpt lat="43.63686" lon="1.40281">
        <ele>132</ele>
        <time>2024-04-25T16:44:12Z</time>
      </trkpt>
      <trkpt lat="43.63684" lon="1.40281">
        <ele>132</ele>
        <time>2024-04-25T16:44:13Z</time>
      </trkpt>
      <trkpt lat="43.63684" lon="1.40281">
        <ele>131</ele>
        <time>2024-04-25T16:44:14Z</time>
      </trkpt>
      <trkpt lat="43.6368" lon="1.40281">
        <ele>131</ele>
        <time>2024-04-25T16:44:15Z</time>
      </trkpt>
      <trkpt lat="43.6368" lon="1.40281">
        <ele>131</ele>
        <time>2024-04-25T16:44:16Z</time>
      </trkpt>
      <trkpt lat="43.63675" lon="1.40282">
        <ele>131</ele>
        <time>2024-04-25T16:44:17Z</time>
      </trkpt>
      <trkpt lat="43.63673" lon="1.40282">
        <ele>131</ele>
        <time>2024-04-25T16:44:18Z</time>
      </trkpt>
      <trkpt lat="43.63671" lon="1.40282">
        <ele>131</ele>
        <time>2024-04-25T16:44:19Z</time>
      </trkpt>
      <trkpt lat="43.63668" lon="1.40282">
        <ele>131</ele>
        <time>2024-04-25T16:44:20Z</time>
      </trkpt>
      <trkpt lat="43.63668" lon="1.40282">
        <ele>131</ele>
        <time>2024-04-25T16:44:21Z</time>
      </trkpt>
      <trkpt lat="43.63664" lon="1.40283">
        <ele>131</ele>
        <time>2024-04-25T16:44:22Z</time>
      </trkpt>
      <trkpt lat="43.63664" lon="1.40283">
        <ele>131</ele>
        <time>2024-04-25T16:44:23Z</time>
      </trkpt>
      <trkpt lat="43.6366" lon="1.40283">
        <ele>131</ele>
        <time>2024-04-25T16:44:24Z</time>
      </trkpt>
      <trkpt lat="43.63659" lon="1.40284">
        <ele>131</ele>
        <time>2024-04-25T16:44:25Z</time>
      </trkpt>
      <trkpt lat="43.63657" lon="1.40284">
        <ele>131</ele>
        <time>2024-04-25T16:44:26Z</time>
      </trkpt>
      <trkpt lat="43.63652" lon="1.40285">
        <ele>131</ele>
        <time>2024-04-25T16:44:27Z</time>
      </trkpt>
      <trkpt lat="43.63649" lon="1.40285">
        <ele>131</ele>
        <time>2024-04-25T16:44:28Z</time>
      </trkpt>
      <trkpt lat="43.63644" lon="1.40286">
        <ele>131</ele>
        <time>2024-04-25T16:44:30Z</time>
      </trkpt>
      <trkpt lat="43.63642" lon="1.40286">
        <ele>131</ele>
        <time>2024-04-25T16:44:31Z</time>
      </trkpt>
      <trkpt lat="43.6364" lon="1.40286">
        <ele>131</ele>
        <time>2024-04-25T16:44:32Z</time>
      </trkpt>
      <trkpt lat="43.63637" lon="1.40286">
        <ele>131</ele>
        <time>2024-04-25T16:44:33Z</time>
      </trkpt>
      <trkpt lat="43.63635" lon="1.40286">
        <ele>131</ele>
        <time>2024-04-25T16:44:34Z</time>
      </trkpt>
      <trkpt lat="43.63635" lon="1.40286">
        <ele>131</ele>
        <time>2024-04-25T16:44:35Z</time>
      </trkpt>
      <trkpt lat="43.6363" lon="1.40286">
        <ele>131</ele>
        <time>2024-04-25T16:44:36Z</time>
      </trkpt>
      <trkpt lat="43.6363" lon="1.40286">
        <ele>131</ele>
        <time>2024-04-25T16:44:37Z</time>
      </trkpt>
      <trkpt lat="43.63625" lon="1.40285">
        <ele>131</ele>
        <time>2024-04-25T16:44:38Z</time>
      </trkpt>
      <trkpt lat="43.63623" lon="1.40285">
        <ele>132</ele>
        <time>2024-04-25T16:44:39Z</time>
      </trkpt>
      <trkpt lat="43.63621" lon="1.40285">
        <ele>132</ele>
        <time>2024-04-25T16:44:40Z</time>
      </trkpt>
      <trkpt lat="43.63618" lon="1.40285">
        <ele>131</ele>
        <time>2024-04-25T16:44:41Z</time>
      </trkpt>
      <trkpt lat="43.63618" lon="1.40285">
        <ele>132</ele>
        <time>2024-04-25T16:44:42Z</time>
      </trkpt>
      <trkpt lat="43.63615" lon="1.40284">
        <ele>132</ele>
        <time>2024-04-25T16:44:43Z</time>
      </trkpt>
      <trkpt lat="43.63614" lon="1.40284">
        <ele>131</ele>
        <time>2024-04-25T16:44:44Z</time>
      </trkpt>
      <trkpt lat="43.63612" lon="1.40284">
        <ele>131</ele>
        <time>2024-04-25T16:44:45Z</time>
      </trkpt>
      <trkpt lat="43.63609" lon="1.40283">
        <ele>132</ele>
        <time>2024-04-25T16:44:46Z</time>
      </trkpt>
      <trkpt lat="43.63604" lon="1.40283">
        <ele>132</ele>
        <time>2024-04-25T16:44:47Z</time>
      </trkpt>
      <trkpt lat="43.63602" lon="1.40283">
        <ele>132</ele>
        <time>2024-04-25T16:44:48Z</time>
      </trkpt>
      <trkpt lat="43.63602" lon="1.40283">
        <ele>131</ele>
        <time>2024-04-25T16:44:49Z</time>
      </trkpt>
      <trkpt lat="43.63599" lon="1.40283">
        <ele>131</ele>
        <time>2024-04-25T16:44:50Z</time>
      </trkpt>
      <trkpt lat="43.63597" lon="1.40282">
        <ele>131</ele>
        <time>2024-04-25T16:44:51Z</time>
      </trkpt>
      <trkpt lat="43.63592" lon="1.40282">
        <ele>131</ele>
        <time>2024-04-25T16:44:52Z</time>
      </trkpt>
      <trkpt lat="43.63592" lon="1.40282">
        <ele>131</ele>
        <time>2024-04-25T16:44:53Z</time>
      </trkpt>
      <trkpt lat="43.63587" lon="1.40281">
        <ele>132</ele>
        <time>2024-04-25T16:44:54Z</time>
      </trkpt>
      <trkpt lat="43.63585" lon="1.40281">
        <ele>132</ele>
        <time>2024-04-25T16:44:55Z</time>
      </trkpt>
      <trkpt lat="43.63585" lon="1.40281">
        <ele>132</ele>
        <time>2024-04-25T16:44:56Z</time>
      </trkpt>
      <trkpt lat="43.6358" lon="1.4028">
        <ele>132</ele>
        <time>2024-04-25T16:44:57Z</time>
      </trkpt>
      <trkpt lat="43.6358" lon="1.4028">
        <ele>132</ele>
        <time>2024-04-25T16:44:58Z</time>
      </trkpt>
      <trkpt lat="43.63577" lon="1.40279">
        <ele>132</ele>
        <time>2024-04-25T16:44:59Z</time>
      </trkpt>
      <trkpt lat="43.63575" lon="1.40279">
        <ele>132</ele>
        <time>2024-04-25T16:45:00Z</time>
      </trkpt>
      <trkpt lat="43.63571" lon="1.40279">
        <ele>132</ele>
        <time>2024-04-25T16:45:01Z</time>
      </trkpt>
      <trkpt lat="43.63568" lon="1.40278">
        <ele>132</ele>
        <time>2024-04-25T16:45:03Z</time>
      </trkpt>
      <trkpt lat="43.63566" lon="1.40278">
        <ele>132</ele>
        <time>2024-04-25T16:45:04Z</time>
      </trkpt>
      <trkpt lat="43.63561" lon="1.40278">
        <ele>132</ele>
        <time>2024-04-25T16:45:05Z</time>
      </trkpt>
      <trkpt lat="43.63559" lon="1.40278">
        <ele>132</ele>
        <time>2024-04-25T16:45:06Z</time>
      </trkpt>
      <trkpt lat="43.63559" lon="1.40278">
        <ele>132</ele>
        <time>2024-04-25T16:45:07Z</time>
      </trkpt>
      <trkpt lat="43.63554" lon="1.40277">
        <ele>132</ele>
        <time>2024-04-25T16:45:08Z</time>
      </trkpt>
      <trkpt lat="43.63554" lon="1.40277">
        <ele>132</ele>
        <time>2024-04-25T16:45:09Z</time>
      </trkpt>
      <trkpt lat="43.6355" lon="1.40276">
        <ele>132</ele>
        <time>2024-04-25T16:45:10Z</time>
      </trkpt>
      <trkpt lat="43.63545" lon="1.40275">
        <ele>132</ele>
        <time>2024-04-25T16:45:12Z</time>
      </trkpt>
      <trkpt lat="43.63543" lon="1.40273">
        <ele>132</ele>
        <time>2024-04-25T16:45:13Z</time>
      </trkpt>
      <trkpt lat="43.6354" lon="1.40272">
        <ele>132</ele>
        <time>2024-04-25T16:45:14Z</time>
      </trkpt>
      <trkpt lat="43.6354" lon="1.40272">
        <ele>132</ele>
        <time>2024-04-25T16:45:15Z</time>
      </trkpt>
      <trkpt lat="43.63536" lon="1.40271">
        <ele>132</ele>
        <time>2024-04-25T16:45:16Z</time>
      </trkpt>
      <trkpt lat="43.63536" lon="1.40271">
        <ele>132</ele>
        <time>2024-04-25T16:45:17Z</time>
      </trkpt>
      <trkpt lat="43.63531" lon="1.40271">
        <ele>132</ele>
        <time>2024-04-25T16:45:18Z</time>
      </trkpt>
      <trkpt lat="43.63531" lon="1.40271">
        <ele>132</ele>
        <time>2024-04-25T16:45:19Z</time>
      </trkpt>
      <trkpt lat="43.63527" lon="1.4027">
        <ele>132</ele>
        <time>2024-04-25T16:45:20Z</time>
      </trkpt>
      <trkpt lat="43.63524" lon="1.40269">
        <ele>132</ele>
        <time>2024-04-25T16:45:22Z</time>
      </trkpt>
      <trkpt lat="43.63519" lon="1.40268">
        <ele>132</ele>
        <time>2024-04-25T16:45:23Z</time>
      </trkpt>
      <trkpt lat="43.63519" lon="1.40268">
        <ele>132</ele>
        <time>2024-04-25T16:45:24Z</time>
      </trkpt>
      <trkpt lat="43.63515" lon="1.40267">
        <ele>132</ele>
        <time>2024-04-25T16:45:25Z</time>
      </trkpt>
      <trkpt lat="43.63515" lon="1.40267">
        <ele>132</ele>
        <time>2024-04-25T16:45:26Z</time>
      </trkpt>
      <trkpt lat="43.6351" lon="1.40266">
        <ele>132</ele>
        <time>2024-04-25T16:45:27Z</time>
      </trkpt>
      <trkpt lat="43.6351" lon="1.40266">
        <ele>132</ele>
        <time>2024-04-25T16:45:28Z</time>
      </trkpt>
      <trkpt lat="43.63505" lon="1.40265">
        <ele>132</ele>
        <time>2024-04-25T16:45:29Z</time>
      </trkpt>
      <trkpt lat="43.63503" lon="1.40264">
        <ele>132</ele>
        <time>2024-04-25T16:45:30Z</time>
      </trkpt>
      <trkpt lat="43.63501" lon="1.40263">
        <ele>132</ele>
        <time>2024-04-25T16:45:31Z</time>
      </trkpt>
      <trkpt lat="43.63498" lon="1.40262">
        <ele>132</ele>
        <time>2024-04-25T16:45:33Z</time>
      </trkpt>
      <trkpt lat="43.63494" lon="1.40261">
        <ele>132</ele>
        <time>2024-04-25T16:45:34Z</time>
      </trkpt>
      <trkpt lat="43.63494" lon="1.40261">
        <ele>132</ele>
        <time>2024-04-25T16:45:35Z</time>
      </trkpt>
      <trkpt lat="43.63491" lon="1.40261">
        <ele>132</ele>
        <time>2024-04-25T16:45:36Z</time>
      </trkpt>
      <trkpt lat="43.63487" lon="1.4026">
        <ele>132</ele>
        <time>2024-04-25T16:45:37Z</time>
      </trkpt>
      <trkpt lat="43.63485" lon="1.4026">
        <ele>132</ele>
        <time>2024-04-25T16:45:38Z</time>
      </trkpt>
      <trkpt lat="43.63482" lon="1.40259">
        <ele>132</ele>
        <time>2024-04-25T16:45:39Z</time>
      </trkpt>
      <trkpt lat="43.6348" lon="1.40258">
        <ele>133</ele>
        <time>2024-04-25T16:45:41Z</time>
      </trkpt>
      <trkpt lat="43.63478" lon="1.40258">
        <ele>133</ele>
        <time>2024-04-25T16:45:42Z</time>
      </trkpt>
      <trkpt lat="43.63473" lon="1.40256">
        <ele>133</ele>
        <time>2024-04-25T16:45:43Z</time>
      </trkpt>
      <trkpt lat="43.6347" lon="1.40255">
        <ele>132</ele>
        <time>2024-04-25T16:45:44Z</time>
      </trkpt>
      <trkpt lat="43.6347" lon="1.40255">
        <ele>132</ele>
        <time>2024-04-25T16:45:45Z</time>
      </trkpt>
      <trkpt lat="43.63466" lon="1.40254">
        <ele>132</ele>
        <time>2024-04-25T16:45:46Z</time>
      </trkpt>
      <trkpt lat="43.63466" lon="1.40254">
        <ele>132</ele>
        <time>2024-04-25T16:45:47Z</time>
      </trkpt>
      <trkpt lat="43.63462" lon="1.40251">
        <ele>132</ele>
        <time>2024-04-25T16:45:48Z</time>
      </trkpt>
      <trkpt lat="43.6346" lon="1.4025">
        <ele>132</ele>
        <time>2024-04-25T16:45:49Z</time>
      </trkpt>
      <trkpt lat="43.63457" lon="1.4025">
        <ele>132</ele>
        <time>2024-04-25T16:45:50Z</time>
      </trkpt>
      <trkpt lat="43.63455" lon="1.40248">
        <ele>132</ele>
        <time>2024-04-25T16:45:51Z</time>
      </trkpt>
      <trkpt lat="43.63455" lon="1.40248">
        <ele>132</ele>
        <time>2024-04-25T16:45:52Z</time>
      </trkpt>
      <trkpt lat="43.63452" lon="1.40247">
        <ele>132</ele>
        <time>2024-04-25T16:45:53Z</time>
      </trkpt>
      <trkpt lat="43.6345" lon="1.40246">
        <ele>132</ele>
        <time>2024-04-25T16:45:54Z</time>
      </trkpt>
      <trkpt lat="43.63446" lon="1.40244">
        <ele>132</ele>
        <time>2024-04-25T16:45:55Z</time>
      </trkpt>
      <trkpt lat="43.63446" lon="1.40244">
        <ele>132</ele>
        <time>2024-04-25T16:45:56Z</time>
      </trkpt>
      <trkpt lat="43.63444" lon="1.40243">
        <ele>132</ele>
        <time>2024-04-25T16:45:57Z</time>
      </trkpt>
      <trkpt lat="43.63441" lon="1.40242">
        <ele>132</ele>
        <time>2024-04-25T16:45:58Z</time>
      </trkpt>
      <trkpt lat="43.63438" lon="1.4024">
        <ele>132</ele>
        <time>2024-04-25T16:45:59Z</time>
      </trkpt>
      <trkpt lat="43.63437" lon="1.4024">
        <ele>132</ele>
        <time>2024-04-25T16:46:00Z</time>
      </trkpt>
      <trkpt lat="43.63435" lon="1.40239">
        <ele>132</ele>
        <time>2024-04-25T16:46:01Z</time>
      </trkpt>
      <trkpt lat="43.63431" lon="1.40237">
        <ele>132</ele>
        <time>2024-04-25T16:46:02Z</time>
      </trkpt>
      <trkpt lat="43.63431" lon="1.40237">
        <ele>132</ele>
        <time>2024-04-25T16:46:03Z</time>
      </trkpt>
      <trkpt lat="43.63428" lon="1.40236">
        <ele>132</ele>
        <time>2024-04-25T16:46:04Z</time>
      </trkpt>
      <trkpt lat="43.63426" lon="1.40235">
        <ele>132</ele>
        <time>2024-04-25T16:46:05Z</time>
      </trkpt>
      <trkpt lat="43.63424" lon="1.40234">
        <ele>132</ele>
        <time>2024-04-25T16:46:06Z</time>
      </trkpt>
      <trkpt lat="43.63419" lon="1.40232">
        <ele>132</ele>
        <time>2024-04-25T16:46:07Z</time>
      </trkpt>
      <trkpt lat="43.63419" lon="1.40232">
        <ele>132</ele>
        <time>2024-04-25T16:46:08Z</time>
      </trkpt>
      <trkpt lat="43.63416" lon="1.40232">
        <ele>132</ele>
        <time>2024-04-25T16:46:09Z</time>
      </trkpt>
      <trkpt lat="43.63414" lon="1.40231">
        <ele>132</ele>
        <time>2024-04-25T16:46:10Z</time>
      </trkpt>
      <trkpt lat="43.63412" lon="1.4023">
        <ele>132</ele>
        <time>2024-04-25T16:46:11Z</time>
      </trkpt>
      <trkpt lat="43.63409" lon="1.40229">
        <ele>132</ele>
        <time>2024-04-25T16:46:12Z</time>
      </trkpt>
      <trkpt lat="43.63407" lon="1.40229">
        <ele>132</ele>
        <time>2024-04-25T16:46:13Z</time>
      </trkpt>
      <trkpt lat="43.63404" lon="1.40228">
        <ele>132</ele>
        <time>2024-04-25T16:46:14Z</time>
      </trkpt>
      <trkpt lat="43.63403" lon="1.40227">
        <ele>132</ele>
        <time>2024-04-25T16:46:15Z</time>
      </trkpt>
      <trkpt lat="43.63401" lon="1.40226">
        <ele>132</ele>
        <time>2024-04-25T16:46:16Z</time>
      </trkpt>
      <trkpt lat="43.63399" lon="1.40225">
        <ele>132</ele>
        <time>2024-04-25T16:46:17Z</time>
      </trkpt>
      <trkpt lat="43.63396" lon="1.40224">
        <ele>132</ele>
        <time>2024-04-25T16:46:18Z</time>
      </trkpt>
      <trkpt lat="43.63395" lon="1.40223">
        <ele>132</ele>
        <time>2024-04-25T16:46:19Z</time>
      </trkpt>
      <trkpt lat="43.63392" lon="1.40222">
        <ele>132</ele>
        <time>2024-04-25T16:46:20Z</time>
      </trkpt>
      <trkpt lat="43.63389" lon="1.4022">
        <ele>132</ele>
        <time>2024-04-25T16:46:21Z</time>
      </trkpt>
      <trkpt lat="43.63389" lon="1.4022">
        <ele>132</ele>
        <time>2024-04-25T16:46:22Z</time>
      </trkpt>
      <trkpt lat="43.63386" lon="1.40219">
        <ele>132</ele>
        <time>2024-04-25T16:46:23Z</time>
      </trkpt>
      <trkpt lat="43.63384" lon="1.40219">
        <ele>132</ele>
        <time>2024-04-25T16:46:24Z</time>
      </trkpt>
      <trkpt lat="43.63379" lon="1.40217">
        <ele>132</ele>
        <time>2024-04-25T16:46:25Z</time>
      </trkpt>
      <trkpt lat="43.63379" lon="1.40217">
        <ele>132</ele>
        <time>2024-04-25T16:46:26Z</time>
      </trkpt>
      <trkpt lat="43.63377" lon="1.40216">
        <ele>132</ele>
        <time>2024-04-25T16:46:27Z</time>
      </trkpt>
      <trkpt lat="43.63375" lon="1.40215">
        <ele>132</ele>
        <time>2024-04-25T16:46:28Z</time>
      </trkpt>
      <trkpt lat="43.63373" lon="1.40213">
        <ele>132</ele>
        <time>2024-04-25T16:46:29Z</time>
      </trkpt>
      <trkpt lat="43.63371" lon="1.40212">
        <ele>132</ele>
        <time>2024-04-25T16:46:30Z</time>
      </trkpt>
      <trkpt lat="43.63369" lon="1.4021">
        <ele>132</ele>
        <time>2024-04-25T16:46:31Z</time>
      </trkpt>
      <trkpt lat="43.63365" lon="1.40209">
        <ele>132</ele>
        <time>2024-04-25T16:46:32Z</time>
      </trkpt>
      <trkpt lat="43.63365" lon="1.40209">
        <ele>132</ele>
        <time>2024-04-25T16:46:33Z</time>
      </trkpt>
      <trkpt lat="43.63362" lon="1.40207">
        <ele>132</ele>
        <time>2024-04-25T16:46:34Z</time>
      </trkpt>
      <trkpt lat="43.6336" lon="1.40207">
        <ele>132</ele>
        <time>2024-04-25T16:46:35Z</time>
      </trkpt>
      <trkpt lat="43.63358" lon="1.40206">
        <ele>132</ele>
        <time>2024-04-25T16:46:36Z</time>
      </trkpt>
      <trkpt lat="43.63354" lon="1.40206">
        <ele>132</ele>
        <time>2024-04-25T16:46:37Z</time>
      </trkpt>
      <trkpt lat="43.63353" lon="1.40206">
        <ele>132</ele>
        <time>2024-04-25T16:46:38Z</time>
      </trkpt>
      <trkpt lat="43.63351" lon="1.40205">
        <ele>132</ele>
        <time>2024-04-25T16:46:39Z</time>
      </trkpt>
      <trkpt lat="43.63349" lon="1.40203">
        <ele>132</ele>
        <time>2024-04-25T16:46:40Z</time>
      </trkpt>
      <trkpt lat="43.63346" lon="1.40203">
        <ele>132</ele>
        <time>2024-04-25T16:46:41Z</time>
      </trkpt>
      <trkpt lat="43.63343" lon="1.40201">
        <ele>132</ele>
        <time>2024-04-25T16:46:42Z</time>
      </trkpt>
      <trkpt lat="43.63341" lon="1.402">
        <ele>132</ele>
        <time>2024-04-25T16:46:43Z</time>
      </trkpt>
      <trkpt lat="43.63339" lon="1.40198">
        <ele>132</ele>
        <time>2024-04-25T16:46:44Z</time>
      </trkpt>
      <trkpt lat="43.63336" lon="1.40197">
        <ele>131</ele>
        <time>2024-04-25T16:46:45Z</time>
      </trkpt>
      <trkpt lat="43.63334" lon="1.40196">
        <ele>132</ele>
        <time>2024-04-25T16:46:46Z</time>
      </trkpt>
      <trkpt lat="43.63332" lon="1.40195">
        <ele>132</ele>
        <time>2024-04-25T16:46:47Z</time>
      </trkpt>
      <trkpt lat="43.6333" lon="1.40194">
        <ele>132</ele>
        <time>2024-04-25T16:46:48Z</time>
      </trkpt>
      <trkpt lat="43.63327" lon="1.40193">
        <ele>132</ele>
        <time>2024-04-25T16:46:49Z</time>
      </trkpt>
      <trkpt lat="43.63325" lon="1.40192">
        <ele>132</ele>
        <time>2024-04-25T16:46:50Z</time>
      </trkpt>
      <trkpt lat="43.63322" lon="1.40191">
        <ele>132</ele>
        <time>2024-04-25T16:46:51Z</time>
      </trkpt>
      <trkpt lat="43.63318" lon="1.40188">
        <ele>132</ele>
        <time>2024-04-25T16:46:52Z</time>
      </trkpt>
      <trkpt lat="43.63318" lon="1.40188">
        <ele>131</ele>
        <time>2024-04-25T16:46:53Z</time>
      </trkpt>
      <trkpt lat="43.63315" lon="1.40187">
        <ele>132</ele>
        <time>2024-04-25T16:46:54Z</time>
      </trkpt>
      <trkpt lat="43.63313" lon="1.40187">
        <ele>132</ele>
        <time>2024-04-25T16:46:55Z</time>
      </trkpt>
      <trkpt lat="43.63309" lon="1.40186">
        <ele>132</ele>
        <time>2024-04-25T16:46:56Z</time>
      </trkpt>
      <trkpt lat="43.63308" lon="1.40185">
        <ele>132</ele>
        <time>2024-04-25T16:46:57Z</time>
      </trkpt>
      <trkpt lat="43.63306" lon="1.40184">
        <ele>132</ele>
        <time>2024-04-25T16:46:58Z</time>
      </trkpt>
      <trkpt lat="43.63303" lon="1.40183">
        <ele>132</ele>
        <time>2024-04-25T16:46:59Z</time>
      </trkpt>
      <trkpt lat="43.63301" lon="1.40183">
        <ele>132</ele>
        <time>2024-04-25T16:47:00Z</time>
      </trkpt>
      <trkpt lat="43.63299" lon="1.40182">
        <ele>132</ele>
        <time>2024-04-25T16:47:01Z</time>
      </trkpt>
      <trkpt lat="43.63297" lon="1.40181">
        <ele>132</ele>
        <time>2024-04-25T16:47:02Z</time>
      </trkpt>
      <trkpt lat="43.63293" lon="1.4018">
        <ele>132</ele>
        <time>2024-04-25T16:47:03Z</time>
      </trkpt>
      <trkpt lat="43.63292" lon="1.40179">
        <ele>131</ele>
        <time>2024-04-25T16:47:04Z</time>
      </trkpt>
      <trkpt lat="43.6329" lon="1.40179">
        <ele>131</ele>
        <time>2024-04-25T16:47:05Z</time>
      </trkpt>
      <trkpt lat="43.63288" lon="1.40178">
        <ele>131</ele>
        <time>2024-04-25T16:47:06Z</time>
      </trkpt>
      <trkpt lat="43.63286" lon="1.40177">
        <ele>131</ele>
        <time>2024-04-25T16:47:07Z</time>
      </trkpt>
      <trkpt lat="43.63284" lon="1.40176">
        <ele>131</ele>
        <time>2024-04-25T16:47:08Z</time>
      </trkpt>
      <trkpt lat="43.63282" lon="1.40175">
        <ele>132</ele>
        <time>2024-04-25T16:47:09Z</time>
      </trkpt>
      <trkpt lat="43.63279" lon="1.40175">
        <ele>132</ele>
        <time>2024-04-25T16:47:10Z</time>
      </trkpt>
      <trkpt lat="43.63275" lon="1.40173">
        <ele>132</ele>
        <time>2024-04-25T16:47:11Z</time>
      </trkpt>
      <trkpt lat="43.63275" lon="1.40173">
        <ele>132</ele>
        <time>2024-04-25T16:47:12Z</time>
      </trkpt>
      <trkpt lat="43.6327" lon="1.40172">
        <ele>132</ele>
        <time>2024-04-25T16:47:13Z</time>
      </trkpt>
      <trkpt lat="43.6327" lon="1.40172">
        <ele>132</ele>
        <time>2024-04-25T16:47:14Z</time>
      </trkpt>
      <trkpt lat="43.63267" lon="1.40171">
        <ele>132</ele>
        <time>2024-04-25T16:47:15Z</time>
      </trkpt>
      <trkpt lat="43.63266" lon="1.40171">
        <ele>132</ele>
        <time>2024-04-25T16:47:16Z</time>
      </trkpt>
      <trkpt lat="43.63263" lon="1.4017">
        <ele>132</ele>
        <time>2024-04-25T16:47:17Z</time>
      </trkpt>
      <trkpt lat="43.6326" lon="1.4017">
        <ele>132</ele>
        <time>2024-04-25T16:47:18Z</time>
      </trkpt>
      <trkpt lat="43.63259" lon="1.4017">
        <ele>132</ele>
        <time>2024-04-25T16:47:19Z</time>
      </trkpt>
      <trkpt lat="43.63256" lon="1.4017">
        <ele>132</ele>
        <time>2024-04-25T16:47:20Z</time>
      </trkpt>
      <trkpt lat="43.63254" lon="1.40169">
        <ele>131</ele>
        <time>2024-04-25T16:47:21Z</time>
      </trkpt>
      <trkpt lat="43.63249" lon="1.40168">
        <ele>131</ele>
        <time>2024-04-25T16:47:22Z</time>
      </trkpt>
      <trkpt lat="43.63249" lon="1.40168">
        <ele>131</ele>
        <time>2024-04-25T16:47:23Z</time>
      </trkpt>
      <trkpt lat="43.63246" lon="1.40167">
        <ele>131</ele>
        <time>2024-04-25T16:47:24Z</time>
      </trkpt>
      <trkpt lat="43.63244" lon="1.40166">
        <ele>131</ele>
        <time>2024-04-25T16:47:25Z</time>
      </trkpt>
      <trkpt lat="43.63242" lon="1.40165">
        <ele>132</ele>
        <time>2024-04-25T16:47:26Z</time>
      </trkpt>
      <trkpt lat="43.6324" lon="1.40164">
        <ele>132</ele>
        <time>2024-04-25T16:47:27Z</time>
      </trkpt>
      <trkpt lat="43.63237" lon="1.40163">
        <ele>132</ele>
        <time>2024-04-25T16:47:28Z</time>
      </trkpt>
      <trkpt lat="43.63232" lon="1.40162">
        <ele>132</ele>
        <time>2024-04-25T16:47:29Z</time>
      </trkpt>
      <trkpt lat="43.63232" lon="1.40162">
        <ele>132</ele>
        <time>2024-04-25T16:47:30Z</time>
      </trkpt>
      <trkpt lat="43.63229" lon="1.40161">
        <ele>132</ele>
        <time>2024-04-25T16:47:31Z</time>
      </trkpt>
      <trkpt lat="43.63227" lon="1.4016">
        <ele>132</ele>
        <time>2024-04-25T16:47:32Z</time>
      </trkpt>
      <trkpt lat="43.63225" lon="1.40159">
        <ele>132</ele>
        <time>2024-04-25T16:47:33Z</time>
      </trkpt>
      <trkpt lat="43.63221" lon="1.40158">
        <ele>132</ele>
        <time>2024-04-25T16:47:34Z</time>
      </trkpt>
      <trkpt lat="43.6322" lon="1.40157">
        <ele>132</ele>
        <time>2024-04-25T16:47:35Z</time>
      </trkpt>
      <trkpt lat="43.63217" lon="1.40157">
        <ele>132</ele>
        <time>2024-04-25T16:47:36Z</time>
      </trkpt>
      <trkpt lat="43.63215" lon="1.40155">
        <ele>132</ele>
        <time>2024-04-25T16:47:37Z</time>
      </trkpt>
      <trkpt lat="43.63212" lon="1.40153">
        <ele>132</ele>
        <time>2024-04-25T16:47:38Z</time>
      </trkpt>
      <trkpt lat="43.63211" lon="1.40153">
        <ele>132</ele>
        <time>2024-04-25T16:47:39Z</time>
      </trkpt>
      <trkpt lat="43.63208" lon="1.40152">
        <ele>132</ele>
        <time>2024-04-25T16:47:40Z</time>
      </trkpt>
      <trkpt lat="43.63207" lon="1.40151">
        <ele>131</ele>
        <time>2024-04-25T16:47:41Z</time>
      </trkpt>
      <trkpt lat="43.63202" lon="1.40149">
        <ele>131</ele>
        <time>2024-04-25T16:47:42Z</time>
      </trkpt>
      <trkpt lat="43.63202" lon="1.40149">
        <ele>132</ele>
        <time>2024-04-25T16:47:43Z</time>
      </trkpt>
      <trkpt lat="43.63199" lon="1.40149">
        <ele>132</ele>
        <time>2024-04-25T16:47:44Z</time>
      </trkpt>
      <trkpt lat="43.63197" lon="1.40148">
        <ele>132</ele>
        <time>2024-04-25T16:47:45Z</time>
      </trkpt>
      <trkpt lat="43.63195" lon="1.40147">
        <ele>132</ele>
        <time>2024-04-25T16:47:46Z</time>
      </trkpt>
      <trkpt lat="43.63192" lon="1.40146">
        <ele>132</ele>
        <time>2024-04-25T16:47:47Z</time>
      </trkpt>
      <trkpt lat="43.6319" lon="1.40145">
        <ele>132</ele>
        <time>2024-04-25T16:47:48Z</time>
      </trkpt>
      <trkpt lat="43.63186" lon="1.40143">
        <ele>132</ele>
        <time>2024-04-25T16:47:49Z</time>
      </trkpt>
      <trkpt lat="43.63186" lon="1.40143">
        <ele>133</ele>
        <time>2024-04-25T16:47:50Z</time>
      </trkpt>
      <trkpt lat="43.63184" lon="1.40142">
        <ele>133</ele>
        <time>2024-04-25T16:47:51Z</time>
      </trkpt>
      <trkpt lat="43.63182" lon="1.40141">
        <ele>133</ele>
        <time>2024-04-25T16:47:52Z</time>
      </trkpt>
      <trkpt lat="43.63179" lon="1.40139">
        <ele>133</ele>
        <time>2024-04-25T16:47:53Z</time>
      </trkpt>
      <trkpt lat="43.63178" lon="1.40138">
        <ele>133</ele>
        <time>2024-04-25T16:47:54Z</time>
      </trkpt>
      <trkpt lat="43.63176" lon="1.40137">
        <ele>133</ele>
        <time>2024-04-25T16:47:55Z</time>
      </trkpt>
      <trkpt lat="43.63174" lon="1.40136">
        <ele>132</ele>
        <time>2024-04-25T16:47:56Z</time>
      </trkpt>
      <trkpt lat="43.63171" lon="1.40136">
        <ele>132</ele>
        <time>2024-04-25T16:47:57Z</time>
      </trkpt>
      <trkpt lat="43.63169" lon="1.40136">
        <ele>132</ele>
        <time>2024-04-25T16:47:58Z</time>
      </trkpt>
      <trkpt lat="43.63166" lon="1.40135">
        <ele>132</ele>
        <time>2024-04-25T16:47:59Z</time>
      </trkpt>
      <trkpt lat="43.63163" lon="1.40135">
        <ele>132</ele>
        <time>2024-04-25T16:48:00Z</time>
      </trkpt>
      <trkpt lat="43.63161" lon="1.40135">
        <ele>132</ele>
        <time>2024-04-25T16:48:01Z</time>
      </trkpt>
      <trkpt lat="43.63159" lon="1.40134">
        <ele>132</ele>
        <time>2024-04-25T16:48:02Z</time>
      </trkpt>
      <trkpt lat="43.63157" lon="1.40133">
        <ele>132</ele>
        <time>2024-04-25T16:48:03Z</time>
      </trkpt>
      <trkpt lat="43.63154" lon="1.40132">
        <ele>132</ele>
        <time>2024-04-25T16:48:04Z</time>
      </trkpt>
      <trkpt lat="43.63152" lon="1.40131">
        <ele>132</ele>
        <time>2024-04-25T16:48:05Z</time>
      </trkpt>
      <trkpt lat="43.6315" lon="1.40131">
        <ele>132</ele>
        <time>2024-04-25T16:48:06Z</time>
      </trkpt>
      <trkpt lat="43.63147" lon="1.4013">
        <ele>132</ele>
        <time>2024-04-25T16:48:07Z</time>
      </trkpt>
      <trkpt lat="43.63145" lon="1.40129">
        <ele>132</ele>
        <time>2024-04-25T16:48:08Z</time>
      </trkpt>
      <trkpt lat="43.63143" lon="1.40128">
        <ele>133</ele>
        <time>2024-04-25T16:48:09Z</time>
      </trkpt>
      <trkpt lat="43.63141" lon="1.40127">
        <ele>133</ele>
        <time>2024-04-25T16:48:10Z</time>
      </trkpt>
      <trkpt lat="43.63136" lon="1.40126">
        <ele>132</ele>
        <time>2024-04-25T16:48:11Z</time>
      </trkpt>
      <trkpt lat="43.63133" lon="1.40124">
        <ele>132</ele>
        <time>2024-04-25T16:48:13Z</time>
      </trkpt>
      <trkpt lat="43.63131" lon="1.40124">
        <ele>132</ele>
        <time>2024-04-25T16:48:14Z</time>
      </trkpt>
      <trkpt lat="43.63127" lon="1.40122">
        <ele>133</ele>
        <time>2024-04-25T16:48:15Z</time>
      </trkpt>
      <trkpt lat="43.63127" lon="1.40122">
        <ele>133</ele>
        <time>2024-04-25T16:48:16Z</time>
      </trkpt>
      <trkpt lat="43.63124" lon="1.40121">
        <ele>132</ele>
        <time>2024-04-25T16:48:17Z</time>
      </trkpt>
      <trkpt lat="43.63122" lon="1.4012">
        <ele>132</ele>
        <time>2024-04-25T16:48:18Z</time>
      </trkpt>
      <trkpt lat="43.6312" lon="1.40119">
        <ele>132</ele>
        <time>2024-04-25T16:48:19Z</time>
      </trkpt>
      <trkpt lat="43.63118" lon="1.40118">
        <ele>132</ele>
        <time>2024-04-25T16:48:20Z</time>
      </trkpt>
      <trkpt lat="43.63115" lon="1.40117">
        <ele>132</ele>
        <time>2024-04-25T16:48:21Z</time>
      </trkpt>
      <trkpt lat="43.63113" lon="1.40116">
        <ele>132</ele>
        <time>2024-04-25T16:48:22Z</time>
      </trkpt>
      <trkpt lat="43.63111" lon="1.40116">
        <ele>132</ele>
        <time>2024-04-25T16:48:23Z</time>
      </trkpt>
      <trkpt lat="43.63109" lon="1.40115">
        <ele>132</ele>
        <time>2024-04-25T16:48:24Z</time>
      </trkpt>
      <trkpt lat="43.63104" lon="1.40115">
        <ele>132</ele>
        <time>2024-04-25T16:48:25Z</time>
      </trkpt>
      <trkpt lat="43.63104" lon="1.40115">
        <ele>132</ele>
        <time>2024-04-25T16:48:26Z</time>
      </trkpt>
      <trkpt lat="43.63101" lon="1.40115">
        <ele>132</ele>
        <time>2024-04-25T16:48:27Z</time>
      </trkpt>
      <trkpt lat="43.63099" lon="1.40114">
        <ele>132</ele>
        <time>2024-04-25T16:48:28Z</time>
      </trkpt>
      <trkpt lat="43.63097" lon="1.40113">
        <ele>132</ele>
        <time>2024-04-25T16:48:29Z</time>
      </trkpt>
      <trkpt lat="43.63095" lon="1.40112">
        <ele>132</ele>
        <time>2024-04-25T16:48:30Z</time>
      </trkpt>
      <trkpt lat="43.6309" lon="1.40111">
        <ele>132</ele>
        <time>2024-04-25T16:48:31Z</time>
      </trkpt>
      <trkpt lat="43.63088" lon="1.40111">
        <ele>132</ele>
        <time>2024-04-25T16:48:32Z</time>
      </trkpt>
      <trkpt lat="43.63088" lon="1.40111">
        <ele>132</ele>
        <time>2024-04-25T16:48:33Z</time>
      </trkpt>
      <trkpt lat="43.63084" lon="1.4011">
        <ele>132</ele>
        <time>2024-04-25T16:48:34Z</time>
      </trkpt>
      <trkpt lat="43.63084" lon="1.4011">
        <ele>132</ele>
        <time>2024-04-25T16:48:35Z</time>
      </trkpt>
      <trkpt lat="43.63081" lon="1.40109">
        <ele>132</ele>
        <time>2024-04-25T16:48:36Z</time>
      </trkpt>
      <trkpt lat="43.63079" lon="1.40108">
        <ele>132</ele>
        <time>2024-04-25T16:48:37Z</time>
      </trkpt>
      <trkpt lat="43.63077" lon="1.40107">
        <ele>132</ele>
        <time>2024-04-25T16:48:38Z</time>
      </trkpt>
      <trkpt lat="43.63075" lon="1.40107">
        <ele>132</ele>
        <time>2024-04-25T16:48:39Z</time>
      </trkpt>
      <trkpt lat="43.63073" lon="1.40107">
        <ele>132</ele>
        <time>2024-04-25T16:48:40Z</time>
      </trkpt>
      <trkpt lat="43.63071" lon="1.40107">
        <ele>132</ele>
        <time>2024-04-25T16:48:41Z</time>
      </trkpt>
      <trkpt lat="43.63068" lon="1.40106">
        <ele>132</ele>
        <time>2024-04-25T16:48:42Z</time>
      </trkpt>
      <trkpt lat="43.63067" lon="1.40106">
        <ele>132</ele>
        <time>2024-04-25T16:48:43Z</time>
      </trkpt>
      <trkpt lat="43.63064" lon="1.40105">
        <ele>132</ele>
        <time>2024-04-25T16:48:44Z</time>
      </trkpt>
      <trkpt lat="43.63062" lon="1.40103">
        <ele>132</ele>
        <time>2024-04-25T16:48:45Z</time>
      </trkpt>
      <trkpt lat="43.63062" lon="1.40103">
        <ele>132</ele>
        <time>2024-04-25T16:48:46Z</time>
      </trkpt>
      <trkpt lat="43.63059" lon="1.40102">
        <ele>132</ele>
        <time>2024-04-25T16:48:47Z</time>
      </trkpt>
      <trkpt lat="43.63057" lon="1.40101">
        <ele>132</ele>
        <time>2024-04-25T16:48:48Z</time>
      </trkpt>
      <trkpt lat="43.63055" lon="1.401">
        <ele>132</ele>
        <time>2024-04-25T16:48:49Z</time>
      </trkpt>
      <trkpt lat="43.63053" lon="1.40099">
        <ele>132</ele>
        <time>2024-04-25T16:48:50Z</time>
      </trkpt>
      <trkpt lat="43.63051" lon="1.40099">
        <ele>132</ele>
        <time>2024-04-25T16:48:51Z</time>
      </trkpt>
      <trkpt lat="43.6305" lon="1.40098">
        <ele>132</ele>
        <time>2024-04-25T16:48:52Z</time>
      </trkpt>
      <trkpt lat="43.63045" lon="1.40097">
        <ele>132</ele>
        <time>2024-04-25T16:48:53Z</time>
      </trkpt>
      <trkpt lat="43.63045" lon="1.40097">
        <ele>132</ele>
        <time>2024-04-25T16:48:54Z</time>
      </trkpt>
      <trkpt lat="43.63043" lon="1.40096">
        <ele>132</ele>
        <time>2024-04-25T16:48:55Z</time>
      </trkpt>
      <trkpt lat="43.6304" lon="1.40095">
        <ele>132</ele>
        <time>2024-04-25T16:48:56Z</time>
      </trkpt>
      <trkpt lat="43.63037" lon="1.40094">
        <ele>132</ele>
        <time>2024-04-25T16:48:57Z</time>
      </trkpt>
      <trkpt lat="43.63033" lon="1.40094">
        <ele>132</ele>
        <time>2024-04-25T16:48:58Z</time>
      </trkpt>
      <trkpt lat="43.63033" lon="1.40094">
        <ele>132</ele>
        <time>2024-04-25T16:48:59Z</time>
      </trkpt>
      <trkpt lat="43.63028" lon="1.40092">
        <ele>132</ele>
        <time>2024-04-25T16:49:00Z</time>
      </trkpt>
      <trkpt lat="43.63028" lon="1.40092">
        <ele>132</ele>
        <time>2024-04-25T16:49:01Z</time>
      </trkpt>
      <trkpt lat="43.63025" lon="1.40092">
        <ele>132</ele>
        <time>2024-04-25T16:49:02Z</time>
      </trkpt>
      <trkpt lat="43.63022" lon="1.40091">
        <ele>132</ele>
        <time>2024-04-25T16:49:03Z</time>
      </trkpt>
      <trkpt lat="43.63018" lon="1.40091">
        <ele>132</ele>
        <time>2024-04-25T16:49:04Z</time>
      </trkpt>
      <trkpt lat="43.63017" lon="1.4009">
        <ele>132</ele>
        <time>2024-04-25T16:49:05Z</time>
      </trkpt>
      <trkpt lat="43.63015" lon="1.4009">
        <ele>132</ele>
        <time>2024-04-25T16:49:06Z</time>
      </trkpt>
      <trkpt lat="43.63012" lon="1.4009">
        <ele>132</ele>
        <time>2024-04-25T16:49:07Z</time>
      </trkpt>
      <trkpt lat="43.6301" lon="1.4009">
        <ele>132</ele>
        <time>2024-04-25T16:49:08Z</time>
      </trkpt>
      <trkpt lat="43.63007" lon="1.40089">
        <ele>132</ele>
        <time>2024-04-25T16:49:09Z</time>
      </trkpt>
      <trkpt lat="43.63006" lon="1.40089">
        <ele>132</ele>
        <time>2024-04-25T16:49:10Z</time>
      </trkpt>
      <trkpt lat="43.63004" lon="1.40088">
        <ele>132</ele>
        <time>2024-04-25T16:49:11Z</time>
      </trkpt>
      <trkpt lat="43.62999" lon="1.40087">
        <ele>132</ele>
        <time>2024-04-25T16:49:12Z</time>
      </trkpt>
      <trkpt lat="43.62999" lon="1.40087">
        <ele>132</ele>
        <time>2024-04-25T16:49:13Z</time>
      </trkpt>
      <trkpt lat="43.62997" lon="1.40086">
        <ele>133</ele>
        <time>2024-04-25T16:49:14Z</time>
      </trkpt>
      <trkpt lat="43.62995" lon="1.40086">
        <ele>133</ele>
        <time>2024-04-25T16:49:15Z</time>
      </trkpt>
      <trkpt lat="43.62993" lon="1.40085">
        <ele>133</ele>
        <time>2024-04-25T16:49:16Z</time>
      </trkpt>
      <trkpt lat="43.62988" lon="1.40084">
        <ele>133</ele>
        <time>2024-04-25T16:49:17Z</time>
      </trkpt>
      <trkpt lat="43.62988" lon="1.40084">
        <ele>133</ele>
        <time>2024-04-25T16:49:18Z</time>
      </trkpt>
      <trkpt lat="43.62986" lon="1.40083">
        <ele>133</ele>
        <time>2024-04-25T16:49:19Z</time>
      </trkpt>
      <trkpt lat="43.62984" lon="1.40081">
        <ele>133</ele>
        <time>2024-04-25T16:49:20Z</time>
      </trkpt>
      <trkpt lat="43.62984" lon="1.40068">
        <ele>133</ele>
        <time>2024-04-25T16:52:59Z</time>
      </trkpt>
      <trkpt lat="43.62985" lon="1.40068">
        <ele>133</ele>
        <time>2024-04-25T16:53:00Z</time>
      </trkpt>
      <trkpt lat="43.62985" lon="1.40068">
        <ele>133</ele>
        <time>2024-04-25T16:53:01Z</time>
      </trkpt>
      <trkpt lat="43.62988" lon="1.40068">
        <ele>133</ele>
        <time>2024-04-25T16:53:02Z</time>
      </trkpt>
      <trkpt lat="43.6299" lon="1.40068">
        <ele>133</ele>
        <time>2024-04-25T16:53:03Z</time>
      </trkpt>
      <trkpt lat="43.62995" lon="1.40068">
        <ele>132</ele>
        <time>2024-04-25T16:53:04Z</time>
      </trkpt>
      <trkpt lat="43.62995" lon="1.40068">
        <ele>132</ele>
        <time>2024-04-25T16:53:05Z</time>
      </trkpt>
      <trkpt lat="43.62999" lon="1.40068">
        <ele>132</ele>
        <time>2024-04-25T16:53:06Z</time>
      </trkpt>
      <trkpt lat="43.63001" lon="1.40067">
        <ele>132</ele>
        <time>2024-04-25T16:53:08Z</time>
      </trkpt>
      <trkpt lat="43.63002" lon="1.40066">
        <ele>131</ele>
        <time>2024-04-25T16:53:09Z</time>
      </trkpt>
      <trkpt lat="43.63004" lon="1.40065">
        <ele>131</ele>
        <time>2024-04-25T16:53:10Z</time>
      </trkpt>
      <trkpt lat="43.63007" lon="1.40064">
        <ele>131</ele>
        <time>2024-04-25T16:53:11Z</time>
      </trkpt>
      <trkpt lat="43.63009" lon="1.40063">
        <ele>131</ele>
        <time>2024-04-25T16:53:12Z</time>
      </trkpt>
      <trkpt lat="43.63011" lon="1.40062">
        <ele>131</ele>
        <time>2024-04-25T16:53:13Z</time>
      </trkpt>
      <trkpt lat="43.63013" lon="1.40062">
        <ele>131</ele>
        <time>2024-04-25T16:53:14Z</time>
      </trkpt>
      <trkpt lat="43.63016" lon="1.40062">
        <ele>131</ele>
        <time>2024-04-25T16:53:15Z</time>
      </trkpt>
      <trkpt lat="43.63017" lon="1.40062">
        <ele>131</ele>
        <time>2024-04-25T16:53:16Z</time>
      </trkpt>
      <trkpt lat="43.63019" lon="1.40062">
        <ele>131</ele>
        <time>2024-04-25T16:53:17Z</time>
      </trkpt>
      <trkpt lat="43.63022" lon="1.40061">
        <ele>131</ele>
        <time>2024-04-25T16:53:18Z</time>
      </trkpt>
      <trkpt lat="43.63025" lon="1.40061">
        <ele>131</ele>
        <time>2024-04-25T16:53:19Z</time>
      </trkpt>
      <trkpt lat="43.63026" lon="1.40061">
        <ele>131</ele>
        <time>2024-04-25T16:53:20Z</time>
      </trkpt>
      <trkpt lat="43.63029" lon="1.40061">
        <ele>131</ele>
        <time>2024-04-25T16:53:21Z</time>
      </trkpt>
      <trkpt lat="43.63031" lon="1.40061">
        <ele>131</ele>
        <time>2024-04-25T16:53:22Z</time>
      </trkpt>
      <trkpt lat="43.63034" lon="1.40061">
        <ele>131</ele>
        <time>2024-04-25T16:53:23Z</time>
      </trkpt>
      <trkpt lat="43.63036" lon="1.40061">
        <ele>131</ele>
        <time>2024-04-25T16:53:24Z</time>
      </trkpt>
      <trkpt lat="43.63039" lon="1.40061">
        <ele>131</ele>
        <time>2024-04-25T16:53:25Z</time>
      </trkpt>
      <trkpt lat="43.63041" lon="1.40061">
        <ele>131</ele>
        <time>2024-04-25T16:53:26Z</time>
      </trkpt>
      <trkpt lat="43.63043" lon="1.40062">
        <ele>131</ele>
        <time>2024-04-25T16:53:27Z</time>
      </trkpt>
      <trkpt lat="43.63046" lon="1.40061">
        <ele>130</ele>
        <time>2024-04-25T16:53:28Z</time>
      </trkpt>
      <trkpt lat="43.63049" lon="1.40061">
        <ele>130</ele>
        <time>2024-04-25T16:53:29Z</time>
      </trkpt>
      <trkpt lat="43.6305" lon="1.40061">
        <ele>130</ele>
        <time>2024-04-25T16:53:30Z</time>
      </trkpt>
      <trkpt lat="43.63055" lon="1.40062">
        <ele>130</ele>
        <time>2024-04-25T16:53:31Z</time>
      </trkpt>
      <trkpt lat="43.63055" lon="1.40062">
        <ele>130</ele>
        <time>2024-04-25T16:53:32Z</time>
      </trkpt>
      <trkpt lat="43.63057" lon="1.40062">
        <ele>130</ele>
        <time>2024-04-25T16:53:33Z</time>
      </trkpt>
      <trkpt lat="43.6306" lon="1.40062">
        <ele>130</ele>
        <time>2024-04-25T16:53:34Z</time>
      </trkpt>
      <trkpt lat="43.63062" lon="1.40062">
        <ele>130</ele>
        <time>2024-04-25T16:53:35Z</time>
      </trkpt>
      <trkpt lat="43.63064" lon="1.40062">
        <ele>131</ele>
        <time>2024-04-25T16:53:36Z</time>
      </trkpt>
      <trkpt lat="43.63067" lon="1.40062">
        <ele>131</ele>
        <time>2024-04-25T16:53:37Z</time>
      </trkpt>
      <trkpt lat="43.6307" lon="1.40063">
        <ele>131</ele>
        <time>2024-04-25T16:53:38Z</time>
      </trkpt>
      <trkpt lat="43.63071" lon="1.40063">
        <ele>131</ele>
        <time>2024-04-25T16:53:39Z</time>
      </trkpt>
      <trkpt lat="43.63074" lon="1.40063">
        <ele>131</ele>
        <time>2024-04-25T16:53:40Z</time>
      </trkpt>
      <trkpt lat="43.63077" lon="1.40064">
        <ele>131</ele>
        <time>2024-04-25T16:53:41Z</time>
      </trkpt>
      <trkpt lat="43.63079" lon="1.40064">
        <ele>131</ele>
        <time>2024-04-25T16:53:42Z</time>
      </trkpt>
      <trkpt lat="43.63081" lon="1.40064">
        <ele>131</ele>
        <time>2024-04-25T16:53:43Z</time>
      </trkpt>
      <trkpt lat="43.63086" lon="1.40064">
        <ele>131</ele>
        <time>2024-04-25T16:53:44Z</time>
      </trkpt>
      <trkpt lat="43.63086" lon="1.40064">
        <ele>130</ele>
        <time>2024-04-25T16:53:45Z</time>
      </trkpt>
      <trkpt lat="43.63088" lon="1.40065">
        <ele>130</ele>
        <time>2024-04-25T16:53:46Z</time>
      </trkpt>
      <trkpt lat="43.63091" lon="1.40064">
        <ele>130</ele>
        <time>2024-04-25T16:53:47Z</time>
      </trkpt>
      <trkpt lat="43.63093" lon="1.40064">
        <ele>130</ele>
        <time>2024-04-25T16:53:48Z</time>
      </trkpt>
      <trkpt lat="43.63095" lon="1.40065">
        <ele>130</ele>
        <time>2024-04-25T16:53:49Z</time>
      </trkpt>
      <trkpt lat="43.63099" lon="1.40065">
        <ele>130</ele>
        <time>2024-04-25T16:53:50Z</time>
      </trkpt>
      <trkpt lat="43.631" lon="1.40065">
        <ele>131</ele>
        <time>2024-04-25T16:53:51Z</time>
      </trkpt>
      <trkpt lat="43.63102" lon="1.40065">
        <ele>131</ele>
        <time>2024-04-25T16:53:52Z</time>
      </trkpt>
      <trkpt lat="43.63104" lon="1.40065">
        <ele>130</ele>
        <time>2024-04-25T16:53:53Z</time>
      </trkpt>
      <trkpt lat="43.63106" lon="1.40065">
        <ele>130</ele>
        <time>2024-04-25T16:53:54Z</time>
      </trkpt>
      <trkpt lat="43.63109" lon="1.40065">
        <ele>130</ele>
        <time>2024-04-25T16:53:55Z</time>
      </trkpt>
      <trkpt lat="43.63111" lon="1.40065">
        <ele>130</ele>
        <time>2024-04-25T16:53:56Z</time>
      </trkpt>
      <trkpt lat="43.63115" lon="1.40065">
        <ele>130</ele>
        <time>2024-04-25T16:53:57Z</time>
      </trkpt>
      <trkpt lat="43.63116" lon="1.40065">
        <ele>130</ele>
        <time>2024-04-25T16:53:58Z</time>
      </trkpt>
      <trkpt lat="43.63118" lon="1.40066">
        <ele>130</ele>
        <time>2024-04-25T16:53:59Z</time>
      </trkpt>
      <trkpt lat="43.6312" lon="1.40066">
        <ele>130</ele>
        <time>2024-04-25T16:54:00Z</time>
      </trkpt>
      <trkpt lat="43.63123" lon="1.40065">
        <ele>130</ele>
        <time>2024-04-25T16:54:01Z</time>
      </trkpt>
      <trkpt lat="43.63125" lon="1.40066">
        <ele>130</ele>
        <time>2024-04-25T16:54:02Z</time>
      </trkpt>
      <trkpt lat="43.63127" lon="1.40066">
        <ele>130</ele>
        <time>2024-04-25T16:54:03Z</time>
      </trkpt>
      <trkpt lat="43.63129" lon="1.40066">
        <ele>130</ele>
        <time>2024-04-25T16:54:04Z</time>
      </trkpt>
      <trkpt lat="43.63131" lon="1.40066">
        <ele>130</ele>
        <time>2024-04-25T16:54:05Z</time>
      </trkpt>
      <trkpt lat="43.63134" lon="1.40066">
        <ele>130</ele>
        <time>2024-04-25T16:54:06Z</time>
      </trkpt>
      <trkpt lat="43.63136" lon="1.40066">
        <ele>130</ele>
        <time>2024-04-25T16:54:07Z</time>
      </trkpt>
      <trkpt lat="43.63138" lon="1.40066">
        <ele>130</ele>
        <time>2024-04-25T16:54:08Z</time>
      </trkpt>
      <trkpt lat="43.6314" lon="1.40066">
        <ele>130</ele>
        <time>2024-04-25T16:54:09Z</time>
      </trkpt>
      <trkpt lat="43.63142" lon="1.40067">
        <ele>130</ele>
        <time>2024-04-25T16:54:10Z</time>
      </trkpt>
      <trkpt lat="43.63144" lon="1.40067">
        <ele>130</ele>
        <time>2024-04-25T16:54:11Z</time>
      </trkpt>
      <trkpt lat="43.63148" lon="1.40067">
        <ele>130</ele>
        <time>2024-04-25T16:54:12Z</time>
      </trkpt>
      <trkpt lat="43.63151" lon="1.40067">
        <ele>130</ele>
        <time>2024-04-25T16:54:14Z</time>
      </trkpt>
      <trkpt lat="43.63153" lon="1.40067">
        <ele>130</ele>
        <time>2024-04-25T16:54:15Z</time>
      </trkpt>
      <trkpt lat="43.63155" lon="1.40067">
        <ele>130</ele>
        <time>2024-04-25T16:54:16Z</time>
      </trkpt>
      <trkpt lat="43.63157" lon="1.40067">
        <ele>130</ele>
        <time>2024-04-25T16:54:17Z</time>
      </trkpt>
      <trkpt lat="43.6316" lon="1.40066">
        <ele>130</ele>
        <time>2024-04-25T16:54:18Z</time>
      </trkpt>
      <trkpt lat="43.63162" lon="1.40066">
        <ele>130</ele>
        <time>2024-04-25T16:54:19Z</time>
      </trkpt>
      <trkpt lat="43.63164" lon="1.40065">
        <ele>130</ele>
        <time>2024-04-25T16:54:20Z</time>
      </trkpt>
      <trkpt lat="43.63166" lon="1.40065">
        <ele>130</ele>
        <time>2024-04-25T16:54:21Z</time>
      </trkpt>
      <trkpt lat="43.63171" lon="1.40065">
        <ele>130</ele>
        <time>2024-04-25T16:54:22Z</time>
      </trkpt>
      <trkpt lat="43.63171" lon="1.40065">
        <ele>130</ele>
        <time>2024-04-25T16:54:23Z</time>
      </trkpt>
      <trkpt lat="43.63177" lon="1.40066">
        <ele>130</ele>
        <time>2024-04-25T16:54:24Z</time>
      </trkpt>
      <trkpt lat="43.63177" lon="1.40066">
        <ele>130</ele>
        <time>2024-04-25T16:54:25Z</time>
      </trkpt>
      <trkpt lat="43.63179" lon="1.40067">
        <ele>130</ele>
        <time>2024-04-25T16:54:26Z</time>
      </trkpt>
      <trkpt lat="43.63182" lon="1.40068">
        <ele>130</ele>
        <time>2024-04-25T16:54:27Z</time>
      </trkpt>
      <trkpt lat="43.63185" lon="1.40069">
        <ele>130</ele>
        <time>2024-04-25T16:54:28Z</time>
      </trkpt>
      <trkpt lat="43.63187" lon="1.40068">
        <ele>130</ele>
        <time>2024-04-25T16:54:29Z</time>
      </trkpt>
      <trkpt lat="43.63189" lon="1.40068">
        <ele>130</ele>
        <time>2024-04-25T16:54:30Z</time>
      </trkpt>
      <trkpt lat="43.63191" lon="1.40067">
        <ele>130</ele>
        <time>2024-04-25T16:54:31Z</time>
      </trkpt>
      <trkpt lat="43.63193" lon="1.40067">
        <ele>130</ele>
        <time>2024-04-25T16:54:32Z</time>
      </trkpt>
      <trkpt lat="43.63195" lon="1.40066">
        <ele>130</ele>
        <time>2024-04-25T16:54:33Z</time>
      </trkpt>
      <trkpt lat="43.63197" lon="1.40066">
        <ele>130</ele>
        <time>2024-04-25T16:54:34Z</time>
      </trkpt>
      <trkpt lat="43.632" lon="1.40066">
        <ele>130</ele>
        <time>2024-04-25T16:54:35Z</time>
      </trkpt>
      <trkpt lat="43.63202" lon="1.40066">
        <ele>130</ele>
        <time>2024-04-25T16:54:36Z</time>
      </trkpt>
      <trkpt lat="43.63204" lon="1.40066">
        <ele>130</ele>
        <time>2024-04-25T16:54:37Z</time>
      </trkpt>
      <trkpt lat="43.63209" lon="1.40065">
        <ele>130</ele>
        <time>2024-04-25T16:54:38Z</time>
      </trkpt>
      <trkpt lat="43.63209" lon="1.40065">
        <ele>130</ele>
        <time>2024-04-25T16:54:39Z</time>
      </trkpt>
      <trkpt lat="43.63211" lon="1.40065">
        <ele>130</ele>
        <time>2024-04-25T16:54:40Z</time>
      </trkpt>
      <trkpt lat="43.63213" lon="1.40065">
        <ele>130</ele>
        <time>2024-04-25T16:54:41Z</time>
      </trkpt>
      <trkpt lat="43.63215" lon="1.40065">
        <ele>130</ele>
        <time>2024-04-25T16:54:42Z</time>
      </trkpt>
      <trkpt lat="43.63217" lon="1.40065">
        <ele>130</ele>
        <time>2024-04-25T16:54:43Z</time>
      </trkpt>
      <trkpt lat="43.63219" lon="1.40066">
        <ele>130</ele>
        <time>2024-04-25T16:54:44Z</time>
      </trkpt>
      <trkpt lat="43.63222" lon="1.40066">
        <ele>130</ele>
        <time>2024-04-25T16:54:45Z</time>
      </trkpt>
      <trkpt lat="43.63224" lon="1.40065">
        <ele>130</ele>
        <time>2024-04-25T16:54:46Z</time>
      </trkpt>
      <trkpt lat="43.63226" lon="1.40065">
        <ele>130</ele>
        <time>2024-04-25T16:54:47Z</time>
      </trkpt>
      <trkpt lat="43.63229" lon="1.40064">
        <ele>130</ele>
        <time>2024-04-25T16:54:48Z</time>
      </trkpt>
      <trkpt lat="43.63231" lon="1.40064">
        <ele>130</ele>
        <time>2024-04-25T16:54:49Z</time>
      </trkpt>
      <trkpt lat="43.63235" lon="1.40065">
        <ele>130</ele>
        <time>2024-04-25T16:54:50Z</time>
      </trkpt>
      <trkpt lat="43.63235" lon="1.40065">
        <ele>130</ele>
        <time>2024-04-25T16:54:51Z</time>
      </trkpt>
      <trkpt lat="43.63238" lon="1.40066">
        <ele>131</ele>
        <time>2024-04-25T16:54:52Z</time>
      </trkpt>
      <trkpt lat="43.6324" lon="1.40066">
        <ele>131</ele>
        <time>2024-04-25T16:54:53Z</time>
      </trkpt>
      <trkpt lat="43.63243" lon="1.40066">
        <ele>131</ele>
        <time>2024-04-25T16:54:54Z</time>
      </trkpt>
      <trkpt lat="43.63245" lon="1.40066">
        <ele>131</ele>
        <time>2024-04-25T16:54:55Z</time>
      </trkpt>
      <trkpt lat="43.63248" lon="1.40066">
        <ele>131</ele>
        <time>2024-04-25T16:54:56Z</time>
      </trkpt>
      <trkpt lat="43.63249" lon="1.40066">
        <ele>130</ele>
        <time>2024-04-25T16:54:57Z</time>
      </trkpt>
      <trkpt lat="43.63254" lon="1.40066">
        <ele>131</ele>
        <time>2024-04-25T16:54:58Z</time>
      </trkpt>
      <trkpt lat="43.63254" lon="1.40066">
        <ele>131</ele>
        <time>2024-04-25T16:54:59Z</time>
      </trkpt>
      <trkpt lat="43.63256" lon="1.40066">
        <ele>130</ele>
        <time>2024-04-25T16:55:00Z</time>
      </trkpt>
      <trkpt lat="43.63258" lon="1.40066">
        <ele>130</ele>
        <time>2024-04-25T16:55:01Z</time>
      </trkpt>
      <trkpt lat="43.6326" lon="1.40066">
        <ele>130</ele>
        <time>2024-04-25T16:55:02Z</time>
      </trkpt>
      <trkpt lat="43.63262" lon="1.40066">
        <ele>130</ele>
        <time>2024-04-25T16:55:03Z</time>
      </trkpt>
      <trkpt lat="43.63264" lon="1.40066">
        <ele>130</ele>
        <time>2024-04-25T16:55:04Z</time>
      </trkpt>
      <trkpt lat="43.63266" lon="1.40066">
        <ele>130</ele>
        <time>2024-04-25T16:55:05Z</time>
      </trkpt>
      <trkpt lat="43.63268" lon="1.40066">
        <ele>130</ele>
        <time>2024-04-25T16:55:06Z</time>
      </trkpt>
      <trkpt lat="43.63273" lon="1.40065">
        <ele>130</ele>
        <time>2024-04-25T16:55:07Z</time>
      </trkpt>
      <trkpt lat="43.63273" lon="1.40065">
        <ele>130</ele>
        <time>2024-04-25T16:55:08Z</time>
      </trkpt>
      <trkpt lat="43.63275" lon="1.40065">
        <ele>131</ele>
        <time>2024-04-25T16:55:09Z</time>
      </trkpt>
      <trkpt lat="43.63278" lon="1.40065">
        <ele>131</ele>
        <time>2024-04-25T16:55:10Z</time>
      </trkpt>
      <trkpt lat="43.63281" lon="1.40065">
        <ele>130</ele>
        <time>2024-04-25T16:55:11Z</time>
      </trkpt>
      <trkpt lat="43.63283" lon="1.40065">
        <ele>130</ele>
        <time>2024-04-25T16:55:12Z</time>
      </trkpt>
      <trkpt lat="43.63285" lon="1.40065">
        <ele>130</ele>
        <time>2024-04-25T16:55:13Z</time>
      </trkpt>
      <trkpt lat="43.63287" lon="1.40066">
        <ele>131</ele>
        <time>2024-04-25T16:55:14Z</time>
      </trkpt>
      <trkpt lat="43.63289" lon="1.40065">
        <ele>131</ele>
        <time>2024-04-25T16:55:15Z</time>
      </trkpt>
      <trkpt lat="43.63293" lon="1.40065">
        <ele>131</ele>
        <time>2024-04-25T16:55:16Z</time>
      </trkpt>
      <trkpt lat="43.63293" lon="1.40065">
        <ele>131</ele>
        <time>2024-04-25T16:55:17Z</time>
      </trkpt>
      <trkpt lat="43.63296" lon="1.40065">
        <ele>130</ele>
        <time>2024-04-25T16:55:18Z</time>
      </trkpt>
      <trkpt lat="43.63299" lon="1.40065">
        <ele>130</ele>
        <time>2024-04-25T16:55:19Z</time>
      </trkpt>
      <trkpt lat="43.633" lon="1.40065">
        <ele>131</ele>
        <time>2024-04-25T16:55:20Z</time>
      </trkpt>
      <trkpt lat="43.63302" lon="1.40064">
        <ele>131</ele>
        <time>2024-04-25T16:55:21Z</time>
      </trkpt>
      <trkpt lat="43.63305" lon="1.40064">
        <ele>130</ele>
        <time>2024-04-25T16:55:22Z</time>
      </trkpt>
      <trkpt lat="43.63306" lon="1.40064">
        <ele>131</ele>
        <time>2024-04-25T16:55:23Z</time>
      </trkpt>
      <trkpt lat="43.63308" lon="1.40064">
        <ele>131</ele>
        <time>2024-04-25T16:55:24Z</time>
      </trkpt>
      <trkpt lat="43.6331" lon="1.40064">
        <ele>131</ele>
        <time>2024-04-25T16:55:25Z</time>
      </trkpt>
      <trkpt lat="43.63315" lon="1.40064">
        <ele>131</ele>
        <time>2024-04-25T16:55:26Z</time>
      </trkpt>
      <trkpt lat="43.63315" lon="1.40064">
        <ele>131</ele>
        <time>2024-04-25T16:55:27Z</time>
      </trkpt>
      <trkpt lat="43.63317" lon="1.40063">
        <ele>131</ele>
        <time>2024-04-25T16:55:28Z</time>
      </trkpt>
      <trkpt lat="43.63319" lon="1.40063">
        <ele>131</ele>
        <time>2024-04-25T16:55:29Z</time>
      </trkpt>
      <trkpt lat="43.63322" lon="1.40063">
        <ele>131</ele>
        <time>2024-04-25T16:55:30Z</time>
      </trkpt>
      <trkpt lat="43.63324" lon="1.40063">
        <ele>131</ele>
        <time>2024-04-25T16:55:31Z</time>
      </trkpt>
      <trkpt lat="43.63328" lon="1.40063">
        <ele>131</ele>
        <time>2024-04-25T16:55:32Z</time>
      </trkpt>
      <trkpt lat="43.63329" lon="1.40063">
        <ele>131</ele>
        <time>2024-04-25T16:55:33Z</time>
      </trkpt>
      <trkpt lat="43.63331" lon="1.40063">
        <ele>131</ele>
        <time>2024-04-25T16:55:34Z</time>
      </trkpt>
      <trkpt lat="43.63333" lon="1.40063">
        <ele>131</ele>
        <time>2024-04-25T16:55:35Z</time>
      </trkpt>
      <trkpt lat="43.63336" lon="1.40063">
        <ele>131</ele>
        <time>2024-04-25T16:55:36Z</time>
      </trkpt>
      <trkpt lat="43.63338" lon="1.40063">
        <ele>131</ele>
        <time>2024-04-25T16:55:37Z</time>
      </trkpt>
      <trkpt lat="43.6334" lon="1.40063">
        <ele>131</ele>
        <time>2024-04-25T16:55:38Z</time>
      </trkpt>
      <trkpt lat="43.63342" lon="1.40064">
        <ele>131</ele>
        <time>2024-04-25T16:55:39Z</time>
      </trkpt>
      <trkpt lat="43.63344" lon="1.40063">
        <ele>131</ele>
        <time>2024-04-25T16:55:40Z</time>
      </trkpt>
      <trkpt lat="43.63348" lon="1.40063">
        <ele>131</ele>
        <time>2024-04-25T16:55:41Z</time>
      </trkpt>
      <trkpt lat="43.63349" lon="1.40063">
        <ele>131</ele>
        <time>2024-04-25T16:55:42Z</time>
      </trkpt>
      <trkpt lat="43.63353" lon="1.40062">
        <ele>131</ele>
        <time>2024-04-25T16:55:43Z</time>
      </trkpt>
      <trkpt lat="43.63353" lon="1.40062">
        <ele>131</ele>
        <time>2024-04-25T16:55:44Z</time>
      </trkpt>
      <trkpt lat="43.63355" lon="1.40061">
        <ele>131</ele>
        <time>2024-04-25T16:55:45Z</time>
      </trkpt>
      <trkpt lat="43.63355" lon="1.40061">
        <ele>131</ele>
        <time>2024-04-25T16:55:46Z</time>
      </trkpt>
      <trkpt lat="43.63358" lon="1.4006">
        <ele>131</ele>
        <time>2024-04-25T16:55:47Z</time>
      </trkpt>
      <trkpt lat="43.6336" lon="1.4006">
        <ele>131</ele>
        <time>2024-04-25T16:55:48Z</time>
      </trkpt>
      <trkpt lat="43.63362" lon="1.4006">
        <ele>131</ele>
        <time>2024-04-25T16:55:49Z</time>
      </trkpt>
      <trkpt lat="43.63364" lon="1.40059">
        <ele>131</ele>
        <time>2024-04-25T16:55:50Z</time>
      </trkpt>
      <trkpt lat="43.63366" lon="1.40059">
        <ele>131</ele>
        <time>2024-04-25T16:55:51Z</time>
      </trkpt>
      <trkpt lat="43.63368" lon="1.40058">
        <ele>131</ele>
        <time>2024-04-25T16:55:52Z</time>
      </trkpt>
      <trkpt lat="43.6337" lon="1.40059">
        <ele>131</ele>
        <time>2024-04-25T16:55:53Z</time>
      </trkpt>
      <trkpt lat="43.63374" lon="1.40059">
        <ele>131</ele>
        <time>2024-04-25T16:55:54Z</time>
      </trkpt>
      <trkpt lat="43.63374" lon="1.40059">
        <ele>131</ele>
        <time>2024-04-25T16:55:55Z</time>
      </trkpt>
      <trkpt lat="43.63376" lon="1.40058">
        <ele>131</ele>
        <time>2024-04-25T16:55:56Z</time>
      </trkpt>
      <trkpt lat="43.63378" lon="1.40059">
        <ele>131</ele>
        <time>2024-04-25T16:55:57Z</time>
      </trkpt>
      <trkpt lat="43.63383" lon="1.40059">
        <ele>131</ele>
        <time>2024-04-25T16:55:58Z</time>
      </trkpt>
      <trkpt lat="43.63383" lon="1.40059">
        <ele>131</ele>
        <time>2024-04-25T16:55:59Z</time>
      </trkpt>
      <trkpt lat="43.63387" lon="1.40059">
        <ele>131</ele>
        <time>2024-04-25T16:56:00Z</time>
      </trkpt>
      <trkpt lat="43.63387" lon="1.40059">
        <ele>131</ele>
        <time>2024-04-25T16:56:01Z</time>
      </trkpt>
      <trkpt lat="43.63389" lon="1.40059">
        <ele>131</ele>
        <time>2024-04-25T16:56:02Z</time>
      </trkpt>
      <trkpt lat="43.63391" lon="1.40059">
        <ele>131</ele>
        <time>2024-04-25T16:56:03Z</time>
      </trkpt>
      <trkpt lat="43.63393" lon="1.40059">
        <ele>131</ele>
        <time>2024-04-25T16:56:04Z</time>
      </trkpt>
      <trkpt lat="43.63397" lon="1.40058">
        <ele>131</ele>
        <time>2024-04-25T16:56:05Z</time>
      </trkpt>
      <trkpt lat="43.63398" lon="1.40058">
        <ele>131</ele>
        <time>2024-04-25T16:56:06Z</time>
      </trkpt>
      <trkpt lat="43.634" lon="1.40058">
        <ele>131</ele>
        <time>2024-04-25T16:56:07Z</time>
      </trkpt>
      <trkpt lat="43.63402" lon="1.40058">
        <ele>131</ele>
        <time>2024-04-25T16:56:08Z</time>
      </trkpt>
      <trkpt lat="43.63405" lon="1.40058">
        <ele>131</ele>
        <time>2024-04-25T16:56:09Z</time>
      </trkpt>
      <trkpt lat="43.63408" lon="1.40058">
        <ele>131</ele>
        <time>2024-04-25T16:56:10Z</time>
      </trkpt>
      <trkpt lat="43.63409" lon="1.40057">
        <ele>131</ele>
        <time>2024-04-25T16:56:11Z</time>
      </trkpt>
      <trkpt lat="43.63411" lon="1.40058">
        <ele>131</ele>
        <time>2024-04-25T16:56:12Z</time>
      </trkpt>
      <trkpt lat="43.63415" lon="1.40057">
        <ele>131</ele>
        <time>2024-04-25T16:56:13Z</time>
      </trkpt>
      <trkpt lat="43.63415" lon="1.40057">
        <ele>131</ele>
        <time>2024-04-25T16:56:14Z</time>
      </trkpt>
      <trkpt lat="43.63417" lon="1.40057">
        <ele>131</ele>
        <time>2024-04-25T16:56:15Z</time>
      </trkpt>
      <trkpt lat="43.6342" lon="1.40057">
        <ele>131</ele>
        <time>2024-04-25T16:56:16Z</time>
      </trkpt>
      <trkpt lat="43.63422" lon="1.40057">
        <ele>131</ele>
        <time>2024-04-25T16:56:17Z</time>
      </trkpt>
      <trkpt lat="43.63424" lon="1.40057">
        <ele>131</ele>
        <time>2024-04-25T16:56:18Z</time>
      </trkpt>
      <trkpt lat="43.63426" lon="1.40057">
        <ele>131</ele>
        <time>2024-04-25T16:56:19Z</time>
      </trkpt>
      <trkpt lat="43.63431" lon="1.40057">
        <ele>131</ele>
        <time>2024-04-25T16:56:20Z</time>
      </trkpt>
      <trkpt lat="43.63431" lon="1.40057">
        <ele>131</ele>
        <time>2024-04-25T16:56:21Z</time>
      </trkpt>
      <trkpt lat="43.63433" lon="1.40057">
        <ele>131</ele>
        <time>2024-04-25T16:56:22Z</time>
      </trkpt>
      <trkpt lat="43.63435" lon="1.40057">
        <ele>131</ele>
        <time>2024-04-25T16:56:23Z</time>
      </trkpt>
      <trkpt lat="43.63437" lon="1.40056">
        <ele>131</ele>
        <time>2024-04-25T16:56:24Z</time>
      </trkpt>
      <trkpt lat="43.6344" lon="1.40056">
        <ele>130</ele>
        <time>2024-04-25T16:56:25Z</time>
      </trkpt>
      <trkpt lat="43.63442" lon="1.40056">
        <ele>130</ele>
        <time>2024-04-25T16:56:26Z</time>
      </trkpt>
      <trkpt lat="43.63447" lon="1.40055">
        <ele>130</ele>
        <time>2024-04-25T16:56:27Z</time>
      </trkpt>
      <trkpt lat="43.6345" lon="1.40055">
        <ele>131</ele>
        <time>2024-04-25T16:56:29Z</time>
      </trkpt>
      <trkpt lat="43.63451" lon="1.40055">
        <ele>131</ele>
        <time>2024-04-25T16:56:30Z</time>
      </trkpt>
      <trkpt lat="43.63454" lon="1.40056">
        <ele>131</ele>
        <time>2024-04-25T16:56:31Z</time>
      </trkpt>
      <trkpt lat="43.6346" lon="1.40057">
        <ele>131</ele>
        <time>2024-04-25T16:56:32Z</time>
      </trkpt>
      <trkpt lat="43.6346" lon="1.40057">
        <ele>131</ele>
        <time>2024-04-25T16:56:33Z</time>
      </trkpt>
      <trkpt lat="43.63462" lon="1.40058">
        <ele>131</ele>
        <time>2024-04-25T16:56:34Z</time>
      </trkpt>
      <trkpt lat="43.63465" lon="1.40058">
        <ele>131</ele>
        <time>2024-04-25T16:56:35Z</time>
      </trkpt>
      <trkpt lat="43.63467" lon="1.40059">
        <ele>131</ele>
        <time>2024-04-25T16:56:36Z</time>
      </trkpt>
      <trkpt lat="43.63469" lon="1.4006">
        <ele>131</ele>
        <time>2024-04-25T16:56:37Z</time>
      </trkpt>
      <trkpt lat="43.63472" lon="1.4006">
        <ele>131</ele>
        <time>2024-04-25T16:56:38Z</time>
      </trkpt>
      <trkpt lat="43.63474" lon="1.4006">
        <ele>131</ele>
        <time>2024-04-25T16:56:39Z</time>
      </trkpt>
      <trkpt lat="43.63476" lon="1.40061">
        <ele>131</ele>
        <time>2024-04-25T16:56:40Z</time>
      </trkpt>
      <trkpt lat="43.63478" lon="1.4006">
        <ele>131</ele>
        <time>2024-04-25T16:56:41Z</time>
      </trkpt>
      <trkpt lat="43.6348" lon="1.40058">
        <ele>131</ele>
        <time>2024-04-25T16:56:42Z</time>
      </trkpt>
      <trkpt lat="43.63481" lon="1.40056">
        <ele>131</ele>
        <time>2024-04-25T16:56:43Z</time>
      </trkpt>
      <trkpt lat="43.63482" lon="1.40054">
        <ele>131</ele>
        <time>2024-04-25T16:56:44Z</time>
      </trkpt>
      <trkpt lat="43.63483" lon="1.40052">
        <ele>131</ele>
        <time>2024-04-25T16:56:45Z</time>
      </trkpt>
      <trkpt lat="43.63487" lon="1.40048">
        <ele>131</ele>
        <time>2024-04-25T16:56:46Z</time>
      </trkpt>
      <trkpt lat="43.63487" lon="1.40048">
        <ele>131</ele>
        <time>2024-04-25T16:56:47Z</time>
      </trkpt>
      <trkpt lat="43.63489" lon="1.40047">
        <ele>131</ele>
        <time>2024-04-25T16:56:48Z</time>
      </trkpt>
      <trkpt lat="43.63491" lon="1.40047">
        <ele>131</ele>
        <time>2024-04-25T16:56:49Z</time>
      </trkpt>
      <trkpt lat="43.63493" lon="1.40047">
        <ele>132</ele>
        <time>2024-04-25T16:56:50Z</time>
      </trkpt>
      <trkpt lat="43.63495" lon="1.40048">
        <ele>131</ele>
        <time>2024-04-25T16:56:51Z</time>
      </trkpt>
      <trkpt lat="43.63497" lon="1.40048">
        <ele>131</ele>
        <time>2024-04-25T16:56:52Z</time>
      </trkpt>
      <trkpt lat="43.63499" lon="1.40048">
        <ele>131</ele>
        <time>2024-04-25T16:56:53Z</time>
      </trkpt>
      <trkpt lat="43.63499" lon="1.40048">
        <ele>131</ele>
        <time>2024-04-25T16:56:54Z</time>
      </trkpt>
      <trkpt lat="43.63503" lon="1.40047">
        <ele>131</ele>
        <time>2024-04-25T16:56:55Z</time>
      </trkpt>
      <trkpt lat="43.63503" lon="1.40047">
        <ele>131</ele>
        <time>2024-04-25T16:56:56Z</time>
      </trkpt>
      <trkpt lat="43.63506" lon="1.40046">
        <ele>131</ele>
        <time>2024-04-25T16:56:57Z</time>
      </trkpt>
      <trkpt lat="43.6351" lon="1.40046">
        <ele>131</ele>
        <time>2024-04-25T16:56:58Z</time>
      </trkpt>
      <trkpt lat="43.6351" lon="1.40046">
        <ele>131</ele>
        <time>2024-04-25T16:56:59Z</time>
      </trkpt>
      <trkpt lat="43.63513" lon="1.40045">
        <ele>131</ele>
        <time>2024-04-25T16:57:00Z</time>
      </trkpt>
      <trkpt lat="43.63515" lon="1.40045">
        <ele>131</ele>
        <time>2024-04-25T16:57:01Z</time>
      </trkpt>
      <trkpt lat="43.63517" lon="1.40045">
        <ele>131</ele>
        <time>2024-04-25T16:57:02Z</time>
      </trkpt>
      <trkpt lat="43.6352" lon="1.40045">
        <ele>131</ele>
        <time>2024-04-25T16:57:03Z</time>
      </trkpt>
      <trkpt lat="43.6352" lon="1.40045">
        <ele>131</ele>
        <time>2024-04-25T16:57:04Z</time>
      </trkpt>
      <trkpt lat="43.63523" lon="1.40045">
        <ele>131</ele>
        <time>2024-04-25T16:57:05Z</time>
      </trkpt>
      <trkpt lat="43.63525" lon="1.40044">
        <ele>131</ele>
        <time>2024-04-25T16:57:06Z</time>
      </trkpt>
      <trkpt lat="43.63527" lon="1.40044">
        <ele>131</ele>
        <time>2024-04-25T16:57:07Z</time>
      </trkpt>
      <trkpt lat="43.63529" lon="1.40043">
        <ele>132</ele>
        <time>2024-04-25T16:57:08Z</time>
      </trkpt>
      <trkpt lat="43.63531" lon="1.40043">
        <ele>132</ele>
        <time>2024-04-25T16:57:09Z</time>
      </trkpt>
      <trkpt lat="43.63533" lon="1.40043">
        <ele>132</ele>
        <time>2024-04-25T16:57:10Z</time>
      </trkpt>
      <trkpt lat="43.63535" lon="1.40043">
        <ele>131</ele>
        <time>2024-04-25T16:57:11Z</time>
      </trkpt>
      <trkpt lat="43.63538" lon="1.40043">
        <ele>131</ele>
        <time>2024-04-25T16:57:12Z</time>
      </trkpt>
      <trkpt lat="43.63541" lon="1.40042">
        <ele>131</ele>
        <time>2024-04-25T16:57:13Z</time>
      </trkpt>
      <trkpt lat="43.63542" lon="1.40042">
        <ele>131</ele>
        <time>2024-04-25T16:57:14Z</time>
      </trkpt>
      <trkpt lat="43.63544" lon="1.40042">
        <ele>131</ele>
        <time>2024-04-25T16:57:15Z</time>
      </trkpt>
      <trkpt lat="43.63546" lon="1.40042">
        <ele>131</ele>
        <time>2024-04-25T16:57:16Z</time>
      </trkpt>
      <trkpt lat="43.63548" lon="1.40042">
        <ele>131</ele>
        <time>2024-04-25T16:57:17Z</time>
      </trkpt>
      <trkpt lat="43.63551" lon="1.40042">
        <ele>131</ele>
        <time>2024-04-25T16:57:18Z</time>
      </trkpt>
      <trkpt lat="43.63553" lon="1.40042">
        <ele>131</ele>
        <time>2024-04-25T16:57:19Z</time>
      </trkpt>
      <trkpt lat="43.63556" lon="1.40042">
        <ele>131</ele>
        <time>2024-04-25T16:57:20Z</time>
      </trkpt>
      <trkpt lat="43.63558" lon="1.40042">
        <ele>131</ele>
        <time>2024-04-25T16:57:21Z</time>
      </trkpt>
      <trkpt lat="43.63561" lon="1.40042">
        <ele>131</ele>
        <time>2024-04-25T16:57:22Z</time>
      </trkpt>
      <trkpt lat="43.63563" lon="1.40043">
        <ele>131</ele>
        <time>2024-04-25T16:57:23Z</time>
      </trkpt>
      <trkpt lat="43.63566" lon="1.40042">
        <ele>131</ele>
        <time>2024-04-25T16:57:24Z</time>
      </trkpt>
      <trkpt lat="43.63568" lon="1.40043">
        <ele>131</ele>
        <time>2024-04-25T16:57:25Z</time>
      </trkpt>
      <trkpt lat="43.63571" lon="1.40043">
        <ele>131</ele>
        <time>2024-04-25T16:57:26Z</time>
      </trkpt>
      <trkpt lat="43.63572" lon="1.40044">
        <ele>131</ele>
        <time>2024-04-25T16:57:27Z</time>
      </trkpt>
      <trkpt lat="43.63574" lon="1.40044">
        <ele>131</ele>
        <time>2024-04-25T16:57:28Z</time>
      </trkpt>
      <trkpt lat="43.63579" lon="1.40046">
        <ele>131</ele>
        <time>2024-04-25T16:57:29Z</time>
      </trkpt>
      <trkpt lat="43.63579" lon="1.40046">
        <ele>131</ele>
        <time>2024-04-25T16:57:30Z</time>
      </trkpt>
      <trkpt lat="43.63581" lon="1.40046">
        <ele>131</ele>
        <time>2024-04-25T16:57:31Z</time>
      </trkpt>
      <trkpt lat="43.63585" lon="1.40044">
        <ele>131</ele>
        <time>2024-04-25T16:57:32Z</time>
      </trkpt>
      <trkpt lat="43.63585" lon="1.40044">
        <ele>131</ele>
        <time>2024-04-25T16:57:33Z</time>
      </trkpt>
      <trkpt lat="43.63587" lon="1.40044">
        <ele>131</ele>
        <time>2024-04-25T16:57:34Z</time>
      </trkpt>
      <trkpt lat="43.63591" lon="1.40044">
        <ele>131</ele>
        <time>2024-04-25T16:57:35Z</time>
      </trkpt>
      <trkpt lat="43.63592" lon="1.40044">
        <ele>131</ele>
        <time>2024-04-25T16:57:36Z</time>
      </trkpt>
      <trkpt lat="43.63594" lon="1.40043">
        <ele>131</ele>
        <time>2024-04-25T16:57:37Z</time>
      </trkpt>
      <trkpt lat="43.63597" lon="1.40043">
        <ele>131</ele>
        <time>2024-04-25T16:57:38Z</time>
      </trkpt>
      <trkpt lat="43.63601" lon="1.40042">
        <ele>131</ele>
        <time>2024-04-25T16:57:39Z</time>
      </trkpt>
      <trkpt lat="43.63601" lon="1.40042">
        <ele>131</ele>
        <time>2024-04-25T16:57:40Z</time>
      </trkpt>
      <trkpt lat="43.63603" lon="1.4004">
        <ele>131</ele>
        <time>2024-04-25T16:57:41Z</time>
      </trkpt>
      <trkpt lat="43.63604" lon="1.40038">
        <ele>131</ele>
        <time>2024-04-25T16:57:42Z</time>
      </trkpt>
      <trkpt lat="43.63606" lon="1.40035">
        <ele>131</ele>
        <time>2024-04-25T16:57:43Z</time>
      </trkpt>
      <trkpt lat="43.63607" lon="1.40032">
        <ele>131</ele>
        <time>2024-04-25T16:57:44Z</time>
      </trkpt>
      <trkpt lat="43.6361" lon="1.40029">
        <ele>131</ele>
        <time>2024-04-25T16:57:45Z</time>
      </trkpt>
      <trkpt lat="43.6361" lon="1.40028">
        <ele>131</ele>
        <time>2024-04-25T16:57:46Z</time>
      </trkpt>
      <trkpt lat="43.63612" lon="1.40026">
        <ele>131</ele>
        <time>2024-04-25T16:57:47Z</time>
      </trkpt>
      <trkpt lat="43.63614" lon="1.40024">
        <ele>131</ele>
        <time>2024-04-25T16:57:48Z</time>
      </trkpt>
      <trkpt lat="43.63616" lon="1.40022">
        <ele>131</ele>
        <time>2024-04-25T16:57:49Z</time>
      </trkpt>
      <trkpt lat="43.63618" lon="1.4002">
        <ele>131</ele>
        <time>2024-04-25T16:57:50Z</time>
      </trkpt>
      <trkpt lat="43.6362" lon="1.40019">
        <ele>131</ele>
        <time>2024-04-25T16:57:51Z</time>
      </trkpt>
      <trkpt lat="43.63622" lon="1.40019">
        <ele>131</ele>
        <time>2024-04-25T16:57:52Z</time>
      </trkpt>
      <trkpt lat="43.63624" lon="1.40018">
        <ele>131</ele>
        <time>2024-04-25T16:57:53Z</time>
      </trkpt>
      <trkpt lat="43.63626" lon="1.40018">
        <ele>131</ele>
        <time>2024-04-25T16:57:54Z</time>
      </trkpt>
      <trkpt lat="43.63631" lon="1.40017">
        <ele>131</ele>
        <time>2024-04-25T16:57:55Z</time>
      </trkpt>
      <trkpt lat="43.63631" lon="1.40017">
        <ele>131</ele>
        <time>2024-04-25T16:57:56Z</time>
      </trkpt>
      <trkpt lat="43.63634" lon="1.40016">
        <ele>131</ele>
        <time>2024-04-25T16:57:57Z</time>
      </trkpt>
      <trkpt lat="43.63636" lon="1.40016">
        <ele>131</ele>
        <time>2024-04-25T16:57:58Z</time>
      </trkpt>
      <trkpt lat="43.63638" lon="1.40017">
        <ele>131</ele>
        <time>2024-04-25T16:57:59Z</time>
      </trkpt>
      <trkpt lat="43.63641" lon="1.40017">
        <ele>131</ele>
        <time>2024-04-25T16:58:00Z</time>
      </trkpt>
      <trkpt lat="43.63643" lon="1.40018">
        <ele>131</ele>
        <time>2024-04-25T16:58:01Z</time>
      </trkpt>
      <trkpt lat="43.63645" lon="1.40019">
        <ele>131</ele>
        <time>2024-04-25T16:58:02Z</time>
      </trkpt>
      <trkpt lat="43.63647" lon="1.40019">
        <ele>131</ele>
        <time>2024-04-25T16:58:03Z</time>
      </trkpt>
      <trkpt lat="43.63649" lon="1.4002">
        <ele>131</ele>
        <time>2024-04-25T16:58:04Z</time>
      </trkpt>
      <trkpt lat="43.63649" lon="1.4002">
        <ele>131</ele>
        <time>2024-04-25T16:58:05Z</time>
      </trkpt>
      <trkpt lat="43.63653" lon="1.4002">
        <ele>131</ele>
        <time>2024-04-25T16:58:06Z</time>
      </trkpt>
      <trkpt lat="43.63653" lon="1.4002">
        <ele>131</ele>
        <time>2024-04-25T16:58:07Z</time>
      </trkpt>
      <trkpt lat="43.63657" lon="1.40021">
        <ele>132</ele>
        <time>2024-04-25T16:58:08Z</time>
      </trkpt>
      <trkpt lat="43.63659" lon="1.40021">
        <ele>132</ele>
        <time>2024-04-25T16:58:09Z</time>
      </trkpt>
      <trkpt lat="43.63661" lon="1.40022">
        <ele>131</ele>
        <time>2024-04-25T16:58:10Z</time>
      </trkpt>
      <trkpt lat="43.63661" lon="1.40022">
        <ele>131</ele>
        <time>2024-04-25T16:58:11Z</time>
      </trkpt>
      <trkpt lat="43.63664" lon="1.40023">
        <ele>131</ele>
        <time>2024-04-25T16:58:12Z</time>
      </trkpt>
      <trkpt lat="43.63666" lon="1.40024">
        <ele>131</ele>
        <time>2024-04-25T16:58:13Z</time>
      </trkpt>
      <trkpt lat="43.63666" lon="1.40024">
        <ele>131</ele>
        <time>2024-04-25T16:58:14Z</time>
      </trkpt>
      <trkpt lat="43.6367" lon="1.40024">
        <ele>131</ele>
        <time>2024-04-25T16:58:15Z</time>
      </trkpt>
      <trkpt lat="43.63672" lon="1.40024">
        <ele>131</ele>
        <time>2024-04-25T16:58:16Z</time>
      </trkpt>
      <trkpt lat="43.63675" lon="1.40024">
        <ele>131</ele>
        <time>2024-04-25T16:58:17Z</time>
      </trkpt>
      <trkpt lat="43.63677" lon="1.40024">
        <ele>131</ele>
        <time>2024-04-25T16:58:18Z</time>
      </trkpt>
      <trkpt lat="43.6368" lon="1.40024">
        <ele>131</ele>
        <time>2024-04-25T16:58:19Z</time>
      </trkpt>
      <trkpt lat="43.63683" lon="1.40024">
        <ele>131</ele>
        <time>2024-04-25T16:58:20Z</time>
      </trkpt>
      <trkpt lat="43.63684" lon="1.40024">
        <ele>131</ele>
        <time>2024-04-25T16:58:21Z</time>
      </trkpt>
      <trkpt lat="43.63687" lon="1.40023">
        <ele>131</ele>
        <time>2024-04-25T16:58:22Z</time>
      </trkpt>
      <trkpt lat="43.6369" lon="1.40022">
        <ele>131</ele>
        <time>2024-04-25T16:58:23Z</time>
      </trkpt>
      <trkpt lat="43.63691" lon="1.40022">
        <ele>131</ele>
        <time>2024-04-25T16:58:24Z</time>
      </trkpt>
      <trkpt lat="43.63693" lon="1.40021">
        <ele>131</ele>
        <time>2024-04-25T16:58:25Z</time>
      </trkpt>
      <trkpt lat="43.63697" lon="1.40019">
        <ele>131</ele>
        <time>2024-04-25T16:58:26Z</time>
      </trkpt>
      <trkpt lat="43.63697" lon="1.40019">
        <ele>131</ele>
        <time>2024-04-25T16:58:27Z</time>
      </trkpt>
      <trkpt lat="43.63699" lon="1.40019">
        <ele>131</ele>
        <time>2024-04-25T16:58:28Z</time>
      </trkpt>
      <trkpt lat="43.63701" lon="1.40018">
        <ele>131</ele>
        <time>2024-04-25T16:58:29Z</time>
      </trkpt>
      <trkpt lat="43.63703" lon="1.40017">
        <ele>131</ele>
        <time>2024-04-25T16:58:30Z</time>
      </trkpt>
      <trkpt lat="43.63706" lon="1.40017">
        <ele>131</ele>
        <time>2024-04-25T16:58:31Z</time>
      </trkpt>
      <trkpt lat="43.63708" lon="1.40016">
        <ele>131</ele>
        <time>2024-04-25T16:58:32Z</time>
      </trkpt>
      <trkpt lat="43.63713" lon="1.40016">
        <ele>131</ele>
        <time>2024-04-25T16:58:33Z</time>
      </trkpt>
      <trkpt lat="43.63713" lon="1.40016">
        <ele>131</ele>
        <time>2024-04-25T16:58:34Z</time>
      </trkpt>
      <trkpt lat="43.63715" lon="1.40016">
        <ele>131</ele>
        <time>2024-04-25T16:58:35Z</time>
      </trkpt>
      <trkpt lat="43.63718" lon="1.40016">
        <ele>131</ele>
        <time>2024-04-25T16:58:36Z</time>
      </trkpt>
      <trkpt lat="43.6372" lon="1.40016">
        <ele>131</ele>
        <time>2024-04-25T16:58:37Z</time>
      </trkpt>
      <trkpt lat="43.63723" lon="1.40016">
        <ele>131</ele>
        <time>2024-04-25T16:58:38Z</time>
      </trkpt>
      <trkpt lat="43.63725" lon="1.40016">
        <ele>131</ele>
        <time>2024-04-25T16:58:39Z</time>
      </trkpt>
      <trkpt lat="43.6373" lon="1.40016">
        <ele>132</ele>
        <time>2024-04-25T16:58:40Z</time>
      </trkpt>
      <trkpt lat="43.6373" lon="1.40016">
        <ele>132</ele>
        <time>2024-04-25T16:58:41Z</time>
      </trkpt>
      <trkpt lat="43.63733" lon="1.40016">
        <ele>132</ele>
        <time>2024-04-25T16:58:42Z</time>
      </trkpt>
      <trkpt lat="43.63734" lon="1.40016">
        <ele>132</ele>
        <time>2024-04-25T16:58:43Z</time>
      </trkpt>
      <trkpt lat="43.63737" lon="1.40015">
        <ele>132</ele>
        <time>2024-04-25T16:58:44Z</time>
      </trkpt>
      <trkpt lat="43.63739" lon="1.40015">
        <ele>132</ele>
        <time>2024-04-25T16:58:45Z</time>
      </trkpt>
      <trkpt lat="43.63741" lon="1.40014">
        <ele>131</ele>
        <time>2024-04-25T16:58:46Z</time>
      </trkpt>
      <trkpt lat="43.63743" lon="1.40014">
        <ele>131</ele>
        <time>2024-04-25T16:58:47Z</time>
      </trkpt>
      <trkpt lat="43.63745" lon="1.40013">
        <ele>131</ele>
        <time>2024-04-25T16:58:48Z</time>
      </trkpt>
      <trkpt lat="43.63748" lon="1.40013">
        <ele>131</ele>
        <time>2024-04-25T16:58:49Z</time>
      </trkpt>
      <trkpt lat="43.6375" lon="1.40013">
        <ele>131</ele>
        <time>2024-04-25T16:58:50Z</time>
      </trkpt>
      <trkpt lat="43.63752" lon="1.40013">
        <ele>131</ele>
        <time>2024-04-25T16:58:51Z</time>
      </trkpt>
      <trkpt lat="43.63754" lon="1.40012">
        <ele>131</ele>
        <time>2024-04-25T16:58:52Z</time>
      </trkpt>
      <trkpt lat="43.63757" lon="1.40012">
        <ele>131</ele>
        <time>2024-04-25T16:58:53Z</time>
      </trkpt>
      <trkpt lat="43.63759" lon="1.40012">
        <ele>131</ele>
        <time>2024-04-25T16:58:54Z</time>
      </trkpt>
      <trkpt lat="43.63761" lon="1.40011">
        <ele>131</ele>
        <time>2024-04-25T16:58:55Z</time>
      </trkpt>
      <trkpt lat="43.63764" lon="1.40011">
        <ele>131</ele>
        <time>2024-04-25T16:58:56Z</time>
      </trkpt>
      <trkpt lat="43.63766" lon="1.4001">
        <ele>131</ele>
        <time>2024-04-25T16:58:57Z</time>
      </trkpt>
      <trkpt lat="43.63768" lon="1.4001">
        <ele>131</ele>
        <time>2024-04-25T16:58:58Z</time>
      </trkpt>
      <trkpt lat="43.63771" lon="1.4001">
        <ele>131</ele>
        <time>2024-04-25T16:58:59Z</time>
      </trkpt>
      <trkpt lat="43.63773" lon="1.4001">
        <ele>131</ele>
        <time>2024-04-25T16:59:00Z</time>
      </trkpt>
      <trkpt lat="43.63776" lon="1.40011">
        <ele>131</ele>
        <time>2024-04-25T16:59:01Z</time>
      </trkpt>
      <trkpt lat="43.63778" lon="1.40011">
        <ele>131</ele>
        <time>2024-04-25T16:59:02Z</time>
      </trkpt>
      <trkpt lat="43.6378" lon="1.40011">
        <ele>131</ele>
        <time>2024-04-25T16:59:03Z</time>
      </trkpt>
      <trkpt lat="43.63784" lon="1.40011">
        <ele>131</ele>
        <time>2024-04-25T16:59:04Z</time>
      </trkpt>
      <trkpt lat="43.63785" lon="1.40011">
        <ele>131</ele>
        <time>2024-04-25T16:59:05Z</time>
      </trkpt>
      <trkpt lat="43.63787" lon="1.40011">
        <ele>131</ele>
        <time>2024-04-25T16:59:06Z</time>
      </trkpt>
      <trkpt lat="43.6379" lon="1.40011">
        <ele>131</ele>
        <time>2024-04-25T16:59:07Z</time>
      </trkpt>
      <trkpt lat="43.63794" lon="1.4001">
        <ele>131</ele>
        <time>2024-04-25T16:59:08Z</time>
      </trkpt>
      <trkpt lat="43.63794" lon="1.4001">
        <ele>131</ele>
        <time>2024-04-25T16:59:09Z</time>
      </trkpt>
      <trkpt lat="43.63796" lon="1.40009">
        <ele>131</ele>
        <time>2024-04-25T16:59:10Z</time>
      </trkpt>
      <trkpt lat="43.63799" lon="1.40008">
        <ele>131</ele>
        <time>2024-04-25T16:59:11Z</time>
      </trkpt>
      <trkpt lat="43.63801" lon="1.40008">
        <ele>131</ele>
        <time>2024-04-25T16:59:12Z</time>
      </trkpt>
      <trkpt lat="43.63804" lon="1.40007">
        <ele>131</ele>
        <time>2024-04-25T16:59:13Z</time>
      </trkpt>
      <trkpt lat="43.63806" lon="1.40007">
        <ele>131</ele>
        <time>2024-04-25T16:59:14Z</time>
      </trkpt>
      <trkpt lat="43.6381" lon="1.40006">
        <ele>131</ele>
        <time>2024-04-25T16:59:15Z</time>
      </trkpt>
      <trkpt lat="43.6381" lon="1.40006">
        <ele>131</ele>
        <time>2024-04-25T16:59:16Z</time>
      </trkpt>
      <trkpt lat="43.63813" lon="1.40006">
        <ele>131</ele>
        <time>2024-04-25T16:59:17Z</time>
      </trkpt>
      <trkpt lat="43.63815" lon="1.40006">
        <ele>131</ele>
        <time>2024-04-25T16:59:18Z</time>
      </trkpt>
      <trkpt lat="43.63817" lon="1.40006">
        <ele>131</ele>
        <time>2024-04-25T16:59:19Z</time>
      </trkpt>
      <trkpt lat="43.63821" lon="1.40005">
        <ele>131</ele>
        <time>2024-04-25T16:59:20Z</time>
      </trkpt>
      <trkpt lat="43.63822" lon="1.40004">
        <ele>131</ele>
        <time>2024-04-25T16:59:21Z</time>
      </trkpt>
      <trkpt lat="43.63824" lon="1.40005">
        <ele>131</ele>
        <time>2024-04-25T16:59:22Z</time>
      </trkpt>
      <trkpt lat="43.63826" lon="1.40005">
        <ele>131</ele>
        <time>2024-04-25T16:59:23Z</time>
      </trkpt>
      <trkpt lat="43.63831" lon="1.40005">
        <ele>131</ele>
        <time>2024-04-25T16:59:24Z</time>
      </trkpt>
      <trkpt lat="43.63833" lon="1.40004">
        <ele>131</ele>
        <time>2024-04-25T16:59:26Z</time>
      </trkpt>
      <trkpt lat="43.63835" lon="1.40004">
        <ele>131</ele>
        <time>2024-04-25T16:59:27Z</time>
      </trkpt>
      <trkpt lat="43.63837" lon="1.40004">
        <ele>131</ele>
        <time>2024-04-25T16:59:28Z</time>
      </trkpt>
      <trkpt lat="43.63842" lon="1.40003">
        <ele>131</ele>
        <time>2024-04-25T16:59:29Z</time>
      </trkpt>
      <trkpt lat="43.63842" lon="1.40003">
        <ele>131</ele>
        <time>2024-04-25T16:59:30Z</time>
      </trkpt>
      <trkpt lat="43.63846" lon="1.40003">
        <ele>131</ele>
        <time>2024-04-25T16:59:31Z</time>
      </trkpt>
      <trkpt lat="43.63846" lon="1.40003">
        <ele>131</ele>
        <time>2024-04-25T16:59:32Z</time>
      </trkpt>
      <trkpt lat="43.63848" lon="1.40003">
        <ele>131</ele>
        <time>2024-04-25T16:59:33Z</time>
      </trkpt>
      <trkpt lat="43.63848" lon="1.40003">
        <ele>131</ele>
        <time>2024-04-25T16:59:34Z</time>
      </trkpt>
      <trkpt lat="43.63851" lon="1.40002">
        <ele>131</ele>
        <time>2024-04-25T16:59:35Z</time>
      </trkpt>
      <trkpt lat="43.63853" lon="1.40001">
        <ele>131</ele>
        <time>2024-04-25T16:59:36Z</time>
      </trkpt>
      <trkpt lat="43.63856" lon="1.40001">
        <ele>131</ele>
        <time>2024-04-25T16:59:37Z</time>
      </trkpt>
      <trkpt lat="43.63858" lon="1.4">
        <ele>131</ele>
        <time>2024-04-25T16:59:38Z</time>
      </trkpt>
      <trkpt lat="43.63862" lon="1.39999">
        <ele>131</ele>
        <time>2024-04-25T16:59:39Z</time>
      </trkpt>
      <trkpt lat="43.63863" lon="1.39999">
        <ele>131</ele>
        <time>2024-04-25T16:59:40Z</time>
      </trkpt>
      <trkpt lat="43.63866" lon="1.39999">
        <ele>131</ele>
        <time>2024-04-25T16:59:41Z</time>
      </trkpt>
      <trkpt lat="43.63868" lon="1.39999">
        <ele>131</ele>
        <time>2024-04-25T16:59:42Z</time>
      </trkpt>
      <trkpt lat="43.63871" lon="1.4">
        <ele>131</ele>
        <time>2024-04-25T16:59:43Z</time>
      </trkpt>
      <trkpt lat="43.63873" lon="1.4">
        <ele>131</ele>
        <time>2024-04-25T16:59:44Z</time>
      </trkpt>
      <trkpt lat="43.63875" lon="1.4">
        <ele>131</ele>
        <time>2024-04-25T16:59:45Z</time>
      </trkpt>
      <trkpt lat="43.63878" lon="1.4">
        <ele>131</ele>
        <time>2024-04-25T16:59:46Z</time>
      </trkpt>
      <trkpt lat="43.63882" lon="1.4">
        <ele>131</ele>
        <time>2024-04-25T16:59:47Z</time>
      </trkpt>
      <trkpt lat="43.63883" lon="1.4">
        <ele>131</ele>
        <time>2024-04-25T16:59:48Z</time>
      </trkpt>
      <trkpt lat="43.63885" lon="1.40001">
        <ele>131</ele>
        <time>2024-04-25T16:59:49Z</time>
      </trkpt>
      <trkpt lat="43.63887" lon="1.40001">
        <ele>131</ele>
        <time>2024-04-25T16:59:50Z</time>
      </trkpt>
      <trkpt lat="43.63891" lon="1.40002">
        <ele>131</ele>
        <time>2024-04-25T16:59:51Z</time>
      </trkpt>
      <trkpt lat="43.63891" lon="1.40002">
        <ele>131</ele>
        <time>2024-04-25T16:59:52Z</time>
      </trkpt>
      <trkpt lat="43.63893" lon="1.40001">
        <ele>131</ele>
        <time>2024-04-25T16:59:53Z</time>
      </trkpt>
      <trkpt lat="43.63895" lon="1.40001">
        <ele>131</ele>
        <time>2024-04-25T16:59:54Z</time>
      </trkpt>
      <trkpt lat="43.63897" lon="1.40001">
        <ele>131</ele>
        <time>2024-04-25T16:59:55Z</time>
      </trkpt>
      <trkpt lat="43.63899" lon="1.4">
        <ele>131</ele>
        <time>2024-04-25T16:59:56Z</time>
      </trkpt>
      <trkpt lat="43.63902" lon="1.4">
        <ele>131</ele>
        <time>2024-04-25T16:59:57Z</time>
      </trkpt>
      <trkpt lat="43.63904" lon="1.39999">
        <ele>131</ele>
        <time>2024-04-25T16:59:58Z</time>
      </trkpt>
      <trkpt lat="43.63908" lon="1.39998">
        <ele>131</ele>
        <time>2024-04-25T16:59:59Z</time>
      </trkpt>
      <trkpt lat="43.63908" lon="1.39998">
        <ele>131</ele>
        <time>2024-04-25T17:00:00Z</time>
      </trkpt>
      <trkpt lat="43.6391" lon="1.39997">
        <ele>131</ele>
        <time>2024-04-25T17:00:01Z</time>
      </trkpt>
      <trkpt lat="43.63912" lon="1.39997">
        <ele>131</ele>
        <time>2024-04-25T17:00:02Z</time>
      </trkpt>
      <trkpt lat="43.63914" lon="1.39996">
        <ele>131</ele>
        <time>2024-04-25T17:00:03Z</time>
      </trkpt>
      <trkpt lat="43.63917" lon="1.39996">
        <ele>131</ele>
        <time>2024-04-25T17:00:04Z</time>
      </trkpt>
      <trkpt lat="43.63922" lon="1.39996">
        <ele>131</ele>
        <time>2024-04-25T17:00:05Z</time>
      </trkpt>
      <trkpt lat="43.63922" lon="1.39996">
        <ele>131</ele>
        <time>2024-04-25T17:00:06Z</time>
      </trkpt>
      <trkpt lat="43.63924" lon="1.39996">
        <ele>131</ele>
        <time>2024-04-25T17:00:07Z</time>
      </trkpt>
      <trkpt lat="43.63926" lon="1.39997">
        <ele>131</ele>
        <time>2024-04-25T17:00:08Z</time>
      </trkpt>
      <trkpt lat="43.63929" lon="1.39997">
        <ele>131</ele>
        <time>2024-04-25T17:00:09Z</time>
      </trkpt>
      <trkpt lat="43.63932" lon="1.39997">
        <ele>131</ele>
        <time>2024-04-25T17:00:10Z</time>
      </trkpt>
      <trkpt lat="43.63934" lon="1.39997">
        <ele>131</ele>
        <time>2024-04-25T17:00:11Z</time>
      </trkpt>
      <trkpt lat="43.63936" lon="1.39997">
        <ele>131</ele>
        <time>2024-04-25T17:00:12Z</time>
      </trkpt>
      <trkpt lat="43.63938" lon="1.39997">
        <ele>131</ele>
        <time>2024-04-25T17:00:13Z</time>
      </trkpt>
      <trkpt lat="43.63941" lon="1.39997">
        <ele>131</ele>
        <time>2024-04-25T17:00:14Z</time>
      </trkpt>
      <trkpt lat="43.63943" lon="1.39997">
        <ele>131</ele>
        <time>2024-04-25T17:00:15Z</time>
      </trkpt>
      <trkpt lat="43.63945" lon="1.39997">
        <ele>131</ele>
        <time>2024-04-25T17:00:16Z</time>
      </trkpt>
      <trkpt lat="43.63949" lon="1.39997">
        <ele>131</ele>
        <time>2024-04-25T17:00:17Z</time>
      </trkpt>
      <trkpt lat="43.6395" lon="1.39997">
        <ele>131</ele>
        <time>2024-04-25T17:00:18Z</time>
      </trkpt>
      <trkpt lat="43.63952" lon="1.39996">
        <ele>131</ele>
        <time>2024-04-25T17:00:19Z</time>
      </trkpt>
      <trkpt lat="43.63954" lon="1.39996">
        <ele>131</ele>
        <time>2024-04-25T17:00:20Z</time>
      </trkpt>
      <trkpt lat="43.63957" lon="1.39996">
        <ele>131</ele>
        <time>2024-04-25T17:00:21Z</time>
      </trkpt>
      <trkpt lat="43.63959" lon="1.39996">
        <ele>131</ele>
        <time>2024-04-25T17:00:22Z</time>
      </trkpt>
      <trkpt lat="43.63961" lon="1.39996">
        <ele>131</ele>
        <time>2024-04-25T17:00:23Z</time>
      </trkpt>
      <trkpt lat="43.63964" lon="1.39996">
        <ele>131</ele>
        <time>2024-04-25T17:00:24Z</time>
      </trkpt>
      <trkpt lat="43.63966" lon="1.39996">
        <ele>131</ele>
        <time>2024-04-25T17:00:25Z</time>
      </trkpt>
      <trkpt lat="43.63968" lon="1.39996">
        <ele>131</ele>
        <time>2024-04-25T17:00:26Z</time>
      </trkpt>
      <trkpt lat="43.63973" lon="1.39996">
        <ele>131</ele>
        <time>2024-04-25T17:00:27Z</time>
      </trkpt>
      <trkpt lat="43.63973" lon="1.39996">
        <ele>131</ele>
        <time>2024-04-25T17:00:28Z</time>
      </trkpt>
      <trkpt lat="43.63975" lon="1.39996">
        <ele>131</ele>
        <time>2024-04-25T17:00:29Z</time>
      </trkpt>
      <trkpt lat="43.63978" lon="1.39996">
        <ele>131</ele>
        <time>2024-04-25T17:00:30Z</time>
      </trkpt>
      <trkpt lat="43.63981" lon="1.39996">
        <ele>131</ele>
        <time>2024-04-25T17:00:31Z</time>
      </trkpt>
      <trkpt lat="43.63982" lon="1.39996">
        <ele>131</ele>
        <time>2024-04-25T17:00:32Z</time>
      </trkpt>
      <trkpt lat="43.63985" lon="1.39996">
        <ele>131</ele>
        <time>2024-04-25T17:00:33Z</time>
      </trkpt>
      <trkpt lat="43.63989" lon="1.39994">
        <ele>131</ele>
        <time>2024-04-25T17:00:34Z</time>
      </trkpt>
      <trkpt lat="43.63989" lon="1.39994">
        <ele>131</ele>
        <time>2024-04-25T17:00:35Z</time>
      </trkpt>
      <trkpt lat="43.63992" lon="1.39994">
        <ele>131</ele>
        <time>2024-04-25T17:00:36Z</time>
      </trkpt>
      <trkpt lat="43.63993" lon="1.39994">
        <ele>131</ele>
        <time>2024-04-25T17:00:37Z</time>
      </trkpt>
      <trkpt lat="43.63996" lon="1.39994">
        <ele>131</ele>
        <time>2024-04-25T17:00:38Z</time>
      </trkpt>
      <trkpt lat="43.64" lon="1.39994">
        <ele>131</ele>
        <time>2024-04-25T17:00:39Z</time>
      </trkpt>
      <trkpt lat="43.64" lon="1.39994">
        <ele>131</ele>
        <time>2024-04-25T17:00:40Z</time>
      </trkpt>
      <trkpt lat="43.64002" lon="1.39994">
        <ele>131</ele>
        <time>2024-04-25T17:00:41Z</time>
      </trkpt>
      <trkpt lat="43.64005" lon="1.39994">
        <ele>131</ele>
        <time>2024-04-25T17:00:42Z</time>
      </trkpt>
      <trkpt lat="43.64007" lon="1.39994">
        <ele>131</ele>
        <time>2024-04-25T17:00:43Z</time>
      </trkpt>
      <trkpt lat="43.64009" lon="1.39994">
        <ele>131</ele>
        <time>2024-04-25T17:00:44Z</time>
      </trkpt>
      <trkpt lat="43.64012" lon="1.39994">
        <ele>131</ele>
        <time>2024-04-25T17:00:45Z</time>
      </trkpt>
      <trkpt lat="43.64016" lon="1.39994">
        <ele>131</ele>
        <time>2024-04-25T17:00:46Z</time>
      </trkpt>
      <trkpt lat="43.64016" lon="1.39994">
        <ele>131</ele>
        <time>2024-04-25T17:00:47Z</time>
      </trkpt>
      <trkpt lat="43.6402" lon="1.39995">
        <ele>131</ele>
        <time>2024-04-25T17:00:48Z</time>
      </trkpt>
      <trkpt lat="43.6402" lon="1.39995">
        <ele>131</ele>
        <time>2024-04-25T17:00:49Z</time>
      </trkpt>
      <trkpt lat="43.64022" lon="1.39995">
        <ele>131</ele>
        <time>2024-04-25T17:00:50Z</time>
      </trkpt>
      <trkpt lat="43.64024" lon="1.39994">
        <ele>131</ele>
        <time>2024-04-25T17:00:51Z</time>
      </trkpt>
      <trkpt lat="43.64027" lon="1.39994">
        <ele>131</ele>
        <time>2024-04-25T17:00:52Z</time>
      </trkpt>
      <trkpt lat="43.64029" lon="1.39994">
        <ele>131</ele>
        <time>2024-04-25T17:00:53Z</time>
      </trkpt>
      <trkpt lat="43.64031" lon="1.39994">
        <ele>131</ele>
        <time>2024-04-25T17:00:54Z</time>
      </trkpt>
      <trkpt lat="43.64034" lon="1.39994">
        <ele>131</ele>
        <time>2024-04-25T17:00:55Z</time>
      </trkpt>
      <trkpt lat="43.64036" lon="1.39994">
        <ele>131</ele>
        <time>2024-04-25T17:00:56Z</time>
      </trkpt>
      <trkpt lat="43.64039" lon="1.39994">
        <ele>131</ele>
        <time>2024-04-25T17:00:57Z</time>
      </trkpt>
      <trkpt lat="43.64043" lon="1.39994">
        <ele>131</ele>
        <time>2024-04-25T17:00:58Z</time>
      </trkpt>
      <trkpt lat="43.64043" lon="1.39994">
        <ele>131</ele>
        <time>2024-04-25T17:00:59Z</time>
      </trkpt>
      <trkpt lat="43.64046" lon="1.39994">
        <ele>131</ele>
        <time>2024-04-25T17:01:00Z</time>
      </trkpt>
      <trkpt lat="43.64048" lon="1.39994">
        <ele>131</ele>
        <time>2024-04-25T17:01:01Z</time>
      </trkpt>
      <trkpt lat="43.6405" lon="1.39994">
        <ele>131</ele>
        <time>2024-04-25T17:01:02Z</time>
      </trkpt>
      <trkpt lat="43.64055" lon="1.39993">
        <ele>131</ele>
        <time>2024-04-25T17:01:03Z</time>
      </trkpt>
      <trkpt lat="43.64055" lon="1.39993">
        <ele>131</ele>
        <time>2024-04-25T17:01:04Z</time>
      </trkpt>
      <trkpt lat="43.6406" lon="1.39992">
        <ele>131</ele>
        <time>2024-04-25T17:01:05Z</time>
      </trkpt>
      <trkpt lat="43.6406" lon="1.39992">
        <ele>131</ele>
        <time>2024-04-25T17:01:06Z</time>
      </trkpt>
      <trkpt lat="43.64062" lon="1.39992">
        <ele>131</ele>
        <time>2024-04-25T17:01:07Z</time>
      </trkpt>
      <trkpt lat="43.64064" lon="1.39991">
        <ele>131</ele>
        <time>2024-04-25T17:01:08Z</time>
      </trkpt>
      <trkpt lat="43.64067" lon="1.39991">
        <ele>131</ele>
        <time>2024-04-25T17:01:09Z</time>
      </trkpt>
      <trkpt lat="43.64069" lon="1.39991">
        <ele>131</ele>
        <time>2024-04-25T17:01:10Z</time>
      </trkpt>
      <trkpt lat="43.64071" lon="1.39991">
        <ele>131</ele>
        <time>2024-04-25T17:01:11Z</time>
      </trkpt>
      <trkpt lat="43.64076" lon="1.39991">
        <ele>131</ele>
        <time>2024-04-25T17:01:12Z</time>
      </trkpt>
      <trkpt lat="43.64076" lon="1.39991">
        <ele>131</ele>
        <time>2024-04-25T17:01:13Z</time>
      </trkpt>
      <trkpt lat="43.64078" lon="1.39991">
        <ele>131</ele>
        <time>2024-04-25T17:01:14Z</time>
      </trkpt>
      <trkpt lat="43.6408" lon="1.39991">
        <ele>131</ele>
        <time>2024-04-25T17:01:15Z</time>
      </trkpt>
      <trkpt lat="43.64082" lon="1.3999">
        <ele>131</ele>
        <time>2024-04-25T17:01:16Z</time>
      </trkpt>
      <trkpt lat="43.64086" lon="1.3999">
        <ele>131</ele>
        <time>2024-04-25T17:01:17Z</time>
      </trkpt>
      <trkpt lat="43.64086" lon="1.3999">
        <ele>131</ele>
        <time>2024-04-25T17:01:18Z</time>
      </trkpt>
      <trkpt lat="43.64088" lon="1.3999">
        <ele>132</ele>
        <time>2024-04-25T17:01:19Z</time>
      </trkpt>
      <trkpt lat="43.6409" lon="1.3999">
        <ele>132</ele>
        <time>2024-04-25T17:01:20Z</time>
      </trkpt>
      <trkpt lat="43.64093" lon="1.3999">
        <ele>133</ele>
        <time>2024-04-25T17:01:21Z</time>
      </trkpt>
      <trkpt lat="43.64095" lon="1.3999">
        <ele>133</ele>
        <time>2024-04-25T17:01:22Z</time>
      </trkpt>
      <trkpt lat="43.64097" lon="1.39989">
        <ele>133</ele>
        <time>2024-04-25T17:01:23Z</time>
      </trkpt>
      <trkpt lat="43.641" lon="1.39988">
        <ele>133</ele>
        <time>2024-04-25T17:01:24Z</time>
      </trkpt>
      <trkpt lat="43.64102" lon="1.39988">
        <ele>133</ele>
        <time>2024-04-25T17:01:25Z</time>
      </trkpt>
      <trkpt lat="43.64107" lon="1.39987">
        <ele>132</ele>
        <time>2024-04-25T17:01:26Z</time>
      </trkpt>
      <trkpt lat="43.64107" lon="1.39987">
        <ele>133</ele>
        <time>2024-04-25T17:01:27Z</time>
      </trkpt>
      <trkpt lat="43.64109" lon="1.39986">
        <ele>133</ele>
        <time>2024-04-25T17:01:28Z</time>
      </trkpt>
      <trkpt lat="43.64111" lon="1.39985">
        <ele>132</ele>
        <time>2024-04-25T17:01:29Z</time>
      </trkpt>
      <trkpt lat="43.64114" lon="1.39985">
        <ele>132</ele>
        <time>2024-04-25T17:01:30Z</time>
      </trkpt>
      <trkpt lat="43.64116" lon="1.39984">
        <ele>132</ele>
        <time>2024-04-25T17:01:31Z</time>
      </trkpt>
      <trkpt lat="43.64118" lon="1.39983">
        <ele>132</ele>
        <time>2024-04-25T17:01:32Z</time>
      </trkpt>
      <trkpt lat="43.64122" lon="1.39981">
        <ele>132</ele>
        <time>2024-04-25T17:01:33Z</time>
      </trkpt>
      <trkpt lat="43.64123" lon="1.39981">
        <ele>132</ele>
        <time>2024-04-25T17:01:34Z</time>
      </trkpt>
      <trkpt lat="43.64126" lon="1.3998">
        <ele>132</ele>
        <time>2024-04-25T17:01:35Z</time>
      </trkpt>
      <trkpt lat="43.64128" lon="1.39979">
        <ele>132</ele>
        <time>2024-04-25T17:01:36Z</time>
      </trkpt>
      <trkpt lat="43.64131" lon="1.39977">
        <ele>132</ele>
        <time>2024-04-25T17:01:37Z</time>
      </trkpt>
      <trkpt lat="43.64132" lon="1.39977">
        <ele>132</ele>
        <time>2024-04-25T17:01:38Z</time>
      </trkpt>
      <trkpt lat="43.64135" lon="1.39977">
        <ele>131</ele>
        <time>2024-04-25T17:01:39Z</time>
      </trkpt>
      <trkpt lat="43.64137" lon="1.39977">
        <ele>131</ele>
        <time>2024-04-25T17:01:40Z</time>
      </trkpt>
      <trkpt lat="43.6414" lon="1.39976">
        <ele>131</ele>
        <time>2024-04-25T17:01:41Z</time>
      </trkpt>
      <trkpt lat="43.64142" lon="1.39976">
        <ele>131</ele>
        <time>2024-04-25T17:01:42Z</time>
      </trkpt>
      <trkpt lat="43.64144" lon="1.39976">
        <ele>131</ele>
        <time>2024-04-25T17:01:43Z</time>
      </trkpt>
      <trkpt lat="43.64146" lon="1.39975">
        <ele>131</ele>
        <time>2024-04-25T17:01:44Z</time>
      </trkpt>
      <trkpt lat="43.64149" lon="1.39975">
        <ele>131</ele>
        <time>2024-04-25T17:01:45Z</time>
      </trkpt>
      <trkpt lat="43.64154" lon="1.39973">
        <ele>131</ele>
        <time>2024-04-25T17:01:46Z</time>
      </trkpt>
      <trkpt lat="43.64154" lon="1.39973">
        <ele>131</ele>
        <time>2024-04-25T17:01:47Z</time>
      </trkpt>
      <trkpt lat="43.64156" lon="1.39973">
        <ele>131</ele>
        <time>2024-04-25T17:01:48Z</time>
      </trkpt>
      <trkpt lat="43.64158" lon="1.39972">
        <ele>130</ele>
        <time>2024-04-25T17:01:49Z</time>
      </trkpt>
      <trkpt lat="43.64161" lon="1.39972">
        <ele>130</ele>
        <time>2024-04-25T17:01:50Z</time>
      </trkpt>
      <trkpt lat="43.64163" lon="1.39971">
        <ele>131</ele>
        <time>2024-04-25T17:01:51Z</time>
      </trkpt>
      <trkpt lat="43.64166" lon="1.39971">
        <ele>131</ele>
        <time>2024-04-25T17:01:52Z</time>
      </trkpt>
      <trkpt lat="43.64167" lon="1.3997">
        <ele>131</ele>
        <time>2024-04-25T17:01:53Z</time>
      </trkpt>
      <trkpt lat="43.6417" lon="1.3997">
        <ele>131</ele>
        <time>2024-04-25T17:01:54Z</time>
      </trkpt>
      <trkpt lat="43.64172" lon="1.39969">
        <ele>131</ele>
        <time>2024-04-25T17:01:55Z</time>
      </trkpt>
      <trkpt lat="43.64175" lon="1.39968">
        <ele>131</ele>
        <time>2024-04-25T17:01:56Z</time>
      </trkpt>
      <trkpt lat="43.64177" lon="1.39967">
        <ele>131</ele>
        <time>2024-04-25T17:01:57Z</time>
      </trkpt>
      <trkpt lat="43.6418" lon="1.39966">
        <ele>131</ele>
        <time>2024-04-25T17:01:58Z</time>
      </trkpt>
      <trkpt lat="43.64182" lon="1.39966">
        <ele>131</ele>
        <time>2024-04-25T17:01:59Z</time>
      </trkpt>
      <trkpt lat="43.64184" lon="1.39965">
        <ele>131</ele>
        <time>2024-04-25T17:02:00Z</time>
      </trkpt>
      <trkpt lat="43.64186" lon="1.39964">
        <ele>131</ele>
        <time>2024-04-25T17:02:01Z</time>
      </trkpt>
      <trkpt lat="43.64188" lon="1.39963">
        <ele>131</ele>
        <time>2024-04-25T17:02:02Z</time>
      </trkpt>
      <trkpt lat="43.64192" lon="1.39961">
        <ele>131</ele>
        <time>2024-04-25T17:02:03Z</time>
      </trkpt>
      <trkpt lat="43.64195" lon="1.3996">
        <ele>131</ele>
        <time>2024-04-25T17:02:04Z</time>
      </trkpt>
      <trkpt lat="43.64195" lon="1.3996">
        <ele>131</ele>
        <time>2024-04-25T17:02:05Z</time>
      </trkpt>
      <trkpt lat="43.64197" lon="1.39959">
        <ele>131</ele>
        <time>2024-04-25T17:02:06Z</time>
      </trkpt>
      <trkpt lat="43.64199" lon="1.39958">
        <ele>131</ele>
        <time>2024-04-25T17:02:07Z</time>
      </trkpt>
      <trkpt lat="43.64201" lon="1.39956">
        <ele>131</ele>
        <time>2024-04-25T17:02:08Z</time>
      </trkpt>
      <trkpt lat="43.64203" lon="1.39955">
        <ele>131</ele>
        <time>2024-04-25T17:02:09Z</time>
      </trkpt>
      <trkpt lat="43.64205" lon="1.39953">
        <ele>131</ele>
        <time>2024-04-25T17:02:10Z</time>
      </trkpt>
      <trkpt lat="43.64208" lon="1.3995">
        <ele>131</ele>
        <time>2024-04-25T17:02:11Z</time>
      </trkpt>
      <trkpt lat="43.64209" lon="1.39949">
        <ele>131</ele>
        <time>2024-04-25T17:02:12Z</time>
      </trkpt>
      <trkpt lat="43.6421" lon="1.39947">
        <ele>131</ele>
        <time>2024-04-25T17:02:13Z</time>
      </trkpt>
      <trkpt lat="43.64212" lon="1.39945">
        <ele>131</ele>
        <time>2024-04-25T17:02:14Z</time>
      </trkpt>
      <trkpt lat="43.64214" lon="1.39943">
        <ele>131</ele>
        <time>2024-04-25T17:02:15Z</time>
      </trkpt>
      <trkpt lat="43.64215" lon="1.39942">
        <ele>131</ele>
        <time>2024-04-25T17:02:16Z</time>
      </trkpt>
      <trkpt lat="43.64217" lon="1.3994">
        <ele>131</ele>
        <time>2024-04-25T17:02:17Z</time>
      </trkpt>
      <trkpt lat="43.64219" lon="1.39938">
        <ele>131</ele>
        <time>2024-04-25T17:02:18Z</time>
      </trkpt>
      <trkpt lat="43.64223" lon="1.39934">
        <ele>131</ele>
        <time>2024-04-25T17:02:19Z</time>
      </trkpt>
      <trkpt lat="43.64225" lon="1.39933">
        <ele>131</ele>
        <time>2024-04-25T17:02:21Z</time>
      </trkpt>
      <trkpt lat="43.64227" lon="1.39931">
        <ele>131</ele>
        <time>2024-04-25T17:02:22Z</time>
      </trkpt>
      <trkpt lat="43.64229" lon="1.3993">
        <ele>131</ele>
        <time>2024-04-25T17:02:23Z</time>
      </trkpt>
      <trkpt lat="43.64233" lon="1.39928">
        <ele>131</ele>
        <time>2024-04-25T17:02:24Z</time>
      </trkpt>
      <trkpt lat="43.64233" lon="1.39928">
        <ele>131</ele>
        <time>2024-04-25T17:02:25Z</time>
      </trkpt>
      <trkpt lat="43.64236" lon="1.39926">
        <ele>131</ele>
        <time>2024-04-25T17:02:26Z</time>
      </trkpt>
      <trkpt lat="43.64238" lon="1.39925">
        <ele>131</ele>
        <time>2024-04-25T17:02:27Z</time>
      </trkpt>
      <trkpt lat="43.6424" lon="1.39924">
        <ele>131</ele>
        <time>2024-04-25T17:02:28Z</time>
      </trkpt>
      <trkpt lat="43.64242" lon="1.39923">
        <ele>131</ele>
        <time>2024-04-25T17:02:29Z</time>
      </trkpt>
      <trkpt lat="43.64247" lon="1.39922">
        <ele>131</ele>
        <time>2024-04-25T17:02:30Z</time>
      </trkpt>
      <trkpt lat="43.64249" lon="1.39922">
        <ele>131</ele>
        <time>2024-04-25T17:02:31Z</time>
      </trkpt>
      <trkpt lat="43.64249" lon="1.39922">
        <ele>131</ele>
        <time>2024-04-25T17:02:32Z</time>
      </trkpt>
      <trkpt lat="43.64254" lon="1.39921">
        <ele>131</ele>
        <time>2024-04-25T17:02:33Z</time>
      </trkpt>
      <trkpt lat="43.64254" lon="1.39921">
        <ele>131</ele>
        <time>2024-04-25T17:02:34Z</time>
      </trkpt>
      <trkpt lat="43.64256" lon="1.39921">
        <ele>131</ele>
        <time>2024-04-25T17:02:35Z</time>
      </trkpt>
      <trkpt lat="43.64258" lon="1.39921">
        <ele>131</ele>
        <time>2024-04-25T17:02:36Z</time>
      </trkpt>
      <trkpt lat="43.64261" lon="1.39921">
        <ele>131</ele>
        <time>2024-04-25T17:02:37Z</time>
      </trkpt>
      <trkpt lat="43.64263" lon="1.39921">
        <ele>131</ele>
        <time>2024-04-25T17:02:38Z</time>
      </trkpt>
      <trkpt lat="43.64266" lon="1.39921">
        <ele>131</ele>
        <time>2024-04-25T17:02:39Z</time>
      </trkpt>
      <trkpt lat="43.6427" lon="1.39921">
        <ele>131</ele>
        <time>2024-04-25T17:02:40Z</time>
      </trkpt>
      <trkpt lat="43.64272" lon="1.39921">
        <ele>131</ele>
        <time>2024-04-25T17:02:42Z</time>
      </trkpt>
      <trkpt lat="43.64277" lon="1.39922">
        <ele>131</ele>
        <time>2024-04-25T17:02:43Z</time>
      </trkpt>
      <trkpt lat="43.64277" lon="1.39922">
        <ele>131</ele>
        <time>2024-04-25T17:02:44Z</time>
      </trkpt>
      <trkpt lat="43.64279" lon="1.39922">
        <ele>131</ele>
        <time>2024-04-25T17:02:45Z</time>
      </trkpt>
      <trkpt lat="43.64281" lon="1.39923">
        <ele>131</ele>
        <time>2024-04-25T17:02:46Z</time>
      </trkpt>
      <trkpt lat="43.64283" lon="1.39923">
        <ele>131</ele>
        <time>2024-04-25T17:02:47Z</time>
      </trkpt>
      <trkpt lat="43.64286" lon="1.39924">
        <ele>131</ele>
        <time>2024-04-25T17:02:48Z</time>
      </trkpt>
      <trkpt lat="43.64289" lon="1.39926">
        <ele>131</ele>
        <time>2024-04-25T17:02:49Z</time>
      </trkpt>
      <trkpt lat="43.6429" lon="1.39927">
        <ele>131</ele>
        <time>2024-04-25T17:02:50Z</time>
      </trkpt>
      <trkpt lat="43.64293" lon="1.39928">
        <ele>131</ele>
        <time>2024-04-25T17:02:51Z</time>
      </trkpt>
      <trkpt lat="43.64295" lon="1.39929">
        <ele>131</ele>
        <time>2024-04-25T17:02:52Z</time>
      </trkpt>
      <trkpt lat="43.64297" lon="1.3993">
        <ele>131</ele>
        <time>2024-04-25T17:02:53Z</time>
      </trkpt>
      <trkpt lat="43.64299" lon="1.3993">
        <ele>131</ele>
        <time>2024-04-25T17:02:54Z</time>
      </trkpt>
      <trkpt lat="43.64301" lon="1.39931">
        <ele>131</ele>
        <time>2024-04-25T17:02:55Z</time>
      </trkpt>
      <trkpt lat="43.64303" lon="1.39932">
        <ele>131</ele>
        <time>2024-04-25T17:02:56Z</time>
      </trkpt>
      <trkpt lat="43.64308" lon="1.39933">
        <ele>131</ele>
        <time>2024-04-25T17:02:57Z</time>
      </trkpt>
      <trkpt lat="43.64308" lon="1.39933">
        <ele>131</ele>
        <time>2024-04-25T17:02:58Z</time>
      </trkpt>
      <trkpt lat="43.6431" lon="1.39934">
        <ele>131</ele>
        <time>2024-04-25T17:02:59Z</time>
      </trkpt>
      <trkpt lat="43.64312" lon="1.39936">
        <ele>131</ele>
        <time>2024-04-25T17:03:00Z</time>
      </trkpt>
      <trkpt lat="43.64314" lon="1.39936">
        <ele>131</ele>
        <time>2024-04-25T17:03:01Z</time>
      </trkpt>
      <trkpt lat="43.64317" lon="1.39937">
        <ele>131</ele>
        <time>2024-04-25T17:03:02Z</time>
      </trkpt>
      <trkpt lat="43.64321" lon="1.39939">
        <ele>131</ele>
        <time>2024-04-25T17:03:03Z</time>
      </trkpt>
      <trkpt lat="43.64323" lon="1.3994">
        <ele>131</ele>
        <time>2024-04-25T17:03:04Z</time>
      </trkpt>
      <trkpt lat="43.64327" lon="1.39942">
        <ele>131</ele>
        <time>2024-04-25T17:03:05Z</time>
      </trkpt>
      <trkpt lat="43.64327" lon="1.39942">
        <ele>131</ele>
        <time>2024-04-25T17:03:06Z</time>
      </trkpt>
      <trkpt lat="43.64329" lon="1.39943">
        <ele>131</ele>
        <time>2024-04-25T17:03:07Z</time>
      </trkpt>
      <trkpt lat="43.64333" lon="1.39944">
        <ele>131</ele>
        <time>2024-04-25T17:03:08Z</time>
      </trkpt>
      <trkpt lat="43.64334" lon="1.39944">
        <ele>131</ele>
        <time>2024-04-25T17:03:09Z</time>
      </trkpt>
      <trkpt lat="43.64336" lon="1.39944">
        <ele>131</ele>
        <time>2024-04-25T17:03:10Z</time>
      </trkpt>
      <trkpt lat="43.64338" lon="1.39945">
        <ele>131</ele>
        <time>2024-04-25T17:03:11Z</time>
      </trkpt>
      <trkpt lat="43.6434" lon="1.39946">
        <ele>131</ele>
        <time>2024-04-25T17:03:12Z</time>
      </trkpt>
      <trkpt lat="43.64342" lon="1.39947">
        <ele>131</ele>
        <time>2024-04-25T17:03:13Z</time>
      </trkpt>
      <trkpt lat="43.64344" lon="1.39947">
        <ele>131</ele>
        <time>2024-04-25T17:03:14Z</time>
      </trkpt>
      <trkpt lat="43.64347" lon="1.39948">
        <ele>131</ele>
        <time>2024-04-25T17:03:15Z</time>
      </trkpt>
      <trkpt lat="43.64349" lon="1.39949">
        <ele>131</ele>
        <time>2024-04-25T17:03:16Z</time>
      </trkpt>
      <trkpt lat="43.64352" lon="1.3995">
        <ele>131</ele>
        <time>2024-04-25T17:03:17Z</time>
      </trkpt>
      <trkpt lat="43.64352" lon="1.3995">
        <ele>131</ele>
        <time>2024-04-25T17:03:18Z</time>
      </trkpt>
      <trkpt lat="43.64355" lon="1.3995">
        <ele>131</ele>
        <time>2024-04-25T17:03:19Z</time>
      </trkpt>
      <trkpt lat="43.64355" lon="1.3995">
        <ele>131</ele>
        <time>2024-04-25T17:03:20Z</time>
      </trkpt>
      <trkpt lat="43.64359" lon="1.39951">
        <ele>131</ele>
        <time>2024-04-25T17:03:21Z</time>
      </trkpt>
      <trkpt lat="43.64361" lon="1.3995">
        <ele>131</ele>
        <time>2024-04-25T17:03:22Z</time>
      </trkpt>
      <trkpt lat="43.64365" lon="1.3995">
        <ele>131</ele>
        <time>2024-04-25T17:03:23Z</time>
      </trkpt>
      <trkpt lat="43.64365" lon="1.3995">
        <ele>130</ele>
        <time>2024-04-25T17:03:24Z</time>
      </trkpt>
      <trkpt lat="43.64369" lon="1.3995">
        <ele>130</ele>
        <time>2024-04-25T17:03:25Z</time>
      </trkpt>
      <trkpt lat="43.6437" lon="1.3995">
        <ele>130</ele>
        <time>2024-04-25T17:03:26Z</time>
      </trkpt>
      <trkpt lat="43.64374" lon="1.39951">
        <ele>130</ele>
        <time>2024-04-25T17:03:27Z</time>
      </trkpt>
      <trkpt lat="43.64375" lon="1.39951">
        <ele>130</ele>
        <time>2024-04-25T17:03:28Z</time>
      </trkpt>
      <trkpt lat="43.64378" lon="1.39951">
        <ele>130</ele>
        <time>2024-04-25T17:03:29Z</time>
      </trkpt>
      <trkpt lat="43.64383" lon="1.39952">
        <ele>130</ele>
        <time>2024-04-25T17:03:30Z</time>
      </trkpt>
      <trkpt lat="43.64383" lon="1.39952">
        <ele>130</ele>
        <time>2024-04-25T17:03:31Z</time>
      </trkpt>
      <trkpt lat="43.64386" lon="1.39953">
        <ele>130</ele>
        <time>2024-04-25T17:03:32Z</time>
      </trkpt>
      <trkpt lat="43.64389" lon="1.39953">
        <ele>130</ele>
        <time>2024-04-25T17:03:33Z</time>
      </trkpt>
      <trkpt lat="43.64391" lon="1.39954">
        <ele>130</ele>
        <time>2024-04-25T17:03:34Z</time>
      </trkpt>
      <trkpt lat="43.64394" lon="1.39954">
        <ele>130</ele>
        <time>2024-04-25T17:03:35Z</time>
      </trkpt>
      <trkpt lat="43.64396" lon="1.39954">
        <ele>130</ele>
        <time>2024-04-25T17:03:36Z</time>
      </trkpt>
      <trkpt lat="43.64399" lon="1.39954">
        <ele>130</ele>
        <time>2024-04-25T17:03:37Z</time>
      </trkpt>
      <trkpt lat="43.64402" lon="1.39954">
        <ele>130</ele>
        <time>2024-04-25T17:03:38Z</time>
      </trkpt>
      <trkpt lat="43.64406" lon="1.39955">
        <ele>130</ele>
        <time>2024-04-25T17:03:39Z</time>
      </trkpt>
      <trkpt lat="43.64406" lon="1.39955">
        <ele>130</ele>
        <time>2024-04-25T17:03:40Z</time>
      </trkpt>
      <trkpt lat="43.64409" lon="1.39956">
        <ele>130</ele>
        <time>2024-04-25T17:03:41Z</time>
      </trkpt>
      <trkpt lat="43.64411" lon="1.39956">
        <ele>130</ele>
        <time>2024-04-25T17:03:42Z</time>
      </trkpt>
      <trkpt lat="43.64413" lon="1.39956">
        <ele>130</ele>
        <time>2024-04-25T17:03:43Z</time>
      </trkpt>
      <trkpt lat="43.64417" lon="1.39956">
        <ele>130</ele>
        <time>2024-04-25T17:03:44Z</time>
      </trkpt>
      <trkpt lat="43.64418" lon="1.39956">
        <ele>130</ele>
        <time>2024-04-25T17:03:45Z</time>
      </trkpt>
      <trkpt lat="43.64421" lon="1.39956">
        <ele>130</ele>
        <time>2024-04-25T17:03:46Z</time>
      </trkpt>
      <trkpt lat="43.64422" lon="1.39956">
        <ele>130</ele>
        <time>2024-04-25T17:03:47Z</time>
      </trkpt>
      <trkpt lat="43.64424" lon="1.39957">
        <ele>130</ele>
        <time>2024-04-25T17:03:48Z</time>
      </trkpt>
      <trkpt lat="43.64427" lon="1.39956">
        <ele>131</ele>
        <time>2024-04-25T17:03:49Z</time>
      </trkpt>
      <trkpt lat="43.64429" lon="1.39956">
        <ele>131</ele>
        <time>2024-04-25T17:03:50Z</time>
      </trkpt>
      <trkpt lat="43.64431" lon="1.39956">
        <ele>130</ele>
        <time>2024-04-25T17:03:51Z</time>
      </trkpt>
      <trkpt lat="43.64433" lon="1.39956">
        <ele>130</ele>
        <time>2024-04-25T17:03:52Z</time>
      </trkpt>
      <trkpt lat="43.64435" lon="1.39956">
        <ele>130</ele>
        <time>2024-04-25T17:03:53Z</time>
      </trkpt>
      <trkpt lat="43.64437" lon="1.39956">
        <ele>130</ele>
        <time>2024-04-25T17:03:54Z</time>
      </trkpt>
      <trkpt lat="43.6444" lon="1.39956">
        <ele>130</ele>
        <time>2024-04-25T17:03:55Z</time>
      </trkpt>
      <trkpt lat="43.64442" lon="1.39956">
        <ele>130</ele>
        <time>2024-04-25T17:03:56Z</time>
      </trkpt>
      <trkpt lat="43.64446" lon="1.39957">
        <ele>129</ele>
        <time>2024-04-25T17:03:57Z</time>
      </trkpt>
      <trkpt lat="43.64446" lon="1.39957">
        <ele>129</ele>
        <time>2024-04-25T17:03:58Z</time>
      </trkpt>
      <trkpt lat="43.6445" lon="1.39957">
        <ele>130</ele>
        <time>2024-04-25T17:03:59Z</time>
      </trkpt>
      <trkpt lat="43.6445" lon="1.39957">
        <ele>130</ele>
        <time>2024-04-25T17:04:00Z</time>
      </trkpt>
      <trkpt lat="43.64453" lon="1.39957">
        <ele>130</ele>
        <time>2024-04-25T17:04:01Z</time>
      </trkpt>
      <trkpt lat="43.64455" lon="1.39957">
        <ele>130</ele>
        <time>2024-04-25T17:04:02Z</time>
      </trkpt>
      <trkpt lat="43.64458" lon="1.39958">
        <ele>130</ele>
        <time>2024-04-25T17:04:03Z</time>
      </trkpt>
      <trkpt lat="43.6446" lon="1.39958">
        <ele>130</ele>
        <time>2024-04-25T17:04:04Z</time>
      </trkpt>
      <trkpt lat="43.64463" lon="1.39958">
        <ele>130</ele>
        <time>2024-04-25T17:04:05Z</time>
      </trkpt>
      <trkpt lat="43.64466" lon="1.39957">
        <ele>130</ele>
        <time>2024-04-25T17:04:06Z</time>
      </trkpt>
      <trkpt lat="43.64468" lon="1.39957">
        <ele>130</ele>
        <time>2024-04-25T17:04:07Z</time>
      </trkpt>
      <trkpt lat="43.64471" lon="1.39956">
        <ele>130</ele>
        <time>2024-04-25T17:04:08Z</time>
      </trkpt>
      <trkpt lat="43.64473" lon="1.39956">
        <ele>130</ele>
        <time>2024-04-25T17:04:09Z</time>
      </trkpt>
      <trkpt lat="43.64478" lon="1.39955">
        <ele>131</ele>
        <time>2024-04-25T17:04:10Z</time>
      </trkpt>
      <trkpt lat="43.64478" lon="1.39955">
        <ele>131</ele>
        <time>2024-04-25T17:04:11Z</time>
      </trkpt>
      <trkpt lat="43.6448" lon="1.39955">
        <ele>131</ele>
        <time>2024-04-25T17:04:12Z</time>
      </trkpt>
      <trkpt lat="43.64482" lon="1.39954">
        <ele>132</ele>
        <time>2024-04-25T17:04:13Z</time>
      </trkpt>
      <trkpt lat="43.64484" lon="1.39954">
        <ele>132</ele>
        <time>2024-04-25T17:04:14Z</time>
      </trkpt>
      <trkpt lat="43.64486" lon="1.39954">
        <ele>132</ele>
        <time>2024-04-25T17:04:15Z</time>
      </trkpt>
      <trkpt lat="43.64489" lon="1.39953">
        <ele>132</ele>
        <time>2024-04-25T17:04:16Z</time>
      </trkpt>
      <trkpt lat="43.64493" lon="1.39952">
        <ele>132</ele>
        <time>2024-04-25T17:04:17Z</time>
      </trkpt>
      <trkpt lat="43.64493" lon="1.39952">
        <ele>132</ele>
        <time>2024-04-25T17:04:18Z</time>
      </trkpt>
      <trkpt lat="43.64496" lon="1.39951">
        <ele>132</ele>
        <time>2024-04-25T17:04:19Z</time>
      </trkpt>
      <trkpt lat="43.64498" lon="1.3995">
        <ele>132</ele>
        <time>2024-04-25T17:04:20Z</time>
      </trkpt>
      <trkpt lat="43.645" lon="1.3995">
        <ele>132</ele>
        <time>2024-04-25T17:04:21Z</time>
      </trkpt>
      <trkpt lat="43.64502" lon="1.39949">
        <ele>132</ele>
        <time>2024-04-25T17:04:22Z</time>
      </trkpt>
      <trkpt lat="43.64504" lon="1.39947">
        <ele>132</ele>
        <time>2024-04-25T17:04:23Z</time>
      </trkpt>
      <trkpt lat="43.64507" lon="1.39944">
        <ele>132</ele>
        <time>2024-04-25T17:04:24Z</time>
      </trkpt>
      <trkpt lat="43.64508" lon="1.39943">
        <ele>132</ele>
        <time>2024-04-25T17:04:25Z</time>
      </trkpt>
      <trkpt lat="43.64509" lon="1.3994">
        <ele>132</ele>
        <time>2024-04-25T17:04:26Z</time>
      </trkpt>
      <trkpt lat="43.64509" lon="1.39937">
        <ele>132</ele>
        <time>2024-04-25T17:04:27Z</time>
      </trkpt>
      <trkpt lat="43.64509" lon="1.39933">
        <ele>132</ele>
        <time>2024-04-25T17:04:28Z</time>
      </trkpt>
      <trkpt lat="43.64508" lon="1.39931">
        <ele>132</ele>
        <time>2024-04-25T17:04:29Z</time>
      </trkpt>
      <trkpt lat="43.64507" lon="1.39929">
        <ele>132</ele>
        <time>2024-04-25T17:04:30Z</time>
      </trkpt>
      <trkpt lat="43.64506" lon="1.39926">
        <ele>132</ele>
        <time>2024-04-25T17:04:31Z</time>
      </trkpt>
      <trkpt lat="43.64502" lon="1.39923">
        <ele>132</ele>
        <time>2024-04-25T17:04:32Z</time>
      </trkpt>
      <trkpt lat="43.64502" lon="1.39923">
        <ele>132</ele>
        <time>2024-04-25T17:04:33Z</time>
      </trkpt>
      <trkpt lat="43.64501" lon="1.39921">
        <ele>132</ele>
        <time>2024-04-25T17:04:34Z</time>
      </trkpt>
      <trkpt lat="43.64499" lon="1.39919">
        <ele>132</ele>
        <time>2024-04-25T17:04:35Z</time>
      </trkpt>
      <trkpt lat="43.64498" lon="1.39917">
        <ele>132</ele>
        <time>2024-04-25T17:04:36Z</time>
      </trkpt>
      <trkpt lat="43.64497" lon="1.39914">
        <ele>132</ele>
        <time>2024-04-25T17:04:37Z</time>
      </trkpt>
      <trkpt lat="43.64497" lon="1.3991">
        <ele>132</ele>
        <time>2024-04-25T17:04:38Z</time>
      </trkpt>
      <trkpt lat="43.64497" lon="1.39907">
        <ele>132</ele>
        <time>2024-04-25T17:04:39Z</time>
      </trkpt>
      <trkpt lat="43.64497" lon="1.39904">
        <ele>132</ele>
        <time>2024-04-25T17:04:40Z</time>
      </trkpt>
      <trkpt lat="43.64497" lon="1.39901">
        <ele>132</ele>
        <time>2024-04-25T17:04:41Z</time>
      </trkpt>
      <trkpt lat="43.64497" lon="1.39898">
        <ele>132</ele>
        <time>2024-04-25T17:04:42Z</time>
      </trkpt>
      <trkpt lat="43.64497" lon="1.39893">
        <ele>132</ele>
        <time>2024-04-25T17:04:43Z</time>
      </trkpt>
      <trkpt lat="43.64497" lon="1.39891">
        <ele>132</ele>
        <time>2024-04-25T17:04:44Z</time>
      </trkpt>
      <trkpt lat="43.64497" lon="1.39887">
        <ele>132</ele>
        <time>2024-04-25T17:04:45Z</time>
      </trkpt>
      <trkpt lat="43.64498" lon="1.39881">
        <ele>132</ele>
        <time>2024-04-25T17:04:46Z</time>
      </trkpt>
      <trkpt lat="43.64498" lon="1.39881">
        <ele>132</ele>
        <time>2024-04-25T17:04:47Z</time>
      </trkpt>
      <trkpt lat="43.64498" lon="1.39878">
        <ele>132</ele>
        <time>2024-04-25T17:04:48Z</time>
      </trkpt>
      <trkpt lat="43.64498" lon="1.39874">
        <ele>132</ele>
        <time>2024-04-25T17:04:49Z</time>
      </trkpt>
      <trkpt lat="43.64498" lon="1.39869">
        <ele>132</ele>
        <time>2024-04-25T17:04:50Z</time>
      </trkpt>
      <trkpt lat="43.64498" lon="1.39868">
        <ele>132</ele>
        <time>2024-04-25T17:04:51Z</time>
      </trkpt>
      <trkpt lat="43.64498" lon="1.39864">
        <ele>132</ele>
        <time>2024-04-25T17:04:52Z</time>
      </trkpt>
      <trkpt lat="43.64498" lon="1.39861">
        <ele>132</ele>
        <time>2024-04-25T17:04:53Z</time>
      </trkpt>
      <trkpt lat="43.64498" lon="1.39855">
        <ele>132</ele>
        <time>2024-04-25T17:04:54Z</time>
      </trkpt>
      <trkpt lat="43.64498" lon="1.39855">
        <ele>132</ele>
        <time>2024-04-25T17:04:55Z</time>
      </trkpt>
      <trkpt lat="43.64498" lon="1.39852">
        <ele>132</ele>
        <time>2024-04-25T17:04:56Z</time>
      </trkpt>
      <trkpt lat="43.64498" lon="1.39849">
        <ele>132</ele>
        <time>2024-04-25T17:04:57Z</time>
      </trkpt>
      <trkpt lat="43.64498" lon="1.39846">
        <ele>132</ele>
        <time>2024-04-25T17:04:58Z</time>
      </trkpt>
      <trkpt lat="43.64498" lon="1.39843">
        <ele>132</ele>
        <time>2024-04-25T17:04:59Z</time>
      </trkpt>
      <trkpt lat="43.64498" lon="1.3984">
        <ele>132</ele>
        <time>2024-04-25T17:05:00Z</time>
      </trkpt>
      <trkpt lat="43.64498" lon="1.39836">
        <ele>131</ele>
        <time>2024-04-25T17:05:01Z</time>
      </trkpt>
      <trkpt lat="43.64498" lon="1.39831">
        <ele>131</ele>
        <time>2024-04-25T17:05:02Z</time>
      </trkpt>
      <trkpt lat="43.64498" lon="1.3983">
        <ele>132</ele>
        <time>2024-04-25T17:05:03Z</time>
      </trkpt>
      <trkpt lat="43.64498" lon="1.39826">
        <ele>132</ele>
        <time>2024-04-25T17:05:04Z</time>
      </trkpt>
      <trkpt lat="43.64498" lon="1.39823">
        <ele>132</ele>
        <time>2024-04-25T17:05:05Z</time>
      </trkpt>
      <trkpt lat="43.64498" lon="1.3982">
        <ele>133</ele>
        <time>2024-04-25T17:05:06Z</time>
      </trkpt>
      <trkpt lat="43.64498" lon="1.39817">
        <ele>133</ele>
        <time>2024-04-25T17:05:07Z</time>
      </trkpt>
      <trkpt lat="43.64498" lon="1.3981">
        <ele>132</ele>
        <time>2024-04-25T17:05:08Z</time>
      </trkpt>
      <trkpt lat="43.64498" lon="1.3981">
        <ele>132</ele>
        <time>2024-04-25T17:05:09Z</time>
      </trkpt>
      <trkpt lat="43.64498" lon="1.39807">
        <ele>132</ele>
        <time>2024-04-25T17:05:10Z</time>
      </trkpt>
      <trkpt lat="43.64498" lon="1.39802">
        <ele>132</ele>
        <time>2024-04-25T17:05:11Z</time>
      </trkpt>
      <trkpt lat="43.64498" lon="1.398">
        <ele>132</ele>
        <time>2024-04-25T17:05:12Z</time>
      </trkpt>
      <trkpt lat="43.64498" lon="1.39794">
        <ele>132</ele>
        <time>2024-04-25T17:05:13Z</time>
      </trkpt>
      <trkpt lat="43.64498" lon="1.39794">
        <ele>132</ele>
        <time>2024-04-25T17:05:14Z</time>
      </trkpt>
      <trkpt lat="43.64498" lon="1.39791">
        <ele>132</ele>
        <time>2024-04-25T17:05:15Z</time>
      </trkpt>
      <trkpt lat="43.64498" lon="1.39787">
        <ele>132</ele>
        <time>2024-04-25T17:05:16Z</time>
      </trkpt>
      <trkpt lat="43.64498" lon="1.39784">
        <ele>132</ele>
        <time>2024-04-25T17:05:17Z</time>
      </trkpt>
      <trkpt lat="43.64498" lon="1.39781">
        <ele>132</ele>
        <time>2024-04-25T17:05:18Z</time>
      </trkpt>
      <trkpt lat="43.64498" lon="1.39778">
        <ele>132</ele>
        <time>2024-04-25T17:05:19Z</time>
      </trkpt>
      <trkpt lat="43.64498" lon="1.39774">
        <ele>132</ele>
        <time>2024-04-25T17:05:20Z</time>
      </trkpt>
      <trkpt lat="43.64498" lon="1.3977">
        <ele>132</ele>
        <time>2024-04-25T17:05:21Z</time>
      </trkpt>
      <trkpt lat="43.64498" lon="1.39768">
        <ele>132</ele>
        <time>2024-04-25T17:05:22Z</time>
      </trkpt>
      <trkpt lat="43.64498" lon="1.39765">
        <ele>132</ele>
        <time>2024-04-25T17:05:23Z</time>
      </trkpt>
      <trkpt lat="43.64498" lon="1.39761">
        <ele>132</ele>
        <time>2024-04-25T17:05:24Z</time>
      </trkpt>
      <trkpt lat="43.64498" lon="1.39758">
        <ele>132</ele>
        <time>2024-04-25T17:05:25Z</time>
      </trkpt>
      <trkpt lat="43.64499" lon="1.39755">
        <ele>132</ele>
        <time>2024-04-25T17:05:26Z</time>
      </trkpt>
      <trkpt lat="43.64499" lon="1.39752">
        <ele>132</ele>
        <time>2024-04-25T17:05:27Z</time>
      </trkpt>
      <trkpt lat="43.64499" lon="1.39749">
        <ele>132</ele>
        <time>2024-04-25T17:05:28Z</time>
      </trkpt>
      <trkpt lat="43.64499" lon="1.39746">
        <ele>132</ele>
        <time>2024-04-25T17:05:29Z</time>
      </trkpt>
      <trkpt lat="43.64499" lon="1.39742">
        <ele>132</ele>
        <time>2024-04-25T17:05:30Z</time>
      </trkpt>
      <trkpt lat="43.64499" lon="1.39736">
        <ele>132</ele>
        <time>2024-04-25T17:05:31Z</time>
      </trkpt>
      <trkpt lat="43.64499" lon="1.39736">
        <ele>132</ele>
        <time>2024-04-25T17:05:32Z</time>
      </trkpt>
      <trkpt lat="43.64499" lon="1.39731">
        <ele>132</ele>
        <time>2024-04-25T17:05:33Z</time>
      </trkpt>
      <trkpt lat="43.64499" lon="1.3973">
        <ele>131</ele>
        <time>2024-04-25T17:05:34Z</time>
      </trkpt>
      <trkpt lat="43.64499" lon="1.39727">
        <ele>131</ele>
        <time>2024-04-25T17:05:35Z</time>
      </trkpt>
      <trkpt lat="43.64499" lon="1.39723">
        <ele>131</ele>
        <time>2024-04-25T17:05:36Z</time>
      </trkpt>
      <trkpt lat="43.64499" lon="1.39717">
        <ele>131</ele>
        <time>2024-04-25T17:05:37Z</time>
      </trkpt>
      <trkpt lat="43.64499" lon="1.39717">
        <ele>131</ele>
        <time>2024-04-25T17:05:38Z</time>
      </trkpt>
      <trkpt lat="43.645" lon="1.39714">
        <ele>131</ele>
        <time>2024-04-25T17:05:39Z</time>
      </trkpt>
      <trkpt lat="43.64499" lon="1.39709">
        <ele>131</ele>
        <time>2024-04-25T17:05:40Z</time>
      </trkpt>
      <trkpt lat="43.645" lon="1.39708">
        <ele>131</ele>
        <time>2024-04-25T17:05:41Z</time>
      </trkpt>
      <trkpt lat="43.64499" lon="1.39704">
        <ele>131</ele>
        <time>2024-04-25T17:05:42Z</time>
      </trkpt>
      <trkpt lat="43.64499" lon="1.39701">
        <ele>131</ele>
        <time>2024-04-25T17:05:43Z</time>
      </trkpt>
      <trkpt lat="43.64499" lon="1.39698">
        <ele>132</ele>
        <time>2024-04-25T17:05:44Z</time>
      </trkpt>
      <trkpt lat="43.645" lon="1.39695">
        <ele>132</ele>
        <time>2024-04-25T17:05:45Z</time>
      </trkpt>
      <trkpt lat="43.645" lon="1.39692">
        <ele>132</ele>
        <time>2024-04-25T17:05:46Z</time>
      </trkpt>
      <trkpt lat="43.645" lon="1.39688">
        <ele>132</ele>
        <time>2024-04-25T17:05:47Z</time>
      </trkpt>
      <trkpt lat="43.645" lon="1.39685">
        <ele>132</ele>
        <time>2024-04-25T17:05:48Z</time>
      </trkpt>
      <trkpt lat="43.645" lon="1.39682">
        <ele>132</ele>
        <time>2024-04-25T17:05:49Z</time>
      </trkpt>
      <trkpt lat="43.645" lon="1.39678">
        <ele>132</ele>
        <time>2024-04-25T17:05:50Z</time>
      </trkpt>
      <trkpt lat="43.645" lon="1.39675">
        <ele>132</ele>
        <time>2024-04-25T17:05:51Z</time>
      </trkpt>
      <trkpt lat="43.64501" lon="1.39672">
        <ele>132</ele>
        <time>2024-04-25T17:05:52Z</time>
      </trkpt>
      <trkpt lat="43.645" lon="1.39669">
        <ele>132</ele>
        <time>2024-04-25T17:05:53Z</time>
      </trkpt>
      <trkpt lat="43.64501" lon="1.39664">
        <ele>132</ele>
        <time>2024-04-25T17:05:54Z</time>
      </trkpt>
      <trkpt lat="43.64501" lon="1.39662">
        <ele>132</ele>
        <time>2024-04-25T17:05:55Z</time>
      </trkpt>
      <trkpt lat="43.645" lon="1.39659">
        <ele>132</ele>
        <time>2024-04-25T17:05:56Z</time>
      </trkpt>
      <trkpt lat="43.645" lon="1.39656">
        <ele>131</ele>
        <time>2024-04-25T17:05:57Z</time>
      </trkpt>
      <trkpt lat="43.645" lon="1.39653">
        <ele>131</ele>
        <time>2024-04-25T17:05:58Z</time>
      </trkpt>
      <trkpt lat="43.645" lon="1.39646">
        <ele>131</ele>
        <time>2024-04-25T17:05:59Z</time>
      </trkpt>
      <trkpt lat="43.645" lon="1.39643">
        <ele>131</ele>
        <time>2024-04-25T17:06:00Z</time>
      </trkpt>
      <trkpt lat="43.645" lon="1.39643">
        <ele>131</ele>
        <time>2024-04-25T17:06:01Z</time>
      </trkpt>
      <trkpt lat="43.645" lon="1.39639">
        <ele>131</ele>
        <time>2024-04-25T17:06:02Z</time>
      </trkpt>
      <trkpt lat="43.645" lon="1.39636">
        <ele>131</ele>
        <time>2024-04-25T17:06:03Z</time>
      </trkpt>
      <trkpt lat="43.645" lon="1.39633">
        <ele>131</ele>
        <time>2024-04-25T17:06:04Z</time>
      </trkpt>
      <trkpt lat="43.645" lon="1.39629">
        <ele>131</ele>
        <time>2024-04-25T17:06:05Z</time>
      </trkpt>
      <trkpt lat="43.645" lon="1.39626">
        <ele>131</ele>
        <time>2024-04-25T17:06:06Z</time>
      </trkpt>
      <trkpt lat="43.645" lon="1.39623">
        <ele>131</ele>
        <time>2024-04-25T17:06:07Z</time>
      </trkpt>
      <trkpt lat="43.645" lon="1.3962">
        <ele>132</ele>
        <time>2024-04-25T17:06:08Z</time>
      </trkpt>
      <trkpt lat="43.645" lon="1.39614">
        <ele>132</ele>
        <time>2024-04-25T17:06:09Z</time>
      </trkpt>
      <trkpt lat="43.645" lon="1.39614">
        <ele>132</ele>
        <time>2024-04-25T17:06:10Z</time>
      </trkpt>
      <trkpt lat="43.645" lon="1.39611">
        <ele>132</ele>
        <time>2024-04-25T17:06:11Z</time>
      </trkpt>
      <trkpt lat="43.645" lon="1.39608">
        <ele>132</ele>
        <time>2024-04-25T17:06:12Z</time>
      </trkpt>
      <trkpt lat="43.645" lon="1.39605">
        <ele>132</ele>
        <time>2024-04-25T17:06:13Z</time>
      </trkpt>
      <trkpt lat="43.645" lon="1.39602">
        <ele>132</ele>
        <time>2024-04-25T17:06:14Z</time>
      </trkpt>
      <trkpt lat="43.645" lon="1.39599">
        <ele>132</ele>
        <time>2024-04-25T17:06:15Z</time>
      </trkpt>
      <trkpt lat="43.645" lon="1.39594">
        <ele>132</ele>
        <time>2024-04-25T17:06:16Z</time>
      </trkpt>
      <trkpt lat="43.645" lon="1.39593">
        <ele>132</ele>
        <time>2024-04-25T17:06:17Z</time>
      </trkpt>
      <trkpt lat="43.645" lon="1.39588">
        <ele>132</ele>
        <time>2024-04-25T17:06:18Z</time>
      </trkpt>
      <trkpt lat="43.645" lon="1.39586">
        <ele>133</ele>
        <time>2024-04-25T17:06:19Z</time>
      </trkpt>
      <trkpt lat="43.64499" lon="1.39584">
        <ele>133</ele>
        <time>2024-04-25T17:06:20Z</time>
      </trkpt>
      <trkpt lat="43.64499" lon="1.3958">
        <ele>133</ele>
        <time>2024-04-25T17:06:21Z</time>
      </trkpt>
      <trkpt lat="43.64499" lon="1.39578">
        <ele>132</ele>
        <time>2024-04-25T17:06:22Z</time>
      </trkpt>
      <trkpt lat="43.64499" lon="1.39575">
        <ele>132</ele>
        <time>2024-04-25T17:06:23Z</time>
      </trkpt>
      <trkpt lat="43.64498" lon="1.39569">
        <ele>132</ele>
        <time>2024-04-25T17:06:24Z</time>
      </trkpt>
      <trkpt lat="43.64498" lon="1.39569">
        <ele>132</ele>
        <time>2024-04-25T17:06:25Z</time>
      </trkpt>
      <trkpt lat="43.64498" lon="1.39566">
        <ele>132</ele>
        <time>2024-04-25T17:06:26Z</time>
      </trkpt>
      <trkpt lat="43.64497" lon="1.39563">
        <ele>131</ele>
        <time>2024-04-25T17:06:27Z</time>
      </trkpt>
      <trkpt lat="43.64497" lon="1.3956">
        <ele>131</ele>
        <time>2024-04-25T17:06:28Z</time>
      </trkpt>
      <trkpt lat="43.64497" lon="1.39557">
        <ele>131</ele>
        <time>2024-04-25T17:06:29Z</time>
      </trkpt>
      <trkpt lat="43.64496" lon="1.39554">
        <ele>131</ele>
        <time>2024-04-25T17:06:30Z</time>
      </trkpt>
      <trkpt lat="43.64496" lon="1.39551">
        <ele>131</ele>
        <time>2024-04-25T17:06:31Z</time>
      </trkpt>
      <trkpt lat="43.64496" lon="1.39547">
        <ele>132</ele>
        <time>2024-04-25T17:06:32Z</time>
      </trkpt>
      <trkpt lat="43.64496" lon="1.39544">
        <ele>133</ele>
        <time>2024-04-25T17:06:33Z</time>
      </trkpt>
      <trkpt lat="43.64495" lon="1.39541">
        <ele>133</ele>
        <time>2024-04-25T17:06:34Z</time>
      </trkpt>
      <trkpt lat="43.64495" lon="1.39537">
        <ele>132</ele>
        <time>2024-04-25T17:06:35Z</time>
      </trkpt>
      <trkpt lat="43.64495" lon="1.39534">
        <ele>132</ele>
        <time>2024-04-25T17:06:36Z</time>
      </trkpt>
      <trkpt lat="43.64494" lon="1.39531">
        <ele>132</ele>
        <time>2024-04-25T17:06:37Z</time>
      </trkpt>
      <trkpt lat="43.64494" lon="1.39528">
        <ele>132</ele>
        <time>2024-04-25T17:06:38Z</time>
      </trkpt>
      <trkpt lat="43.64494" lon="1.39524">
        <ele>132</ele>
        <time>2024-04-25T17:06:39Z</time>
      </trkpt>
      <trkpt lat="43.64493" lon="1.39521">
        <ele>132</ele>
        <time>2024-04-25T17:06:40Z</time>
      </trkpt>
      <trkpt lat="43.64493" lon="1.39518">
        <ele>131</ele>
        <time>2024-04-25T17:06:41Z</time>
      </trkpt>
      <trkpt lat="43.64493" lon="1.39514">
        <ele>131</ele>
        <time>2024-04-25T17:06:42Z</time>
      </trkpt>
      <trkpt lat="43.64492" lon="1.39512">
        <ele>131</ele>
        <time>2024-04-25T17:06:43Z</time>
      </trkpt>
      <trkpt lat="43.64492" lon="1.39508">
        <ele>131</ele>
        <time>2024-04-25T17:06:44Z</time>
      </trkpt>
      <trkpt lat="43.64491" lon="1.39505">
        <ele>132</ele>
        <time>2024-04-25T17:06:45Z</time>
      </trkpt>
      <trkpt lat="43.64491" lon="1.39502">
        <ele>133</ele>
        <time>2024-04-25T17:06:46Z</time>
      </trkpt>
      <trkpt lat="43.6449" lon="1.39499">
        <ele>133</ele>
        <time>2024-04-25T17:06:47Z</time>
      </trkpt>
      <trkpt lat="43.6449" lon="1.39496">
        <ele>133</ele>
        <time>2024-04-25T17:06:48Z</time>
      </trkpt>
      <trkpt lat="43.64489" lon="1.39493">
        <ele>133</ele>
        <time>2024-04-25T17:06:49Z</time>
      </trkpt>
      <trkpt lat="43.64489" lon="1.3949">
        <ele>133</ele>
        <time>2024-04-25T17:06:50Z</time>
      </trkpt>
      <trkpt lat="43.64488" lon="1.39486">
        <ele>133</ele>
        <time>2024-04-25T17:06:51Z</time>
      </trkpt>
      <trkpt lat="43.64488" lon="1.39483">
        <ele>133</ele>
        <time>2024-04-25T17:06:52Z</time>
      </trkpt>
      <trkpt lat="43.64487" lon="1.3948">
        <ele>133</ele>
        <time>2024-04-25T17:06:53Z</time>
      </trkpt>
      <trkpt lat="43.64487" lon="1.39477">
        <ele>133</ele>
        <time>2024-04-25T17:06:54Z</time>
      </trkpt>
      <trkpt lat="43.64486" lon="1.39474">
        <ele>133</ele>
        <time>2024-04-25T17:06:55Z</time>
      </trkpt>
      <trkpt lat="43.64485" lon="1.39469">
        <ele>133</ele>
        <time>2024-04-25T17:06:56Z</time>
      </trkpt>
      <trkpt lat="43.64485" lon="1.39467">
        <ele>132</ele>
        <time>2024-04-25T17:06:57Z</time>
      </trkpt>
      <trkpt lat="43.64485" lon="1.39464">
        <ele>132</ele>
        <time>2024-04-25T17:06:58Z</time>
      </trkpt>
      <trkpt lat="43.64484" lon="1.39459">
        <ele>132</ele>
        <time>2024-04-25T17:06:59Z</time>
      </trkpt>
      <trkpt lat="43.64484" lon="1.39458">
        <ele>132</ele>
        <time>2024-04-25T17:07:00Z</time>
      </trkpt>
      <trkpt lat="43.64483" lon="1.39454">
        <ele>132</ele>
        <time>2024-04-25T17:07:01Z</time>
      </trkpt>
      <trkpt lat="43.64483" lon="1.39451">
        <ele>132</ele>
        <time>2024-04-25T17:07:02Z</time>
      </trkpt>
      <trkpt lat="43.64483" lon="1.39448">
        <ele>132</ele>
        <time>2024-04-25T17:07:03Z</time>
      </trkpt>
      <trkpt lat="43.64482" lon="1.39445">
        <ele>132</ele>
        <time>2024-04-25T17:07:04Z</time>
      </trkpt>
      <trkpt lat="43.64482" lon="1.39443">
        <ele>133</ele>
        <time>2024-04-25T17:07:05Z</time>
      </trkpt>
      <trkpt lat="43.64481" lon="1.3944">
        <ele>133</ele>
        <time>2024-04-25T17:07:06Z</time>
      </trkpt>
      <trkpt lat="43.64481" lon="1.39436">
        <ele>132</ele>
        <time>2024-04-25T17:07:07Z</time>
      </trkpt>
      <trkpt lat="43.64481" lon="1.39433">
        <ele>132</ele>
        <time>2024-04-25T17:07:08Z</time>
      </trkpt>
      <trkpt lat="43.6448" lon="1.39427">
        <ele>132</ele>
        <time>2024-04-25T17:07:09Z</time>
      </trkpt>
      <trkpt lat="43.6448" lon="1.39427">
        <ele>132</ele>
        <time>2024-04-25T17:07:10Z</time>
      </trkpt>
      <trkpt lat="43.64479" lon="1.39424">
        <ele>132</ele>
        <time>2024-04-25T17:07:11Z</time>
      </trkpt>
      <trkpt lat="43.64479" lon="1.3942">
        <ele>132</ele>
        <time>2024-04-25T17:07:12Z</time>
      </trkpt>
      <trkpt lat="43.64478" lon="1.39414">
        <ele>132</ele>
        <time>2024-04-25T17:07:13Z</time>
      </trkpt>
      <trkpt lat="43.64478" lon="1.39414">
        <ele>132</ele>
        <time>2024-04-25T17:07:14Z</time>
      </trkpt>
      <trkpt lat="43.64477" lon="1.39409">
        <ele>132</ele>
        <time>2024-04-25T17:07:15Z</time>
      </trkpt>
      <trkpt lat="43.64477" lon="1.39408">
        <ele>132</ele>
        <time>2024-04-25T17:07:16Z</time>
      </trkpt>
      <trkpt lat="43.64476" lon="1.39405">
        <ele>132</ele>
        <time>2024-04-25T17:07:17Z</time>
      </trkpt>
      <trkpt lat="43.64476" lon="1.39402">
        <ele>132</ele>
        <time>2024-04-25T17:07:18Z</time>
      </trkpt>
      <trkpt lat="43.64475" lon="1.39398">
        <ele>132</ele>
        <time>2024-04-25T17:07:19Z</time>
      </trkpt>
      <trkpt lat="43.64475" lon="1.39395">
        <ele>132</ele>
        <time>2024-04-25T17:07:20Z</time>
      </trkpt>
      <trkpt lat="43.64474" lon="1.3939">
        <ele>132</ele>
        <time>2024-04-25T17:07:21Z</time>
      </trkpt>
      <trkpt lat="43.64474" lon="1.39388">
        <ele>132</ele>
        <time>2024-04-25T17:07:22Z</time>
      </trkpt>
      <trkpt lat="43.64473" lon="1.39385">
        <ele>132</ele>
        <time>2024-04-25T17:07:23Z</time>
      </trkpt>
      <trkpt lat="43.64473" lon="1.39382">
        <ele>132</ele>
        <time>2024-04-25T17:07:24Z</time>
      </trkpt>
      <trkpt lat="43.64472" lon="1.39376">
        <ele>132</ele>
        <time>2024-04-25T17:07:25Z</time>
      </trkpt>
      <trkpt lat="43.64472" lon="1.39376">
        <ele>132</ele>
        <time>2024-04-25T17:07:26Z</time>
      </trkpt>
      <trkpt lat="43.64471" lon="1.39372">
        <ele>132</ele>
        <time>2024-04-25T17:07:27Z</time>
      </trkpt>
      <trkpt lat="43.64471" lon="1.39369">
        <ele>132</ele>
        <time>2024-04-25T17:07:28Z</time>
      </trkpt>
      <trkpt lat="43.6447" lon="1.39366">
        <ele>132</ele>
        <time>2024-04-25T17:07:29Z</time>
      </trkpt>
      <trkpt lat="43.6447" lon="1.39363">
        <ele>132</ele>
        <time>2024-04-25T17:07:30Z</time>
      </trkpt>
      <trkpt lat="43.64469" lon="1.3936">
        <ele>132</ele>
        <time>2024-04-25T17:07:31Z</time>
      </trkpt>
      <trkpt lat="43.64468" lon="1.39357">
        <ele>132</ele>
        <time>2024-04-25T17:07:32Z</time>
      </trkpt>
      <trkpt lat="43.64468" lon="1.39354">
        <ele>132</ele>
        <time>2024-04-25T17:07:33Z</time>
      </trkpt>
      <trkpt lat="43.64467" lon="1.39349">
        <ele>132</ele>
        <time>2024-04-25T17:07:34Z</time>
      </trkpt>
      <trkpt lat="43.64467" lon="1.39348">
        <ele>132</ele>
        <time>2024-04-25T17:07:35Z</time>
      </trkpt>
      <trkpt lat="43.64466" lon="1.39344">
        <ele>132</ele>
        <time>2024-04-25T17:07:36Z</time>
      </trkpt>
      <trkpt lat="43.64465" lon="1.39338">
        <ele>132</ele>
        <time>2024-04-25T17:07:37Z</time>
      </trkpt>
      <trkpt lat="43.64465" lon="1.39338">
        <ele>132</ele>
        <time>2024-04-25T17:07:38Z</time>
      </trkpt>
      <trkpt lat="43.64464" lon="1.39335">
        <ele>132</ele>
        <time>2024-04-25T17:07:39Z</time>
      </trkpt>
      <trkpt lat="43.64464" lon="1.39331">
        <ele>132</ele>
        <time>2024-04-25T17:07:40Z</time>
      </trkpt>
      <trkpt lat="43.64463" lon="1.39328">
        <ele>132</ele>
        <time>2024-04-25T17:07:41Z</time>
      </trkpt>
      <trkpt lat="43.64462" lon="1.39325">
        <ele>132</ele>
        <time>2024-04-25T17:07:42Z</time>
      </trkpt>
      <trkpt lat="43.64461" lon="1.39323">
        <ele>132</ele>
        <time>2024-04-25T17:07:43Z</time>
      </trkpt>
      <trkpt lat="43.64461" lon="1.3932">
        <ele>132</ele>
        <time>2024-04-25T17:07:44Z</time>
      </trkpt>
      <trkpt lat="43.64461" lon="1.3932">
        <ele>132</ele>
        <time>2024-04-25T17:07:45Z</time>
      </trkpt>
      <trkpt lat="43.64458" lon="1.39312">
        <ele>132</ele>
        <time>2024-04-25T17:07:46Z</time>
      </trkpt>
      <trkpt lat="43.64458" lon="1.39312">
        <ele>132</ele>
        <time>2024-04-25T17:07:47Z</time>
      </trkpt>
      <trkpt lat="43.64458" lon="1.39309">
        <ele>132</ele>
        <time>2024-04-25T17:07:48Z</time>
      </trkpt>
      <trkpt lat="43.64457" lon="1.39306">
        <ele>132</ele>
        <time>2024-04-25T17:07:49Z</time>
      </trkpt>
      <trkpt lat="43.64457" lon="1.39303">
        <ele>132</ele>
        <time>2024-04-25T17:07:50Z</time>
      </trkpt>
      <trkpt lat="43.64456" lon="1.393">
        <ele>132</ele>
        <time>2024-04-25T17:07:51Z</time>
      </trkpt>
      <trkpt lat="43.64456" lon="1.39297">
        <ele>132</ele>
        <time>2024-04-25T17:07:52Z</time>
      </trkpt>
      <trkpt lat="43.6445" lon="1.39272">
        <ele>132</ele>
        <time>2024-04-25T17:13:44Z</time>
      </trkpt>
      <trkpt lat="43.6445" lon="1.39271">
        <ele>133</ele>
        <time>2024-04-25T17:13:45Z</time>
      </trkpt>
      <trkpt lat="43.6445" lon="1.39271">
        <ele>133</ele>
        <time>2024-04-25T17:13:46Z</time>
      </trkpt>
      <trkpt lat="43.64448" lon="1.39263">
        <ele>133</ele>
        <time>2024-04-25T17:13:47Z</time>
      </trkpt>
      <trkpt lat="43.64448" lon="1.39263">
        <ele>133</ele>
        <time>2024-04-25T17:13:48Z</time>
      </trkpt>
      <trkpt lat="43.64447" lon="1.3926">
        <ele>133</ele>
        <time>2024-04-25T17:13:49Z</time>
      </trkpt>
      <trkpt lat="43.64445" lon="1.39255">
        <ele>132</ele>
        <time>2024-04-25T17:13:50Z</time>
      </trkpt>
      <trkpt lat="43.64443" lon="1.39251">
        <ele>132</ele>
        <time>2024-04-25T17:13:51Z</time>
      </trkpt>
      <trkpt lat="43.64441" lon="1.39247">
        <ele>132</ele>
        <time>2024-04-25T17:13:52Z</time>
      </trkpt>
      <trkpt lat="43.64439" lon="1.39243">
        <ele>132</ele>
        <time>2024-04-25T17:13:53Z</time>
      </trkpt>
      <trkpt lat="43.64436" lon="1.39237">
        <ele>132</ele>
        <time>2024-04-25T17:13:54Z</time>
      </trkpt>
      <trkpt lat="43.64435" lon="1.39235">
        <ele>132</ele>
        <time>2024-04-25T17:13:55Z</time>
      </trkpt>
      <trkpt lat="43.64432" lon="1.39231">
        <ele>132</ele>
        <time>2024-04-25T17:13:56Z</time>
      </trkpt>
      <trkpt lat="43.6443" lon="1.39226">
        <ele>132</ele>
        <time>2024-04-25T17:13:57Z</time>
      </trkpt>
      <trkpt lat="43.64425" lon="1.39217">
        <ele>132</ele>
        <time>2024-04-25T17:13:58Z</time>
      </trkpt>
      <trkpt lat="43.64425" lon="1.39217">
        <ele>133</ele>
        <time>2024-04-25T17:13:59Z</time>
      </trkpt>
      <trkpt lat="43.64423" lon="1.39213">
        <ele>133</ele>
        <time>2024-04-25T17:14:00Z</time>
      </trkpt>
      <trkpt lat="43.64421" lon="1.39209">
        <ele>134</ele>
        <time>2024-04-25T17:14:01Z</time>
      </trkpt>
      <trkpt lat="43.64419" lon="1.39205">
        <ele>135</ele>
        <time>2024-04-25T17:14:02Z</time>
      </trkpt>
      <trkpt lat="43.64416" lon="1.39198">
        <ele>135</ele>
        <time>2024-04-25T17:14:03Z</time>
      </trkpt>
      <trkpt lat="43.64415" lon="1.39196">
        <ele>135</ele>
        <time>2024-04-25T17:14:04Z</time>
      </trkpt>
      <trkpt lat="43.64414" lon="1.39192">
        <ele>135</ele>
        <time>2024-04-25T17:14:05Z</time>
      </trkpt>
      <trkpt lat="43.64412" lon="1.39189">
        <ele>135</ele>
        <time>2024-04-25T17:14:06Z</time>
      </trkpt>
      <trkpt lat="43.64411" lon="1.39186">
        <ele>135</ele>
        <time>2024-04-25T17:14:07Z</time>
      </trkpt>
      <trkpt lat="43.64411" lon="1.39186">
        <ele>136</ele>
        <time>2024-04-25T17:14:08Z</time>
      </trkpt>
      <trkpt lat="43.64411" lon="1.39186">
        <ele>136</ele>
        <time>2024-04-25T17:14:09Z</time>
      </trkpt>
      <trkpt lat="43.64412" lon="1.3919">
        <ele>136</ele>
        <time>2024-04-25T17:14:10Z</time>
      </trkpt>
      <trkpt lat="43.64413" lon="1.39194">
        <ele>136</ele>
        <time>2024-04-25T17:14:11Z</time>
      </trkpt>
      <trkpt lat="43.64414" lon="1.39195">
        <ele>136</ele>
        <time>2024-04-25T17:14:12Z</time>
      </trkpt>
      <trkpt lat="43.64415" lon="1.39197">
        <ele>136</ele>
        <time>2024-04-25T17:14:13Z</time>
      </trkpt>
      <trkpt lat="43.64416" lon="1.39199">
        <ele>135</ele>
        <time>2024-04-25T17:14:14Z</time>
      </trkpt>
      <trkpt lat="43.64418" lon="1.39202">
        <ele>135</ele>
        <time>2024-04-25T17:14:15Z</time>
      </trkpt>
      <trkpt lat="43.64418" lon="1.39202">
        <ele>135</ele>
        <time>2024-04-25T17:14:16Z</time>
      </trkpt>
      <trkpt lat="43.64418" lon="1.39202">
        <ele>135</ele>
        <time>2024-04-25T17:14:17Z</time>
      </trkpt>
      <trkpt lat="43.64421" lon="1.39206">
        <ele>134</ele>
        <time>2024-04-25T17:14:18Z</time>
      </trkpt>
      <trkpt lat="43.64422" lon="1.39208">
        <ele>134</ele>
        <time>2024-04-25T17:14:19Z</time>
      </trkpt>
      <trkpt lat="43.64423" lon="1.39211">
        <ele>134</ele>
        <time>2024-04-25T17:14:20Z</time>
      </trkpt>
      <trkpt lat="43.64424" lon="1.39213">
        <ele>133</ele>
        <time>2024-04-25T17:14:21Z</time>
      </trkpt>
      <trkpt lat="43.64425" lon="1.39215">
        <ele>133</ele>
        <time>2024-04-25T17:14:22Z</time>
      </trkpt>
      <trkpt lat="43.64426" lon="1.39217">
        <ele>133</ele>
        <time>2024-04-25T17:14:23Z</time>
      </trkpt>
      <trkpt lat="43.64428" lon="1.39219">
        <ele>133</ele>
        <time>2024-04-25T17:14:24Z</time>
      </trkpt>
      <trkpt lat="43.6443" lon="1.39224">
        <ele>132</ele>
        <time>2024-04-25T17:14:25Z</time>
      </trkpt>
      <trkpt lat="43.6443" lon="1.39224">
        <ele>133</ele>
        <time>2024-04-25T17:14:26Z</time>
      </trkpt>
      <trkpt lat="43.64432" lon="1.39227">
        <ele>133</ele>
        <time>2024-04-25T17:14:27Z</time>
      </trkpt>
      <trkpt lat="43.64433" lon="1.3923">
        <ele>133</ele>
        <time>2024-04-25T17:14:28Z</time>
      </trkpt>
      <trkpt lat="43.64434" lon="1.39232">
        <ele>133</ele>
        <time>2024-04-25T17:14:29Z</time>
      </trkpt>
      <trkpt lat="43.64436" lon="1.39235">
        <ele>133</ele>
        <time>2024-04-25T17:14:30Z</time>
      </trkpt>
      <trkpt lat="43.64437" lon="1.39237">
        <ele>132</ele>
        <time>2024-04-25T17:14:31Z</time>
      </trkpt>
      <trkpt lat="43.64441" lon="1.39243">
        <ele>132</ele>
        <time>2024-04-25T17:14:32Z</time>
      </trkpt>
      <trkpt lat="43.64441" lon="1.39243">
        <ele>132</ele>
        <time>2024-04-25T17:14:33Z</time>
      </trkpt>
      <trkpt lat="43.64443" lon="1.39247">
        <ele>132</ele>
        <time>2024-04-25T17:14:34Z</time>
      </trkpt>
      <trkpt lat="43.64444" lon="1.39249">
        <ele>131</ele>
        <time>2024-04-25T17:14:35Z</time>
      </trkpt>
      <trkpt lat="43.64445" lon="1.39252">
        <ele>131</ele>
        <time>2024-04-25T17:14:36Z</time>
      </trkpt>
      <trkpt lat="43.64447" lon="1.39255">
        <ele>131</ele>
        <time>2024-04-25T17:14:37Z</time>
      </trkpt>
      <trkpt lat="43.64447" lon="1.39258">
        <ele>131</ele>
        <time>2024-04-25T17:14:38Z</time>
      </trkpt>
      <trkpt lat="43.64448" lon="1.39261">
        <ele>131</ele>
        <time>2024-04-25T17:14:39Z</time>
      </trkpt>
      <trkpt lat="43.6445" lon="1.39264">
        <ele>131</ele>
        <time>2024-04-25T17:14:40Z</time>
      </trkpt>
      <trkpt lat="43.64451" lon="1.39268">
        <ele>131</ele>
        <time>2024-04-25T17:14:41Z</time>
      </trkpt>
      <trkpt lat="43.64451" lon="1.3927">
        <ele>132</ele>
        <time>2024-04-25T17:14:42Z</time>
      </trkpt>
      <trkpt lat="43.64451" lon="1.39272">
        <ele>132</ele>
        <time>2024-04-25T17:14:43Z</time>
      </trkpt>
      <trkpt lat="43.64451" lon="1.39272">
        <ele>132</ele>
        <time>2024-04-25T17:14:44Z</time>
      </trkpt>
      <trkpt lat="43.64451" lon="1.39272">
        <ele>132</ele>
        <time>2024-04-25T17:14:45Z</time>
      </trkpt>
      <trkpt lat="43.6445" lon="1.39267">
        <ele>132</ele>
        <time>2024-04-25T17:14:46Z</time>
      </trkpt>
      <trkpt lat="43.64448" lon="1.39263">
        <ele>132</ele>
        <time>2024-04-25T17:14:47Z</time>
      </trkpt>
      <trkpt lat="43.64446" lon="1.3926">
        <ele>132</ele>
        <time>2024-04-25T17:14:48Z</time>
      </trkpt>
      <trkpt lat="43.64445" lon="1.39257">
        <ele>132</ele>
        <time>2024-04-25T17:14:49Z</time>
      </trkpt>
      <trkpt lat="43.64443" lon="1.39254">
        <ele>132</ele>
        <time>2024-04-25T17:14:50Z</time>
      </trkpt>
      <trkpt lat="43.64438" lon="1.39247">
        <ele>132</ele>
        <time>2024-04-25T17:14:51Z</time>
      </trkpt>
      <trkpt lat="43.64438" lon="1.39247">
        <ele>132</ele>
        <time>2024-04-25T17:14:52Z</time>
      </trkpt>
      <trkpt lat="43.64436" lon="1.39244">
        <ele>132</ele>
        <time>2024-04-25T17:14:53Z</time>
      </trkpt>
      <trkpt lat="43.64432" lon="1.39238">
        <ele>132</ele>
        <time>2024-04-25T17:14:54Z</time>
      </trkpt>
      <trkpt lat="43.64432" lon="1.39236">
        <ele>132</ele>
        <time>2024-04-25T17:14:55Z</time>
      </trkpt>
      <trkpt lat="43.64429" lon="1.39233">
        <ele>132</ele>
        <time>2024-04-25T17:14:56Z</time>
      </trkpt>
      <trkpt lat="43.64427" lon="1.39229">
        <ele>132</ele>
        <time>2024-04-25T17:14:57Z</time>
      </trkpt>
      <trkpt lat="43.64425" lon="1.39225">
        <ele>132</ele>
        <time>2024-04-25T17:14:58Z</time>
      </trkpt>
      <trkpt lat="43.64423" lon="1.39221">
        <ele>132</ele>
        <time>2024-04-25T17:14:59Z</time>
      </trkpt>
      <trkpt lat="43.6442" lon="1.39215">
        <ele>132</ele>
        <time>2024-04-25T17:15:00Z</time>
      </trkpt>
      <trkpt lat="43.64419" lon="1.39213">
        <ele>132</ele>
        <time>2024-04-25T17:15:01Z</time>
      </trkpt>
      <trkpt lat="43.64417" lon="1.39209">
        <ele>133</ele>
        <time>2024-04-25T17:15:02Z</time>
      </trkpt>
      <trkpt lat="43.64415" lon="1.39206">
        <ele>133</ele>
        <time>2024-04-25T17:15:03Z</time>
      </trkpt>
      <trkpt lat="43.64414" lon="1.39202">
        <ele>134</ele>
        <time>2024-04-25T17:15:04Z</time>
      </trkpt>
      <trkpt lat="43.64412" lon="1.39198">
        <ele>134</ele>
        <time>2024-04-25T17:15:05Z</time>
      </trkpt>
      <trkpt lat="43.64411" lon="1.39194">
        <ele>135</ele>
        <time>2024-04-25T17:15:06Z</time>
      </trkpt>
      <trkpt lat="43.6441" lon="1.39191">
        <ele>135</ele>
        <time>2024-04-25T17:15:07Z</time>
      </trkpt>
      <trkpt lat="43.6441" lon="1.39191">
        <ele>135</ele>
        <time>2024-04-25T17:15:08Z</time>
      </trkpt>
      <trkpt lat="43.6441" lon="1.39191">
        <ele>135</ele>
        <time>2024-04-25T17:15:09Z</time>
      </trkpt>
      <trkpt lat="43.6441" lon="1.39191">
        <ele>135</ele>
        <time>2024-04-25T17:15:10Z</time>
      </trkpt>
      <trkpt lat="43.6441" lon="1.39191">
        <ele>135</ele>
        <time>2024-04-25T17:15:11Z</time>
      </trkpt>
      <trkpt lat="43.64413" lon="1.39193">
        <ele>135</ele>
        <time>2024-04-25T17:15:12Z</time>
      </trkpt>
      <trkpt lat="43.64415" lon="1.39196">
        <ele>135</ele>
        <time>2024-04-25T17:15:13Z</time>
      </trkpt>
      <trkpt lat="43.64415" lon="1.39196">
        <ele>135</ele>
        <time>2024-04-25T17:15:15Z</time>
      </trkpt>
      <trkpt lat="43.64418" lon="1.392">
        <ele>135</ele>
        <time>2024-04-25T17:15:16Z</time>
      </trkpt>
      <trkpt lat="43.64419" lon="1.39202">
        <ele>135</ele>
        <time>2024-04-25T17:15:17Z</time>
      </trkpt>
      <trkpt lat="43.6442" lon="1.39204">
        <ele>135</ele>
        <time>2024-04-25T17:15:18Z</time>
      </trkpt>
      <trkpt lat="43.64421" lon="1.39206">
        <ele>135</ele>
        <time>2024-04-25T17:15:19Z</time>
      </trkpt>
      <trkpt lat="43.64422" lon="1.39208">
        <ele>134</ele>
        <time>2024-04-25T17:15:20Z</time>
      </trkpt>
      <trkpt lat="43.64424" lon="1.3921">
        <ele>134</ele>
        <time>2024-04-25T17:15:21Z</time>
      </trkpt>
      <trkpt lat="43.64425" lon="1.39212">
        <ele>134</ele>
        <time>2024-04-25T17:15:22Z</time>
      </trkpt>
      <trkpt lat="43.64427" lon="1.39214">
        <ele>134</ele>
        <time>2024-04-25T17:15:23Z</time>
      </trkpt>
      <trkpt lat="43.64428" lon="1.39216">
        <ele>133</ele>
        <time>2024-04-25T17:15:24Z</time>
      </trkpt>
      <trkpt lat="43.6443" lon="1.39219">
        <ele>133</ele>
        <time>2024-04-25T17:15:25Z</time>
      </trkpt>
      <trkpt lat="43.64431" lon="1.39221">
        <ele>132</ele>
        <time>2024-04-25T17:15:26Z</time>
      </trkpt>
      <trkpt lat="43.64434" lon="1.39226">
        <ele>132</ele>
        <time>2024-04-25T17:15:27Z</time>
      </trkpt>
      <trkpt lat="43.64434" lon="1.39226">
        <ele>132</ele>
        <time>2024-04-25T17:15:28Z</time>
      </trkpt>
      <trkpt lat="43.64435" lon="1.39228">
        <ele>132</ele>
        <time>2024-04-25T17:15:29Z</time>
      </trkpt>
      <trkpt lat="43.64436" lon="1.39231">
        <ele>132</ele>
        <time>2024-04-25T17:15:30Z</time>
      </trkpt>
      <trkpt lat="43.64438" lon="1.39234">
        <ele>131</ele>
        <time>2024-04-25T17:15:31Z</time>
      </trkpt>
      <trkpt lat="43.64439" lon="1.39237">
        <ele>131</ele>
        <time>2024-04-25T17:15:32Z</time>
      </trkpt>
      <trkpt lat="43.64441" lon="1.3924">
        <ele>131</ele>
        <time>2024-04-25T17:15:33Z</time>
      </trkpt>
      <trkpt lat="43.64444" lon="1.39245">
        <ele>131</ele>
        <time>2024-04-25T17:15:34Z</time>
      </trkpt>
      <trkpt lat="43.64444" lon="1.39245">
        <ele>131</ele>
        <time>2024-04-25T17:15:35Z</time>
      </trkpt>
      <trkpt lat="43.64445" lon="1.39248">
        <ele>132</ele>
        <time>2024-04-25T17:15:36Z</time>
      </trkpt>
      <trkpt lat="43.64446" lon="1.39251">
        <ele>132</ele>
        <time>2024-04-25T17:15:37Z</time>
      </trkpt>
      <trkpt lat="43.64447" lon="1.39254">
        <ele>132</ele>
        <time>2024-04-25T17:15:38Z</time>
      </trkpt>
      <trkpt lat="43.6445" lon="1.3926">
        <ele>132</ele>
        <time>2024-04-25T17:15:39Z</time>
      </trkpt>
      <trkpt lat="43.6445" lon="1.3926">
        <ele>131</ele>
        <time>2024-04-25T17:15:40Z</time>
      </trkpt>
      <trkpt lat="43.64451" lon="1.39263">
        <ele>131</ele>
        <time>2024-04-25T17:15:41Z</time>
      </trkpt>
      <trkpt lat="43.64451" lon="1.39266">
        <ele>131</ele>
        <time>2024-04-25T17:15:42Z</time>
      </trkpt>
      <trkpt lat="43.64452" lon="1.39269">
        <ele>131</ele>
        <time>2024-04-25T17:15:43Z</time>
      </trkpt>
      <trkpt lat="43.64452" lon="1.39269">
        <ele>131</ele>
        <time>2024-04-25T17:15:44Z</time>
      </trkpt>
      <trkpt lat="43.64452" lon="1.39269">
        <ele>131</ele>
        <time>2024-04-25T17:15:45Z</time>
      </trkpt>
      <trkpt lat="43.64452" lon="1.39269">
        <ele>131</ele>
        <time>2024-04-25T17:15:46Z</time>
      </trkpt>
      <trkpt lat="43.6445" lon="1.39265">
        <ele>131</ele>
        <time>2024-04-25T17:15:47Z</time>
      </trkpt>
      <trkpt lat="43.64449" lon="1.39262">
        <ele>131</ele>
        <time>2024-04-25T17:15:48Z</time>
      </trkpt>
      <trkpt lat="43.64447" lon="1.39259">
        <ele>132</ele>
        <time>2024-04-25T17:15:49Z</time>
      </trkpt>
      <trkpt lat="43.64445" lon="1.39256">
        <ele>132</ele>
        <time>2024-04-25T17:15:50Z</time>
      </trkpt>
      <trkpt lat="43.64443" lon="1.39252">
        <ele>132</ele>
        <time>2024-04-25T17:15:51Z</time>
      </trkpt>
      <trkpt lat="43.64441" lon="1.39249">
        <ele>132</ele>
        <time>2024-04-25T17:15:52Z</time>
      </trkpt>
      <trkpt lat="43.64439" lon="1.39245">
        <ele>132</ele>
        <time>2024-04-25T17:15:53Z</time>
      </trkpt>
      <trkpt lat="43.64437" lon="1.39242">
        <ele>132</ele>
        <time>2024-04-25T17:15:54Z</time>
      </trkpt>
      <trkpt lat="43.64435" lon="1.39238">
        <ele>131</ele>
        <time>2024-04-25T17:15:55Z</time>
      </trkpt>
      <trkpt lat="43.64433" lon="1.39234">
        <ele>131</ele>
        <time>2024-04-25T17:15:56Z</time>
      </trkpt>
      <trkpt lat="43.6443" lon="1.39228">
        <ele>131</ele>
        <time>2024-04-25T17:15:57Z</time>
      </trkpt>
      <trkpt lat="43.64428" lon="1.39226">
        <ele>131</ele>
        <time>2024-04-25T17:15:58Z</time>
      </trkpt>
      <trkpt lat="43.64426" lon="1.39222">
        <ele>131</ele>
        <time>2024-04-25T17:15:59Z</time>
      </trkpt>
      <trkpt lat="43.64424" lon="1.39218">
        <ele>132</ele>
        <time>2024-04-25T17:16:00Z</time>
      </trkpt>
      <trkpt lat="43.64422" lon="1.39215">
        <ele>132</ele>
        <time>2024-04-25T17:16:01Z</time>
      </trkpt>
      <trkpt lat="43.6442" lon="1.39211">
        <ele>132</ele>
        <time>2024-04-25T17:16:02Z</time>
      </trkpt>
      <trkpt lat="43.64418" lon="1.39207">
        <ele>132</ele>
        <time>2024-04-25T17:16:03Z</time>
      </trkpt>
      <trkpt lat="43.64416" lon="1.39203">
        <ele>133</ele>
        <time>2024-04-25T17:16:04Z</time>
      </trkpt>
      <trkpt lat="43.64415" lon="1.392">
        <ele>134</ele>
        <time>2024-04-25T17:16:05Z</time>
      </trkpt>
      <trkpt lat="43.64413" lon="1.39196">
        <ele>134</ele>
        <time>2024-04-25T17:16:06Z</time>
      </trkpt>
      <trkpt lat="43.64412" lon="1.39192">
        <ele>135</ele>
        <time>2024-04-25T17:16:07Z</time>
      </trkpt>
      <trkpt lat="43.64411" lon="1.3919">
        <ele>135</ele>
        <time>2024-04-25T17:16:08Z</time>
      </trkpt>
      <trkpt lat="43.64411" lon="1.3919">
        <ele>136</ele>
        <time>2024-04-25T17:16:09Z</time>
      </trkpt>
      <trkpt lat="43.64411" lon="1.3919">
        <ele>136</ele>
        <time>2024-04-25T17:16:10Z</time>
      </trkpt>
      <trkpt lat="43.64411" lon="1.3919">
        <ele>136</ele>
        <time>2024-04-25T17:16:11Z</time>
      </trkpt>
      <trkpt lat="43.64412" lon="1.39193">
        <ele>136</ele>
        <time>2024-04-25T17:16:12Z</time>
      </trkpt>
      <trkpt lat="43.64412" lon="1.39193">
        <ele>135</ele>
        <time>2024-04-25T17:16:13Z</time>
      </trkpt>
      <trkpt lat="43.64415" lon="1.39196">
        <ele>135</ele>
        <time>2024-04-25T17:16:14Z</time>
      </trkpt>
      <trkpt lat="43.64416" lon="1.39198">
        <ele>135</ele>
        <time>2024-04-25T17:16:15Z</time>
      </trkpt>
      <trkpt lat="43.64418" lon="1.39201">
        <ele>135</ele>
        <time>2024-04-25T17:16:16Z</time>
      </trkpt>
      <trkpt lat="43.64419" lon="1.39203">
        <ele>135</ele>
        <time>2024-04-25T17:16:17Z</time>
      </trkpt>
      <trkpt lat="43.6442" lon="1.39205">
        <ele>135</ele>
        <time>2024-04-25T17:16:18Z</time>
      </trkpt>
      <trkpt lat="43.64421" lon="1.39207">
        <ele>135</ele>
        <time>2024-04-25T17:16:19Z</time>
      </trkpt>
      <trkpt lat="43.64422" lon="1.39209">
        <ele>135</ele>
        <time>2024-04-25T17:16:20Z</time>
      </trkpt>
      <trkpt lat="43.64424" lon="1.39211">
        <ele>134</ele>
        <time>2024-04-25T17:16:21Z</time>
      </trkpt>
      <trkpt lat="43.64425" lon="1.39213">
        <ele>134</ele>
        <time>2024-04-25T17:16:22Z</time>
      </trkpt>
      <trkpt lat="43.64426" lon="1.39215">
        <ele>133</ele>
        <time>2024-04-25T17:16:23Z</time>
      </trkpt>
      <trkpt lat="43.64426" lon="1.39215">
        <ele>133</ele>
        <time>2024-04-25T17:16:24Z</time>
      </trkpt>
      <trkpt lat="43.64429" lon="1.39219">
        <ele>132</ele>
        <time>2024-04-25T17:16:25Z</time>
      </trkpt>
      <trkpt lat="43.6443" lon="1.39221">
        <ele>132</ele>
        <time>2024-04-25T17:16:26Z</time>
      </trkpt>
      <trkpt lat="43.64431" lon="1.39224">
        <ele>132</ele>
        <time>2024-04-25T17:16:27Z</time>
      </trkpt>
      <trkpt lat="43.64433" lon="1.39226">
        <ele>132</ele>
        <time>2024-04-25T17:16:28Z</time>
      </trkpt>
      <trkpt lat="43.64434" lon="1.39229">
        <ele>132</ele>
        <time>2024-04-25T17:16:29Z</time>
      </trkpt>
      <trkpt lat="43.64435" lon="1.39232">
        <ele>132</ele>
        <time>2024-04-25T17:16:30Z</time>
      </trkpt>
      <trkpt lat="43.64436" lon="1.39235">
        <ele>132</ele>
        <time>2024-04-25T17:16:31Z</time>
      </trkpt>
      <trkpt lat="43.64438" lon="1.39238">
        <ele>132</ele>
        <time>2024-04-25T17:16:32Z</time>
      </trkpt>
      <trkpt lat="43.6444" lon="1.39243">
        <ele>132</ele>
        <time>2024-04-25T17:16:33Z</time>
      </trkpt>
      <trkpt lat="43.6444" lon="1.39243">
        <ele>132</ele>
        <time>2024-04-25T17:16:34Z</time>
      </trkpt>
      <trkpt lat="43.64442" lon="1.39247">
        <ele>132</ele>
        <time>2024-04-25T17:16:35Z</time>
      </trkpt>
      <trkpt lat="43.64443" lon="1.39249">
        <ele>131</ele>
        <time>2024-04-25T17:16:36Z</time>
      </trkpt>
      <trkpt lat="43.64444" lon="1.39252">
        <ele>131</ele>
        <time>2024-04-25T17:16:37Z</time>
      </trkpt>
      <trkpt lat="43.64446" lon="1.39257">
        <ele>131</ele>
        <time>2024-04-25T17:16:38Z</time>
      </trkpt>
      <trkpt lat="43.64446" lon="1.39257">
        <ele>131</ele>
        <time>2024-04-25T17:16:39Z</time>
      </trkpt>
      <trkpt lat="43.64447" lon="1.3926">
        <ele>131</ele>
        <time>2024-04-25T17:16:40Z</time>
      </trkpt>
      <trkpt lat="43.64449" lon="1.39264">
        <ele>131</ele>
        <time>2024-04-25T17:16:41Z</time>
      </trkpt>
      <trkpt lat="43.64449" lon="1.39266">
        <ele>132</ele>
        <time>2024-04-25T17:16:42Z</time>
      </trkpt>
      <trkpt lat="43.6445" lon="1.39269">
        <ele>132</ele>
        <time>2024-04-25T17:16:43Z</time>
      </trkpt>
      <trkpt lat="43.6445" lon="1.39269">
        <ele>131</ele>
        <time>2024-04-25T17:16:44Z</time>
      </trkpt>
      <trkpt lat="43.64452" lon="1.39271">
        <ele>131</ele>
        <time>2024-04-25T17:16:45Z</time>
      </trkpt>
      <trkpt lat="43.6445" lon="1.39268">
        <ele>131</ele>
        <time>2024-04-25T17:16:46Z</time>
      </trkpt>
      <trkpt lat="43.64449" lon="1.39265">
        <ele>131</ele>
        <time>2024-04-25T17:16:47Z</time>
      </trkpt>
      <trkpt lat="43.64448" lon="1.39261">
        <ele>131</ele>
        <time>2024-04-25T17:16:48Z</time>
      </trkpt>
      <trkpt lat="43.64445" lon="1.39257">
        <ele>131</ele>
        <time>2024-04-25T17:16:49Z</time>
      </trkpt>
      <trkpt lat="43.64443" lon="1.39253">
        <ele>132</ele>
        <time>2024-04-25T17:16:50Z</time>
      </trkpt>
      <trkpt lat="43.64441" lon="1.3925">
        <ele>132</ele>
        <time>2024-04-25T17:16:51Z</time>
      </trkpt>
      <trkpt lat="43.64438" lon="1.39246">
        <ele>132</ele>
        <time>2024-04-25T17:16:52Z</time>
      </trkpt>
      <trkpt lat="43.64436" lon="1.39241">
        <ele>132</ele>
        <time>2024-04-25T17:16:53Z</time>
      </trkpt>
      <trkpt lat="43.64433" lon="1.39235">
        <ele>132</ele>
        <time>2024-04-25T17:16:54Z</time>
      </trkpt>
      <trkpt lat="43.64432" lon="1.39233">
        <ele>131</ele>
        <time>2024-04-25T17:16:55Z</time>
      </trkpt>
      <trkpt lat="43.6443" lon="1.39229">
        <ele>131</ele>
        <time>2024-04-25T17:16:56Z</time>
      </trkpt>
      <trkpt lat="43.64426" lon="1.39223">
        <ele>131</ele>
        <time>2024-04-25T17:16:57Z</time>
      </trkpt>
      <trkpt lat="43.64425" lon="1.39221">
        <ele>132</ele>
        <time>2024-04-25T17:16:58Z</time>
      </trkpt>
      <trkpt lat="43.64423" lon="1.39218">
        <ele>132</ele>
        <time>2024-04-25T17:16:59Z</time>
      </trkpt>
      <trkpt lat="43.64421" lon="1.39214">
        <ele>132</ele>
        <time>2024-04-25T17:17:00Z</time>
      </trkpt>
      <trkpt lat="43.64417" lon="1.39207">
        <ele>132</ele>
        <time>2024-04-25T17:17:01Z</time>
      </trkpt>
      <trkpt lat="43.64417" lon="1.39207">
        <ele>133</ele>
        <time>2024-04-25T17:17:02Z</time>
      </trkpt>
      <trkpt lat="43.64415" lon="1.39201">
        <ele>133</ele>
        <time>2024-04-25T17:17:03Z</time>
      </trkpt>
      <trkpt lat="43.64414" lon="1.39199">
        <ele>134</ele>
        <time>2024-04-25T17:17:04Z</time>
      </trkpt>
      <trkpt lat="43.64413" lon="1.39194">
        <ele>134</ele>
        <time>2024-04-25T17:17:05Z</time>
      </trkpt>
      <trkpt lat="43.64412" lon="1.39191">
        <ele>134</ele>
        <time>2024-04-25T17:17:06Z</time>
      </trkpt>
      <trkpt lat="43.64412" lon="1.39191">
        <ele>134</ele>
        <time>2024-04-25T17:17:07Z</time>
      </trkpt>
      <trkpt lat="43.64411" lon="1.39188">
        <ele>135</ele>
        <time>2024-04-25T17:17:08Z</time>
      </trkpt>
      <trkpt lat="43.64411" lon="1.39188">
        <ele>135</ele>
        <time>2024-04-25T17:17:09Z</time>
      </trkpt>
      <trkpt lat="43.64411" lon="1.39188">
        <ele>135</ele>
        <time>2024-04-25T17:17:10Z</time>
      </trkpt>
      <trkpt lat="43.64413" lon="1.3919">
        <ele>135</ele>
        <time>2024-04-25T17:17:11Z</time>
      </trkpt>
      <trkpt lat="43.64414" lon="1.39192">
        <ele>135</ele>
        <time>2024-04-25T17:17:12Z</time>
      </trkpt>
      <trkpt lat="43.64416" lon="1.39194">
        <ele>135</ele>
        <time>2024-04-25T17:17:13Z</time>
      </trkpt>
      <trkpt lat="43.64417" lon="1.39196">
        <ele>134</ele>
        <time>2024-04-25T17:17:14Z</time>
      </trkpt>
      <trkpt lat="43.64418" lon="1.39198">
        <ele>134</ele>
        <time>2024-04-25T17:17:15Z</time>
      </trkpt>
      <trkpt lat="43.64419" lon="1.392">
        <ele>134</ele>
        <time>2024-04-25T17:17:16Z</time>
      </trkpt>
      <trkpt lat="43.64421" lon="1.39202">
        <ele>134</ele>
        <time>2024-04-25T17:17:17Z</time>
      </trkpt>
      <trkpt lat="43.64422" lon="1.39205">
        <ele>134</ele>
        <time>2024-04-25T17:17:18Z</time>
      </trkpt>
      <trkpt lat="43.64423" lon="1.39207">
        <ele>134</ele>
        <time>2024-04-25T17:17:19Z</time>
      </trkpt>
      <trkpt lat="43.64424" lon="1.39209">
        <ele>134</ele>
        <time>2024-04-25T17:17:20Z</time>
      </trkpt>
      <trkpt lat="43.64426" lon="1.39211">
        <ele>134</ele>
        <time>2024-04-25T17:17:21Z</time>
      </trkpt>
      <trkpt lat="43.64427" lon="1.39213">
        <ele>134</ele>
        <time>2024-04-25T17:17:22Z</time>
      </trkpt>
      <trkpt lat="43.64429" lon="1.39216">
        <ele>134</ele>
        <time>2024-04-25T17:17:23Z</time>
      </trkpt>
      <trkpt lat="43.6443" lon="1.39218">
        <ele>133</ele>
        <time>2024-04-25T17:17:24Z</time>
      </trkpt>
      <trkpt lat="43.64432" lon="1.39221">
        <ele>133</ele>
        <time>2024-04-25T17:17:25Z</time>
      </trkpt>
      <trkpt lat="43.64434" lon="1.39225">
        <ele>132</ele>
        <time>2024-04-25T17:17:26Z</time>
      </trkpt>
      <trkpt lat="43.64434" lon="1.39225">
        <ele>132</ele>
        <time>2024-04-25T17:17:27Z</time>
      </trkpt>
      <trkpt lat="43.64435" lon="1.39227">
        <ele>132</ele>
        <time>2024-04-25T17:17:28Z</time>
      </trkpt>
      <trkpt lat="43.64436" lon="1.3923">
        <ele>131</ele>
        <time>2024-04-25T17:17:29Z</time>
      </trkpt>
      <trkpt lat="43.64437" lon="1.39232">
        <ele>132</ele>
        <time>2024-04-25T17:17:30Z</time>
      </trkpt>
      <trkpt lat="43.64438" lon="1.39235">
        <ele>132</ele>
        <time>2024-04-25T17:17:31Z</time>
      </trkpt>
      <trkpt lat="43.6444" lon="1.3924">
        <ele>132</ele>
        <time>2024-04-25T17:17:32Z</time>
      </trkpt>
      <trkpt lat="43.64441" lon="1.39241">
        <ele>131</ele>
        <time>2024-04-25T17:17:33Z</time>
      </trkpt>
      <trkpt lat="43.64442" lon="1.39244">
        <ele>131</ele>
        <time>2024-04-25T17:17:34Z</time>
      </trkpt>
      <trkpt lat="43.64444" lon="1.39247">
        <ele>131</ele>
        <time>2024-04-25T17:17:35Z</time>
      </trkpt>
      <trkpt lat="43.64445" lon="1.3925">
        <ele>131</ele>
        <time>2024-04-25T17:17:36Z</time>
      </trkpt>
      <trkpt lat="43.64446" lon="1.39253">
        <ele>131</ele>
        <time>2024-04-25T17:17:37Z</time>
      </trkpt>
      <trkpt lat="43.64447" lon="1.39256">
        <ele>131</ele>
        <time>2024-04-25T17:17:38Z</time>
      </trkpt>
      <trkpt lat="43.64448" lon="1.39259">
        <ele>131</ele>
        <time>2024-04-25T17:17:39Z</time>
      </trkpt>
      <trkpt lat="43.64449" lon="1.39262">
        <ele>131</ele>
        <time>2024-04-25T17:17:40Z</time>
      </trkpt>
      <trkpt lat="43.6445" lon="1.39266">
        <ele>131</ele>
        <time>2024-04-25T17:17:41Z</time>
      </trkpt>
      <trkpt lat="43.64451" lon="1.39268">
        <ele>131</ele>
        <time>2024-04-25T17:17:42Z</time>
      </trkpt>
      <trkpt lat="43.64451" lon="1.39271">
        <ele>131</ele>
        <time>2024-04-25T17:17:43Z</time>
      </trkpt>
      <trkpt lat="43.64451" lon="1.39271">
        <ele>131</ele>
        <time>2024-04-25T17:17:44Z</time>
      </trkpt>
      <trkpt lat="43.6445" lon="1.39268">
        <ele>131</ele>
        <time>2024-04-25T17:17:45Z</time>
      </trkpt>
      <trkpt lat="43.6445" lon="1.39268">
        <ele>131</ele>
        <time>2024-04-25T17:17:46Z</time>
      </trkpt>
      <trkpt lat="43.64448" lon="1.39264">
        <ele>131</ele>
        <time>2024-04-25T17:17:47Z</time>
      </trkpt>
      <trkpt lat="43.64446" lon="1.39261">
        <ele>131</ele>
        <time>2024-04-25T17:17:48Z</time>
      </trkpt>
      <trkpt lat="43.64444" lon="1.39258">
        <ele>131</ele>
        <time>2024-04-25T17:17:49Z</time>
      </trkpt>
      <trkpt lat="43.64441" lon="1.39254">
        <ele>131</ele>
        <time>2024-04-25T17:17:50Z</time>
      </trkpt>
      <trkpt lat="43.64438" lon="1.39247">
        <ele>131</ele>
        <time>2024-04-25T17:17:51Z</time>
      </trkpt>
      <trkpt lat="43.64437" lon="1.39245">
        <ele>131</ele>
        <time>2024-04-25T17:17:52Z</time>
      </trkpt>
      <trkpt lat="43.64435" lon="1.39241">
        <ele>131</ele>
        <time>2024-04-25T17:17:53Z</time>
      </trkpt>
      <trkpt lat="43.64433" lon="1.39236">
        <ele>131</ele>
        <time>2024-04-25T17:17:54Z</time>
      </trkpt>
      <trkpt lat="43.6443" lon="1.39232">
        <ele>131</ele>
        <time>2024-04-25T17:17:55Z</time>
      </trkpt>
      <trkpt lat="43.64428" lon="1.39228">
        <ele>131</ele>
        <time>2024-04-25T17:17:56Z</time>
      </trkpt>
      <trkpt lat="43.64426" lon="1.39223">
        <ele>130</ele>
        <time>2024-04-25T17:17:57Z</time>
      </trkpt>
      <trkpt lat="43.64423" lon="1.39216">
        <ele>130</ele>
        <time>2024-04-25T17:17:58Z</time>
      </trkpt>
      <trkpt lat="43.64422" lon="1.39214">
        <ele>130</ele>
        <time>2024-04-25T17:17:59Z</time>
      </trkpt>
      <trkpt lat="43.64419" lon="1.3921">
        <ele>130</ele>
        <time>2024-04-25T17:18:00Z</time>
      </trkpt>
      <trkpt lat="43.64417" lon="1.39206">
        <ele>132</ele>
        <time>2024-04-25T17:18:01Z</time>
      </trkpt>
      <trkpt lat="43.64415" lon="1.39202">
        <ele>133</ele>
        <time>2024-04-25T17:18:02Z</time>
      </trkpt>
      <trkpt lat="43.64413" lon="1.39198">
        <ele>134</ele>
        <time>2024-04-25T17:18:03Z</time>
      </trkpt>
      <trkpt lat="43.64411" lon="1.39191">
        <ele>134</ele>
        <time>2024-04-25T17:18:04Z</time>
      </trkpt>
      <trkpt lat="43.64411" lon="1.39191">
        <ele>135</ele>
        <time>2024-04-25T17:18:05Z</time>
      </trkpt>
      <trkpt lat="43.64411" lon="1.39191">
        <ele>135</ele>
        <time>2024-04-25T17:18:06Z</time>
      </trkpt>
      <trkpt lat="43.6441" lon="1.39188">
        <ele>135</ele>
        <time>2024-04-25T17:18:07Z</time>
      </trkpt>
      <trkpt lat="43.6441" lon="1.39188">
        <ele>135</ele>
        <time>2024-04-25T17:18:08Z</time>
      </trkpt>
      <trkpt lat="43.6441" lon="1.39188">
        <ele>135</ele>
        <time>2024-04-25T17:18:09Z</time>
      </trkpt>
      <trkpt lat="43.64412" lon="1.39191">
        <ele>135</ele>
        <time>2024-04-25T17:18:10Z</time>
      </trkpt>
      <trkpt lat="43.64412" lon="1.39191">
        <ele>135</ele>
        <time>2024-04-25T17:18:11Z</time>
      </trkpt>
      <trkpt lat="43.64414" lon="1.39195">
        <ele>135</ele>
        <time>2024-04-25T17:18:12Z</time>
      </trkpt>
      <trkpt lat="43.64417" lon="1.39199">
        <ele>135</ele>
        <time>2024-04-25T17:18:13Z</time>
      </trkpt>
      <trkpt lat="43.64417" lon="1.39199">
        <ele>135</ele>
        <time>2024-04-25T17:18:14Z</time>
      </trkpt>
      <trkpt lat="43.64418" lon="1.39201">
        <ele>134</ele>
        <time>2024-04-25T17:18:15Z</time>
      </trkpt>
      <trkpt lat="43.6442" lon="1.39203">
        <ele>134</ele>
        <time>2024-04-25T17:18:16Z</time>
      </trkpt>
      <trkpt lat="43.64421" lon="1.39206">
        <ele>133</ele>
        <time>2024-04-25T17:18:17Z</time>
      </trkpt>
      <trkpt lat="43.64422" lon="1.39208">
        <ele>133</ele>
        <time>2024-04-25T17:18:18Z</time>
      </trkpt>
      <trkpt lat="43.64424" lon="1.3921">
        <ele>133</ele>
        <time>2024-04-25T17:18:19Z</time>
      </trkpt>
      <trkpt lat="43.64425" lon="1.39212">
        <ele>133</ele>
        <time>2024-04-25T17:18:20Z</time>
      </trkpt>
      <trkpt lat="43.64427" lon="1.39214">
        <ele>133</ele>
        <time>2024-04-25T17:18:21Z</time>
      </trkpt>
      <trkpt lat="43.64428" lon="1.39216">
        <ele>133</ele>
        <time>2024-04-25T17:18:22Z</time>
      </trkpt>
      <trkpt lat="43.6443" lon="1.39218">
        <ele>133</ele>
        <time>2024-04-25T17:18:23Z</time>
      </trkpt>
      <trkpt lat="43.64431" lon="1.3922">
        <ele>133</ele>
        <time>2024-04-25T17:18:24Z</time>
      </trkpt>
      <trkpt lat="43.64433" lon="1.39223">
        <ele>132</ele>
        <time>2024-04-25T17:18:25Z</time>
      </trkpt>
      <trkpt lat="43.64434" lon="1.39225">
        <ele>132</ele>
        <time>2024-04-25T17:18:26Z</time>
      </trkpt>
      <trkpt lat="43.64435" lon="1.39228">
        <ele>132</ele>
        <time>2024-04-25T17:18:27Z</time>
      </trkpt>
      <trkpt lat="43.64436" lon="1.39231">
        <ele>131</ele>
        <time>2024-04-25T17:18:28Z</time>
      </trkpt>
      <trkpt lat="43.64438" lon="1.39236">
        <ele>131</ele>
        <time>2024-04-25T17:18:29Z</time>
      </trkpt>
      <trkpt lat="43.6444" lon="1.39238">
        <ele>131</ele>
        <time>2024-04-25T17:18:30Z</time>
      </trkpt>
      <trkpt lat="43.6444" lon="1.39238">
        <ele>131</ele>
        <time>2024-04-25T17:18:31Z</time>
      </trkpt>
      <trkpt lat="43.64443" lon="1.39243">
        <ele>131</ele>
        <time>2024-04-25T17:18:32Z</time>
      </trkpt>
      <trkpt lat="43.64443" lon="1.39243">
        <ele>131</ele>
        <time>2024-04-25T17:18:33Z</time>
      </trkpt>
      <trkpt lat="43.64444" lon="1.39246">
        <ele>131</ele>
        <time>2024-04-25T17:18:34Z</time>
      </trkpt>
      <trkpt lat="43.64445" lon="1.39249">
        <ele>131</ele>
        <time>2024-04-25T17:18:35Z</time>
      </trkpt>
      <trkpt lat="43.64446" lon="1.39252">
        <ele>131</ele>
        <time>2024-04-25T17:18:36Z</time>
      </trkpt>
      <trkpt lat="43.64447" lon="1.39255">
        <ele>131</ele>
        <time>2024-04-25T17:18:37Z</time>
      </trkpt>
      <trkpt lat="43.64448" lon="1.39258">
        <ele>130</ele>
        <time>2024-04-25T17:18:38Z</time>
      </trkpt>
      <trkpt lat="43.64449" lon="1.39261">
        <ele>130</ele>
        <time>2024-04-25T17:18:39Z</time>
      </trkpt>
      <trkpt lat="43.6445" lon="1.39264">
        <ele>130</ele>
        <time>2024-04-25T17:18:40Z</time>
      </trkpt>
      <trkpt lat="43.6445" lon="1.39264">
        <ele>130</ele>
        <time>2024-04-25T17:18:41Z</time>
      </trkpt>
      <trkpt lat="43.64451" lon="1.39268">
        <ele>130</ele>
        <time>2024-04-25T17:18:42Z</time>
      </trkpt>
      <trkpt lat="43.64451" lon="1.39271">
        <ele>130</ele>
        <time>2024-04-25T17:19:51Z</time>
      </trkpt>
      <trkpt lat="43.64451" lon="1.39271">
        <ele>131</ele>
        <time>2024-04-25T17:19:52Z</time>
      </trkpt>
      <trkpt lat="43.64451" lon="1.39271">
        <ele>131</ele>
        <time>2024-04-25T17:19:53Z</time>
      </trkpt>
      <trkpt lat="43.64449" lon="1.39267">
        <ele>130</ele>
        <time>2024-04-25T17:19:54Z</time>
      </trkpt>
      <trkpt lat="43.64445" lon="1.39258">
        <ele>130</ele>
        <time>2024-04-25T17:19:55Z</time>
      </trkpt>
      <trkpt lat="43.64445" lon="1.39258">
        <ele>130</ele>
        <time>2024-04-25T17:19:56Z</time>
      </trkpt>
      <trkpt lat="43.64443" lon="1.39253">
        <ele>130</ele>
        <time>2024-04-25T17:19:57Z</time>
      </trkpt>
      <trkpt lat="43.64441" lon="1.39248">
        <ele>130</ele>
        <time>2024-04-25T17:19:58Z</time>
      </trkpt>
      <trkpt lat="43.64439" lon="1.39244">
        <ele>130</ele>
        <time>2024-04-25T17:19:59Z</time>
      </trkpt>
      <trkpt lat="43.64436" lon="1.3924">
        <ele>130</ele>
        <time>2024-04-25T17:20:00Z</time>
      </trkpt>
      <trkpt lat="43.64434" lon="1.39235">
        <ele>130</ele>
        <time>2024-04-25T17:20:01Z</time>
      </trkpt>
      <trkpt lat="43.64428" lon="1.39227">
        <ele>130</ele>
        <time>2024-04-25T17:20:02Z</time>
      </trkpt>
      <trkpt lat="43.64428" lon="1.39227">
        <ele>130</ele>
        <time>2024-04-25T17:20:03Z</time>
      </trkpt>
      <trkpt lat="43.64426" lon="1.39222">
        <ele>130</ele>
        <time>2024-04-25T17:20:04Z</time>
      </trkpt>
      <trkpt lat="43.64423" lon="1.39219">
        <ele>130</ele>
        <time>2024-04-25T17:20:05Z</time>
      </trkpt>
      <trkpt lat="43.6442" lon="1.39214">
        <ele>130</ele>
        <time>2024-04-25T17:20:06Z</time>
      </trkpt>
      <trkpt lat="43.64419" lon="1.39212">
        <ele>132</ele>
        <time>2024-04-25T17:20:07Z</time>
      </trkpt>
      <trkpt lat="43.64416" lon="1.39207">
        <ele>132</ele>
        <time>2024-04-25T17:20:08Z</time>
      </trkpt>
      <trkpt lat="43.64414" lon="1.39202">
        <ele>132</ele>
        <time>2024-04-25T17:20:09Z</time>
      </trkpt>
      <trkpt lat="43.64411" lon="1.39195">
        <ele>132</ele>
        <time>2024-04-25T17:20:10Z</time>
      </trkpt>
      <trkpt lat="43.6441" lon="1.39193">
        <ele>132</ele>
        <time>2024-04-25T17:20:11Z</time>
      </trkpt>
      <trkpt lat="43.64409" lon="1.39188">
        <ele>133</ele>
        <time>2024-04-25T17:20:12Z</time>
      </trkpt>
      <trkpt lat="43.64408" lon="1.39183">
        <ele>133</ele>
        <time>2024-04-25T17:20:13Z</time>
      </trkpt>
      <trkpt lat="43.64408" lon="1.39178">
        <ele>134</ele>
        <time>2024-04-25T17:20:14Z</time>
      </trkpt>
      <trkpt lat="43.64408" lon="1.39172">
        <ele>134</ele>
        <time>2024-04-25T17:20:15Z</time>
      </trkpt>
      <trkpt lat="43.64408" lon="1.39168">
        <ele>135</ele>
        <time>2024-04-25T17:20:16Z</time>
      </trkpt>
      <trkpt lat="43.64408" lon="1.39165">
        <ele>136</ele>
        <time>2024-04-25T17:20:17Z</time>
      </trkpt>
      <trkpt lat="43.64408" lon="1.39165">
        <ele>136</ele>
        <time>2024-04-25T17:20:18Z</time>
      </trkpt>
      <trkpt lat="43.64408" lon="1.39165">
        <ele>136</ele>
        <time>2024-04-25T17:20:19Z</time>
      </trkpt>
      <trkpt lat="43.64409" lon="1.39169">
        <ele>136</ele>
        <time>2024-04-25T17:20:20Z</time>
      </trkpt>
      <trkpt lat="43.6441" lon="1.39172">
        <ele>136</ele>
        <time>2024-04-25T17:20:21Z</time>
      </trkpt>
      <trkpt lat="43.6441" lon="1.39172">
        <ele>136</ele>
        <time>2024-04-25T17:20:22Z</time>
      </trkpt>
      <trkpt lat="43.64411" lon="1.39176">
        <ele>136</ele>
        <time>2024-04-25T17:20:23Z</time>
      </trkpt>
      <trkpt lat="43.64411" lon="1.39176">
        <ele>136</ele>
        <time>2024-04-25T17:20:24Z</time>
      </trkpt>
      <trkpt lat="43.64411" lon="1.39181">
        <ele>136</ele>
        <time>2024-04-25T17:20:25Z</time>
      </trkpt>
      <trkpt lat="43.64412" lon="1.39184">
        <ele>136</ele>
        <time>2024-04-25T17:20:26Z</time>
      </trkpt>
      <trkpt lat="43.64412" lon="1.39186">
        <ele>136</ele>
        <time>2024-04-25T17:20:27Z</time>
      </trkpt>
      <trkpt lat="43.64413" lon="1.39189">
        <ele>135</ele>
        <time>2024-04-25T17:20:28Z</time>
      </trkpt>
      <trkpt lat="43.64414" lon="1.39191">
        <ele>135</ele>
        <time>2024-04-25T17:20:29Z</time>
      </trkpt>
      <trkpt lat="43.64414" lon="1.39194">
        <ele>134</ele>
        <time>2024-04-25T17:20:30Z</time>
      </trkpt>
      <trkpt lat="43.64415" lon="1.39196">
        <ele>134</ele>
        <time>2024-04-25T17:20:31Z</time>
      </trkpt>
      <trkpt lat="43.64416" lon="1.39199">
        <ele>134</ele>
        <time>2024-04-25T17:20:32Z</time>
      </trkpt>
      <trkpt lat="43.64416" lon="1.39199">
        <ele>134</ele>
        <time>2024-04-25T17:20:33Z</time>
      </trkpt>
      <trkpt lat="43.64419" lon="1.39202">
        <ele>134</ele>
        <time>2024-04-25T17:20:34Z</time>
      </trkpt>
      <trkpt lat="43.64419" lon="1.39202">
        <ele>134</ele>
        <time>2024-04-25T17:20:35Z</time>
      </trkpt>
      <trkpt lat="43.64421" lon="1.39206">
        <ele>133</ele>
        <time>2024-04-25T17:20:36Z</time>
      </trkpt>
      <trkpt lat="43.64424" lon="1.3921">
        <ele>133</ele>
        <time>2024-04-25T17:20:37Z</time>
      </trkpt>
      <trkpt lat="43.64424" lon="1.3921">
        <ele>133</ele>
        <time>2024-04-25T17:20:38Z</time>
      </trkpt>
      <trkpt lat="43.64427" lon="1.39214">
        <ele>132</ele>
        <time>2024-04-25T17:20:39Z</time>
      </trkpt>
      <trkpt lat="43.64428" lon="1.39216">
        <ele>132</ele>
        <time>2024-04-25T17:20:40Z</time>
      </trkpt>
      <trkpt lat="43.64428" lon="1.39216">
        <ele>132</ele>
        <time>2024-04-25T17:20:41Z</time>
      </trkpt>
      <trkpt lat="43.64429" lon="1.39218">
        <ele>132</ele>
        <time>2024-04-25T17:20:42Z</time>
      </trkpt>
      <trkpt lat="43.6443" lon="1.39221">
        <ele>131</ele>
        <time>2024-04-25T17:20:43Z</time>
      </trkpt>
      <trkpt lat="43.64432" lon="1.39223">
        <ele>131</ele>
        <time>2024-04-25T17:20:44Z</time>
      </trkpt>
      <trkpt lat="43.64433" lon="1.39225">
        <ele>131</ele>
        <time>2024-04-25T17:20:45Z</time>
      </trkpt>
      <trkpt lat="43.64434" lon="1.39228">
        <ele>131</ele>
        <time>2024-04-25T17:20:46Z</time>
      </trkpt>
      <trkpt lat="43.64436" lon="1.3923">
        <ele>131</ele>
        <time>2024-04-25T17:20:47Z</time>
      </trkpt>
      <trkpt lat="43.64437" lon="1.39232">
        <ele>131</ele>
        <time>2024-04-25T17:20:48Z</time>
      </trkpt>
      <trkpt lat="43.64438" lon="1.39234">
        <ele>131</ele>
        <time>2024-04-25T17:20:49Z</time>
      </trkpt>
      <trkpt lat="43.64439" lon="1.39237">
        <ele>130</ele>
        <time>2024-04-25T17:20:50Z</time>
      </trkpt>
      <trkpt lat="43.6444" lon="1.39239">
        <ele>130</ele>
        <time>2024-04-25T17:20:51Z</time>
      </trkpt>
      <trkpt lat="43.64441" lon="1.39241">
        <ele>130</ele>
        <time>2024-04-25T17:20:52Z</time>
      </trkpt>
      <trkpt lat="43.64442" lon="1.39244">
        <ele>130</ele>
        <time>2024-04-25T17:20:53Z</time>
      </trkpt>
      <trkpt lat="43.64443" lon="1.39246">
        <ele>130</ele>
        <time>2024-04-25T17:20:54Z</time>
      </trkpt>
      <trkpt lat="43.64444" lon="1.39248">
        <ele>130</ele>
        <time>2024-04-25T17:20:55Z</time>
      </trkpt>
      <trkpt lat="43.64446" lon="1.39251">
        <ele>130</ele>
        <time>2024-04-25T17:20:56Z</time>
      </trkpt>
      <trkpt lat="43.64447" lon="1.39253">
        <ele>130</ele>
        <time>2024-04-25T17:20:57Z</time>
      </trkpt>
      <trkpt lat="43.64448" lon="1.39259">
        <ele>130</ele>
        <time>2024-04-25T17:20:58Z</time>
      </trkpt>
      <trkpt lat="43.64448" lon="1.39259">
        <ele>130</ele>
        <time>2024-04-25T17:20:59Z</time>
      </trkpt>
      <trkpt lat="43.64449" lon="1.39262">
        <ele>130</ele>
        <time>2024-04-25T17:21:00Z</time>
      </trkpt>
      <trkpt lat="43.6445" lon="1.39265">
        <ele>130</ele>
        <time>2024-04-25T17:21:01Z</time>
      </trkpt>
      <trkpt lat="43.6445" lon="1.39268">
        <ele>130</ele>
        <time>2024-04-25T17:21:02Z</time>
      </trkpt>
      <trkpt lat="43.64451" lon="1.39271">
        <ele>130</ele>
        <time>2024-04-25T17:21:03Z</time>
      </trkpt>
      <trkpt lat="43.64452" lon="1.39273">
        <ele>130</ele>
        <time>2024-04-25T17:21:04Z</time>
      </trkpt>
      <trkpt lat="43.64451" lon="1.39271">
        <ele>130</ele>
        <time>2024-04-25T17:21:05Z</time>
      </trkpt>
      <trkpt lat="43.6445" lon="1.39269">
        <ele>130</ele>
        <time>2024-04-25T17:21:06Z</time>
      </trkpt>
      <trkpt lat="43.6445" lon="1.39267">
        <ele>130</ele>
        <time>2024-04-25T17:21:07Z</time>
      </trkpt>
      <trkpt lat="43.64449" lon="1.39265">
        <ele>130</ele>
        <time>2024-04-25T17:21:08Z</time>
      </trkpt>
      <trkpt lat="43.64447" lon="1.39261">
        <ele>130</ele>
        <time>2024-04-25T17:21:09Z</time>
      </trkpt>
      <trkpt lat="43.64444" lon="1.39257">
        <ele>130</ele>
        <time>2024-04-25T17:21:10Z</time>
      </trkpt>
      <trkpt lat="43.6444" lon="1.39249">
        <ele>130</ele>
        <time>2024-04-25T17:21:11Z</time>
      </trkpt>
      <trkpt lat="43.64439" lon="1.39247">
        <ele>130</ele>
        <time>2024-04-25T17:21:12Z</time>
      </trkpt>
      <trkpt lat="43.64434" lon="1.39238">
        <ele>130</ele>
        <time>2024-04-25T17:21:13Z</time>
      </trkpt>
      <trkpt lat="43.64434" lon="1.39238">
        <ele>130</ele>
        <time>2024-04-25T17:21:14Z</time>
      </trkpt>
      <trkpt lat="43.64431" lon="1.39234">
        <ele>130</ele>
        <time>2024-04-25T17:21:15Z</time>
      </trkpt>
      <trkpt lat="43.64428" lon="1.39229">
        <ele>130</ele>
        <time>2024-04-25T17:21:16Z</time>
      </trkpt>
      <trkpt lat="43.64426" lon="1.39224">
        <ele>130</ele>
        <time>2024-04-25T17:21:17Z</time>
      </trkpt>
      <trkpt lat="43.64423" lon="1.3922">
        <ele>130</ele>
        <time>2024-04-25T17:21:18Z</time>
      </trkpt>
      <trkpt lat="43.64421" lon="1.39216">
        <ele>130</ele>
        <time>2024-04-25T17:21:19Z</time>
      </trkpt>
      <trkpt lat="43.64418" lon="1.39211">
        <ele>130</ele>
        <time>2024-04-25T17:21:20Z</time>
      </trkpt>
      <trkpt lat="43.64416" lon="1.39207">
        <ele>130</ele>
        <time>2024-04-25T17:21:21Z</time>
      </trkpt>
      <trkpt lat="43.64414" lon="1.39202">
        <ele>131</ele>
        <time>2024-04-25T17:21:22Z</time>
      </trkpt>
      <trkpt lat="43.64411" lon="1.39196">
        <ele>131</ele>
        <time>2024-04-25T17:21:23Z</time>
      </trkpt>
      <trkpt lat="43.6441" lon="1.39193">
        <ele>132</ele>
        <time>2024-04-25T17:21:24Z</time>
      </trkpt>
      <trkpt lat="43.64409" lon="1.39188">
        <ele>133</ele>
        <time>2024-04-25T17:21:25Z</time>
      </trkpt>
      <trkpt lat="43.64408" lon="1.3918">
        <ele>133</ele>
        <time>2024-04-25T17:21:26Z</time>
      </trkpt>
      <trkpt lat="43.64408" lon="1.39178">
        <ele>133</ele>
        <time>2024-04-25T17:21:27Z</time>
      </trkpt>
      <trkpt lat="43.64407" lon="1.39173">
        <ele>134</ele>
        <time>2024-04-25T17:21:28Z</time>
      </trkpt>
      <trkpt lat="43.64407" lon="1.39168">
        <ele>135</ele>
        <time>2024-04-25T17:21:29Z</time>
      </trkpt>
      <trkpt lat="43.64408" lon="1.39165">
        <ele>136</ele>
        <time>2024-04-25T17:21:30Z</time>
      </trkpt>
      <trkpt lat="43.64408" lon="1.39165">
        <ele>136</ele>
        <time>2024-04-25T17:21:31Z</time>
      </trkpt>
      <trkpt lat="43.64408" lon="1.39165">
        <ele>136</ele>
        <time>2024-04-25T17:21:32Z</time>
      </trkpt>
      <trkpt lat="43.64408" lon="1.39165">
        <ele>136</ele>
        <time>2024-04-25T17:21:33Z</time>
      </trkpt>
      <trkpt lat="43.64408" lon="1.39169">
        <ele>136</ele>
        <time>2024-04-25T17:21:34Z</time>
      </trkpt>
      <trkpt lat="43.64408" lon="1.39169">
        <ele>136</ele>
        <time>2024-04-25T17:21:35Z</time>
      </trkpt>
      <trkpt lat="43.64408" lon="1.39173">
        <ele>136</ele>
        <time>2024-04-25T17:21:36Z</time>
      </trkpt>
      <trkpt lat="43.64408" lon="1.39176">
        <ele>136</ele>
        <time>2024-04-25T17:21:37Z</time>
      </trkpt>
      <trkpt lat="43.64409" lon="1.39178">
        <ele>136</ele>
        <time>2024-04-25T17:21:38Z</time>
      </trkpt>
      <trkpt lat="43.64409" lon="1.39178">
        <ele>135</ele>
        <time>2024-04-25T17:21:39Z</time>
      </trkpt>
      <trkpt lat="43.6441" lon="1.39183">
        <ele>135</ele>
        <time>2024-04-25T17:21:40Z</time>
      </trkpt>
      <trkpt lat="43.6441" lon="1.39183">
        <ele>134</ele>
        <time>2024-04-25T17:21:41Z</time>
      </trkpt>
      <trkpt lat="43.64412" lon="1.39187">
        <ele>134</ele>
        <time>2024-04-25T17:21:42Z</time>
      </trkpt>
      <trkpt lat="43.64412" lon="1.39189">
        <ele>134</ele>
        <time>2024-04-25T17:21:43Z</time>
      </trkpt>
      <trkpt lat="43.64412" lon="1.39189">
        <ele>134</ele>
        <time>2024-04-25T17:21:44Z</time>
      </trkpt>
      <trkpt lat="43.64414" lon="1.39193">
        <ele>134</ele>
        <time>2024-04-25T17:21:45Z</time>
      </trkpt>
      <trkpt lat="43.64415" lon="1.39196">
        <ele>134</ele>
        <time>2024-04-25T17:21:46Z</time>
      </trkpt>
      <trkpt lat="43.64416" lon="1.39198">
        <ele>133</ele>
        <time>2024-04-25T17:21:47Z</time>
      </trkpt>
      <trkpt lat="43.64417" lon="1.392">
        <ele>132</ele>
        <time>2024-04-25T17:21:48Z</time>
      </trkpt>
      <trkpt lat="43.64419" lon="1.39202">
        <ele>132</ele>
        <time>2024-04-25T17:21:49Z</time>
      </trkpt>
      <trkpt lat="43.6442" lon="1.39204">
        <ele>132</ele>
        <time>2024-04-25T17:21:50Z</time>
      </trkpt>
      <trkpt lat="43.64421" lon="1.39206">
        <ele>131</ele>
        <time>2024-04-25T17:21:51Z</time>
      </trkpt>
      <trkpt lat="43.64422" lon="1.39208">
        <ele>131</ele>
        <time>2024-04-25T17:21:52Z</time>
      </trkpt>
      <trkpt lat="43.64424" lon="1.3921">
        <ele>131</ele>
        <time>2024-04-25T17:21:53Z</time>
      </trkpt>
      <trkpt lat="43.64425" lon="1.39212">
        <ele>131</ele>
        <time>2024-04-25T17:21:54Z</time>
      </trkpt>
      <trkpt lat="43.64427" lon="1.39214">
        <ele>131</ele>
        <time>2024-04-25T17:21:55Z</time>
      </trkpt>
      <trkpt lat="43.64429" lon="1.39217">
        <ele>131</ele>
        <time>2024-04-25T17:21:56Z</time>
      </trkpt>
      <trkpt lat="43.6443" lon="1.39219">
        <ele>130</ele>
        <time>2024-04-25T17:21:57Z</time>
      </trkpt>
      <trkpt lat="43.64431" lon="1.39221">
        <ele>130</ele>
        <time>2024-04-25T17:21:58Z</time>
      </trkpt>
      <trkpt lat="43.64432" lon="1.39223">
        <ele>130</ele>
        <time>2024-04-25T17:21:59Z</time>
      </trkpt>
      <trkpt lat="43.64434" lon="1.39225">
        <ele>131</ele>
        <time>2024-04-25T17:22:00Z</time>
      </trkpt>
      <trkpt lat="43.64434" lon="1.39225">
        <ele>131</ele>
        <time>2024-04-25T17:22:01Z</time>
      </trkpt>
      <trkpt lat="43.64435" lon="1.39229">
        <ele>131</ele>
        <time>2024-04-25T17:22:02Z</time>
      </trkpt>
      <trkpt lat="43.64436" lon="1.39231">
        <ele>131</ele>
        <time>2024-04-25T17:22:03Z</time>
      </trkpt>
      <trkpt lat="43.64437" lon="1.39233">
        <ele>131</ele>
        <time>2024-04-25T17:22:04Z</time>
      </trkpt>
      <trkpt lat="43.64438" lon="1.39234">
        <ele>131</ele>
        <time>2024-04-25T17:22:05Z</time>
      </trkpt>
      <trkpt lat="43.64439" lon="1.39237">
        <ele>131</ele>
        <time>2024-04-25T17:22:06Z</time>
      </trkpt>
      <trkpt lat="43.64441" lon="1.3924">
        <ele>131</ele>
        <time>2024-04-25T17:22:07Z</time>
      </trkpt>
      <trkpt lat="43.64442" lon="1.39243">
        <ele>131</ele>
        <time>2024-04-25T17:22:08Z</time>
      </trkpt>
      <trkpt lat="43.64443" lon="1.39245">
        <ele>131</ele>
        <time>2024-04-25T17:22:09Z</time>
      </trkpt>
      <trkpt lat="43.64445" lon="1.3925">
        <ele>131</ele>
        <time>2024-04-25T17:22:10Z</time>
      </trkpt>
      <trkpt lat="43.64445" lon="1.3925">
        <ele>131</ele>
        <time>2024-04-25T17:22:11Z</time>
      </trkpt>
      <trkpt lat="43.64447" lon="1.39255">
        <ele>131</ele>
        <time>2024-04-25T17:22:12Z</time>
      </trkpt>
      <trkpt lat="43.64447" lon="1.39256">
        <ele>131</ele>
        <time>2024-04-25T17:22:13Z</time>
      </trkpt>
      <trkpt lat="43.64448" lon="1.39259">
        <ele>131</ele>
        <time>2024-04-25T17:22:14Z</time>
      </trkpt>
      <trkpt lat="43.64449" lon="1.39262">
        <ele>131</ele>
        <time>2024-04-25T17:22:15Z</time>
      </trkpt>
      <trkpt lat="43.6445" lon="1.39267">
        <ele>130</ele>
        <time>2024-04-25T17:22:16Z</time>
      </trkpt>
      <trkpt lat="43.6445" lon="1.39267">
        <ele>130</ele>
        <time>2024-04-25T17:22:17Z</time>
      </trkpt>
      <trkpt lat="43.64451" lon="1.3927">
        <ele>130</ele>
        <time>2024-04-25T17:22:18Z</time>
      </trkpt>
      <trkpt lat="43.64451" lon="1.3927">
        <ele>130</ele>
        <time>2024-04-25T17:22:19Z</time>
      </trkpt>
      <trkpt lat="43.64451" lon="1.3927">
        <ele>130</ele>
        <time>2024-04-25T17:22:20Z</time>
      </trkpt>
      <trkpt lat="43.64451" lon="1.3927">
        <ele>130</ele>
        <time>2024-04-25T17:22:21Z</time>
      </trkpt>
      <trkpt lat="43.64447" lon="1.39262">
        <ele>130</ele>
        <time>2024-04-25T17:22:22Z</time>
      </trkpt>
      <trkpt lat="43.64444" lon="1.39258">
        <ele>130</ele>
        <time>2024-04-25T17:22:24Z</time>
      </trkpt>
      <trkpt lat="43.64442" lon="1.39253">
        <ele>130</ele>
        <time>2024-04-25T17:22:25Z</time>
      </trkpt>
      <trkpt lat="43.64439" lon="1.39248">
        <ele>130</ele>
        <time>2024-04-25T17:22:26Z</time>
      </trkpt>
      <trkpt lat="43.64436" lon="1.39244">
        <ele>130</ele>
        <time>2024-04-25T17:22:27Z</time>
      </trkpt>
      <trkpt lat="43.64433" lon="1.39239">
        <ele>130</ele>
        <time>2024-04-25T17:22:28Z</time>
      </trkpt>
      <trkpt lat="43.6443" lon="1.39235">
        <ele>130</ele>
        <time>2024-04-25T17:22:29Z</time>
      </trkpt>
      <trkpt lat="43.64427" lon="1.39227">
        <ele>130</ele>
        <time>2024-04-25T17:22:30Z</time>
      </trkpt>
      <trkpt lat="43.64425" lon="1.39225">
        <ele>130</ele>
        <time>2024-04-25T17:22:31Z</time>
      </trkpt>
      <trkpt lat="43.64423" lon="1.3922">
        <ele>131</ele>
        <time>2024-04-25T17:22:32Z</time>
      </trkpt>
      <trkpt lat="43.64421" lon="1.39215">
        <ele>131</ele>
        <time>2024-04-25T17:22:33Z</time>
      </trkpt>
      <trkpt lat="43.64419" lon="1.3921">
        <ele>131</ele>
        <time>2024-04-25T17:22:34Z</time>
      </trkpt>
      <trkpt lat="43.64416" lon="1.39205">
        <ele>132</ele>
        <time>2024-04-25T17:22:35Z</time>
      </trkpt>
      <trkpt lat="43.64414" lon="1.39201">
        <ele>132</ele>
        <time>2024-04-25T17:22:36Z</time>
      </trkpt>
      <trkpt lat="43.64412" lon="1.39196">
        <ele>132</ele>
        <time>2024-04-25T17:22:37Z</time>
      </trkpt>
      <trkpt lat="43.6441" lon="1.39191">
        <ele>133</ele>
        <time>2024-04-25T17:22:38Z</time>
      </trkpt>
      <trkpt lat="43.64408" lon="1.39186">
        <ele>133</ele>
        <time>2024-04-25T17:22:39Z</time>
      </trkpt>
      <trkpt lat="43.64407" lon="1.3918">
        <ele>133</ele>
        <time>2024-04-25T17:22:40Z</time>
      </trkpt>
      <trkpt lat="43.64406" lon="1.39175">
        <ele>133</ele>
        <time>2024-04-25T17:22:41Z</time>
      </trkpt>
      <trkpt lat="43.64406" lon="1.39167">
        <ele>133</ele>
        <time>2024-04-25T17:22:42Z</time>
      </trkpt>
      <trkpt lat="43.64407" lon="1.39164">
        <ele>135</ele>
        <time>2024-04-25T17:22:43Z</time>
      </trkpt>
      <trkpt lat="43.64407" lon="1.3916">
        <ele>135</ele>
        <time>2024-04-25T17:22:44Z</time>
      </trkpt>
      <trkpt lat="43.64407" lon="1.3916">
        <ele>135</ele>
        <time>2024-04-25T17:22:45Z</time>
      </trkpt>
      <trkpt lat="43.64407" lon="1.3916">
        <ele>135</ele>
        <time>2024-04-25T17:22:46Z</time>
      </trkpt>
      <trkpt lat="43.64407" lon="1.3916">
        <ele>135</ele>
        <time>2024-04-25T17:22:47Z</time>
      </trkpt>
      <trkpt lat="43.64409" lon="1.39164">
        <ele>135</ele>
        <time>2024-04-25T17:22:48Z</time>
      </trkpt>
      <trkpt lat="43.6441" lon="1.39166">
        <ele>135</ele>
        <time>2024-04-25T17:22:49Z</time>
      </trkpt>
      <trkpt lat="43.64411" lon="1.39169">
        <ele>135</ele>
        <time>2024-04-25T17:22:50Z</time>
      </trkpt>
      <trkpt lat="43.64412" lon="1.39174">
        <ele>135</ele>
        <time>2024-04-25T17:22:51Z</time>
      </trkpt>
      <trkpt lat="43.64412" lon="1.39174">
        <ele>135</ele>
        <time>2024-04-25T17:22:52Z</time>
      </trkpt>
      <trkpt lat="43.64412" lon="1.39177">
        <ele>135</ele>
        <time>2024-04-25T17:22:53Z</time>
      </trkpt>
      <trkpt lat="43.64413" lon="1.39179">
        <ele>135</ele>
        <time>2024-04-25T17:22:54Z</time>
      </trkpt>
      <trkpt lat="43.64413" lon="1.39182">
        <ele>135</ele>
        <time>2024-04-25T17:22:55Z</time>
      </trkpt>
      <trkpt lat="43.64414" lon="1.39184">
        <ele>134</ele>
        <time>2024-04-25T17:22:56Z</time>
      </trkpt>
      <trkpt lat="43.64415" lon="1.39187">
        <ele>134</ele>
        <time>2024-04-25T17:22:57Z</time>
      </trkpt>
      <trkpt lat="43.64416" lon="1.39189">
        <ele>134</ele>
        <time>2024-04-25T17:22:58Z</time>
      </trkpt>
      <trkpt lat="43.64416" lon="1.39191">
        <ele>134</ele>
        <time>2024-04-25T17:22:59Z</time>
      </trkpt>
      <trkpt lat="43.64416" lon="1.39191">
        <ele>133</ele>
        <time>2024-04-25T17:23:00Z</time>
      </trkpt>
      <trkpt lat="43.64418" lon="1.39195">
        <ele>133</ele>
        <time>2024-04-25T17:23:01Z</time>
      </trkpt>
      <trkpt lat="43.64418" lon="1.39195">
        <ele>133</ele>
        <time>2024-04-25T17:23:02Z</time>
      </trkpt>
      <trkpt lat="43.6442" lon="1.39198">
        <ele>133</ele>
        <time>2024-04-25T17:23:03Z</time>
      </trkpt>
      <trkpt lat="43.6442" lon="1.39198">
        <ele>133</ele>
        <time>2024-04-25T17:23:04Z</time>
      </trkpt>
      <trkpt lat="43.64422" lon="1.39202">
        <ele>132</ele>
        <time>2024-04-25T17:23:05Z</time>
      </trkpt>
      <trkpt lat="43.64422" lon="1.39202">
        <ele>132</ele>
        <time>2024-04-25T17:23:06Z</time>
      </trkpt>
      <trkpt lat="43.64424" lon="1.39206">
        <ele>132</ele>
        <time>2024-04-25T17:23:07Z</time>
      </trkpt>
      <trkpt lat="43.64424" lon="1.39206">
        <ele>132</ele>
        <time>2024-04-25T17:23:08Z</time>
      </trkpt>
      <trkpt lat="43.64426" lon="1.3921">
        <ele>132</ele>
        <time>2024-04-25T17:23:09Z</time>
      </trkpt>
      <trkpt lat="43.64427" lon="1.39214">
        <ele>132</ele>
        <time>2024-04-25T17:23:10Z</time>
      </trkpt>
      <trkpt lat="43.64428" lon="1.39215">
        <ele>132</ele>
        <time>2024-04-25T17:23:11Z</time>
      </trkpt>
      <trkpt lat="43.64429" lon="1.39216">
        <ele>132</ele>
        <time>2024-04-25T17:23:12Z</time>
      </trkpt>
      <trkpt lat="43.64431" lon="1.39219">
        <ele>132</ele>
        <time>2024-04-25T17:23:13Z</time>
      </trkpt>
      <trkpt lat="43.64433" lon="1.39223">
        <ele>131</ele>
        <time>2024-04-25T17:23:14Z</time>
      </trkpt>
      <trkpt lat="43.64433" lon="1.39223">
        <ele>131</ele>
        <time>2024-04-25T17:23:15Z</time>
      </trkpt>
      <trkpt lat="43.64434" lon="1.39225">
        <ele>131</ele>
        <time>2024-04-25T17:23:16Z</time>
      </trkpt>
      <trkpt lat="43.64435" lon="1.39227">
        <ele>130</ele>
        <time>2024-04-25T17:23:17Z</time>
      </trkpt>
      <trkpt lat="43.64436" lon="1.3923">
        <ele>130</ele>
        <time>2024-04-25T17:23:18Z</time>
      </trkpt>
      <trkpt lat="43.64437" lon="1.39232">
        <ele>130</ele>
        <time>2024-04-25T17:23:19Z</time>
      </trkpt>
      <trkpt lat="43.64439" lon="1.39236">
        <ele>130</ele>
        <time>2024-04-25T17:23:20Z</time>
      </trkpt>
      <trkpt lat="43.6444" lon="1.39237">
        <ele>130</ele>
        <time>2024-04-25T17:23:21Z</time>
      </trkpt>
      <trkpt lat="43.64441" lon="1.3924">
        <ele>130</ele>
        <time>2024-04-25T17:23:22Z</time>
      </trkpt>
      <trkpt lat="43.64442" lon="1.39242">
        <ele>130</ele>
        <time>2024-04-25T17:23:23Z</time>
      </trkpt>
      <trkpt lat="43.64443" lon="1.39245">
        <ele>130</ele>
        <time>2024-04-25T17:23:24Z</time>
      </trkpt>
      <trkpt lat="43.64445" lon="1.39247">
        <ele>130</ele>
        <time>2024-04-25T17:23:25Z</time>
      </trkpt>
      <trkpt lat="43.64446" lon="1.3925">
        <ele>130</ele>
        <time>2024-04-25T17:23:26Z</time>
      </trkpt>
      <trkpt lat="43.64447" lon="1.39252">
        <ele>130</ele>
        <time>2024-04-25T17:23:27Z</time>
      </trkpt>
      <trkpt lat="43.64448" lon="1.39255">
        <ele>130</ele>
        <time>2024-04-25T17:23:28Z</time>
      </trkpt>
      <trkpt lat="43.64449" lon="1.39258">
        <ele>130</ele>
        <time>2024-04-25T17:23:29Z</time>
      </trkpt>
      <trkpt lat="43.64449" lon="1.3926">
        <ele>130</ele>
        <time>2024-04-25T17:23:30Z</time>
      </trkpt>
      <trkpt lat="43.6445" lon="1.39263">
        <ele>130</ele>
        <time>2024-04-25T17:23:31Z</time>
      </trkpt>
      <trkpt lat="43.64451" lon="1.39266">
        <ele>130</ele>
        <time>2024-04-25T17:23:32Z</time>
      </trkpt>
      <trkpt lat="43.64451" lon="1.39269">
        <ele>130</ele>
        <time>2024-04-25T17:23:33Z</time>
      </trkpt>
      <trkpt lat="43.64451" lon="1.39269">
        <ele>130</ele>
        <time>2024-04-25T17:23:34Z</time>
      </trkpt>
      <trkpt lat="43.64452" lon="1.39271">
        <ele>130</ele>
        <time>2024-04-25T17:23:35Z</time>
      </trkpt>
      <trkpt lat="43.64452" lon="1.39271">
        <ele>130</ele>
        <time>2024-04-25T17:23:36Z</time>
      </trkpt>
      <trkpt lat="43.6445" lon="1.39265">
        <ele>130</ele>
        <time>2024-04-25T17:23:37Z</time>
      </trkpt>
      <trkpt lat="43.64448" lon="1.39261">
        <ele>130</ele>
        <time>2024-04-25T17:23:38Z</time>
      </trkpt>
      <trkpt lat="43.64444" lon="1.39255">
        <ele>130</ele>
        <time>2024-04-25T17:23:39Z</time>
      </trkpt>
      <trkpt lat="43.64443" lon="1.39253">
        <ele>130</ele>
        <time>2024-04-25T17:23:40Z</time>
      </trkpt>
      <trkpt lat="43.64441" lon="1.39248">
        <ele>130</ele>
        <time>2024-04-25T17:23:41Z</time>
      </trkpt>
      <trkpt lat="43.64437" lon="1.39244">
        <ele>130</ele>
        <time>2024-04-25T17:23:42Z</time>
      </trkpt>
      <trkpt lat="43.64435" lon="1.39239">
        <ele>130</ele>
        <time>2024-04-25T17:23:43Z</time>
      </trkpt>
      <trkpt lat="43.64432" lon="1.39235">
        <ele>130</ele>
        <time>2024-04-25T17:23:44Z</time>
      </trkpt>
      <trkpt lat="43.64429" lon="1.39231">
        <ele>130</ele>
        <time>2024-04-25T17:23:45Z</time>
      </trkpt>
      <trkpt lat="43.64427" lon="1.39226">
        <ele>130</ele>
        <time>2024-04-25T17:23:46Z</time>
      </trkpt>
      <trkpt lat="43.64424" lon="1.39222">
        <ele>130</ele>
        <time>2024-04-25T17:23:47Z</time>
      </trkpt>
      <trkpt lat="43.64421" lon="1.39215">
        <ele>130</ele>
        <time>2024-04-25T17:23:48Z</time>
      </trkpt>
      <trkpt lat="43.64419" lon="1.39212">
        <ele>130</ele>
        <time>2024-04-25T17:23:49Z</time>
      </trkpt>
      <trkpt lat="43.64417" lon="1.39207">
        <ele>131</ele>
        <time>2024-04-25T17:23:50Z</time>
      </trkpt>
      <trkpt lat="43.64415" lon="1.39203">
        <ele>131</ele>
        <time>2024-04-25T17:23:51Z</time>
      </trkpt>
      <trkpt lat="43.64411" lon="1.39193">
        <ele>132</ele>
        <time>2024-04-25T17:23:52Z</time>
      </trkpt>
      <trkpt lat="43.64411" lon="1.39193">
        <ele>132</ele>
        <time>2024-04-25T17:23:53Z</time>
      </trkpt>
      <trkpt lat="43.64409" lon="1.39188">
        <ele>133</ele>
        <time>2024-04-25T17:23:54Z</time>
      </trkpt>
      <trkpt lat="43.64408" lon="1.39182">
        <ele>133</ele>
        <time>2024-04-25T17:23:55Z</time>
      </trkpt>
      <trkpt lat="43.64408" lon="1.39176">
        <ele>133</ele>
        <time>2024-04-25T17:23:56Z</time>
      </trkpt>
      <trkpt lat="43.64407" lon="1.39171">
        <ele>134</ele>
        <time>2024-04-25T17:23:57Z</time>
      </trkpt>
      <trkpt lat="43.64407" lon="1.39163">
        <ele>134</ele>
        <time>2024-04-25T17:23:58Z</time>
      </trkpt>
      <trkpt lat="43.64407" lon="1.39161">
        <ele>134</ele>
        <time>2024-04-25T17:23:59Z</time>
      </trkpt>
      <trkpt lat="43.64407" lon="1.39158">
        <ele>135</ele>
        <time>2024-04-25T17:24:00Z</time>
      </trkpt>
      <trkpt lat="43.64407" lon="1.39158">
        <ele>135</ele>
        <time>2024-04-25T17:24:01Z</time>
      </trkpt>
      <trkpt lat="43.64409" lon="1.3916">
        <ele>135</ele>
        <time>2024-04-25T17:24:02Z</time>
      </trkpt>
      <trkpt lat="43.64409" lon="1.3916">
        <ele>135</ele>
        <time>2024-04-25T17:24:03Z</time>
      </trkpt>
      <trkpt lat="43.64409" lon="1.39164">
        <ele>135</ele>
        <time>2024-04-25T17:24:04Z</time>
      </trkpt>
      <trkpt lat="43.64409" lon="1.39164">
        <ele>135</ele>
        <time>2024-04-25T17:24:05Z</time>
      </trkpt>
      <trkpt lat="43.64409" lon="1.39168">
        <ele>135</ele>
        <time>2024-04-25T17:24:06Z</time>
      </trkpt>
      <trkpt lat="43.64409" lon="1.39168">
        <ele>135</ele>
        <time>2024-04-25T17:24:07Z</time>
      </trkpt>
      <trkpt lat="43.6441" lon="1.39173">
        <ele>135</ele>
        <time>2024-04-25T17:24:08Z</time>
      </trkpt>
      <trkpt lat="43.6441" lon="1.39173">
        <ele>135</ele>
        <time>2024-04-25T17:24:09Z</time>
      </trkpt>
      <trkpt lat="43.64411" lon="1.39177">
        <ele>135</ele>
        <time>2024-04-25T17:24:10Z</time>
      </trkpt>
      <trkpt lat="43.64412" lon="1.3918">
        <ele>135</ele>
        <time>2024-04-25T17:24:11Z</time>
      </trkpt>
      <trkpt lat="43.64412" lon="1.39182">
        <ele>134</ele>
        <time>2024-04-25T17:24:12Z</time>
      </trkpt>
      <trkpt lat="43.64412" lon="1.39182">
        <ele>134</ele>
        <time>2024-04-25T17:24:13Z</time>
      </trkpt>
      <trkpt lat="43.64413" lon="1.39187">
        <ele>133</ele>
        <time>2024-04-25T17:24:14Z</time>
      </trkpt>
      <trkpt lat="43.64414" lon="1.39189">
        <ele>133</ele>
        <time>2024-04-25T17:24:15Z</time>
      </trkpt>
      <trkpt lat="43.64415" lon="1.39192">
        <ele>133</ele>
        <time>2024-04-25T17:24:16Z</time>
      </trkpt>
      <trkpt lat="43.64416" lon="1.39194">
        <ele>133</ele>
        <time>2024-04-25T17:24:17Z</time>
      </trkpt>
      <trkpt lat="43.64416" lon="1.39196">
        <ele>133</ele>
        <time>2024-04-25T17:24:18Z</time>
      </trkpt>
      <trkpt lat="43.64417" lon="1.39199">
        <ele>133</ele>
        <time>2024-04-25T17:24:19Z</time>
      </trkpt>
      <trkpt lat="43.64418" lon="1.39201">
        <ele>133</ele>
        <time>2024-04-25T17:24:20Z</time>
      </trkpt>
      <trkpt lat="43.6442" lon="1.39203">
        <ele>133</ele>
        <time>2024-04-25T17:24:21Z</time>
      </trkpt>
      <trkpt lat="43.64421" lon="1.39205">
        <ele>133</ele>
        <time>2024-04-25T17:24:22Z</time>
      </trkpt>
      <trkpt lat="43.64422" lon="1.39207">
        <ele>132</ele>
        <time>2024-04-25T17:24:23Z</time>
      </trkpt>
      <trkpt lat="43.64422" lon="1.39207">
        <ele>132</ele>
        <time>2024-04-25T17:24:24Z</time>
      </trkpt>
      <trkpt lat="43.64425" lon="1.39213">
        <ele>132</ele>
        <time>2024-04-25T17:24:25Z</time>
      </trkpt>
      <trkpt lat="43.64425" lon="1.39213">
        <ele>132</ele>
        <time>2024-04-25T17:24:26Z</time>
      </trkpt>
      <trkpt lat="43.64427" lon="1.39215">
        <ele>131</ele>
        <time>2024-04-25T17:24:27Z</time>
      </trkpt>
      <trkpt lat="43.64428" lon="1.39217">
        <ele>131</ele>
        <time>2024-04-25T17:24:28Z</time>
      </trkpt>
      <trkpt lat="43.64429" lon="1.39219">
        <ele>131</ele>
        <time>2024-04-25T17:24:29Z</time>
      </trkpt>
      <trkpt lat="43.64431" lon="1.39222">
        <ele>131</ele>
        <time>2024-04-25T17:24:30Z</time>
      </trkpt>
      <trkpt lat="43.64432" lon="1.39224">
        <ele>131</ele>
        <time>2024-04-25T17:24:31Z</time>
      </trkpt>
      <trkpt lat="43.64433" lon="1.39226">
        <ele>131</ele>
        <time>2024-04-25T17:24:32Z</time>
      </trkpt>
      <trkpt lat="43.64434" lon="1.39228">
        <ele>131</ele>
        <time>2024-04-25T17:24:33Z</time>
      </trkpt>
      <trkpt lat="43.64436" lon="1.3923">
        <ele>131</ele>
        <time>2024-04-25T17:24:34Z</time>
      </trkpt>
      <trkpt lat="43.64437" lon="1.39232">
        <ele>131</ele>
        <time>2024-04-25T17:24:35Z</time>
      </trkpt>
      <trkpt lat="43.64438" lon="1.39234">
        <ele>131</ele>
        <time>2024-04-25T17:24:36Z</time>
      </trkpt>
      <trkpt lat="43.6444" lon="1.39237">
        <ele>130</ele>
        <time>2024-04-25T17:24:37Z</time>
      </trkpt>
      <trkpt lat="43.64441" lon="1.39239">
        <ele>130</ele>
        <time>2024-04-25T17:24:38Z</time>
      </trkpt>
      <trkpt lat="43.64442" lon="1.39241">
        <ele>130</ele>
        <time>2024-04-25T17:24:39Z</time>
      </trkpt>
      <trkpt lat="43.64443" lon="1.39243">
        <ele>130</ele>
        <time>2024-04-25T17:24:40Z</time>
      </trkpt>
      <trkpt lat="43.64443" lon="1.39243">
        <ele>129</ele>
        <time>2024-04-25T17:24:41Z</time>
      </trkpt>
      <trkpt lat="43.64445" lon="1.39247">
        <ele>129</ele>
        <time>2024-04-25T17:24:42Z</time>
      </trkpt>
      <trkpt lat="43.64446" lon="1.3925">
        <ele>129</ele>
        <time>2024-04-25T17:24:43Z</time>
      </trkpt>
      <trkpt lat="43.64447" lon="1.39252">
        <ele>130</ele>
        <time>2024-04-25T17:24:44Z</time>
      </trkpt>
      <trkpt lat="43.64448" lon="1.39255">
        <ele>130</ele>
        <time>2024-04-25T17:24:45Z</time>
      </trkpt>
      <trkpt lat="43.64448" lon="1.39257">
        <ele>129</ele>
        <time>2024-04-25T17:24:46Z</time>
      </trkpt>
      <trkpt lat="43.64449" lon="1.3926">
        <ele>129</ele>
        <time>2024-04-25T17:24:47Z</time>
      </trkpt>
      <trkpt lat="43.6445" lon="1.39263">
        <ele>129</ele>
        <time>2024-04-25T17:24:48Z</time>
      </trkpt>
      <trkpt lat="43.6445" lon="1.39266">
        <ele>129</ele>
        <time>2024-04-25T17:24:49Z</time>
      </trkpt>
      <trkpt lat="43.64451" lon="1.39268">
        <ele>129</ele>
        <time>2024-04-25T17:24:50Z</time>
      </trkpt>
      <trkpt lat="43.64451" lon="1.39268">
        <ele>129</ele>
        <time>2024-04-25T17:24:51Z</time>
      </trkpt>
      <trkpt lat="43.64451" lon="1.39268">
        <ele>130</ele>
        <time>2024-04-25T17:24:52Z</time>
      </trkpt>
      <trkpt lat="43.64451" lon="1.39268">
        <ele>130</ele>
        <time>2024-04-25T17:24:53Z</time>
      </trkpt>
      <trkpt lat="43.6445" lon="1.39266">
        <ele>130</ele>
        <time>2024-04-25T17:24:54Z</time>
      </trkpt>
      <trkpt lat="43.64448" lon="1.39262">
        <ele>130</ele>
        <time>2024-04-25T17:24:55Z</time>
      </trkpt>
      <trkpt lat="43.64445" lon="1.39257">
        <ele>130</ele>
        <time>2024-04-25T17:24:56Z</time>
      </trkpt>
      <trkpt lat="43.64442" lon="1.39252">
        <ele>130</ele>
        <time>2024-04-25T17:24:57Z</time>
      </trkpt>
      <trkpt lat="43.6444" lon="1.39247">
        <ele>129</ele>
        <time>2024-04-25T17:24:58Z</time>
      </trkpt>
      <trkpt lat="43.64437" lon="1.39242">
        <ele>128</ele>
        <time>2024-04-25T17:24:59Z</time>
      </trkpt>
      <trkpt lat="43.64433" lon="1.39237">
        <ele>128</ele>
        <time>2024-04-25T17:25:00Z</time>
      </trkpt>
      <trkpt lat="43.6443" lon="1.39232">
        <ele>129</ele>
        <time>2024-04-25T17:25:01Z</time>
      </trkpt>
      <trkpt lat="43.64427" lon="1.39227">
        <ele>129</ele>
        <time>2024-04-25T17:25:02Z</time>
      </trkpt>
      <trkpt lat="43.64424" lon="1.39222">
        <ele>130</ele>
        <time>2024-04-25T17:25:03Z</time>
      </trkpt>
      <trkpt lat="43.64421" lon="1.39218">
        <ele>130</ele>
        <time>2024-04-25T17:25:04Z</time>
      </trkpt>
      <trkpt lat="43.64419" lon="1.39213">
        <ele>130</ele>
        <time>2024-04-25T17:25:05Z</time>
      </trkpt>
      <trkpt lat="43.64417" lon="1.39208">
        <ele>130</ele>
        <time>2024-04-25T17:25:06Z</time>
      </trkpt>
      <trkpt lat="43.64414" lon="1.39201">
        <ele>130</ele>
        <time>2024-04-25T17:25:07Z</time>
      </trkpt>
      <trkpt lat="43.64413" lon="1.39199">
        <ele>132</ele>
        <time>2024-04-25T17:25:08Z</time>
      </trkpt>
      <trkpt lat="43.64411" lon="1.39195">
        <ele>132</ele>
        <time>2024-04-25T17:25:09Z</time>
      </trkpt>
      <trkpt lat="43.6441" lon="1.39189">
        <ele>132</ele>
        <time>2024-04-25T17:25:10Z</time>
      </trkpt>
      <trkpt lat="43.64408" lon="1.39179">
        <ele>133</ele>
        <time>2024-04-25T17:25:11Z</time>
      </trkpt>
      <trkpt lat="43.64408" lon="1.39179">
        <ele>133</ele>
        <time>2024-04-25T17:25:12Z</time>
      </trkpt>
      <trkpt lat="43.64408" lon="1.39173">
        <ele>134</ele>
        <time>2024-04-25T17:25:13Z</time>
      </trkpt>
      <trkpt lat="43.64408" lon="1.39166">
        <ele>134</ele>
        <time>2024-04-25T17:25:14Z</time>
      </trkpt>
      <trkpt lat="43.64408" lon="1.39164">
        <ele>134</ele>
        <time>2024-04-25T17:25:15Z</time>
      </trkpt>
      <trkpt lat="43.64408" lon="1.39161">
        <ele>134</ele>
        <time>2024-04-25T17:25:16Z</time>
      </trkpt>
      <trkpt lat="43.64408" lon="1.39161">
        <ele>135</ele>
        <time>2024-04-25T17:25:17Z</time>
      </trkpt>
      <trkpt lat="43.64408" lon="1.39161">
        <ele>136</ele>
        <time>2024-04-25T17:25:18Z</time>
      </trkpt>
      <trkpt lat="43.64408" lon="1.39164">
        <ele>136</ele>
        <time>2024-04-25T17:25:19Z</time>
      </trkpt>
      <trkpt lat="43.64408" lon="1.39164">
        <ele>136</ele>
        <time>2024-04-25T17:25:20Z</time>
      </trkpt>
      <trkpt lat="43.64409" lon="1.39168">
        <ele>136</ele>
        <time>2024-04-25T17:25:21Z</time>
      </trkpt>
      <trkpt lat="43.64409" lon="1.39168">
        <ele>136</ele>
        <time>2024-04-25T17:25:22Z</time>
      </trkpt>
      <trkpt lat="43.6441" lon="1.39172">
        <ele>135</ele>
        <time>2024-04-25T17:25:23Z</time>
      </trkpt>
      <trkpt lat="43.6441" lon="1.39172">
        <ele>135</ele>
        <time>2024-04-25T17:25:24Z</time>
      </trkpt>
      <trkpt lat="43.6441" lon="1.39177">
        <ele>135</ele>
        <time>2024-04-25T17:25:25Z</time>
      </trkpt>
      <trkpt lat="43.6441" lon="1.39177">
        <ele>134</ele>
        <time>2024-04-25T17:25:26Z</time>
      </trkpt>
      <trkpt lat="43.6441" lon="1.39181">
        <ele>134</ele>
        <time>2024-04-25T17:25:27Z</time>
      </trkpt>
      <trkpt lat="43.6441" lon="1.39181">
        <ele>134</ele>
        <time>2024-04-25T17:25:28Z</time>
      </trkpt>
      <trkpt lat="43.64411" lon="1.39186">
        <ele>134</ele>
        <time>2024-04-25T17:25:29Z</time>
      </trkpt>
      <trkpt lat="43.64411" lon="1.39186">
        <ele>134</ele>
        <time>2024-04-25T17:25:30Z</time>
      </trkpt>
      <trkpt lat="43.64413" lon="1.3919">
        <ele>134</ele>
        <time>2024-04-25T17:25:31Z</time>
      </trkpt>
      <trkpt lat="43.64413" lon="1.3919">
        <ele>134</ele>
        <time>2024-04-25T17:25:32Z</time>
      </trkpt>
      <trkpt lat="43.64415" lon="1.39194">
        <ele>134</ele>
        <time>2024-04-25T17:25:33Z</time>
      </trkpt>
      <trkpt lat="43.64415" lon="1.39194">
        <ele>134</ele>
        <time>2024-04-25T17:25:34Z</time>
      </trkpt>
      <trkpt lat="43.64417" lon="1.39197">
        <ele>134</ele>
        <time>2024-04-25T17:25:35Z</time>
      </trkpt>
      <trkpt lat="43.64419" lon="1.392">
        <ele>134</ele>
        <time>2024-04-25T17:25:36Z</time>
      </trkpt>
      <trkpt lat="43.64419" lon="1.392">
        <ele>134</ele>
        <time>2024-04-25T17:25:37Z</time>
      </trkpt>
      <trkpt lat="43.64419" lon="1.392">
        <ele>133</ele>
        <time>2024-04-25T17:25:38Z</time>
      </trkpt>
      <trkpt lat="43.64421" lon="1.39203">
        <ele>133</ele>
        <time>2024-04-25T17:25:39Z</time>
      </trkpt>
      <trkpt lat="43.64421" lon="1.39203">
        <ele>133</ele>
        <time>2024-04-25T17:25:40Z</time>
      </trkpt>
      <trkpt lat="43.64422" lon="1.39207">
        <ele>133</ele>
        <time>2024-04-25T17:25:41Z</time>
      </trkpt>
      <trkpt lat="43.64422" lon="1.39207">
        <ele>132</ele>
        <time>2024-04-25T17:25:42Z</time>
      </trkpt>
      <trkpt lat="43.64426" lon="1.39212">
        <ele>132</ele>
        <time>2024-04-25T17:25:43Z</time>
      </trkpt>
      <trkpt lat="43.64426" lon="1.39212">
        <ele>132</ele>
        <time>2024-04-25T17:25:44Z</time>
      </trkpt>
      <trkpt lat="43.64426" lon="1.39212">
        <ele>132</ele>
        <time>2024-04-25T17:25:45Z</time>
      </trkpt>
      <trkpt lat="43.64428" lon="1.39216">
        <ele>132</ele>
        <time>2024-04-25T17:25:46Z</time>
      </trkpt>
      <trkpt lat="43.64429" lon="1.39218">
        <ele>132</ele>
        <time>2024-04-25T17:25:47Z</time>
      </trkpt>
      <trkpt lat="43.64431" lon="1.3922">
        <ele>131</ele>
        <time>2024-04-25T17:25:48Z</time>
      </trkpt>
      <trkpt lat="43.64432" lon="1.39222">
        <ele>131</ele>
        <time>2024-04-25T17:25:49Z</time>
      </trkpt>
      <trkpt lat="43.64434" lon="1.39226">
        <ele>131</ele>
        <time>2024-04-25T17:25:50Z</time>
      </trkpt>
      <trkpt lat="43.64434" lon="1.39226">
        <ele>131</ele>
        <time>2024-04-25T17:25:51Z</time>
      </trkpt>
      <trkpt lat="43.64436" lon="1.3923">
        <ele>131</ele>
        <time>2024-04-25T17:25:53Z</time>
      </trkpt>
      <trkpt lat="43.64437" lon="1.39233">
        <ele>131</ele>
        <time>2024-04-25T17:25:54Z</time>
      </trkpt>
      <trkpt lat="43.64438" lon="1.39235">
        <ele>131</ele>
        <time>2024-04-25T17:25:55Z</time>
      </trkpt>
      <trkpt lat="43.64439" lon="1.39238">
        <ele>131</ele>
        <time>2024-04-25T17:25:56Z</time>
      </trkpt>
      <trkpt lat="43.6444" lon="1.3924">
        <ele>131</ele>
        <time>2024-04-25T17:25:57Z</time>
      </trkpt>
      <trkpt lat="43.64443" lon="1.39243">
        <ele>131</ele>
        <time>2024-04-25T17:25:58Z</time>
      </trkpt>
      <trkpt lat="43.64443" lon="1.39244">
        <ele>130</ele>
        <time>2024-04-25T17:25:59Z</time>
      </trkpt>
      <trkpt lat="43.64445" lon="1.39246">
        <ele>130</ele>
        <time>2024-04-25T17:26:00Z</time>
      </trkpt>
      <trkpt lat="43.64446" lon="1.39248">
        <ele>130</ele>
        <time>2024-04-25T17:26:01Z</time>
      </trkpt>
      <trkpt lat="43.64448" lon="1.39253">
        <ele>129</ele>
        <time>2024-04-25T17:26:02Z</time>
      </trkpt>
      <trkpt lat="43.64448" lon="1.39253">
        <ele>129</ele>
        <time>2024-04-25T17:26:03Z</time>
      </trkpt>
      <trkpt lat="43.64449" lon="1.39256">
        <ele>129</ele>
        <time>2024-04-25T17:26:04Z</time>
      </trkpt>
      <trkpt lat="43.64449" lon="1.39258">
        <ele>130</ele>
        <time>2024-04-25T17:26:05Z</time>
      </trkpt>
      <trkpt lat="43.6445" lon="1.39261">
        <ele>130</ele>
        <time>2024-04-25T17:26:06Z</time>
      </trkpt>
      <trkpt lat="43.64452" lon="1.39266">
        <ele>130</ele>
        <time>2024-04-25T17:26:07Z</time>
      </trkpt>
      <trkpt lat="43.64452" lon="1.39266">
        <ele>130</ele>
        <time>2024-04-25T17:26:08Z</time>
      </trkpt>
      <trkpt lat="43.64452" lon="1.39268">
        <ele>130</ele>
        <time>2024-04-25T17:26:09Z</time>
      </trkpt>
      <trkpt lat="43.64452" lon="1.39268">
        <ele>130</ele>
        <time>2024-04-25T17:26:10Z</time>
      </trkpt>
      <trkpt lat="43.64451" lon="1.39273">
        <ele>130</ele>
        <time>2024-04-25T17:27:16Z</time>
      </trkpt>
      <trkpt lat="43.64451" lon="1.39271">
        <ele>131</ele>
        <time>2024-04-25T17:27:17Z</time>
      </trkpt>
      <trkpt lat="43.6445" lon="1.39269">
        <ele>131</ele>
        <time>2024-04-25T17:27:18Z</time>
      </trkpt>
      <trkpt lat="43.64449" lon="1.39266">
        <ele>131</ele>
        <time>2024-04-25T17:27:19Z</time>
      </trkpt>
      <trkpt lat="43.64447" lon="1.39261">
        <ele>130</ele>
        <time>2024-04-25T17:27:20Z</time>
      </trkpt>
      <trkpt lat="43.64445" lon="1.39256">
        <ele>130</ele>
        <time>2024-04-25T17:27:21Z</time>
      </trkpt>
      <trkpt lat="43.6444" lon="1.39246">
        <ele>130</ele>
        <time>2024-04-25T17:27:22Z</time>
      </trkpt>
      <trkpt lat="43.6444" lon="1.39246">
        <ele>130</ele>
        <time>2024-04-25T17:27:23Z</time>
      </trkpt>
      <trkpt lat="43.64436" lon="1.39239">
        <ele>130</ele>
        <time>2024-04-25T17:27:24Z</time>
      </trkpt>
      <trkpt lat="43.64435" lon="1.39237">
        <ele>130</ele>
        <time>2024-04-25T17:27:25Z</time>
      </trkpt>
      <trkpt lat="43.64432" lon="1.39232">
        <ele>130</ele>
        <time>2024-04-25T17:27:26Z</time>
      </trkpt>
      <trkpt lat="43.64426" lon="1.39223">
        <ele>130</ele>
        <time>2024-04-25T17:27:27Z</time>
      </trkpt>
      <trkpt lat="43.64426" lon="1.39223">
        <ele>130</ele>
        <time>2024-04-25T17:27:28Z</time>
      </trkpt>
      <trkpt lat="43.64424" lon="1.39218">
        <ele>131</ele>
        <time>2024-04-25T17:27:29Z</time>
      </trkpt>
      <trkpt lat="43.64422" lon="1.39214">
        <ele>131</ele>
        <time>2024-04-25T17:27:30Z</time>
      </trkpt>
      <trkpt lat="43.64419" lon="1.39208">
        <ele>131</ele>
        <time>2024-04-25T17:27:31Z</time>
      </trkpt>
      <trkpt lat="43.64417" lon="1.39203">
        <ele>131</ele>
        <time>2024-04-25T17:27:32Z</time>
      </trkpt>
      <trkpt lat="43.64415" lon="1.39198">
        <ele>131</ele>
        <time>2024-04-25T17:27:33Z</time>
      </trkpt>
      <trkpt lat="43.6441" lon="1.39187">
        <ele>132</ele>
        <time>2024-04-25T17:27:34Z</time>
      </trkpt>
      <trkpt lat="43.64409" lon="1.39182">
        <ele>132</ele>
        <time>2024-04-25T17:27:36Z</time>
      </trkpt>
      <trkpt lat="43.64408" lon="1.39177">
        <ele>134</ele>
        <time>2024-04-25T17:27:37Z</time>
      </trkpt>
      <trkpt lat="43.64407" lon="1.39172">
        <ele>134</ele>
        <time>2024-04-25T17:27:38Z</time>
      </trkpt>
      <trkpt lat="43.64407" lon="1.39166">
        <ele>134</ele>
        <time>2024-04-25T17:27:39Z</time>
      </trkpt>
      <trkpt lat="43.64408" lon="1.39155">
        <ele>135</ele>
        <time>2024-04-25T17:27:40Z</time>
      </trkpt>
      <trkpt lat="43.64408" lon="1.39155">
        <ele>135</ele>
        <time>2024-04-25T17:27:41Z</time>
      </trkpt>
      <trkpt lat="43.64409" lon="1.3915">
        <ele>136</ele>
        <time>2024-04-25T17:27:42Z</time>
      </trkpt>
      <trkpt lat="43.6441" lon="1.39144">
        <ele>136</ele>
        <time>2024-04-25T17:27:43Z</time>
      </trkpt>
      <trkpt lat="43.6441" lon="1.39141">
        <ele>136</ele>
        <time>2024-04-25T17:27:44Z</time>
      </trkpt>
      <trkpt lat="43.6441" lon="1.39138">
        <ele>137</ele>
        <time>2024-04-25T17:27:45Z</time>
      </trkpt>
      <trkpt lat="43.6441" lon="1.39136">
        <ele>138</ele>
        <time>2024-04-25T17:27:46Z</time>
      </trkpt>
      <trkpt lat="43.64412" lon="1.39123">
        <ele>139</ele>
        <time>2024-04-25T17:27:47Z</time>
      </trkpt>
      <trkpt lat="43.64413" lon="1.39119">
        <ele>139</ele>
        <time>2024-04-25T17:27:48Z</time>
      </trkpt>
      <trkpt lat="43.64416" lon="1.39113">
        <ele>139</ele>
        <time>2024-04-25T17:27:49Z</time>
      </trkpt>
      <trkpt lat="43.64416" lon="1.39113">
        <ele>140</ele>
        <time>2024-04-25T17:27:51Z</time>
      </trkpt>
      <trkpt lat="43.64416" lon="1.39113">
        <ele>140</ele>
        <time>2024-04-25T17:27:52Z</time>
      </trkpt>
      <trkpt lat="43.64416" lon="1.39117">
        <ele>140</ele>
        <time>2024-04-25T17:27:53Z</time>
      </trkpt>
      <trkpt lat="43.64416" lon="1.39122">
        <ele>140</ele>
        <time>2024-04-25T17:27:55Z</time>
      </trkpt>
      <trkpt lat="43.64416" lon="1.39122">
        <ele>140</ele>
        <time>2024-04-25T17:27:56Z</time>
      </trkpt>
      <trkpt lat="43.64416" lon="1.39126">
        <ele>140</ele>
        <time>2024-04-25T17:27:57Z</time>
      </trkpt>
      <trkpt lat="43.64416" lon="1.39129">
        <ele>139</ele>
        <time>2024-04-25T17:27:58Z</time>
      </trkpt>
      <trkpt lat="43.64415" lon="1.39131">
        <ele>139</ele>
        <time>2024-04-25T17:27:59Z</time>
      </trkpt>
      <trkpt lat="43.64415" lon="1.39131">
        <ele>138</ele>
        <time>2024-04-25T17:28:00Z</time>
      </trkpt>
      <trkpt lat="43.64416" lon="1.39136">
        <ele>138</ele>
        <time>2024-04-25T17:28:01Z</time>
      </trkpt>
      <trkpt lat="43.64416" lon="1.39136">
        <ele>138</ele>
        <time>2024-04-25T17:28:02Z</time>
      </trkpt>
      <trkpt lat="43.64416" lon="1.3914">
        <ele>138</ele>
        <time>2024-04-25T17:28:03Z</time>
      </trkpt>
      <trkpt lat="43.64416" lon="1.3914">
        <ele>138</ele>
        <time>2024-04-25T17:28:04Z</time>
      </trkpt>
      <trkpt lat="43.64416" lon="1.39145">
        <ele>138</ele>
        <time>2024-04-25T17:28:05Z</time>
      </trkpt>
      <trkpt lat="43.64416" lon="1.39145">
        <ele>137</ele>
        <time>2024-04-25T17:28:06Z</time>
      </trkpt>
      <trkpt lat="43.64416" lon="1.39149">
        <ele>136</ele>
        <time>2024-04-25T17:28:07Z</time>
      </trkpt>
      <trkpt lat="43.64416" lon="1.39149">
        <ele>136</ele>
        <time>2024-04-25T17:28:08Z</time>
      </trkpt>
      <trkpt lat="43.64416" lon="1.39153">
        <ele>136</ele>
        <time>2024-04-25T17:28:09Z</time>
      </trkpt>
      <trkpt lat="43.64416" lon="1.39153">
        <ele>136</ele>
        <time>2024-04-25T17:28:10Z</time>
      </trkpt>
      <trkpt lat="43.64416" lon="1.39156">
        <ele>136</ele>
        <time>2024-04-25T17:28:11Z</time>
      </trkpt>
      <trkpt lat="43.64416" lon="1.39156">
        <ele>135</ele>
        <time>2024-04-25T17:28:12Z</time>
      </trkpt>
      <trkpt lat="43.64416" lon="1.39161">
        <ele>135</ele>
        <time>2024-04-25T17:28:13Z</time>
      </trkpt>
      <trkpt lat="43.64416" lon="1.39161">
        <ele>135</ele>
        <time>2024-04-25T17:28:14Z</time>
      </trkpt>
      <trkpt lat="43.64416" lon="1.39165">
        <ele>135</ele>
        <time>2024-04-25T17:28:15Z</time>
      </trkpt>
      <trkpt lat="43.64415" lon="1.39167">
        <ele>135</ele>
        <time>2024-04-25T17:28:16Z</time>
      </trkpt>
      <trkpt lat="43.64415" lon="1.3917">
        <ele>135</ele>
        <time>2024-04-25T17:28:17Z</time>
      </trkpt>
      <trkpt lat="43.64415" lon="1.3917">
        <ele>135</ele>
        <time>2024-04-25T17:28:18Z</time>
      </trkpt>
      <trkpt lat="43.64415" lon="1.39177">
        <ele>134</ele>
        <time>2024-04-25T17:28:19Z</time>
      </trkpt>
      <trkpt lat="43.64415" lon="1.39179">
        <ele>135</ele>
        <time>2024-04-25T17:28:21Z</time>
      </trkpt>
      <trkpt lat="43.64415" lon="1.39182">
        <ele>134</ele>
        <time>2024-04-25T17:28:22Z</time>
      </trkpt>
      <trkpt lat="43.64415" lon="1.39182">
        <ele>134</ele>
        <time>2024-04-25T17:28:23Z</time>
      </trkpt>
      <trkpt lat="43.64416" lon="1.39186">
        <ele>134</ele>
        <time>2024-04-25T17:28:24Z</time>
      </trkpt>
      <trkpt lat="43.64416" lon="1.39186">
        <ele>134</ele>
        <time>2024-04-25T17:28:25Z</time>
      </trkpt>
      <trkpt lat="43.64418" lon="1.39189">
        <ele>134</ele>
        <time>2024-04-25T17:28:26Z</time>
      </trkpt>
      <trkpt lat="43.64418" lon="1.39189">
        <ele>134</ele>
        <time>2024-04-25T17:28:27Z</time>
      </trkpt>
      <trkpt lat="43.64419" lon="1.39193">
        <ele>134</ele>
        <time>2024-04-25T17:28:28Z</time>
      </trkpt>
      <trkpt lat="43.64419" lon="1.39193">
        <ele>134</ele>
        <time>2024-04-25T17:28:29Z</time>
      </trkpt>
      <trkpt lat="43.64421" lon="1.39197">
        <ele>134</ele>
        <time>2024-04-25T17:28:30Z</time>
      </trkpt>
      <trkpt lat="43.64422" lon="1.39199">
        <ele>133</ele>
        <time>2024-04-25T17:28:31Z</time>
      </trkpt>
      <trkpt lat="43.64423" lon="1.39201">
        <ele>133</ele>
        <time>2024-04-25T17:28:32Z</time>
      </trkpt>
      <trkpt lat="43.64424" lon="1.39203">
        <ele>132</ele>
        <time>2024-04-25T17:28:33Z</time>
      </trkpt>
      <trkpt lat="43.64425" lon="1.39207">
        <ele>132</ele>
        <time>2024-04-25T17:28:34Z</time>
      </trkpt>
      <trkpt lat="43.64425" lon="1.39207">
        <ele>131</ele>
        <time>2024-04-25T17:28:35Z</time>
      </trkpt>
      <trkpt lat="43.64426" lon="1.39209">
        <ele>131</ele>
        <time>2024-04-25T17:28:36Z</time>
      </trkpt>
      <trkpt lat="43.64427" lon="1.39211">
        <ele>131</ele>
        <time>2024-04-25T17:28:37Z</time>
      </trkpt>
      <trkpt lat="43.64428" lon="1.39213">
        <ele>130</ele>
        <time>2024-04-25T17:28:38Z</time>
      </trkpt>
      <trkpt lat="43.6443" lon="1.39215">
        <ele>130</ele>
        <time>2024-04-25T17:28:39Z</time>
      </trkpt>
      <trkpt lat="43.6443" lon="1.39215">
        <ele>130</ele>
        <time>2024-04-25T17:28:40Z</time>
      </trkpt>
      <trkpt lat="43.64432" lon="1.39218">
        <ele>130</ele>
        <time>2024-04-25T17:28:41Z</time>
      </trkpt>
      <trkpt lat="43.64432" lon="1.39218">
        <ele>130</ele>
        <time>2024-04-25T17:28:42Z</time>
      </trkpt>
      <trkpt lat="43.64433" lon="1.39222">
        <ele>130</ele>
        <time>2024-04-25T17:28:43Z</time>
      </trkpt>
      <trkpt lat="43.64434" lon="1.39225">
        <ele>130</ele>
        <time>2024-04-25T17:28:44Z</time>
      </trkpt>
      <trkpt lat="43.64435" lon="1.39227">
        <ele>130</ele>
        <time>2024-04-25T17:28:45Z</time>
      </trkpt>
      <trkpt lat="43.64436" lon="1.39229">
        <ele>130</ele>
        <time>2024-04-25T17:28:46Z</time>
      </trkpt>
      <trkpt lat="43.64437" lon="1.39231">
        <ele>130</ele>
        <time>2024-04-25T17:28:47Z</time>
      </trkpt>
      <trkpt lat="43.64438" lon="1.39233">
        <ele>130</ele>
        <time>2024-04-25T17:28:48Z</time>
      </trkpt>
      <trkpt lat="43.64438" lon="1.39233">
        <ele>130</ele>
        <time>2024-04-25T17:28:49Z</time>
      </trkpt>
      <trkpt lat="43.6444" lon="1.39237">
        <ele>130</ele>
        <time>2024-04-25T17:28:50Z</time>
      </trkpt>
      <trkpt lat="43.6444" lon="1.39237">
        <ele>130</ele>
        <time>2024-04-25T17:28:51Z</time>
      </trkpt>
      <trkpt lat="43.64442" lon="1.39241">
        <ele>129</ele>
        <time>2024-04-25T17:28:52Z</time>
      </trkpt>
      <trkpt lat="43.64444" lon="1.39246">
        <ele>130</ele>
        <time>2024-04-25T17:28:53Z</time>
      </trkpt>
      <trkpt lat="43.64444" lon="1.39246">
        <ele>130</ele>
        <time>2024-04-25T17:28:54Z</time>
      </trkpt>
      <trkpt lat="43.64445" lon="1.39249">
        <ele>130</ele>
        <time>2024-04-25T17:28:55Z</time>
      </trkpt>
      <trkpt lat="43.64446" lon="1.39251">
        <ele>130</ele>
        <time>2024-04-25T17:28:56Z</time>
      </trkpt>
      <trkpt lat="43.64446" lon="1.39251">
        <ele>130</ele>
        <time>2024-04-25T17:28:57Z</time>
      </trkpt>
      <trkpt lat="43.64448" lon="1.39255">
        <ele>130</ele>
        <time>2024-04-25T17:28:58Z</time>
      </trkpt>
      <trkpt lat="43.64448" lon="1.39255">
        <ele>130</ele>
        <time>2024-04-25T17:28:59Z</time>
      </trkpt>
      <trkpt lat="43.64449" lon="1.39259">
        <ele>130</ele>
        <time>2024-04-25T17:29:00Z</time>
      </trkpt>
      <trkpt lat="43.6445" lon="1.39262">
        <ele>130</ele>
        <time>2024-04-25T17:29:01Z</time>
      </trkpt>
      <trkpt lat="43.6445" lon="1.39264">
        <ele>130</ele>
        <time>2024-04-25T17:29:02Z</time>
      </trkpt>
      <trkpt lat="43.6445" lon="1.39264">
        <ele>130</ele>
        <time>2024-04-25T17:29:03Z</time>
      </trkpt>
      <trkpt lat="43.64451" lon="1.39269">
        <ele>129</ele>
        <time>2024-04-25T17:29:04Z</time>
      </trkpt>
      <trkpt lat="43.6445" lon="1.39268">
        <ele>129</ele>
        <time>2024-04-25T17:29:05Z</time>
      </trkpt>
      <trkpt lat="43.6445" lon="1.39267">
        <ele>129</ele>
        <time>2024-04-25T17:29:06Z</time>
      </trkpt>
      <trkpt lat="43.6445" lon="1.39265">
        <ele>129</ele>
        <time>2024-04-25T17:29:07Z</time>
      </trkpt>
      <trkpt lat="43.64449" lon="1.39264">
        <ele>130</ele>
        <time>2024-04-25T17:29:08Z</time>
      </trkpt>
      <trkpt lat="43.64449" lon="1.39263">
        <ele>130</ele>
        <time>2024-04-25T17:29:09Z</time>
      </trkpt>
      <trkpt lat="43.64444" lon="1.39256">
        <ele>130</ele>
        <time>2024-04-25T17:29:10Z</time>
      </trkpt>
      <trkpt lat="43.64443" lon="1.39254">
        <ele>129</ele>
        <time>2024-04-25T17:29:11Z</time>
      </trkpt>
      <trkpt lat="43.6444" lon="1.39249">
        <ele>129</ele>
        <time>2024-04-25T17:29:12Z</time>
      </trkpt>
      <trkpt lat="43.64436" lon="1.39242">
        <ele>129</ele>
        <time>2024-04-25T17:29:13Z</time>
      </trkpt>
      <trkpt lat="43.64435" lon="1.39239">
        <ele>131</ele>
        <time>2024-04-25T17:29:14Z</time>
      </trkpt>
      <trkpt lat="43.64429" lon="1.3923">
        <ele>131</ele>
        <time>2024-04-25T17:29:15Z</time>
      </trkpt>
      <trkpt lat="43.64429" lon="1.3923">
        <ele>130</ele>
        <time>2024-04-25T17:29:16Z</time>
      </trkpt>
      <trkpt lat="43.64427" lon="1.39225">
        <ele>131</ele>
        <time>2024-04-25T17:29:17Z</time>
      </trkpt>
      <trkpt lat="43.64424" lon="1.39221">
        <ele>131</ele>
        <time>2024-04-25T17:29:18Z</time>
      </trkpt>
      <trkpt lat="43.64422" lon="1.39216">
        <ele>130</ele>
        <time>2024-04-25T17:29:19Z</time>
      </trkpt>
      <trkpt lat="43.64419" lon="1.39211">
        <ele>131</ele>
        <time>2024-04-25T17:29:20Z</time>
      </trkpt>
      <trkpt lat="43.64417" lon="1.39207">
        <ele>131</ele>
        <time>2024-04-25T17:29:21Z</time>
      </trkpt>
      <trkpt lat="43.64415" lon="1.39202">
        <ele>132</ele>
        <time>2024-04-25T17:29:22Z</time>
      </trkpt>
      <trkpt lat="43.64412" lon="1.39198">
        <ele>132</ele>
        <time>2024-04-25T17:29:23Z</time>
      </trkpt>
      <trkpt lat="43.6441" lon="1.39193">
        <ele>132</ele>
        <time>2024-04-25T17:29:24Z</time>
      </trkpt>
      <trkpt lat="43.64408" lon="1.39185">
        <ele>132</ele>
        <time>2024-04-25T17:29:25Z</time>
      </trkpt>
      <trkpt lat="43.64408" lon="1.39182">
        <ele>132</ele>
        <time>2024-04-25T17:29:26Z</time>
      </trkpt>
      <trkpt lat="43.64407" lon="1.39177">
        <ele>132</ele>
        <time>2024-04-25T17:29:27Z</time>
      </trkpt>
      <trkpt lat="43.64407" lon="1.39172">
        <ele>133</ele>
        <time>2024-04-25T17:29:28Z</time>
      </trkpt>
      <trkpt lat="43.64407" lon="1.39163">
        <ele>133</ele>
        <time>2024-04-25T17:29:29Z</time>
      </trkpt>
      <trkpt lat="43.64407" lon="1.39161">
        <ele>134</ele>
        <time>2024-04-25T17:29:30Z</time>
      </trkpt>
      <trkpt lat="43.64407" lon="1.39155">
        <ele>135</ele>
        <time>2024-04-25T17:29:31Z</time>
      </trkpt>
      <trkpt lat="43.64408" lon="1.39149">
        <ele>135</ele>
        <time>2024-04-25T17:29:32Z</time>
      </trkpt>
      <trkpt lat="43.6441" lon="1.39139">
        <ele>136</ele>
        <time>2024-04-25T17:29:33Z</time>
      </trkpt>
      <trkpt lat="43.6441" lon="1.39139">
        <ele>137</ele>
        <time>2024-04-25T17:29:34Z</time>
      </trkpt>
      <trkpt lat="43.64411" lon="1.39134">
        <ele>138</ele>
        <time>2024-04-25T17:29:35Z</time>
      </trkpt>
      <trkpt lat="43.64412" lon="1.39129">
        <ele>138</ele>
        <time>2024-04-25T17:29:36Z</time>
      </trkpt>
      <trkpt lat="43.64413" lon="1.39125">
        <ele>138</ele>
        <time>2024-04-25T17:29:37Z</time>
      </trkpt>
      <trkpt lat="43.64415" lon="1.39119">
        <ele>138</ele>
        <time>2024-04-25T17:29:38Z</time>
      </trkpt>
      <trkpt lat="43.64416" lon="1.39117">
        <ele>139</ele>
        <time>2024-04-25T17:29:39Z</time>
      </trkpt>
      <trkpt lat="43.64417" lon="1.39114">
        <ele>139</ele>
        <time>2024-04-25T17:29:40Z</time>
      </trkpt>
      <trkpt lat="43.64417" lon="1.39114">
        <ele>139</ele>
        <time>2024-04-25T17:29:41Z</time>
      </trkpt>
      <trkpt lat="43.64417" lon="1.39114">
        <ele>139</ele>
        <time>2024-04-25T17:29:42Z</time>
      </trkpt>
      <trkpt lat="43.64417" lon="1.39114">
        <ele>139</ele>
        <time>2024-04-25T17:29:43Z</time>
      </trkpt>
      <trkpt lat="43.64417" lon="1.39114">
        <ele>139</ele>
        <time>2024-04-25T17:29:44Z</time>
      </trkpt>
      <trkpt lat="43.64417" lon="1.39114">
        <ele>139</ele>
        <time>2024-04-25T17:29:45Z</time>
      </trkpt>
      <trkpt lat="43.64417" lon="1.39118">
        <ele>139</ele>
        <time>2024-04-25T17:29:46Z</time>
      </trkpt>
      <trkpt lat="43.64417" lon="1.39118">
        <ele>139</ele>
        <time>2024-04-25T17:29:47Z</time>
      </trkpt>
      <trkpt lat="43.64416" lon="1.39121">
        <ele>139</ele>
        <time>2024-04-25T17:29:48Z</time>
      </trkpt>
      <trkpt lat="43.64416" lon="1.39121">
        <ele>139</ele>
        <time>2024-04-25T17:29:49Z</time>
      </trkpt>
      <trkpt lat="43.64416" lon="1.39126">
        <ele>139</ele>
        <time>2024-04-25T17:29:50Z</time>
      </trkpt>
      <trkpt lat="43.64416" lon="1.39129">
        <ele>138</ele>
        <time>2024-04-25T17:29:51Z</time>
      </trkpt>
      <trkpt lat="43.64416" lon="1.39132">
        <ele>138</ele>
        <time>2024-04-25T17:29:52Z</time>
      </trkpt>
      <trkpt lat="43.64416" lon="1.39132">
        <ele>138</ele>
        <time>2024-04-25T17:29:53Z</time>
      </trkpt>
      <trkpt lat="43.64416" lon="1.39136">
        <ele>138</ele>
        <time>2024-04-25T17:29:54Z</time>
      </trkpt>
      <trkpt lat="43.64416" lon="1.39136">
        <ele>138</ele>
        <time>2024-04-25T17:29:55Z</time>
      </trkpt>
      <trkpt lat="43.64415" lon="1.39141">
        <ele>138</ele>
        <time>2024-04-25T17:29:56Z</time>
      </trkpt>
      <trkpt lat="43.64415" lon="1.39141">
        <ele>137</ele>
        <time>2024-04-25T17:29:57Z</time>
      </trkpt>
      <trkpt lat="43.64415" lon="1.39146">
        <ele>137</ele>
        <time>2024-04-25T17:29:58Z</time>
      </trkpt>
      <trkpt lat="43.64415" lon="1.39149">
        <ele>137</ele>
        <time>2024-04-25T17:29:59Z</time>
      </trkpt>
      <trkpt lat="43.64415" lon="1.39151">
        <ele>137</ele>
        <time>2024-04-25T17:30:00Z</time>
      </trkpt>
      <trkpt lat="43.64415" lon="1.39151">
        <ele>137</ele>
        <time>2024-04-25T17:30:01Z</time>
      </trkpt>
      <trkpt lat="43.64415" lon="1.39156">
        <ele>136</ele>
        <time>2024-04-25T17:30:02Z</time>
      </trkpt>
      <trkpt lat="43.64415" lon="1.39156">
        <ele>136</ele>
        <time>2024-04-25T17:30:03Z</time>
      </trkpt>
      <trkpt lat="43.64414" lon="1.39161">
        <ele>136</ele>
        <time>2024-04-25T17:30:04Z</time>
      </trkpt>
      <trkpt lat="43.64414" lon="1.39161">
        <ele>136</ele>
        <time>2024-04-25T17:30:05Z</time>
      </trkpt>
      <trkpt lat="43.64413" lon="1.39165">
        <ele>136</ele>
        <time>2024-04-25T17:30:06Z</time>
      </trkpt>
      <trkpt lat="43.64413" lon="1.39169">
        <ele>136</ele>
        <time>2024-04-25T17:30:08Z</time>
      </trkpt>
      <trkpt lat="43.64413" lon="1.39169">
        <ele>136</ele>
        <time>2024-04-25T17:30:09Z</time>
      </trkpt>
      <trkpt lat="43.64414" lon="1.39174">
        <ele>135</ele>
        <time>2024-04-25T17:30:10Z</time>
      </trkpt>
      <trkpt lat="43.64414" lon="1.39174">
        <ele>135</ele>
        <time>2024-04-25T17:30:11Z</time>
      </trkpt>
      <trkpt lat="43.64414" lon="1.39178">
        <ele>135</ele>
        <time>2024-04-25T17:30:12Z</time>
      </trkpt>
      <trkpt lat="43.64414" lon="1.39178">
        <ele>134</ele>
        <time>2024-04-25T17:30:13Z</time>
      </trkpt>
      <trkpt lat="43.64415" lon="1.39182">
        <ele>133</ele>
        <time>2024-04-25T17:30:14Z</time>
      </trkpt>
      <trkpt lat="43.64415" lon="1.39182">
        <ele>133</ele>
        <time>2024-04-25T17:30:15Z</time>
      </trkpt>
      <trkpt lat="43.64416" lon="1.39185">
        <ele>133</ele>
        <time>2024-04-25T17:30:16Z</time>
      </trkpt>
      <trkpt lat="43.64416" lon="1.39185">
        <ele>133</ele>
        <time>2024-04-25T17:30:17Z</time>
      </trkpt>
      <trkpt lat="43.64417" lon="1.39188">
        <ele>133</ele>
        <time>2024-04-25T17:30:18Z</time>
      </trkpt>
      <trkpt lat="43.64417" lon="1.39188">
        <ele>133</ele>
        <time>2024-04-25T17:30:19Z</time>
      </trkpt>
      <trkpt lat="43.64419" lon="1.39191">
        <ele>133</ele>
        <time>2024-04-25T17:30:20Z</time>
      </trkpt>
      <trkpt lat="43.64419" lon="1.39191">
        <ele>133</ele>
        <time>2024-04-25T17:30:21Z</time>
      </trkpt>
      <trkpt lat="43.64421" lon="1.39195">
        <ele>133</ele>
        <time>2024-04-25T17:30:22Z</time>
      </trkpt>
      <trkpt lat="43.64422" lon="1.39199">
        <ele>133</ele>
        <time>2024-04-25T17:30:23Z</time>
      </trkpt>
      <trkpt lat="43.64422" lon="1.39199">
        <ele>133</ele>
        <time>2024-04-25T17:30:24Z</time>
      </trkpt>
      <trkpt lat="43.64422" lon="1.39199">
        <ele>133</ele>
        <time>2024-04-25T17:30:25Z</time>
      </trkpt>
      <trkpt lat="43.64424" lon="1.39203">
        <ele>133</ele>
        <time>2024-04-25T17:30:26Z</time>
      </trkpt>
      <trkpt lat="43.64424" lon="1.39203">
        <ele>132</ele>
        <time>2024-04-25T17:30:27Z</time>
      </trkpt>
      <trkpt lat="43.64425" lon="1.39207">
        <ele>132</ele>
        <time>2024-04-25T17:30:28Z</time>
      </trkpt>
      <trkpt lat="43.64427" lon="1.39209">
        <ele>132</ele>
        <time>2024-04-25T17:30:29Z</time>
      </trkpt>
      <trkpt lat="43.64427" lon="1.39209">
        <ele>132</ele>
        <time>2024-04-25T17:30:30Z</time>
      </trkpt>
      <trkpt lat="43.64429" lon="1.39213">
        <ele>132</ele>
        <time>2024-04-25T17:30:31Z</time>
      </trkpt>
      <trkpt lat="43.64429" lon="1.39213">
        <ele>132</ele>
        <time>2024-04-25T17:30:32Z</time>
      </trkpt>
      <trkpt lat="43.6443" lon="1.39218">
        <ele>131</ele>
        <time>2024-04-25T17:30:33Z</time>
      </trkpt>
      <trkpt lat="43.64431" lon="1.3922">
        <ele>130</ele>
        <time>2024-04-25T17:30:34Z</time>
      </trkpt>
      <trkpt lat="43.64431" lon="1.3922">
        <ele>130</ele>
        <time>2024-04-25T17:30:35Z</time>
      </trkpt>
      <trkpt lat="43.64433" lon="1.39223">
        <ele>130</ele>
        <time>2024-04-25T17:30:36Z</time>
      </trkpt>
      <trkpt lat="43.64433" lon="1.39223">
        <ele>130</ele>
        <time>2024-04-25T17:30:37Z</time>
      </trkpt>
      <trkpt lat="43.64435" lon="1.39226">
        <ele>130</ele>
        <time>2024-04-25T17:30:38Z</time>
      </trkpt>
      <trkpt lat="43.64435" lon="1.39226">
        <ele>130</ele>
        <time>2024-04-25T17:30:39Z</time>
      </trkpt>
      <trkpt lat="43.64437" lon="1.39229">
        <ele>130</ele>
        <time>2024-04-25T17:30:40Z</time>
      </trkpt>
      <trkpt lat="43.64438" lon="1.39231">
        <ele>130</ele>
        <time>2024-04-25T17:30:41Z</time>
      </trkpt>
      <trkpt lat="43.64439" lon="1.39233">
        <ele>130</ele>
        <time>2024-04-25T17:30:42Z</time>
      </trkpt>
      <trkpt lat="43.64439" lon="1.39233">
        <ele>129</ele>
        <time>2024-04-25T17:30:43Z</time>
      </trkpt>
      <trkpt lat="43.64442" lon="1.39237">
        <ele>130</ele>
        <time>2024-04-25T17:30:44Z</time>
      </trkpt>
      <trkpt lat="43.64443" lon="1.39241">
        <ele>130</ele>
        <time>2024-04-25T17:30:46Z</time>
      </trkpt>
      <trkpt lat="43.64444" lon="1.39243">
        <ele>130</ele>
        <time>2024-04-25T17:30:47Z</time>
      </trkpt>
      <trkpt lat="43.64445" lon="1.39245">
        <ele>130</ele>
        <time>2024-04-25T17:30:48Z</time>
      </trkpt>
      <trkpt lat="43.64445" lon="1.39245">
        <ele>130</ele>
        <time>2024-04-25T17:30:49Z</time>
      </trkpt>
      <trkpt lat="43.64447" lon="1.3925">
        <ele>129</ele>
        <time>2024-04-25T17:30:50Z</time>
      </trkpt>
      <trkpt lat="43.64449" lon="1.39253">
        <ele>129</ele>
        <time>2024-04-25T17:30:51Z</time>
      </trkpt>
      <trkpt lat="43.6445" lon="1.39255">
        <ele>129</ele>
        <time>2024-04-25T17:30:52Z</time>
      </trkpt>
      <trkpt lat="43.64451" lon="1.39258">
        <ele>129</ele>
        <time>2024-04-25T17:30:53Z</time>
      </trkpt>
      <trkpt lat="43.64452" lon="1.39261">
        <ele>129</ele>
        <time>2024-04-25T17:30:54Z</time>
      </trkpt>
      <trkpt lat="43.64452" lon="1.39264">
        <ele>129</ele>
        <time>2024-04-25T17:30:55Z</time>
      </trkpt>
      <trkpt lat="43.64453" lon="1.39266">
        <ele>129</ele>
        <time>2024-04-25T17:30:56Z</time>
      </trkpt>
      <trkpt lat="43.64453" lon="1.39269">
        <ele>129</ele>
        <time>2024-04-25T17:30:57Z</time>
      </trkpt>
      <trkpt lat="43.64452" lon="1.39267">
        <ele>129</ele>
        <time>2024-04-25T17:30:58Z</time>
      </trkpt>
      <trkpt lat="43.64452" lon="1.39266">
        <ele>130</ele>
        <time>2024-04-25T17:30:59Z</time>
      </trkpt>
      <trkpt lat="43.64451" lon="1.39264">
        <ele>130</ele>
        <time>2024-04-25T17:31:00Z</time>
      </trkpt>
      <trkpt lat="43.64451" lon="1.39263">
        <ele>130</ele>
        <time>2024-04-25T17:31:01Z</time>
      </trkpt>
      <trkpt lat="43.64449" lon="1.39258">
        <ele>130</ele>
        <time>2024-04-25T17:31:02Z</time>
      </trkpt>
      <trkpt lat="43.64446" lon="1.39253">
        <ele>130</ele>
        <time>2024-04-25T17:31:03Z</time>
      </trkpt>
      <trkpt lat="43.64442" lon="1.39246">
        <ele>130</ele>
        <time>2024-04-25T17:31:04Z</time>
      </trkpt>
      <trkpt lat="43.64441" lon="1.39244">
        <ele>130</ele>
        <time>2024-04-25T17:31:05Z</time>
      </trkpt>
      <trkpt lat="43.64438" lon="1.3924">
        <ele>130</ele>
        <time>2024-04-25T17:31:06Z</time>
      </trkpt>
      <trkpt lat="43.64435" lon="1.39236">
        <ele>130</ele>
        <time>2024-04-25T17:31:07Z</time>
      </trkpt>
      <trkpt lat="43.64432" lon="1.39231">
        <ele>130</ele>
        <time>2024-04-25T17:31:08Z</time>
      </trkpt>
      <trkpt lat="43.64427" lon="1.39222">
        <ele>130</ele>
        <time>2024-04-25T17:31:09Z</time>
      </trkpt>
      <trkpt lat="43.64427" lon="1.39222">
        <ele>130</ele>
        <time>2024-04-25T17:31:10Z</time>
      </trkpt>
      <trkpt lat="43.64424" lon="1.39218">
        <ele>130</ele>
        <time>2024-04-25T17:31:11Z</time>
      </trkpt>
      <trkpt lat="43.64421" lon="1.39213">
        <ele>130</ele>
        <time>2024-04-25T17:31:12Z</time>
      </trkpt>
      <trkpt lat="43.64419" lon="1.39209">
        <ele>131</ele>
        <time>2024-04-25T17:31:13Z</time>
      </trkpt>
      <trkpt lat="43.64417" lon="1.39205">
        <ele>131</ele>
        <time>2024-04-25T17:31:14Z</time>
      </trkpt>
      <trkpt lat="43.64415" lon="1.392">
        <ele>132</ele>
        <time>2024-04-25T17:31:15Z</time>
      </trkpt>
      <trkpt lat="43.64411" lon="1.39191">
        <ele>132</ele>
        <time>2024-04-25T17:31:16Z</time>
      </trkpt>
      <trkpt lat="43.64409" lon="1.39187">
        <ele>133</ele>
        <time>2024-04-25T17:31:18Z</time>
      </trkpt>
      <trkpt lat="43.64408" lon="1.39181">
        <ele>133</ele>
        <time>2024-04-25T17:31:19Z</time>
      </trkpt>
      <trkpt lat="43.64408" lon="1.39176">
        <ele>134</ele>
        <time>2024-04-25T17:31:20Z</time>
      </trkpt>
      <trkpt lat="43.64408" lon="1.3917">
        <ele>135</ele>
        <time>2024-04-25T17:31:21Z</time>
      </trkpt>
      <trkpt lat="43.64408" lon="1.39165">
        <ele>135</ele>
        <time>2024-04-25T17:31:22Z</time>
      </trkpt>
      <trkpt lat="43.64409" lon="1.39156">
        <ele>135</ele>
        <time>2024-04-25T17:31:23Z</time>
      </trkpt>
      <trkpt lat="43.64409" lon="1.39154">
        <ele>135</ele>
        <time>2024-04-25T17:31:24Z</time>
      </trkpt>
      <trkpt lat="43.64411" lon="1.39149">
        <ele>136</ele>
        <time>2024-04-25T17:31:25Z</time>
      </trkpt>
      <trkpt lat="43.64412" lon="1.39144">
        <ele>137</ele>
        <time>2024-04-25T17:31:26Z</time>
      </trkpt>
      <trkpt lat="43.64415" lon="1.39134">
        <ele>137</ele>
        <time>2024-04-25T17:31:27Z</time>
      </trkpt>
      <trkpt lat="43.64415" lon="1.39134">
        <ele>137</ele>
        <time>2024-04-25T17:31:28Z</time>
      </trkpt>
      <trkpt lat="43.64416" lon="1.39128">
        <ele>137</ele>
        <time>2024-04-25T17:31:29Z</time>
      </trkpt>
      <trkpt lat="43.64417" lon="1.39122">
        <ele>137</ele>
        <time>2024-04-25T17:31:30Z</time>
      </trkpt>
      <trkpt lat="43.64418" lon="1.3912">
        <ele>139</ele>
        <time>2024-04-25T17:31:31Z</time>
      </trkpt>
      <trkpt lat="43.64419" lon="1.39118">
        <ele>139</ele>
        <time>2024-04-25T17:31:32Z</time>
      </trkpt>
      <trkpt lat="43.64419" lon="1.39118">
        <ele>139</ele>
        <time>2024-04-25T17:31:33Z</time>
      </trkpt>
      <trkpt lat="43.64419" lon="1.39115">
        <ele>139</ele>
        <time>2024-04-25T17:31:34Z</time>
      </trkpt>
      <trkpt lat="43.64419" lon="1.39115">
        <ele>139</ele>
        <time>2024-04-25T17:31:35Z</time>
      </trkpt>
      <trkpt lat="43.6442" lon="1.39118">
        <ele>139</ele>
        <time>2024-04-25T17:31:36Z</time>
      </trkpt>
      <trkpt lat="43.6442" lon="1.39118">
        <ele>139</ele>
        <time>2024-04-25T17:31:37Z</time>
      </trkpt>
      <trkpt lat="43.64419" lon="1.39121">
        <ele>139</ele>
        <time>2024-04-25T17:31:38Z</time>
      </trkpt>
      <trkpt lat="43.64419" lon="1.39121">
        <ele>139</ele>
        <time>2024-04-25T17:31:39Z</time>
      </trkpt>
      <trkpt lat="43.64419" lon="1.39124">
        <ele>139</ele>
        <time>2024-04-25T17:31:40Z</time>
      </trkpt>
      <trkpt lat="43.64419" lon="1.39124">
        <ele>139</ele>
        <time>2024-04-25T17:31:41Z</time>
      </trkpt>
      <trkpt lat="43.64418" lon="1.39129">
        <ele>139</ele>
        <time>2024-04-25T17:31:42Z</time>
      </trkpt>
      <trkpt lat="43.64418" lon="1.39129">
        <ele>139</ele>
        <time>2024-04-25T17:31:43Z</time>
      </trkpt>
      <trkpt lat="43.64417" lon="1.39133">
        <ele>139</ele>
        <time>2024-04-25T17:31:44Z</time>
      </trkpt>
      <trkpt lat="43.64417" lon="1.39133">
        <ele>139</ele>
        <time>2024-04-25T17:31:45Z</time>
      </trkpt>
      <trkpt lat="43.64417" lon="1.39137">
        <ele>138</ele>
        <time>2024-04-25T17:31:46Z</time>
      </trkpt>
      <trkpt lat="43.64417" lon="1.39137">
        <ele>138</ele>
        <time>2024-04-25T17:31:47Z</time>
      </trkpt>
      <trkpt lat="43.64416" lon="1.3914">
        <ele>137</ele>
        <time>2024-04-25T17:31:48Z</time>
      </trkpt>
      <trkpt lat="43.64416" lon="1.3914">
        <ele>137</ele>
        <time>2024-04-25T17:31:49Z</time>
      </trkpt>
      <trkpt lat="43.64416" lon="1.39144">
        <ele>137</ele>
        <time>2024-04-25T17:31:50Z</time>
      </trkpt>
      <trkpt lat="43.64416" lon="1.39144">
        <ele>137</ele>
        <time>2024-04-25T17:31:51Z</time>
      </trkpt>
      <trkpt lat="43.64415" lon="1.39148">
        <ele>137</ele>
        <time>2024-04-25T17:31:52Z</time>
      </trkpt>
      <trkpt lat="43.64415" lon="1.39148">
        <ele>137</ele>
        <time>2024-04-25T17:31:53Z</time>
      </trkpt>
      <trkpt lat="43.64414" lon="1.39153">
        <ele>137</ele>
        <time>2024-04-25T17:31:54Z</time>
      </trkpt>
      <trkpt lat="43.64413" lon="1.39155">
        <ele>137</ele>
        <time>2024-04-25T17:31:55Z</time>
      </trkpt>
      <trkpt lat="43.64413" lon="1.39155">
        <ele>136</ele>
        <time>2024-04-25T17:31:56Z</time>
      </trkpt>
      <trkpt lat="43.64412" lon="1.3916">
        <ele>136</ele>
        <time>2024-04-25T17:31:57Z</time>
      </trkpt>
      <trkpt lat="43.64412" lon="1.3916">
        <ele>136</ele>
        <time>2024-04-25T17:31:58Z</time>
      </trkpt>
      <trkpt lat="43.64411" lon="1.39165">
        <ele>136</ele>
        <time>2024-04-25T17:31:59Z</time>
      </trkpt>
      <trkpt lat="43.64411" lon="1.39165">
        <ele>135</ele>
        <time>2024-04-25T17:32:00Z</time>
      </trkpt>
      <trkpt lat="43.64411" lon="1.39169">
        <ele>135</ele>
        <time>2024-04-25T17:32:01Z</time>
      </trkpt>
      <trkpt lat="43.64411" lon="1.39174">
        <ele>135</ele>
        <time>2024-04-25T17:32:02Z</time>
      </trkpt>
      <trkpt lat="43.64412" lon="1.39178">
        <ele>135</ele>
        <time>2024-04-25T17:32:04Z</time>
      </trkpt>
      <trkpt lat="43.64412" lon="1.39178">
        <ele>135</ele>
        <time>2024-04-25T17:32:05Z</time>
      </trkpt>
      <trkpt lat="43.64412" lon="1.39178">
        <ele>135</ele>
        <time>2024-04-25T17:32:06Z</time>
      </trkpt>
      <trkpt lat="43.64413" lon="1.39182">
        <ele>135</ele>
        <time>2024-04-25T17:32:07Z</time>
      </trkpt>
      <trkpt lat="43.64413" lon="1.39182">
        <ele>135</ele>
        <time>2024-04-25T17:32:08Z</time>
      </trkpt>
      <trkpt lat="43.64415" lon="1.39186">
        <ele>135</ele>
        <time>2024-04-25T17:32:09Z</time>
      </trkpt>
      <trkpt lat="43.64415" lon="1.39186">
        <ele>135</ele>
        <time>2024-04-25T17:32:10Z</time>
      </trkpt>
      <trkpt lat="43.64416" lon="1.39189">
        <ele>135</ele>
        <time>2024-04-25T17:32:11Z</time>
      </trkpt>
      <trkpt lat="43.64416" lon="1.39189">
        <ele>135</ele>
        <time>2024-04-25T17:32:12Z</time>
      </trkpt>
      <trkpt lat="43.64418" lon="1.39193">
        <ele>135</ele>
        <time>2024-04-25T17:32:13Z</time>
      </trkpt>
      <trkpt lat="43.64418" lon="1.39193">
        <ele>134</ele>
        <time>2024-04-25T17:32:14Z</time>
      </trkpt>
      <trkpt lat="43.64419" lon="1.39197">
        <ele>134</ele>
        <time>2024-04-25T17:32:15Z</time>
      </trkpt>
      <trkpt lat="43.64419" lon="1.39197">
        <ele>133</ele>
        <time>2024-04-25T17:32:16Z</time>
      </trkpt>
      <trkpt lat="43.64421" lon="1.392">
        <ele>133</ele>
        <time>2024-04-25T17:32:17Z</time>
      </trkpt>
      <trkpt lat="43.64421" lon="1.392">
        <ele>133</ele>
        <time>2024-04-25T17:32:18Z</time>
      </trkpt>
      <trkpt lat="43.64423" lon="1.39204">
        <ele>133</ele>
        <time>2024-04-25T17:32:19Z</time>
      </trkpt>
      <trkpt lat="43.64425" lon="1.39207">
        <ele>133</ele>
        <time>2024-04-25T17:32:21Z</time>
      </trkpt>
      <trkpt lat="43.64425" lon="1.39207">
        <ele>133</ele>
        <time>2024-04-25T17:32:22Z</time>
      </trkpt>
      <trkpt lat="43.64428" lon="1.3921">
        <ele>133</ele>
        <time>2024-04-25T17:32:23Z</time>
      </trkpt>
      <trkpt lat="43.64428" lon="1.3921">
        <ele>132</ele>
        <time>2024-04-25T17:32:24Z</time>
      </trkpt>
      <trkpt lat="43.6443" lon="1.39214">
        <ele>132</ele>
        <time>2024-04-25T17:32:25Z</time>
      </trkpt>
      <trkpt lat="43.6443" lon="1.39214">
        <ele>131</ele>
        <time>2024-04-25T17:32:26Z</time>
      </trkpt>
      <trkpt lat="43.64432" lon="1.39217">
        <ele>131</ele>
        <time>2024-04-25T17:32:27Z</time>
      </trkpt>
      <trkpt lat="43.64432" lon="1.39217">
        <ele>131</ele>
        <time>2024-04-25T17:32:28Z</time>
      </trkpt>
      <trkpt lat="43.64433" lon="1.39221">
        <ele>131</ele>
        <time>2024-04-25T17:32:29Z</time>
      </trkpt>
      <trkpt lat="43.64433" lon="1.39221">
        <ele>131</ele>
        <time>2024-04-25T17:32:30Z</time>
      </trkpt>
      <trkpt lat="43.64434" lon="1.39225">
        <ele>131</ele>
        <time>2024-04-25T17:32:31Z</time>
      </trkpt>
      <trkpt lat="43.64434" lon="1.39225">
        <ele>131</ele>
        <time>2024-04-25T17:32:32Z</time>
      </trkpt>
      <trkpt lat="43.64436" lon="1.39229">
        <ele>131</ele>
        <time>2024-04-25T17:32:33Z</time>
      </trkpt>
      <trkpt lat="43.64437" lon="1.3923">
        <ele>130</ele>
        <time>2024-04-25T17:32:34Z</time>
      </trkpt>
      <trkpt lat="43.64438" lon="1.39232">
        <ele>130</ele>
        <time>2024-04-25T17:32:35Z</time>
      </trkpt>
      <trkpt lat="43.64439" lon="1.39234">
        <ele>130</ele>
        <time>2024-04-25T17:32:36Z</time>
      </trkpt>
      <trkpt lat="43.64441" lon="1.39236">
        <ele>130</ele>
        <time>2024-04-25T17:32:37Z</time>
      </trkpt>
      <trkpt lat="43.64442" lon="1.39238">
        <ele>130</ele>
        <time>2024-04-25T17:32:38Z</time>
      </trkpt>
      <trkpt lat="43.64443" lon="1.3924">
        <ele>130</ele>
        <time>2024-04-25T17:32:39Z</time>
      </trkpt>
      <trkpt lat="43.64443" lon="1.3924">
        <ele>130</ele>
        <time>2024-04-25T17:32:40Z</time>
      </trkpt>
      <trkpt lat="43.64445" lon="1.39244">
        <ele>130</ele>
        <time>2024-04-25T17:32:41Z</time>
      </trkpt>
      <trkpt lat="43.64446" lon="1.39247">
        <ele>130</ele>
        <time>2024-04-25T17:32:42Z</time>
      </trkpt>
      <trkpt lat="43.64448" lon="1.39249">
        <ele>131</ele>
        <time>2024-04-25T17:32:43Z</time>
      </trkpt>
      <trkpt lat="43.64449" lon="1.39252">
        <ele>131</ele>
        <time>2024-04-25T17:32:44Z</time>
      </trkpt>
      <trkpt lat="43.6445" lon="1.39254">
        <ele>131</ele>
        <time>2024-04-25T17:32:45Z</time>
      </trkpt>
      <trkpt lat="43.6445" lon="1.39257">
        <ele>130</ele>
        <time>2024-04-25T17:32:46Z</time>
      </trkpt>
      <trkpt lat="43.64451" lon="1.39259">
        <ele>130</ele>
        <time>2024-04-25T17:32:47Z</time>
      </trkpt>
      <trkpt lat="43.64453" lon="1.39262">
        <ele>130</ele>
        <time>2024-04-25T17:32:48Z</time>
      </trkpt>
      <trkpt lat="43.64453" lon="1.39265">
        <ele>130</ele>
        <time>2024-04-25T17:32:49Z</time>
      </trkpt>
      <trkpt lat="43.64454" lon="1.39267">
        <ele>130</ele>
        <time>2024-04-25T17:32:50Z</time>
      </trkpt>
      <trkpt lat="43.64454" lon="1.39267">
        <ele>130</ele>
        <time>2024-04-25T17:32:51Z</time>
      </trkpt>
      <trkpt lat="43.64454" lon="1.3927">
        <ele>131</ele>
        <time>2024-04-25T17:32:52Z</time>
      </trkpt>
      <trkpt lat="43.64453" lon="1.39268">
        <ele>131</ele>
        <time>2024-04-25T17:32:53Z</time>
      </trkpt>
      <trkpt lat="43.64452" lon="1.39266">
        <ele>131</ele>
        <time>2024-04-25T17:32:54Z</time>
      </trkpt>
      <trkpt lat="43.6445" lon="1.39261">
        <ele>131</ele>
        <time>2024-04-25T17:32:55Z</time>
      </trkpt>
      <trkpt lat="43.64448" lon="1.39257">
        <ele>131</ele>
        <time>2024-04-25T17:32:56Z</time>
      </trkpt>
      <trkpt lat="43.64444" lon="1.3925">
        <ele>131</ele>
        <time>2024-04-25T17:32:57Z</time>
      </trkpt>
      <trkpt lat="43.64443" lon="1.39248">
        <ele>131</ele>
        <time>2024-04-25T17:32:58Z</time>
      </trkpt>
      <trkpt lat="43.6444" lon="1.39243">
        <ele>130</ele>
        <time>2024-04-25T17:32:59Z</time>
      </trkpt>
      <trkpt lat="43.64437" lon="1.39239">
        <ele>130</ele>
        <time>2024-04-25T17:33:00Z</time>
      </trkpt>
      <trkpt lat="43.64434" lon="1.39235">
        <ele>130</ele>
        <time>2024-04-25T17:33:01Z</time>
      </trkpt>
      <trkpt lat="43.64429" lon="1.39225">
        <ele>130</ele>
        <time>2024-04-25T17:33:02Z</time>
      </trkpt>
      <trkpt lat="43.64429" lon="1.39225">
        <ele>130</ele>
        <time>2024-04-25T17:33:03Z</time>
      </trkpt>
      <trkpt lat="43.64426" lon="1.39221">
        <ele>131</ele>
        <time>2024-04-25T17:33:04Z</time>
      </trkpt>
      <trkpt lat="43.64423" lon="1.39217">
        <ele>131</ele>
        <time>2024-04-25T17:33:05Z</time>
      </trkpt>
      <trkpt lat="43.64421" lon="1.39212">
        <ele>131</ele>
        <time>2024-04-25T17:33:06Z</time>
      </trkpt>
      <trkpt lat="43.64418" lon="1.39208">
        <ele>131</ele>
        <time>2024-04-25T17:33:07Z</time>
      </trkpt>
      <trkpt lat="43.64416" lon="1.39202">
        <ele>131</ele>
        <time>2024-04-25T17:33:08Z</time>
      </trkpt>
      <trkpt lat="43.64412" lon="1.39195">
        <ele>131</ele>
        <time>2024-04-25T17:33:09Z</time>
      </trkpt>
      <trkpt lat="43.64411" lon="1.39193">
        <ele>132</ele>
        <time>2024-04-25T17:33:10Z</time>
      </trkpt>
      <trkpt lat="43.6441" lon="1.39188">
        <ele>133</ele>
        <time>2024-04-25T17:33:11Z</time>
      </trkpt>
      <trkpt lat="43.64408" lon="1.39183">
        <ele>133</ele>
        <time>2024-04-25T17:33:12Z</time>
      </trkpt>
      <trkpt lat="43.64407" lon="1.39177">
        <ele>133</ele>
        <time>2024-04-25T17:33:13Z</time>
      </trkpt>
      <trkpt lat="43.64407" lon="1.39172">
        <ele>134</ele>
        <time>2024-04-25T17:33:14Z</time>
      </trkpt>
      <trkpt lat="43.64406" lon="1.39166">
        <ele>134</ele>
        <time>2024-04-25T17:33:15Z</time>
      </trkpt>
      <trkpt lat="43.64407" lon="1.39161">
        <ele>135</ele>
        <time>2024-04-25T17:33:16Z</time>
      </trkpt>
      <trkpt lat="43.64409" lon="1.3915">
        <ele>135</ele>
        <time>2024-04-25T17:33:17Z</time>
      </trkpt>
      <trkpt lat="43.6441" lon="1.39145">
        <ele>136</ele>
        <time>2024-04-25T17:33:18Z</time>
      </trkpt>
      <trkpt lat="43.6441" lon="1.39145">
        <ele>136</ele>
        <time>2024-04-25T17:33:19Z</time>
      </trkpt>
      <trkpt lat="43.64413" lon="1.39136">
        <ele>137</ele>
        <time>2024-04-25T17:33:20Z</time>
      </trkpt>
      <trkpt lat="43.64413" lon="1.39136">
        <ele>138</ele>
        <time>2024-04-25T17:33:21Z</time>
      </trkpt>
      <trkpt lat="43.64414" lon="1.3913">
        <ele>138</ele>
        <time>2024-04-25T17:33:22Z</time>
      </trkpt>
      <trkpt lat="43.64415" lon="1.39128">
        <ele>138</ele>
        <time>2024-04-25T17:33:23Z</time>
      </trkpt>
      <trkpt lat="43.64416" lon="1.39124">
        <ele>139</ele>
        <time>2024-04-25T17:33:24Z</time>
      </trkpt>
      <trkpt lat="43.64417" lon="1.3912">
        <ele>139</ele>
        <time>2024-04-25T17:33:25Z</time>
      </trkpt>
      <trkpt lat="43.64418" lon="1.39117">
        <ele>139</ele>
        <time>2024-04-25T17:33:26Z</time>
      </trkpt>
      <trkpt lat="43.64419" lon="1.39115">
        <ele>139</ele>
        <time>2024-04-25T17:33:27Z</time>
      </trkpt>
      <trkpt lat="43.64427" lon="1.39096">
        <ele>141</ele>
        <time>2024-04-25T17:33:52Z</time>
      </trkpt>
      <trkpt lat="43.64426" lon="1.39097">
        <ele>142</ele>
        <time>2024-04-25T17:33:53Z</time>
      </trkpt>
      <trkpt lat="43.64426" lon="1.39097">
        <ele>142</ele>
        <time>2024-04-25T17:33:54Z</time>
      </trkpt>
      <trkpt lat="43.64425" lon="1.391">
        <ele>142</ele>
        <time>2024-04-25T17:33:55Z</time>
      </trkpt>
      <trkpt lat="43.64425" lon="1.391">
        <ele>142</ele>
        <time>2024-04-25T17:33:56Z</time>
      </trkpt>
      <trkpt lat="43.64423" lon="1.39103">
        <ele>142</ele>
        <time>2024-04-25T17:33:57Z</time>
      </trkpt>
      <trkpt lat="43.64422" lon="1.39108">
        <ele>141</ele>
        <time>2024-04-25T17:33:58Z</time>
      </trkpt>
      <trkpt lat="43.64422" lon="1.39108">
        <ele>141</ele>
        <time>2024-04-25T17:33:59Z</time>
      </trkpt>
      <trkpt lat="43.64421" lon="1.3911">
        <ele>141</ele>
        <time>2024-04-25T17:34:00Z</time>
      </trkpt>
      <trkpt lat="43.64421" lon="1.3911">
        <ele>141</ele>
        <time>2024-04-25T17:34:01Z</time>
      </trkpt>
      <trkpt lat="43.6442" lon="1.39115">
        <ele>140</ele>
        <time>2024-04-25T17:34:02Z</time>
      </trkpt>
      <trkpt lat="43.6442" lon="1.39115">
        <ele>139</ele>
        <time>2024-04-25T17:34:03Z</time>
      </trkpt>
      <trkpt lat="43.64419" lon="1.3912">
        <ele>139</ele>
        <time>2024-04-25T17:34:04Z</time>
      </trkpt>
      <trkpt lat="43.64419" lon="1.39123">
        <ele>139</ele>
        <time>2024-04-25T17:34:05Z</time>
      </trkpt>
      <trkpt lat="43.64419" lon="1.39126">
        <ele>139</ele>
        <time>2024-04-25T17:34:06Z</time>
      </trkpt>
      <trkpt lat="43.64419" lon="1.39126">
        <ele>139</ele>
        <time>2024-04-25T17:34:07Z</time>
      </trkpt>
      <trkpt lat="43.64419" lon="1.3913">
        <ele>139</ele>
        <time>2024-04-25T17:34:08Z</time>
      </trkpt>
      <trkpt lat="43.64419" lon="1.39133">
        <ele>139</ele>
        <time>2024-04-25T17:34:09Z</time>
      </trkpt>
      <trkpt lat="43.64419" lon="1.39136">
        <ele>138</ele>
        <time>2024-04-25T17:34:10Z</time>
      </trkpt>
      <trkpt lat="43.64418" lon="1.39139">
        <ele>138</ele>
        <time>2024-04-25T17:34:11Z</time>
      </trkpt>
      <trkpt lat="43.64418" lon="1.39142">
        <ele>138</ele>
        <time>2024-04-25T17:34:12Z</time>
      </trkpt>
      <trkpt lat="43.64418" lon="1.39145">
        <ele>138</ele>
        <time>2024-04-25T17:34:13Z</time>
      </trkpt>
      <trkpt lat="43.64418" lon="1.39148">
        <ele>138</ele>
        <time>2024-04-25T17:34:14Z</time>
      </trkpt>
      <trkpt lat="43.64417" lon="1.39151">
        <ele>138</ele>
        <time>2024-04-25T17:34:15Z</time>
      </trkpt>
      <trkpt lat="43.64416" lon="1.39153">
        <ele>137</ele>
        <time>2024-04-25T17:34:16Z</time>
      </trkpt>
      <trkpt lat="43.64416" lon="1.39153">
        <ele>137</ele>
        <time>2024-04-25T17:34:17Z</time>
      </trkpt>
      <trkpt lat="43.64416" lon="1.39161">
        <ele>137</ele>
        <time>2024-04-25T17:34:18Z</time>
      </trkpt>
      <trkpt lat="43.64416" lon="1.39161">
        <ele>137</ele>
        <time>2024-04-25T17:34:19Z</time>
      </trkpt>
      <trkpt lat="43.64416" lon="1.39164">
        <ele>137</ele>
        <time>2024-04-25T17:34:20Z</time>
      </trkpt>
      <trkpt lat="43.64416" lon="1.39166">
        <ele>137</ele>
        <time>2024-04-25T17:34:21Z</time>
      </trkpt>
      <trkpt lat="43.64416" lon="1.39169">
        <ele>137</ele>
        <time>2024-04-25T17:34:22Z</time>
      </trkpt>
      <trkpt lat="43.64416" lon="1.39169">
        <ele>136</ele>
        <time>2024-04-25T17:34:23Z</time>
      </trkpt>
      <trkpt lat="43.64416" lon="1.39174">
        <ele>136</ele>
        <time>2024-04-25T17:34:24Z</time>
      </trkpt>
      <trkpt lat="43.64416" lon="1.39176">
        <ele>136</ele>
        <time>2024-04-25T17:34:25Z</time>
      </trkpt>
      <trkpt lat="43.64416" lon="1.39179">
        <ele>135</ele>
        <time>2024-04-25T17:34:26Z</time>
      </trkpt>
      <trkpt lat="43.64416" lon="1.39181">
        <ele>135</ele>
        <time>2024-04-25T17:34:27Z</time>
      </trkpt>
      <trkpt lat="43.64417" lon="1.39184">
        <ele>135</ele>
        <time>2024-04-25T17:34:28Z</time>
      </trkpt>
      <trkpt lat="43.64417" lon="1.39186">
        <ele>135</ele>
        <time>2024-04-25T17:34:29Z</time>
      </trkpt>
      <trkpt lat="43.64418" lon="1.39189">
        <ele>135</ele>
        <time>2024-04-25T17:34:30Z</time>
      </trkpt>
      <trkpt lat="43.64418" lon="1.39189">
        <ele>134</ele>
        <time>2024-04-25T17:34:31Z</time>
      </trkpt>
      <trkpt lat="43.6442" lon="1.39193">
        <ele>134</ele>
        <time>2024-04-25T17:34:32Z</time>
      </trkpt>
      <trkpt lat="43.6442" lon="1.39193">
        <ele>134</ele>
        <time>2024-04-25T17:34:33Z</time>
      </trkpt>
      <trkpt lat="43.64422" lon="1.39197">
        <ele>134</ele>
        <time>2024-04-25T17:34:34Z</time>
      </trkpt>
      <trkpt lat="43.64422" lon="1.39197">
        <ele>134</ele>
        <time>2024-04-25T17:34:35Z</time>
      </trkpt>
      <trkpt lat="43.64424" lon="1.392">
        <ele>134</ele>
        <time>2024-04-25T17:34:36Z</time>
      </trkpt>
      <trkpt lat="43.64425" lon="1.39202">
        <ele>134</ele>
        <time>2024-04-25T17:34:37Z</time>
      </trkpt>
      <trkpt lat="43.64426" lon="1.39204">
        <ele>133</ele>
        <time>2024-04-25T17:34:38Z</time>
      </trkpt>
      <trkpt lat="43.64426" lon="1.39204">
        <ele>133</ele>
        <time>2024-04-25T17:34:39Z</time>
      </trkpt>
      <trkpt lat="43.64428" lon="1.39208">
        <ele>133</ele>
        <time>2024-04-25T17:34:40Z</time>
      </trkpt>
      <trkpt lat="43.64428" lon="1.39208">
        <ele>132</ele>
        <time>2024-04-25T17:34:41Z</time>
      </trkpt>
      <trkpt lat="43.6443" lon="1.39213">
        <ele>132</ele>
        <time>2024-04-25T17:34:42Z</time>
      </trkpt>
      <trkpt lat="43.64431" lon="1.39214">
        <ele>131</ele>
        <time>2024-04-25T17:34:43Z</time>
      </trkpt>
      <trkpt lat="43.64433" lon="1.39216">
        <ele>130</ele>
        <time>2024-04-25T17:34:44Z</time>
      </trkpt>
      <trkpt lat="43.64433" lon="1.39216">
        <ele>130</ele>
        <time>2024-04-25T17:34:45Z</time>
      </trkpt>
      <trkpt lat="43.64435" lon="1.39219">
        <ele>130</ele>
        <time>2024-04-25T17:34:46Z</time>
      </trkpt>
      <trkpt lat="43.64435" lon="1.39219">
        <ele>131</ele>
        <time>2024-04-25T17:34:47Z</time>
      </trkpt>
      <trkpt lat="43.64437" lon="1.39223">
        <ele>131</ele>
        <time>2024-04-25T17:34:48Z</time>
      </trkpt>
      <trkpt lat="43.64439" lon="1.39228">
        <ele>131</ele>
        <time>2024-04-25T17:34:50Z</time>
      </trkpt>
      <trkpt lat="43.6444" lon="1.3923">
        <ele>131</ele>
        <time>2024-04-25T17:34:51Z</time>
      </trkpt>
      <trkpt lat="43.64441" lon="1.39232">
        <ele>131</ele>
        <time>2024-04-25T17:34:52Z</time>
      </trkpt>
      <trkpt lat="43.64442" lon="1.39235">
        <ele>131</ele>
        <time>2024-04-25T17:34:53Z</time>
      </trkpt>
      <trkpt lat="43.64443" lon="1.39237">
        <ele>131</ele>
        <time>2024-04-25T17:34:54Z</time>
      </trkpt>
      <trkpt lat="43.64445" lon="1.3924">
        <ele>130</ele>
        <time>2024-04-25T17:34:55Z</time>
      </trkpt>
      <trkpt lat="43.64446" lon="1.39243">
        <ele>131</ele>
        <time>2024-04-25T17:34:56Z</time>
      </trkpt>
      <trkpt lat="43.64447" lon="1.39246">
        <ele>131</ele>
        <time>2024-04-25T17:34:57Z</time>
      </trkpt>
      <trkpt lat="43.64448" lon="1.39249">
        <ele>130</ele>
        <time>2024-04-25T17:34:58Z</time>
      </trkpt>
      <trkpt lat="43.64449" lon="1.39252">
        <ele>130</ele>
        <time>2024-04-25T17:34:59Z</time>
      </trkpt>
      <trkpt lat="43.6445" lon="1.39255">
        <ele>130</ele>
        <time>2024-04-25T17:35:00Z</time>
      </trkpt>
      <trkpt lat="43.64451" lon="1.39257">
        <ele>130</ele>
        <time>2024-04-25T17:35:01Z</time>
      </trkpt>
      <trkpt lat="43.64452" lon="1.39262">
        <ele>131</ele>
        <time>2024-04-25T17:35:02Z</time>
      </trkpt>
      <trkpt lat="43.64452" lon="1.39262">
        <ele>131</ele>
        <time>2024-04-25T17:35:03Z</time>
      </trkpt>
      <trkpt lat="43.64452" lon="1.39262">
        <ele>131</ele>
        <time>2024-04-25T17:35:04Z</time>
      </trkpt>
      <trkpt lat="43.64454" lon="1.39267">
        <ele>131</ele>
        <time>2024-04-25T17:35:05Z</time>
      </trkpt>
      <trkpt lat="43.64449" lon="1.39268">
        <ele>132</ele>
        <time>2024-04-25T17:40:28Z</time>
      </trkpt>
      <trkpt lat="43.64449" lon="1.39268">
        <ele>132</ele>
        <time>2024-04-25T17:40:29Z</time>
      </trkpt>
      <trkpt lat="43.64447" lon="1.39264">
        <ele>132</ele>
        <time>2024-04-25T17:40:30Z</time>
      </trkpt>
      <trkpt lat="43.64446" lon="1.39261">
        <ele>132</ele>
        <time>2024-04-25T17:40:31Z</time>
      </trkpt>
      <trkpt lat="43.64445" lon="1.39258">
        <ele>132</ele>
        <time>2024-04-25T17:40:32Z</time>
      </trkpt>
      <trkpt lat="43.64444" lon="1.39255">
        <ele>132</ele>
        <time>2024-04-25T17:40:33Z</time>
      </trkpt>
      <trkpt lat="43.64442" lon="1.39252">
        <ele>132</ele>
        <time>2024-04-25T17:40:34Z</time>
      </trkpt>
      <trkpt lat="43.64441" lon="1.39249">
        <ele>132</ele>
        <time>2024-04-25T17:40:35Z</time>
      </trkpt>
      <trkpt lat="43.6444" lon="1.39246">
        <ele>132</ele>
        <time>2024-04-25T17:40:36Z</time>
      </trkpt>
      <trkpt lat="43.64437" lon="1.39241">
        <ele>132</ele>
        <time>2024-04-25T17:40:37Z</time>
      </trkpt>
      <trkpt lat="43.64437" lon="1.39241">
        <ele>132</ele>
        <time>2024-04-25T17:40:38Z</time>
      </trkpt>
      <trkpt lat="43.64435" lon="1.39238">
        <ele>132</ele>
        <time>2024-04-25T17:40:39Z</time>
      </trkpt>
      <trkpt lat="43.64433" lon="1.39235">
        <ele>132</ele>
        <time>2024-04-25T17:40:40Z</time>
      </trkpt>
      <trkpt lat="43.64432" lon="1.39232">
        <ele>132</ele>
        <time>2024-04-25T17:40:41Z</time>
      </trkpt>
      <trkpt lat="43.64431" lon="1.39229">
        <ele>132</ele>
        <time>2024-04-25T17:40:42Z</time>
      </trkpt>
      <trkpt lat="43.64429" lon="1.39226">
        <ele>132</ele>
        <time>2024-04-25T17:40:43Z</time>
      </trkpt>
      <trkpt lat="43.64427" lon="1.39221">
        <ele>132</ele>
        <time>2024-04-25T17:40:44Z</time>
      </trkpt>
      <trkpt lat="43.64427" lon="1.39221">
        <ele>132</ele>
        <time>2024-04-25T17:40:45Z</time>
      </trkpt>
      <trkpt lat="43.64425" lon="1.39218">
        <ele>132</ele>
        <time>2024-04-25T17:40:46Z</time>
      </trkpt>
      <trkpt lat="43.64424" lon="1.39215">
        <ele>132</ele>
        <time>2024-04-25T17:40:47Z</time>
      </trkpt>
      <trkpt lat="43.64422" lon="1.39213">
        <ele>132</ele>
        <time>2024-04-25T17:40:48Z</time>
      </trkpt>
      <trkpt lat="43.64421" lon="1.3921">
        <ele>132</ele>
        <time>2024-04-25T17:40:49Z</time>
      </trkpt>
      <trkpt lat="43.6442" lon="1.39207">
        <ele>132</ele>
        <time>2024-04-25T17:40:50Z</time>
      </trkpt>
      <trkpt lat="43.64418" lon="1.39204">
        <ele>133</ele>
        <time>2024-04-25T17:40:51Z</time>
      </trkpt>
      <trkpt lat="43.64417" lon="1.39202">
        <ele>133</ele>
        <time>2024-04-25T17:40:52Z</time>
      </trkpt>
      <trkpt lat="43.64416" lon="1.39199">
        <ele>133</ele>
        <time>2024-04-25T17:40:53Z</time>
      </trkpt>
      <trkpt lat="43.64415" lon="1.39196">
        <ele>134</ele>
        <time>2024-04-25T17:40:54Z</time>
      </trkpt>
      <trkpt lat="43.64414" lon="1.39193">
        <ele>134</ele>
        <time>2024-04-25T17:40:55Z</time>
      </trkpt>
      <trkpt lat="43.64413" lon="1.39189">
        <ele>134</ele>
        <time>2024-04-25T17:40:56Z</time>
      </trkpt>
      <trkpt lat="43.64411" lon="1.39186">
        <ele>134</ele>
        <time>2024-04-25T17:40:57Z</time>
      </trkpt>
      <trkpt lat="43.64411" lon="1.39183">
        <ele>135</ele>
        <time>2024-04-25T17:40:58Z</time>
      </trkpt>
      <trkpt lat="43.6441" lon="1.39179">
        <ele>135</ele>
        <time>2024-04-25T17:40:59Z</time>
      </trkpt>
      <trkpt lat="43.6441" lon="1.39176">
        <ele>136</ele>
        <time>2024-04-25T17:41:00Z</time>
      </trkpt>
      <trkpt lat="43.6441" lon="1.39173">
        <ele>136</ele>
        <time>2024-04-25T17:41:01Z</time>
      </trkpt>
      <trkpt lat="43.64409" lon="1.39169">
        <ele>136</ele>
        <time>2024-04-25T17:41:02Z</time>
      </trkpt>
      <trkpt lat="43.64409" lon="1.39166">
        <ele>136</ele>
        <time>2024-04-25T17:41:03Z</time>
      </trkpt>
      <trkpt lat="43.64409" lon="1.39163">
        <ele>137</ele>
        <time>2024-04-25T17:41:04Z</time>
      </trkpt>
      <trkpt lat="43.6441" lon="1.3916">
        <ele>138</ele>
        <time>2024-04-25T17:41:05Z</time>
      </trkpt>
      <trkpt lat="43.6441" lon="1.39154">
        <ele>138</ele>
        <time>2024-04-25T17:41:06Z</time>
      </trkpt>
      <trkpt lat="43.64411" lon="1.39153">
        <ele>138</ele>
        <time>2024-04-25T17:41:07Z</time>
      </trkpt>
      <trkpt lat="43.64412" lon="1.39148">
        <ele>138</ele>
        <time>2024-04-25T17:41:08Z</time>
      </trkpt>
      <trkpt lat="43.64412" lon="1.39147">
        <ele>138</ele>
        <time>2024-04-25T17:41:09Z</time>
      </trkpt>
      <trkpt lat="43.64413" lon="1.39141">
        <ele>138</ele>
        <time>2024-04-25T17:41:10Z</time>
      </trkpt>
      <trkpt lat="43.64413" lon="1.39141">
        <ele>139</ele>
        <time>2024-04-25T17:41:11Z</time>
      </trkpt>
      <trkpt lat="43.64414" lon="1.39138">
        <ele>139</ele>
        <time>2024-04-25T17:41:12Z</time>
      </trkpt>
      <trkpt lat="43.64415" lon="1.39136">
        <ele>139</ele>
        <time>2024-04-25T17:41:13Z</time>
      </trkpt>
      <trkpt lat="43.64416" lon="1.39133">
        <ele>139</ele>
        <time>2024-04-25T17:41:14Z</time>
      </trkpt>
      <trkpt lat="43.64417" lon="1.3913">
        <ele>139</ele>
        <time>2024-04-25T17:41:15Z</time>
      </trkpt>
      <trkpt lat="43.64417" lon="1.39127">
        <ele>140</ele>
        <time>2024-04-25T17:41:16Z</time>
      </trkpt>
      <trkpt lat="43.64419" lon="1.39125">
        <ele>140</ele>
        <time>2024-04-25T17:41:17Z</time>
      </trkpt>
      <trkpt lat="43.6442" lon="1.39122">
        <ele>140</ele>
        <time>2024-04-25T17:41:18Z</time>
      </trkpt>
      <trkpt lat="43.6442" lon="1.3912">
        <ele>141</ele>
        <time>2024-04-25T17:41:19Z</time>
      </trkpt>
      <trkpt lat="43.64421" lon="1.39117">
        <ele>141</ele>
        <time>2024-04-25T17:41:20Z</time>
      </trkpt>
      <trkpt lat="43.64422" lon="1.39114">
        <ele>142</ele>
        <time>2024-04-25T17:41:21Z</time>
      </trkpt>
      <trkpt lat="43.64423" lon="1.3911">
        <ele>142</ele>
        <time>2024-04-25T17:41:22Z</time>
      </trkpt>
      <trkpt lat="43.64424" lon="1.39107">
        <ele>142</ele>
        <time>2024-04-25T17:41:23Z</time>
      </trkpt>
      <trkpt lat="43.64425" lon="1.39104">
        <ele>142</ele>
        <time>2024-04-25T17:41:24Z</time>
      </trkpt>
      <trkpt lat="43.64427" lon="1.391">
        <ele>142</ele>
        <time>2024-04-25T17:41:25Z</time>
      </trkpt>
      <trkpt lat="43.64427" lon="1.39098">
        <ele>142</ele>
        <time>2024-04-25T17:41:26Z</time>
      </trkpt>
      <trkpt lat="43.64428" lon="1.39094">
        <ele>142</ele>
        <time>2024-04-25T17:41:27Z</time>
      </trkpt>
      <trkpt lat="43.64429" lon="1.39091">
        <ele>143</ele>
        <time>2024-04-25T17:41:28Z</time>
      </trkpt>
      <trkpt lat="43.64431" lon="1.39086">
        <ele>143</ele>
        <time>2024-04-25T17:41:29Z</time>
      </trkpt>
      <trkpt lat="43.64432" lon="1.39085">
        <ele>143</ele>
        <time>2024-04-25T17:41:30Z</time>
      </trkpt>
      <trkpt lat="43.64435" lon="1.3908">
        <ele>143</ele>
        <time>2024-04-25T17:41:31Z</time>
      </trkpt>
      <trkpt lat="43.64435" lon="1.3908">
        <ele>144</ele>
        <time>2024-04-25T17:41:32Z</time>
      </trkpt>
      <trkpt lat="43.64437" lon="1.39078">
        <ele>144</ele>
        <time>2024-04-25T17:41:33Z</time>
      </trkpt>
      <trkpt lat="43.64438" lon="1.39075">
        <ele>144</ele>
        <time>2024-04-25T17:41:34Z</time>
      </trkpt>
      <trkpt lat="43.6444" lon="1.39073">
        <ele>144</ele>
        <time>2024-04-25T17:41:35Z</time>
      </trkpt>
      <trkpt lat="43.64442" lon="1.39071">
        <ele>144</ele>
        <time>2024-04-25T17:41:36Z</time>
      </trkpt>
      <trkpt lat="43.64443" lon="1.39068">
        <ele>144</ele>
        <time>2024-04-25T17:41:37Z</time>
      </trkpt>
      <trkpt lat="43.64446" lon="1.39063">
        <ele>144</ele>
        <time>2024-04-25T17:41:38Z</time>
      </trkpt>
      <trkpt lat="43.64446" lon="1.39063">
        <ele>144</ele>
        <time>2024-04-25T17:41:39Z</time>
      </trkpt>
      <trkpt lat="43.64448" lon="1.3906">
        <ele>144</ele>
        <time>2024-04-25T17:41:40Z</time>
      </trkpt>
      <trkpt lat="43.64449" lon="1.39057">
        <ele>144</ele>
        <time>2024-04-25T17:41:41Z</time>
      </trkpt>
      <trkpt lat="43.64451" lon="1.39054">
        <ele>145</ele>
        <time>2024-04-25T17:41:42Z</time>
      </trkpt>
      <trkpt lat="43.64452" lon="1.39051">
        <ele>145</ele>
        <time>2024-04-25T17:41:43Z</time>
      </trkpt>
      <trkpt lat="43.64456" lon="1.39046">
        <ele>145</ele>
        <time>2024-04-25T17:41:44Z</time>
      </trkpt>
      <trkpt lat="43.64457" lon="1.39043">
        <ele>145</ele>
        <time>2024-04-25T17:41:45Z</time>
      </trkpt>
      <trkpt lat="43.64457" lon="1.39043">
        <ele>145</ele>
        <time>2024-04-25T17:41:46Z</time>
      </trkpt>
      <trkpt lat="43.64461" lon="1.39038">
        <ele>145</ele>
        <time>2024-04-25T17:41:47Z</time>
      </trkpt>
      <trkpt lat="43.64461" lon="1.39038">
        <ele>145</ele>
        <time>2024-04-25T17:41:48Z</time>
      </trkpt>
      <trkpt lat="43.64463" lon="1.39036">
        <ele>145</ele>
        <time>2024-04-25T17:41:49Z</time>
      </trkpt>
      <trkpt lat="43.64466" lon="1.39032">
        <ele>145</ele>
        <time>2024-04-25T17:41:50Z</time>
      </trkpt>
      <trkpt lat="43.64467" lon="1.39031">
        <ele>145</ele>
        <time>2024-04-25T17:41:51Z</time>
      </trkpt>
      <trkpt lat="43.64469" lon="1.3903">
        <ele>145</ele>
        <time>2024-04-25T17:41:52Z</time>
      </trkpt>
      <trkpt lat="43.6447" lon="1.39028">
        <ele>145</ele>
        <time>2024-04-25T17:41:53Z</time>
      </trkpt>
      <trkpt lat="43.64472" lon="1.39026">
        <ele>145</ele>
        <time>2024-04-25T17:41:54Z</time>
      </trkpt>
      <trkpt lat="43.64474" lon="1.39024">
        <ele>145</ele>
        <time>2024-04-25T17:41:55Z</time>
      </trkpt>
      <trkpt lat="43.64476" lon="1.39022">
        <ele>145</ele>
        <time>2024-04-25T17:41:56Z</time>
      </trkpt>
      <trkpt lat="43.64477" lon="1.39019">
        <ele>145</ele>
        <time>2024-04-25T17:41:57Z</time>
      </trkpt>
      <trkpt lat="43.64479" lon="1.39017">
        <ele>145</ele>
        <time>2024-04-25T17:41:58Z</time>
      </trkpt>
      <trkpt lat="43.6448" lon="1.39014">
        <ele>145</ele>
        <time>2024-04-25T17:41:59Z</time>
      </trkpt>
      <trkpt lat="43.64482" lon="1.39012">
        <ele>145</ele>
        <time>2024-04-25T17:42:00Z</time>
      </trkpt>
      <trkpt lat="43.64483" lon="1.39009">
        <ele>145</ele>
        <time>2024-04-25T17:42:01Z</time>
      </trkpt>
      <trkpt lat="43.64485" lon="1.39006">
        <ele>145</ele>
        <time>2024-04-25T17:42:02Z</time>
      </trkpt>
      <trkpt lat="43.64487" lon="1.39001">
        <ele>145</ele>
        <time>2024-04-25T17:42:03Z</time>
      </trkpt>
      <trkpt lat="43.64487" lon="1.39">
        <ele>145</ele>
        <time>2024-04-25T17:42:04Z</time>
      </trkpt>
      <trkpt lat="43.64488" lon="1.38997">
        <ele>145</ele>
        <time>2024-04-25T17:42:05Z</time>
      </trkpt>
      <trkpt lat="43.64489" lon="1.38994">
        <ele>145</ele>
        <time>2024-04-25T17:42:06Z</time>
      </trkpt>
      <trkpt lat="43.64491" lon="1.3899">
        <ele>145</ele>
        <time>2024-04-25T17:42:07Z</time>
      </trkpt>
      <trkpt lat="43.64492" lon="1.38988">
        <ele>145</ele>
        <time>2024-04-25T17:42:08Z</time>
      </trkpt>
      <trkpt lat="43.64493" lon="1.38985">
        <ele>145</ele>
        <time>2024-04-25T17:42:09Z</time>
      </trkpt>
      <trkpt lat="43.64495" lon="1.3898">
        <ele>145</ele>
        <time>2024-04-25T17:42:10Z</time>
      </trkpt>
      <trkpt lat="43.64495" lon="1.38979">
        <ele>145</ele>
        <time>2024-04-25T17:42:11Z</time>
      </trkpt>
      <trkpt lat="43.64496" lon="1.38975">
        <ele>145</ele>
        <time>2024-04-25T17:42:12Z</time>
      </trkpt>
      <trkpt lat="43.64497" lon="1.38972">
        <ele>145</ele>
        <time>2024-04-25T17:42:13Z</time>
      </trkpt>
      <trkpt lat="43.64498" lon="1.38969">
        <ele>145</ele>
        <time>2024-04-25T17:42:14Z</time>
      </trkpt>
      <trkpt lat="43.64499" lon="1.38966">
        <ele>145</ele>
        <time>2024-04-25T17:42:15Z</time>
      </trkpt>
      <trkpt lat="43.64501" lon="1.38961">
        <ele>145</ele>
        <time>2024-04-25T17:42:16Z</time>
      </trkpt>
      <trkpt lat="43.64501" lon="1.38961">
        <ele>145</ele>
        <time>2024-04-25T17:42:17Z</time>
      </trkpt>
      <trkpt lat="43.64502" lon="1.38958">
        <ele>145</ele>
        <time>2024-04-25T17:42:18Z</time>
      </trkpt>
      <trkpt lat="43.64503" lon="1.38955">
        <ele>145</ele>
        <time>2024-04-25T17:42:19Z</time>
      </trkpt>
      <trkpt lat="43.64504" lon="1.38952">
        <ele>145</ele>
        <time>2024-04-25T17:42:20Z</time>
      </trkpt>
      <trkpt lat="43.64507" lon="1.38947">
        <ele>145</ele>
        <time>2024-04-25T17:42:21Z</time>
      </trkpt>
      <trkpt lat="43.64508" lon="1.38942">
        <ele>145</ele>
        <time>2024-04-25T17:42:23Z</time>
      </trkpt>
      <trkpt lat="43.64508" lon="1.38942">
        <ele>145</ele>
        <time>2024-04-25T17:42:24Z</time>
      </trkpt>
      <trkpt lat="43.6451" lon="1.38939">
        <ele>145</ele>
        <time>2024-04-25T17:42:25Z</time>
      </trkpt>
      <trkpt lat="43.64511" lon="1.38936">
        <ele>145</ele>
        <time>2024-04-25T17:42:26Z</time>
      </trkpt>
      <trkpt lat="43.64512" lon="1.38934">
        <ele>145</ele>
        <time>2024-04-25T17:42:27Z</time>
      </trkpt>
      <trkpt lat="43.64514" lon="1.38931">
        <ele>145</ele>
        <time>2024-04-25T17:42:28Z</time>
      </trkpt>
      <trkpt lat="43.64515" lon="1.38928">
        <ele>145</ele>
        <time>2024-04-25T17:42:29Z</time>
      </trkpt>
      <trkpt lat="43.64515" lon="1.38925">
        <ele>145</ele>
        <time>2024-04-25T17:42:30Z</time>
      </trkpt>
      <trkpt lat="43.64515" lon="1.38922">
        <ele>145</ele>
        <time>2024-04-25T17:42:31Z</time>
      </trkpt>
      <trkpt lat="43.64513" lon="1.38916">
        <ele>145</ele>
        <time>2024-04-25T17:42:32Z</time>
      </trkpt>
      <trkpt lat="43.64513" lon="1.38914">
        <ele>145</ele>
        <time>2024-04-25T17:42:33Z</time>
      </trkpt>
      <trkpt lat="43.64512" lon="1.3891">
        <ele>145</ele>
        <time>2024-04-25T17:42:34Z</time>
      </trkpt>
      <trkpt lat="43.64511" lon="1.38907">
        <ele>145</ele>
        <time>2024-04-25T17:42:35Z</time>
      </trkpt>
      <trkpt lat="43.6451" lon="1.38903">
        <ele>145</ele>
        <time>2024-04-25T17:42:36Z</time>
      </trkpt>
      <trkpt lat="43.6451" lon="1.389">
        <ele>145</ele>
        <time>2024-04-25T17:42:37Z</time>
      </trkpt>
      <trkpt lat="43.64509" lon="1.38894">
        <ele>145</ele>
        <time>2024-04-25T17:42:38Z</time>
      </trkpt>
      <trkpt lat="43.64509" lon="1.38894">
        <ele>145</ele>
        <time>2024-04-25T17:42:39Z</time>
      </trkpt>
      <trkpt lat="43.64509" lon="1.38891">
        <ele>145</ele>
        <time>2024-04-25T17:42:40Z</time>
      </trkpt>
      <trkpt lat="43.64508" lon="1.38886">
        <ele>145</ele>
        <time>2024-04-25T17:42:41Z</time>
      </trkpt>
      <trkpt lat="43.64508" lon="1.38884">
        <ele>145</ele>
        <time>2024-04-25T17:42:42Z</time>
      </trkpt>
      <trkpt lat="43.64507" lon="1.38881">
        <ele>145</ele>
        <time>2024-04-25T17:42:43Z</time>
      </trkpt>
      <trkpt lat="43.64506" lon="1.38878">
        <ele>145</ele>
        <time>2024-04-25T17:42:44Z</time>
      </trkpt>
      <trkpt lat="43.64506" lon="1.38875">
        <ele>145</ele>
        <time>2024-04-25T17:42:45Z</time>
      </trkpt>
      <trkpt lat="43.64506" lon="1.38867">
        <ele>145</ele>
        <time>2024-04-25T17:42:46Z</time>
      </trkpt>
      <trkpt lat="43.64506" lon="1.38867">
        <ele>146</ele>
        <time>2024-04-25T17:42:47Z</time>
      </trkpt>
      <trkpt lat="43.64508" lon="1.38864">
        <ele>146</ele>
        <time>2024-04-25T17:42:48Z</time>
      </trkpt>
      <trkpt lat="43.64509" lon="1.38861">
        <ele>146</ele>
        <time>2024-04-25T17:42:49Z</time>
      </trkpt>
      <trkpt lat="43.6451" lon="1.38858">
        <ele>146</ele>
        <time>2024-04-25T17:42:50Z</time>
      </trkpt>
      <trkpt lat="43.64514" lon="1.38855">
        <ele>146</ele>
        <time>2024-04-25T17:42:51Z</time>
      </trkpt>
      <trkpt lat="43.64515" lon="1.38855">
        <ele>146</ele>
        <time>2024-04-25T17:42:52Z</time>
      </trkpt>
      <trkpt lat="43.64517" lon="1.38854">
        <ele>146</ele>
        <time>2024-04-25T17:42:53Z</time>
      </trkpt>
      <trkpt lat="43.64519" lon="1.38853">
        <ele>146</ele>
        <time>2024-04-25T17:42:54Z</time>
      </trkpt>
      <trkpt lat="43.64521" lon="1.38853">
        <ele>146</ele>
        <time>2024-04-25T17:42:55Z</time>
      </trkpt>
      <trkpt lat="43.64524" lon="1.38852">
        <ele>146</ele>
        <time>2024-04-25T17:42:56Z</time>
      </trkpt>
      <trkpt lat="43.64526" lon="1.38851">
        <ele>146</ele>
        <time>2024-04-25T17:42:57Z</time>
      </trkpt>
      <trkpt lat="43.6453" lon="1.3885">
        <ele>146</ele>
        <time>2024-04-25T17:42:58Z</time>
      </trkpt>
      <trkpt lat="43.6453" lon="1.3885">
        <ele>146</ele>
        <time>2024-04-25T17:42:59Z</time>
      </trkpt>
      <trkpt lat="43.64534" lon="1.38849">
        <ele>146</ele>
        <time>2024-04-25T17:43:00Z</time>
      </trkpt>
      <trkpt lat="43.64536" lon="1.38848">
        <ele>146</ele>
        <time>2024-04-25T17:43:01Z</time>
      </trkpt>
      <trkpt lat="43.64538" lon="1.38848">
        <ele>146</ele>
        <time>2024-04-25T17:43:02Z</time>
      </trkpt>
      <trkpt lat="43.64543" lon="1.38846">
        <ele>146</ele>
        <time>2024-04-25T17:43:03Z</time>
      </trkpt>
      <trkpt lat="43.64543" lon="1.38846">
        <ele>146</ele>
        <time>2024-04-25T17:43:04Z</time>
      </trkpt>
      <trkpt lat="43.64545" lon="1.38846">
        <ele>145</ele>
        <time>2024-04-25T17:43:05Z</time>
      </trkpt>
      <trkpt lat="43.64547" lon="1.38845">
        <ele>145</ele>
        <time>2024-04-25T17:43:06Z</time>
      </trkpt>
      <trkpt lat="43.64549" lon="1.38844">
        <ele>145</ele>
        <time>2024-04-25T17:43:07Z</time>
      </trkpt>
      <trkpt lat="43.64551" lon="1.38843">
        <ele>145</ele>
        <time>2024-04-25T17:43:08Z</time>
      </trkpt>
      <trkpt lat="43.64553" lon="1.38841">
        <ele>145</ele>
        <time>2024-04-25T17:43:09Z</time>
      </trkpt>
      <trkpt lat="43.64555" lon="1.38839">
        <ele>145</ele>
        <time>2024-04-25T17:43:10Z</time>
      </trkpt>
      <trkpt lat="43.64557" lon="1.38838">
        <ele>145</ele>
        <time>2024-04-25T17:43:11Z</time>
      </trkpt>
      <trkpt lat="43.64561" lon="1.38835">
        <ele>145</ele>
        <time>2024-04-25T17:43:12Z</time>
      </trkpt>
      <trkpt lat="43.64562" lon="1.38834">
        <ele>145</ele>
        <time>2024-04-25T17:43:13Z</time>
      </trkpt>
      <trkpt lat="43.64564" lon="1.38834">
        <ele>145</ele>
        <time>2024-04-25T17:43:14Z</time>
      </trkpt>
      <trkpt lat="43.64567" lon="1.38835">
        <ele>145</ele>
        <time>2024-04-25T17:43:15Z</time>
      </trkpt>
      <trkpt lat="43.64569" lon="1.38835">
        <ele>145</ele>
        <time>2024-04-25T17:43:16Z</time>
      </trkpt>
      <trkpt lat="43.64572" lon="1.38835">
        <ele>145</ele>
        <time>2024-04-25T17:43:17Z</time>
      </trkpt>
      <trkpt lat="43.64574" lon="1.38835">
        <ele>145</ele>
        <time>2024-04-25T17:43:18Z</time>
      </trkpt>
      <trkpt lat="43.64579" lon="1.38835">
        <ele>145</ele>
        <time>2024-04-25T17:43:19Z</time>
      </trkpt>
      <trkpt lat="43.6458" lon="1.38836">
        <ele>146</ele>
        <time>2024-04-25T17:43:20Z</time>
      </trkpt>
      <trkpt lat="43.64583" lon="1.38835">
        <ele>146</ele>
        <time>2024-04-25T17:43:21Z</time>
      </trkpt>
      <trkpt lat="43.64585" lon="1.38835">
        <ele>146</ele>
        <time>2024-04-25T17:43:22Z</time>
      </trkpt>
      <trkpt lat="43.64587" lon="1.38835">
        <ele>146</ele>
        <time>2024-04-25T17:43:23Z</time>
      </trkpt>
      <trkpt lat="43.64589" lon="1.38835">
        <ele>146</ele>
        <time>2024-04-25T17:43:24Z</time>
      </trkpt>
      <trkpt lat="43.64591" lon="1.38835">
        <ele>146</ele>
        <time>2024-04-25T17:43:25Z</time>
      </trkpt>
      <trkpt lat="43.64593" lon="1.38836">
        <ele>146</ele>
        <time>2024-04-25T17:43:26Z</time>
      </trkpt>
      <trkpt lat="43.64596" lon="1.38836">
        <ele>146</ele>
        <time>2024-04-25T17:43:27Z</time>
      </trkpt>
      <trkpt lat="43.64598" lon="1.38835">
        <ele>146</ele>
        <time>2024-04-25T17:43:28Z</time>
      </trkpt>
      <trkpt lat="43.64601" lon="1.38835">
        <ele>146</ele>
        <time>2024-04-25T17:43:29Z</time>
      </trkpt>
      <trkpt lat="43.64603" lon="1.38835">
        <ele>146</ele>
        <time>2024-04-25T17:43:30Z</time>
      </trkpt>
      <trkpt lat="43.64605" lon="1.38835">
        <ele>146</ele>
        <time>2024-04-25T17:43:31Z</time>
      </trkpt>
      <trkpt lat="43.64608" lon="1.38834">
        <ele>146</ele>
        <time>2024-04-25T17:43:32Z</time>
      </trkpt>
      <trkpt lat="43.64612" lon="1.38833">
        <ele>146</ele>
        <time>2024-04-25T17:43:33Z</time>
      </trkpt>
      <trkpt lat="43.64613" lon="1.38833">
        <ele>146</ele>
        <time>2024-04-25T17:43:34Z</time>
      </trkpt>
      <trkpt lat="43.64615" lon="1.38832">
        <ele>146</ele>
        <time>2024-04-25T17:43:35Z</time>
      </trkpt>
      <trkpt lat="43.64617" lon="1.3883">
        <ele>146</ele>
        <time>2024-04-25T17:43:36Z</time>
      </trkpt>
      <trkpt lat="43.64622" lon="1.38829">
        <ele>146</ele>
        <time>2024-04-25T17:43:37Z</time>
      </trkpt>
      <trkpt lat="43.64624" lon="1.38828">
        <ele>146</ele>
        <time>2024-04-25T17:43:39Z</time>
      </trkpt>
      <trkpt lat="43.64626" lon="1.38827">
        <ele>146</ele>
        <time>2024-04-25T17:43:40Z</time>
      </trkpt>
      <trkpt lat="43.64628" lon="1.38826">
        <ele>146</ele>
        <time>2024-04-25T17:43:41Z</time>
      </trkpt>
      <trkpt lat="43.6463" lon="1.38826">
        <ele>146</ele>
        <time>2024-04-25T17:43:42Z</time>
      </trkpt>
      <trkpt lat="43.64632" lon="1.38825">
        <ele>146</ele>
        <time>2024-04-25T17:43:43Z</time>
      </trkpt>
      <trkpt lat="43.64634" lon="1.38825">
        <ele>146</ele>
        <time>2024-04-25T17:43:44Z</time>
      </trkpt>
      <trkpt lat="43.64637" lon="1.38824">
        <ele>146</ele>
        <time>2024-04-25T17:43:45Z</time>
      </trkpt>
      <trkpt lat="43.64639" lon="1.38823">
        <ele>146</ele>
        <time>2024-04-25T17:43:46Z</time>
      </trkpt>
      <trkpt lat="43.64641" lon="1.38822">
        <ele>146</ele>
        <time>2024-04-25T17:43:47Z</time>
      </trkpt>
      <trkpt lat="43.64643" lon="1.3882">
        <ele>146</ele>
        <time>2024-04-25T17:43:48Z</time>
      </trkpt>
      <trkpt lat="43.64645" lon="1.38818">
        <ele>146</ele>
        <time>2024-04-25T17:43:49Z</time>
      </trkpt>
      <trkpt lat="43.64647" lon="1.38816">
        <ele>147</ele>
        <time>2024-04-25T17:43:50Z</time>
      </trkpt>
      <trkpt lat="43.64648" lon="1.38814">
        <ele>147</ele>
        <time>2024-04-25T17:43:51Z</time>
      </trkpt>
      <trkpt lat="43.64651" lon="1.38813">
        <ele>147</ele>
        <time>2024-04-25T17:43:52Z</time>
      </trkpt>
      <trkpt lat="43.64653" lon="1.38811">
        <ele>147</ele>
        <time>2024-04-25T17:43:53Z</time>
      </trkpt>
      <trkpt lat="43.64655" lon="1.3881">
        <ele>146</ele>
        <time>2024-04-25T17:43:54Z</time>
      </trkpt>
      <trkpt lat="43.64659" lon="1.3881">
        <ele>146</ele>
        <time>2024-04-25T17:43:55Z</time>
      </trkpt>
      <trkpt lat="43.6466" lon="1.3881">
        <ele>147</ele>
        <time>2024-04-25T17:43:56Z</time>
      </trkpt>
      <trkpt lat="43.64664" lon="1.38809">
        <ele>147</ele>
        <time>2024-04-25T17:43:57Z</time>
      </trkpt>
      <trkpt lat="43.64665" lon="1.38809">
        <ele>146</ele>
        <time>2024-04-25T17:43:58Z</time>
      </trkpt>
      <trkpt lat="43.64667" lon="1.38808">
        <ele>146</ele>
        <time>2024-04-25T17:43:59Z</time>
      </trkpt>
      <trkpt lat="43.64669" lon="1.38807">
        <ele>146</ele>
        <time>2024-04-25T17:44:00Z</time>
      </trkpt>
      <trkpt lat="43.64672" lon="1.38806">
        <ele>146</ele>
        <time>2024-04-25T17:44:01Z</time>
      </trkpt>
      <trkpt lat="43.64675" lon="1.38806">
        <ele>146</ele>
        <time>2024-04-25T17:44:02Z</time>
      </trkpt>
      <trkpt lat="43.64678" lon="1.38805">
        <ele>146</ele>
        <time>2024-04-25T17:44:03Z</time>
      </trkpt>
      <trkpt lat="43.6468" lon="1.38804">
        <ele>145</ele>
        <time>2024-04-25T17:44:04Z</time>
      </trkpt>
      <trkpt lat="43.64682" lon="1.38803">
        <ele>145</ele>
        <time>2024-04-25T17:44:05Z</time>
      </trkpt>
      <trkpt lat="43.64684" lon="1.38803">
        <ele>145</ele>
        <time>2024-04-25T17:44:06Z</time>
      </trkpt>
      <trkpt lat="43.64686" lon="1.38802">
        <ele>145</ele>
        <time>2024-04-25T17:44:07Z</time>
      </trkpt>
      <trkpt lat="43.64688" lon="1.38802">
        <ele>145</ele>
        <time>2024-04-25T17:44:08Z</time>
      </trkpt>
      <trkpt lat="43.6469" lon="1.38801">
        <ele>145</ele>
        <time>2024-04-25T17:44:09Z</time>
      </trkpt>
      <trkpt lat="43.64692" lon="1.38799">
        <ele>145</ele>
        <time>2024-04-25T17:44:10Z</time>
      </trkpt>
      <trkpt lat="43.64694" lon="1.38797">
        <ele>145</ele>
        <time>2024-04-25T17:44:11Z</time>
      </trkpt>
      <trkpt lat="43.64697" lon="1.38796">
        <ele>145</ele>
        <time>2024-04-25T17:44:12Z</time>
      </trkpt>
      <trkpt lat="43.64699" lon="1.38794">
        <ele>145</ele>
        <time>2024-04-25T17:44:13Z</time>
      </trkpt>
      <trkpt lat="43.64701" lon="1.38793">
        <ele>145</ele>
        <time>2024-04-25T17:44:14Z</time>
      </trkpt>
      <trkpt lat="43.64704" lon="1.38792">
        <ele>145</ele>
        <time>2024-04-25T17:44:15Z</time>
      </trkpt>
      <trkpt lat="43.64707" lon="1.38791">
        <ele>145</ele>
        <time>2024-04-25T17:44:16Z</time>
      </trkpt>
      <trkpt lat="43.64709" lon="1.3879">
        <ele>145</ele>
        <time>2024-04-25T17:44:17Z</time>
      </trkpt>
      <trkpt lat="43.64711" lon="1.38788">
        <ele>146</ele>
        <time>2024-04-25T17:44:18Z</time>
      </trkpt>
      <trkpt lat="43.64716" lon="1.38785">
        <ele>146</ele>
        <time>2024-04-25T17:44:19Z</time>
      </trkpt>
      <trkpt lat="43.64716" lon="1.38785">
        <ele>146</ele>
        <time>2024-04-25T17:44:20Z</time>
      </trkpt>
      <trkpt lat="43.6472" lon="1.38781">
        <ele>146</ele>
        <time>2024-04-25T17:44:21Z</time>
      </trkpt>
      <trkpt lat="43.6472" lon="1.38781">
        <ele>146</ele>
        <time>2024-04-25T17:44:22Z</time>
      </trkpt>
      <trkpt lat="43.64723" lon="1.38779">
        <ele>146</ele>
        <time>2024-04-25T17:44:23Z</time>
      </trkpt>
      <trkpt lat="43.64725" lon="1.38778">
        <ele>146</ele>
        <time>2024-04-25T17:44:24Z</time>
      </trkpt>
      <trkpt lat="43.6473" lon="1.38774">
        <ele>146</ele>
        <time>2024-04-25T17:44:25Z</time>
      </trkpt>
      <trkpt lat="43.6473" lon="1.38774">
        <ele>147</ele>
        <time>2024-04-25T17:44:26Z</time>
      </trkpt>
      <trkpt lat="43.64732" lon="1.38773">
        <ele>147</ele>
        <time>2024-04-25T17:44:27Z</time>
      </trkpt>
      <trkpt lat="43.64734" lon="1.38771">
        <ele>146</ele>
        <time>2024-04-25T17:44:28Z</time>
      </trkpt>
      <trkpt lat="43.64736" lon="1.3877">
        <ele>146</ele>
        <time>2024-04-25T17:44:29Z</time>
      </trkpt>
      <trkpt lat="43.64738" lon="1.38768">
        <ele>146</ele>
        <time>2024-04-25T17:44:30Z</time>
      </trkpt>
      <trkpt lat="43.6474" lon="1.38766">
        <ele>146</ele>
        <time>2024-04-25T17:44:31Z</time>
      </trkpt>
      <trkpt lat="43.64742" lon="1.38765">
        <ele>146</ele>
        <time>2024-04-25T17:44:32Z</time>
      </trkpt>
      <trkpt lat="43.64744" lon="1.38763">
        <ele>145</ele>
        <time>2024-04-25T17:44:33Z</time>
      </trkpt>
      <trkpt lat="43.64747" lon="1.38762">
        <ele>145</ele>
        <time>2024-04-25T17:44:34Z</time>
      </trkpt>
      <trkpt lat="43.6475" lon="1.38759">
        <ele>145</ele>
        <time>2024-04-25T17:44:35Z</time>
      </trkpt>
      <trkpt lat="43.64751" lon="1.38758">
        <ele>146</ele>
        <time>2024-04-25T17:44:36Z</time>
      </trkpt>
      <trkpt lat="43.64753" lon="1.38757">
        <ele>146</ele>
        <time>2024-04-25T17:44:37Z</time>
      </trkpt>
      <trkpt lat="43.64755" lon="1.38755">
        <ele>146</ele>
        <time>2024-04-25T17:44:38Z</time>
      </trkpt>
      <trkpt lat="43.64757" lon="1.38754">
        <ele>146</ele>
        <time>2024-04-25T17:44:39Z</time>
      </trkpt>
      <trkpt lat="43.6476" lon="1.38754">
        <ele>146</ele>
        <time>2024-04-25T17:44:40Z</time>
      </trkpt>
      <trkpt lat="43.64762" lon="1.38753">
        <ele>145</ele>
        <time>2024-04-25T17:44:41Z</time>
      </trkpt>
      <trkpt lat="43.64764" lon="1.38752">
        <ele>145</ele>
        <time>2024-04-25T17:44:42Z</time>
      </trkpt>
      <trkpt lat="43.64766" lon="1.38751">
        <ele>145</ele>
        <time>2024-04-25T17:44:43Z</time>
      </trkpt>
      <trkpt lat="43.64768" lon="1.38749">
        <ele>145</ele>
        <time>2024-04-25T17:44:44Z</time>
      </trkpt>
      <trkpt lat="43.6477" lon="1.38748">
        <ele>145</ele>
        <time>2024-04-25T17:44:45Z</time>
      </trkpt>
      <trkpt lat="43.64772" lon="1.38746">
        <ele>145</ele>
        <time>2024-04-25T17:44:46Z</time>
      </trkpt>
      <trkpt lat="43.64774" lon="1.38744">
        <ele>145</ele>
        <time>2024-04-25T17:44:47Z</time>
      </trkpt>
      <trkpt lat="43.64776" lon="1.38742">
        <ele>145</ele>
        <time>2024-04-25T17:44:48Z</time>
      </trkpt>
      <trkpt lat="43.64778" lon="1.3874">
        <ele>145</ele>
        <time>2024-04-25T17:44:49Z</time>
      </trkpt>
      <trkpt lat="43.64782" lon="1.38737">
        <ele>145</ele>
        <time>2024-04-25T17:44:50Z</time>
      </trkpt>
      <trkpt lat="43.64782" lon="1.38737">
        <ele>145</ele>
        <time>2024-04-25T17:44:51Z</time>
      </trkpt>
      <trkpt lat="43.64785" lon="1.38736">
        <ele>146</ele>
        <time>2024-04-25T17:44:52Z</time>
      </trkpt>
      <trkpt lat="43.64787" lon="1.38734">
        <ele>146</ele>
        <time>2024-04-25T17:44:53Z</time>
      </trkpt>
      <trkpt lat="43.6479" lon="1.38732">
        <ele>146</ele>
        <time>2024-04-25T17:44:54Z</time>
      </trkpt>
      <trkpt lat="43.64791" lon="1.38732">
        <ele>146</ele>
        <time>2024-04-25T17:44:55Z</time>
      </trkpt>
      <trkpt lat="43.64795" lon="1.3873">
        <ele>146</ele>
        <time>2024-04-25T17:44:56Z</time>
      </trkpt>
      <trkpt lat="43.64796" lon="1.3873">
        <ele>145</ele>
        <time>2024-04-25T17:44:57Z</time>
      </trkpt>
      <trkpt lat="43.64798" lon="1.38728">
        <ele>146</ele>
        <time>2024-04-25T17:44:58Z</time>
      </trkpt>
      <trkpt lat="43.64801" lon="1.38726">
        <ele>146</ele>
        <time>2024-04-25T17:44:59Z</time>
      </trkpt>
      <trkpt lat="43.64802" lon="1.38725">
        <ele>146</ele>
        <time>2024-04-25T17:45:00Z</time>
      </trkpt>
      <trkpt lat="43.64804" lon="1.38723">
        <ele>146</ele>
        <time>2024-04-25T17:45:01Z</time>
      </trkpt>
      <trkpt lat="43.64806" lon="1.38723">
        <ele>146</ele>
        <time>2024-04-25T17:45:02Z</time>
      </trkpt>
      <trkpt lat="43.64808" lon="1.38721">
        <ele>146</ele>
        <time>2024-04-25T17:45:03Z</time>
      </trkpt>
      <trkpt lat="43.6481" lon="1.3872">
        <ele>146</ele>
        <time>2024-04-25T17:45:04Z</time>
      </trkpt>
      <trkpt lat="43.64812" lon="1.38718">
        <ele>146</ele>
        <time>2024-04-25T17:45:05Z</time>
      </trkpt>
      <trkpt lat="43.64814" lon="1.38716">
        <ele>146</ele>
        <time>2024-04-25T17:45:06Z</time>
      </trkpt>
      <trkpt lat="43.64817" lon="1.38715">
        <ele>146</ele>
        <time>2024-04-25T17:45:07Z</time>
      </trkpt>
      <trkpt lat="43.64819" lon="1.38714">
        <ele>146</ele>
        <time>2024-04-25T17:45:08Z</time>
      </trkpt>
      <trkpt lat="43.64821" lon="1.38712">
        <ele>147</ele>
        <time>2024-04-25T17:45:09Z</time>
      </trkpt>
      <trkpt lat="43.64823" lon="1.38711">
        <ele>147</ele>
        <time>2024-04-25T17:45:10Z</time>
      </trkpt>
      <trkpt lat="43.64825" lon="1.38709">
        <ele>147</ele>
        <time>2024-04-25T17:45:11Z</time>
      </trkpt>
      <trkpt lat="43.64827" lon="1.38708">
        <ele>147</ele>
        <time>2024-04-25T17:45:12Z</time>
      </trkpt>
      <trkpt lat="43.64831" lon="1.38706">
        <ele>147</ele>
        <time>2024-04-25T17:45:13Z</time>
      </trkpt>
      <trkpt lat="43.64832" lon="1.38705">
        <ele>146</ele>
        <time>2024-04-25T17:45:14Z</time>
      </trkpt>
      <trkpt lat="43.64834" lon="1.38704">
        <ele>146</ele>
        <time>2024-04-25T17:45:15Z</time>
      </trkpt>
      <trkpt lat="43.64837" lon="1.38702">
        <ele>146</ele>
        <time>2024-04-25T17:45:16Z</time>
      </trkpt>
      <trkpt lat="43.64839" lon="1.387">
        <ele>146</ele>
        <time>2024-04-25T17:45:18Z</time>
      </trkpt>
      <trkpt lat="43.64841" lon="1.38699">
        <ele>145</ele>
        <time>2024-04-25T17:45:19Z</time>
      </trkpt>
      <trkpt lat="43.64844" lon="1.38698">
        <ele>145</ele>
        <time>2024-04-25T17:45:20Z</time>
      </trkpt>
      <trkpt lat="43.64846" lon="1.38696">
        <ele>146</ele>
        <time>2024-04-25T17:45:21Z</time>
      </trkpt>
      <trkpt lat="43.64848" lon="1.38694">
        <ele>146</ele>
        <time>2024-04-25T17:45:22Z</time>
      </trkpt>
      <trkpt lat="43.64849" lon="1.38692">
        <ele>146</ele>
        <time>2024-04-25T17:45:23Z</time>
      </trkpt>
      <trkpt lat="43.64852" lon="1.38691">
        <ele>146</ele>
        <time>2024-04-25T17:45:24Z</time>
      </trkpt>
      <trkpt lat="43.64855" lon="1.3869">
        <ele>146</ele>
        <time>2024-04-25T17:45:25Z</time>
      </trkpt>
      <trkpt lat="43.64857" lon="1.38688">
        <ele>146</ele>
        <time>2024-04-25T17:45:26Z</time>
      </trkpt>
      <trkpt lat="43.6486" lon="1.38687">
        <ele>146</ele>
        <time>2024-04-25T17:45:27Z</time>
      </trkpt>
      <trkpt lat="43.64862" lon="1.38686">
        <ele>146</ele>
        <time>2024-04-25T17:45:28Z</time>
      </trkpt>
      <trkpt lat="43.64864" lon="1.38684">
        <ele>146</ele>
        <time>2024-04-25T17:45:29Z</time>
      </trkpt>
      <trkpt lat="43.64866" lon="1.38683">
        <ele>146</ele>
        <time>2024-04-25T17:45:30Z</time>
      </trkpt>
      <trkpt lat="43.64868" lon="1.38681">
        <ele>146</ele>
        <time>2024-04-25T17:45:31Z</time>
      </trkpt>
      <trkpt lat="43.64871" lon="1.38679">
        <ele>146</ele>
        <time>2024-04-25T17:45:32Z</time>
      </trkpt>
      <trkpt lat="43.64872" lon="1.38678">
        <ele>146</ele>
        <time>2024-04-25T17:45:33Z</time>
      </trkpt>
      <trkpt lat="43.64874" lon="1.38676">
        <ele>146</ele>
        <time>2024-04-25T17:45:34Z</time>
      </trkpt>
      <trkpt lat="43.64876" lon="1.38674">
        <ele>146</ele>
        <time>2024-04-25T17:45:35Z</time>
      </trkpt>
      <trkpt lat="43.64878" lon="1.38673">
        <ele>145</ele>
        <time>2024-04-25T17:45:36Z</time>
      </trkpt>
      <trkpt lat="43.6488" lon="1.38672">
        <ele>145</ele>
        <time>2024-04-25T17:45:37Z</time>
      </trkpt>
      <trkpt lat="43.64885" lon="1.38669">
        <ele>145</ele>
        <time>2024-04-25T17:45:38Z</time>
      </trkpt>
      <trkpt lat="43.64885" lon="1.38669">
        <ele>145</ele>
        <time>2024-04-25T17:45:39Z</time>
      </trkpt>
      <trkpt lat="43.64887" lon="1.38668">
        <ele>145</ele>
        <time>2024-04-25T17:45:40Z</time>
      </trkpt>
      <trkpt lat="43.64889" lon="1.38667">
        <ele>145</ele>
        <time>2024-04-25T17:45:41Z</time>
      </trkpt>
      <trkpt lat="43.64891" lon="1.38666">
        <ele>145</ele>
        <time>2024-04-25T17:45:42Z</time>
      </trkpt>
      <trkpt lat="43.64893" lon="1.38664">
        <ele>145</ele>
        <time>2024-04-25T17:45:43Z</time>
      </trkpt>
      <trkpt lat="43.64895" lon="1.38662">
        <ele>145</ele>
        <time>2024-04-25T17:45:44Z</time>
      </trkpt>
      <trkpt lat="43.64897" lon="1.3866">
        <ele>145</ele>
        <time>2024-04-25T17:45:45Z</time>
      </trkpt>
      <trkpt lat="43.64899" lon="1.3866">
        <ele>145</ele>
        <time>2024-04-25T17:45:46Z</time>
      </trkpt>
      <trkpt lat="43.64901" lon="1.38659">
        <ele>145</ele>
        <time>2024-04-25T17:45:47Z</time>
      </trkpt>
      <trkpt lat="43.64903" lon="1.38658">
        <ele>145</ele>
        <time>2024-04-25T17:45:48Z</time>
      </trkpt>
      <trkpt lat="43.64905" lon="1.38657">
        <ele>145</ele>
        <time>2024-04-25T17:45:49Z</time>
      </trkpt>
      <trkpt lat="43.64908" lon="1.38656">
        <ele>145</ele>
        <time>2024-04-25T17:45:50Z</time>
      </trkpt>
      <trkpt lat="43.64911" lon="1.38652">
        <ele>145</ele>
        <time>2024-04-25T17:45:51Z</time>
      </trkpt>
      <trkpt lat="43.64912" lon="1.38651">
        <ele>145</ele>
        <time>2024-04-25T17:45:52Z</time>
      </trkpt>
      <trkpt lat="43.64914" lon="1.38649">
        <ele>145</ele>
        <time>2024-04-25T17:45:53Z</time>
      </trkpt>
      <trkpt lat="43.64916" lon="1.38648">
        <ele>145</ele>
        <time>2024-04-25T17:45:54Z</time>
      </trkpt>
      <trkpt lat="43.64918" lon="1.38647">
        <ele>145</ele>
        <time>2024-04-25T17:45:55Z</time>
      </trkpt>
      <trkpt lat="43.64921" lon="1.38645">
        <ele>145</ele>
        <time>2024-04-25T17:45:56Z</time>
      </trkpt>
      <trkpt lat="43.64923" lon="1.38644">
        <ele>145</ele>
        <time>2024-04-25T17:45:57Z</time>
      </trkpt>
      <trkpt lat="43.64926" lon="1.38643">
        <ele>145</ele>
        <time>2024-04-25T17:45:58Z</time>
      </trkpt>
      <trkpt lat="43.64928" lon="1.38642">
        <ele>146</ele>
        <time>2024-04-25T17:45:59Z</time>
      </trkpt>
      <trkpt lat="43.64931" lon="1.3864">
        <ele>146</ele>
        <time>2024-04-25T17:46:00Z</time>
      </trkpt>
      <trkpt lat="43.64933" lon="1.38639">
        <ele>146</ele>
        <time>2024-04-25T17:46:01Z</time>
      </trkpt>
      <trkpt lat="43.64935" lon="1.38637">
        <ele>146</ele>
        <time>2024-04-25T17:46:02Z</time>
      </trkpt>
      <trkpt lat="43.64938" lon="1.38636">
        <ele>146</ele>
        <time>2024-04-25T17:46:03Z</time>
      </trkpt>
      <trkpt lat="43.6494" lon="1.38635">
        <ele>146</ele>
        <time>2024-04-25T17:46:04Z</time>
      </trkpt>
      <trkpt lat="43.64942" lon="1.38634">
        <ele>146</ele>
        <time>2024-04-25T17:46:05Z</time>
      </trkpt>
      <trkpt lat="43.64945" lon="1.38633">
        <ele>146</ele>
        <time>2024-04-25T17:46:06Z</time>
      </trkpt>
      <trkpt lat="43.64947" lon="1.38631">
        <ele>146</ele>
        <time>2024-04-25T17:46:07Z</time>
      </trkpt>
      <trkpt lat="43.64949" lon="1.38629">
        <ele>146</ele>
        <time>2024-04-25T17:46:08Z</time>
      </trkpt>
      <trkpt lat="43.64951" lon="1.38627">
        <ele>146</ele>
        <time>2024-04-25T17:46:09Z</time>
      </trkpt>
      <trkpt lat="43.64955" lon="1.38624">
        <ele>146</ele>
        <time>2024-04-25T17:46:10Z</time>
      </trkpt>
      <trkpt lat="43.64957" lon="1.38622">
        <ele>146</ele>
        <time>2024-04-25T17:46:11Z</time>
      </trkpt>
      <trkpt lat="43.64957" lon="1.38622">
        <ele>146</ele>
        <time>2024-04-25T17:46:12Z</time>
      </trkpt>
      <trkpt lat="43.64961" lon="1.3862">
        <ele>146</ele>
        <time>2024-04-25T17:46:13Z</time>
      </trkpt>
      <trkpt lat="43.64961" lon="1.3862">
        <ele>146</ele>
        <time>2024-04-25T17:46:14Z</time>
      </trkpt>
      <trkpt lat="43.64963" lon="1.38619">
        <ele>146</ele>
        <time>2024-04-25T17:46:15Z</time>
      </trkpt>
      <trkpt lat="43.64964" lon="1.38619">
        <ele>146</ele>
        <time>2024-04-25T17:46:16Z</time>
      </trkpt>
      <trkpt lat="43.64966" lon="1.38617">
        <ele>146</ele>
        <time>2024-04-25T17:46:17Z</time>
      </trkpt>
      <trkpt lat="43.64969" lon="1.38616">
        <ele>146</ele>
        <time>2024-04-25T17:46:18Z</time>
      </trkpt>
      <trkpt lat="43.64972" lon="1.38614">
        <ele>146</ele>
        <time>2024-04-25T17:46:19Z</time>
      </trkpt>
      <trkpt lat="43.64974" lon="1.38613">
        <ele>145</ele>
        <time>2024-04-25T17:46:20Z</time>
      </trkpt>
      <trkpt lat="43.64975" lon="1.38612">
        <ele>145</ele>
        <time>2024-04-25T17:46:21Z</time>
      </trkpt>
      <trkpt lat="43.64978" lon="1.3861">
        <ele>145</ele>
        <time>2024-04-25T17:46:22Z</time>
      </trkpt>
      <trkpt lat="43.6498" lon="1.38609">
        <ele>145</ele>
        <time>2024-04-25T17:46:23Z</time>
      </trkpt>
      <trkpt lat="43.64982" lon="1.38608">
        <ele>146</ele>
        <time>2024-04-25T17:46:24Z</time>
      </trkpt>
      <trkpt lat="43.64985" lon="1.38607">
        <ele>146</ele>
        <time>2024-04-25T17:46:25Z</time>
      </trkpt>
      <trkpt lat="43.64987" lon="1.38606">
        <ele>146</ele>
        <time>2024-04-25T17:46:26Z</time>
      </trkpt>
      <trkpt lat="43.6499" lon="1.38605">
        <ele>146</ele>
        <time>2024-04-25T17:46:27Z</time>
      </trkpt>
      <trkpt lat="43.64992" lon="1.38603">
        <ele>145</ele>
        <time>2024-04-25T17:46:28Z</time>
      </trkpt>
      <trkpt lat="43.64995" lon="1.38601">
        <ele>145</ele>
        <time>2024-04-25T17:46:29Z</time>
      </trkpt>
      <trkpt lat="43.64997" lon="1.386">
        <ele>146</ele>
        <time>2024-04-25T17:46:30Z</time>
      </trkpt>
      <trkpt lat="43.64999" lon="1.38597">
        <ele>146</ele>
        <time>2024-04-25T17:46:31Z</time>
      </trkpt>
      <trkpt lat="43.65001" lon="1.38595">
        <ele>146</ele>
        <time>2024-04-25T17:46:32Z</time>
      </trkpt>
      <trkpt lat="43.65003" lon="1.38594">
        <ele>146</ele>
        <time>2024-04-25T17:46:33Z</time>
      </trkpt>
      <trkpt lat="43.65006" lon="1.38592">
        <ele>146</ele>
        <time>2024-04-25T17:46:34Z</time>
      </trkpt>
      <trkpt lat="43.65008" lon="1.3859">
        <ele>146</ele>
        <time>2024-04-25T17:46:35Z</time>
      </trkpt>
      <trkpt lat="43.65011" lon="1.38589">
        <ele>146</ele>
        <time>2024-04-25T17:46:36Z</time>
      </trkpt>
      <trkpt lat="43.65013" lon="1.38587">
        <ele>146</ele>
        <time>2024-04-25T17:46:37Z</time>
      </trkpt>
      <trkpt lat="43.65015" lon="1.38585">
        <ele>146</ele>
        <time>2024-04-25T17:46:38Z</time>
      </trkpt>
      <trkpt lat="43.65019" lon="1.38583">
        <ele>146</ele>
        <time>2024-04-25T17:46:39Z</time>
      </trkpt>
      <trkpt lat="43.6502" lon="1.38582">
        <ele>146</ele>
        <time>2024-04-25T17:46:40Z</time>
      </trkpt>
      <trkpt lat="43.65022" lon="1.38581">
        <ele>146</ele>
        <time>2024-04-25T17:46:41Z</time>
      </trkpt>
      <trkpt lat="43.65025" lon="1.3858">
        <ele>146</ele>
        <time>2024-04-25T17:46:42Z</time>
      </trkpt>
      <trkpt lat="43.65027" lon="1.38579">
        <ele>146</ele>
        <time>2024-04-25T17:46:43Z</time>
      </trkpt>
      <trkpt lat="43.65029" lon="1.38577">
        <ele>146</ele>
        <time>2024-04-25T17:46:44Z</time>
      </trkpt>
      <trkpt lat="43.65031" lon="1.38576">
        <ele>146</ele>
        <time>2024-04-25T17:46:45Z</time>
      </trkpt>
      <trkpt lat="43.65033" lon="1.38575">
        <ele>146</ele>
        <time>2024-04-25T17:46:46Z</time>
      </trkpt>
      <trkpt lat="43.65035" lon="1.38574">
        <ele>146</ele>
        <time>2024-04-25T17:46:47Z</time>
      </trkpt>
      <trkpt lat="43.6504" lon="1.38573">
        <ele>146</ele>
        <time>2024-04-25T17:46:48Z</time>
      </trkpt>
      <trkpt lat="43.65041" lon="1.38572">
        <ele>146</ele>
        <time>2024-04-25T17:46:49Z</time>
      </trkpt>
      <trkpt lat="43.65043" lon="1.38571">
        <ele>146</ele>
        <time>2024-04-25T17:46:50Z</time>
      </trkpt>
      <trkpt lat="43.65045" lon="1.38569">
        <ele>146</ele>
        <time>2024-04-25T17:46:51Z</time>
      </trkpt>
      <trkpt lat="43.65047" lon="1.38567">
        <ele>146</ele>
        <time>2024-04-25T17:46:52Z</time>
      </trkpt>
      <trkpt lat="43.65049" lon="1.38565">
        <ele>146</ele>
        <time>2024-04-25T17:46:53Z</time>
      </trkpt>
      <trkpt lat="43.65052" lon="1.38564">
        <ele>146</ele>
        <time>2024-04-25T17:46:54Z</time>
      </trkpt>
      <trkpt lat="43.65054" lon="1.38562">
        <ele>146</ele>
        <time>2024-04-25T17:46:55Z</time>
      </trkpt>
      <trkpt lat="43.65057" lon="1.38561">
        <ele>145</ele>
        <time>2024-04-25T17:46:56Z</time>
      </trkpt>
      <trkpt lat="43.65059" lon="1.3856">
        <ele>146</ele>
        <time>2024-04-25T17:46:57Z</time>
      </trkpt>
      <trkpt lat="43.65061" lon="1.38559">
        <ele>146</ele>
        <time>2024-04-25T17:46:58Z</time>
      </trkpt>
      <trkpt lat="43.65063" lon="1.38558">
        <ele>146</ele>
        <time>2024-04-25T17:46:59Z</time>
      </trkpt>
      <trkpt lat="43.65065" lon="1.38557">
        <ele>146</ele>
        <time>2024-04-25T17:47:00Z</time>
      </trkpt>
      <trkpt lat="43.65066" lon="1.38555">
        <ele>146</ele>
        <time>2024-04-25T17:47:01Z</time>
      </trkpt>
      <trkpt lat="43.65068" lon="1.38554">
        <ele>146</ele>
        <time>2024-04-25T17:47:02Z</time>
      </trkpt>
      <trkpt lat="43.65071" lon="1.38552">
        <ele>146</ele>
        <time>2024-04-25T17:47:03Z</time>
      </trkpt>
      <trkpt lat="43.65072" lon="1.38551">
        <ele>145</ele>
        <time>2024-04-25T17:47:04Z</time>
      </trkpt>
      <trkpt lat="43.65075" lon="1.3855">
        <ele>145</ele>
        <time>2024-04-25T17:47:05Z</time>
      </trkpt>
      <trkpt lat="43.65077" lon="1.38549">
        <ele>145</ele>
        <time>2024-04-25T17:47:06Z</time>
      </trkpt>
      <trkpt lat="43.65082" lon="1.38548">
        <ele>145</ele>
        <time>2024-04-25T17:47:07Z</time>
      </trkpt>
      <trkpt lat="43.65083" lon="1.38547">
        <ele>146</ele>
        <time>2024-04-25T17:47:08Z</time>
      </trkpt>
      <trkpt lat="43.65085" lon="1.38546">
        <ele>146</ele>
        <time>2024-04-25T17:47:09Z</time>
      </trkpt>
      <trkpt lat="43.65087" lon="1.38545">
        <ele>145</ele>
        <time>2024-04-25T17:47:10Z</time>
      </trkpt>
      <trkpt lat="43.6509" lon="1.38544">
        <ele>145</ele>
        <time>2024-04-25T17:47:11Z</time>
      </trkpt>
      <trkpt lat="43.65091" lon="1.38542">
        <ele>145</ele>
        <time>2024-04-25T17:47:12Z</time>
      </trkpt>
      <trkpt lat="43.65093" lon="1.38541">
        <ele>145</ele>
        <time>2024-04-25T17:47:13Z</time>
      </trkpt>
      <trkpt lat="43.65095" lon="1.38539">
        <ele>145</ele>
        <time>2024-04-25T17:47:14Z</time>
      </trkpt>
      <trkpt lat="43.65097" lon="1.38536">
        <ele>145</ele>
        <time>2024-04-25T17:47:15Z</time>
      </trkpt>
      <trkpt lat="43.65098" lon="1.38533">
        <ele>145</ele>
        <time>2024-04-25T17:47:16Z</time>
      </trkpt>
      <trkpt lat="43.65099" lon="1.3853">
        <ele>145</ele>
        <time>2024-04-25T17:47:17Z</time>
      </trkpt>
      <trkpt lat="43.65099" lon="1.38527">
        <ele>145</ele>
        <time>2024-04-25T17:47:18Z</time>
      </trkpt>
      <trkpt lat="43.651" lon="1.38524">
        <ele>145</ele>
        <time>2024-04-25T17:47:19Z</time>
      </trkpt>
      <trkpt lat="43.65101" lon="1.38519">
        <ele>145</ele>
        <time>2024-04-25T17:47:20Z</time>
      </trkpt>
      <trkpt lat="43.65102" lon="1.38517">
        <ele>145</ele>
        <time>2024-04-25T17:47:21Z</time>
      </trkpt>
      <trkpt lat="43.65103" lon="1.38514">
        <ele>146</ele>
        <time>2024-04-25T17:47:22Z</time>
      </trkpt>
      <trkpt lat="43.65103" lon="1.3851">
        <ele>146</ele>
        <time>2024-04-25T17:47:23Z</time>
      </trkpt>
      <trkpt lat="43.65103" lon="1.38508">
        <ele>146</ele>
        <time>2024-04-25T17:47:24Z</time>
      </trkpt>
      <trkpt lat="43.65102" lon="1.38504">
        <ele>146</ele>
        <time>2024-04-25T17:47:25Z</time>
      </trkpt>
      <trkpt lat="43.651" lon="1.38499">
        <ele>146</ele>
        <time>2024-04-25T17:47:26Z</time>
      </trkpt>
      <trkpt lat="43.651" lon="1.38497">
        <ele>145</ele>
        <time>2024-04-25T17:47:27Z</time>
      </trkpt>
      <trkpt lat="43.65099" lon="1.38494">
        <ele>145</ele>
        <time>2024-04-25T17:47:28Z</time>
      </trkpt>
      <trkpt lat="43.65098" lon="1.38491">
        <ele>145</ele>
        <time>2024-04-25T17:47:29Z</time>
      </trkpt>
      <trkpt lat="43.65097" lon="1.38488">
        <ele>145</ele>
        <time>2024-04-25T17:47:30Z</time>
      </trkpt>
      <trkpt lat="43.65096" lon="1.38485">
        <ele>145</ele>
        <time>2024-04-25T17:47:31Z</time>
      </trkpt>
      <trkpt lat="43.65095" lon="1.38483">
        <ele>145</ele>
        <time>2024-04-25T17:47:32Z</time>
      </trkpt>
      <trkpt lat="43.65094" lon="1.3848">
        <ele>146</ele>
        <time>2024-04-25T17:47:33Z</time>
      </trkpt>
      <trkpt lat="43.65092" lon="1.38474">
        <ele>146</ele>
        <time>2024-04-25T17:47:34Z</time>
      </trkpt>
      <trkpt lat="43.65092" lon="1.38474">
        <ele>146</ele>
        <time>2024-04-25T17:47:35Z</time>
      </trkpt>
      <trkpt lat="43.65091" lon="1.38471">
        <ele>146</ele>
        <time>2024-04-25T17:47:36Z</time>
      </trkpt>
      <trkpt lat="43.6509" lon="1.38469">
        <ele>146</ele>
        <time>2024-04-25T17:47:37Z</time>
      </trkpt>
      <trkpt lat="43.65089" lon="1.38466">
        <ele>145</ele>
        <time>2024-04-25T17:47:38Z</time>
      </trkpt>
      <trkpt lat="43.65088" lon="1.38463">
        <ele>146</ele>
        <time>2024-04-25T17:47:39Z</time>
      </trkpt>
      <trkpt lat="43.65087" lon="1.38459">
        <ele>146</ele>
        <time>2024-04-25T17:47:40Z</time>
      </trkpt>
      <trkpt lat="43.65086" lon="1.38455">
        <ele>146</ele>
        <time>2024-04-25T17:47:41Z</time>
      </trkpt>
      <trkpt lat="43.65085" lon="1.38453">
        <ele>146</ele>
        <time>2024-04-25T17:47:42Z</time>
      </trkpt>
      <trkpt lat="43.65084" lon="1.3845">
        <ele>146</ele>
        <time>2024-04-25T17:47:43Z</time>
      </trkpt>
      <trkpt lat="43.65083" lon="1.38446">
        <ele>146</ele>
        <time>2024-04-25T17:47:44Z</time>
      </trkpt>
      <trkpt lat="43.65081" lon="1.38442">
        <ele>146</ele>
        <time>2024-04-25T17:47:45Z</time>
      </trkpt>
      <trkpt lat="43.6508" lon="1.3844">
        <ele>146</ele>
        <time>2024-04-25T17:47:46Z</time>
      </trkpt>
      <trkpt lat="43.65079" lon="1.38437">
        <ele>146</ele>
        <time>2024-04-25T17:47:47Z</time>
      </trkpt>
      <trkpt lat="43.65076" lon="1.38431">
        <ele>146</ele>
        <time>2024-04-25T17:47:48Z</time>
      </trkpt>
      <trkpt lat="43.65076" lon="1.38431">
        <ele>146</ele>
        <time>2024-04-25T17:47:49Z</time>
      </trkpt>
      <trkpt lat="43.65075" lon="1.38428">
        <ele>146</ele>
        <time>2024-04-25T17:47:50Z</time>
      </trkpt>
      <trkpt lat="43.65074" lon="1.38425">
        <ele>146</ele>
        <time>2024-04-25T17:47:51Z</time>
      </trkpt>
      <trkpt lat="43.65073" lon="1.38422">
        <ele>146</ele>
        <time>2024-04-25T17:47:52Z</time>
      </trkpt>
      <trkpt lat="43.65073" lon="1.38418">
        <ele>146</ele>
        <time>2024-04-25T17:47:53Z</time>
      </trkpt>
      <trkpt lat="43.65072" lon="1.38415">
        <ele>146</ele>
        <time>2024-04-25T17:47:54Z</time>
      </trkpt>
      <trkpt lat="43.65071" lon="1.38411">
        <ele>146</ele>
        <time>2024-04-25T17:47:55Z</time>
      </trkpt>
      <trkpt lat="43.6507" lon="1.38408">
        <ele>146</ele>
        <time>2024-04-25T17:47:56Z</time>
      </trkpt>
      <trkpt lat="43.65069" lon="1.38404">
        <ele>146</ele>
        <time>2024-04-25T17:47:57Z</time>
      </trkpt>
      <trkpt lat="43.65068" lon="1.38401">
        <ele>146</ele>
        <time>2024-04-25T17:47:58Z</time>
      </trkpt>
      <trkpt lat="43.65068" lon="1.38398">
        <ele>146</ele>
        <time>2024-04-25T17:47:59Z</time>
      </trkpt>
      <trkpt lat="43.65067" lon="1.38393">
        <ele>146</ele>
        <time>2024-04-25T17:48:00Z</time>
      </trkpt>
      <trkpt lat="43.65066" lon="1.38392">
        <ele>146</ele>
        <time>2024-04-25T17:48:01Z</time>
      </trkpt>
      <trkpt lat="43.65066" lon="1.38389">
        <ele>146</ele>
        <time>2024-04-25T17:48:02Z</time>
      </trkpt>
      <trkpt lat="43.65065" lon="1.38386">
        <ele>146</ele>
        <time>2024-04-25T17:48:03Z</time>
      </trkpt>
      <trkpt lat="43.65063" lon="1.38381">
        <ele>146</ele>
        <time>2024-04-25T17:48:04Z</time>
      </trkpt>
      <trkpt lat="43.65063" lon="1.3838">
        <ele>146</ele>
        <time>2024-04-25T17:48:05Z</time>
      </trkpt>
      <trkpt lat="43.65061" lon="1.38376">
        <ele>146</ele>
        <time>2024-04-25T17:48:06Z</time>
      </trkpt>
      <trkpt lat="43.6506" lon="1.38373">
        <ele>146</ele>
        <time>2024-04-25T17:48:07Z</time>
      </trkpt>
      <trkpt lat="43.65059" lon="1.38369">
        <ele>146</ele>
        <time>2024-04-25T17:48:08Z</time>
      </trkpt>
      <trkpt lat="43.65058" lon="1.38366">
        <ele>146</ele>
        <time>2024-04-25T17:48:09Z</time>
      </trkpt>
      <trkpt lat="43.65057" lon="1.38363">
        <ele>146</ele>
        <time>2024-04-25T17:48:10Z</time>
      </trkpt>
      <trkpt lat="43.65056" lon="1.3836">
        <ele>146</ele>
        <time>2024-04-25T17:48:11Z</time>
      </trkpt>
      <trkpt lat="43.65055" lon="1.38357">
        <ele>146</ele>
        <time>2024-04-25T17:48:12Z</time>
      </trkpt>
      <trkpt lat="43.65054" lon="1.38354">
        <ele>146</ele>
        <time>2024-04-25T17:48:13Z</time>
      </trkpt>
      <trkpt lat="43.65053" lon="1.38351">
        <ele>146</ele>
        <time>2024-04-25T17:48:14Z</time>
      </trkpt>
      <trkpt lat="43.65052" lon="1.38347">
        <ele>146</ele>
        <time>2024-04-25T17:48:15Z</time>
      </trkpt>
      <trkpt lat="43.65051" lon="1.38344">
        <ele>146</ele>
        <time>2024-04-25T17:48:16Z</time>
      </trkpt>
      <trkpt lat="43.6505" lon="1.38341">
        <ele>146</ele>
        <time>2024-04-25T17:48:17Z</time>
      </trkpt>
      <trkpt lat="43.65049" lon="1.38337">
        <ele>146</ele>
        <time>2024-04-25T17:48:18Z</time>
      </trkpt>
      <trkpt lat="43.65048" lon="1.38334">
        <ele>146</ele>
        <time>2024-04-25T17:48:19Z</time>
      </trkpt>
      <trkpt lat="43.65047" lon="1.38332">
        <ele>146</ele>
        <time>2024-04-25T17:48:20Z</time>
      </trkpt>
      <trkpt lat="43.65046" lon="1.38329">
        <ele>146</ele>
        <time>2024-04-25T17:48:21Z</time>
      </trkpt>
      <trkpt lat="43.65046" lon="1.38326">
        <ele>146</ele>
        <time>2024-04-25T17:48:22Z</time>
      </trkpt>
      <trkpt lat="43.65044" lon="1.38319">
        <ele>146</ele>
        <time>2024-04-25T17:48:23Z</time>
      </trkpt>
      <trkpt lat="43.65043" lon="1.38316">
        <ele>146</ele>
        <time>2024-04-25T17:48:24Z</time>
      </trkpt>
      <trkpt lat="43.65043" lon="1.38316">
        <ele>146</ele>
        <time>2024-04-25T17:48:25Z</time>
      </trkpt>
      <trkpt lat="43.65042" lon="1.38313">
        <ele>146</ele>
        <time>2024-04-25T17:48:26Z</time>
      </trkpt>
      <trkpt lat="43.65041" lon="1.3831">
        <ele>146</ele>
        <time>2024-04-25T17:48:27Z</time>
      </trkpt>
      <trkpt lat="43.6504" lon="1.38306">
        <ele>146</ele>
        <time>2024-04-25T17:48:28Z</time>
      </trkpt>
      <trkpt lat="43.65039" lon="1.38303">
        <ele>146</ele>
        <time>2024-04-25T17:48:29Z</time>
      </trkpt>
      <trkpt lat="43.65038" lon="1.383">
        <ele>146</ele>
        <time>2024-04-25T17:48:30Z</time>
      </trkpt>
      <trkpt lat="43.65036" lon="1.38297">
        <ele>146</ele>
        <time>2024-04-25T17:48:31Z</time>
      </trkpt>
      <trkpt lat="43.65035" lon="1.38293">
        <ele>146</ele>
        <time>2024-04-25T17:48:32Z</time>
      </trkpt>
      <trkpt lat="43.65033" lon="1.38287">
        <ele>146</ele>
        <time>2024-04-25T17:48:33Z</time>
      </trkpt>
      <trkpt lat="43.65033" lon="1.38287">
        <ele>146</ele>
        <time>2024-04-25T17:48:34Z</time>
      </trkpt>
      <trkpt lat="43.65032" lon="1.38283">
        <ele>146</ele>
        <time>2024-04-25T17:48:35Z</time>
      </trkpt>
      <trkpt lat="43.65032" lon="1.3828">
        <ele>147</ele>
        <time>2024-04-25T17:48:36Z</time>
      </trkpt>
      <trkpt lat="43.65031" lon="1.38277">
        <ele>147</ele>
        <time>2024-04-25T17:48:37Z</time>
      </trkpt>
      <trkpt lat="43.6503" lon="1.38273">
        <ele>146</ele>
        <time>2024-04-25T17:48:38Z</time>
      </trkpt>
      <trkpt lat="43.65029" lon="1.3827">
        <ele>146</ele>
        <time>2024-04-25T17:48:39Z</time>
      </trkpt>
      <trkpt lat="43.65028" lon="1.38266">
        <ele>146</ele>
        <time>2024-04-25T17:48:40Z</time>
      </trkpt>
      <trkpt lat="43.65027" lon="1.38264">
        <ele>147</ele>
        <time>2024-04-25T17:48:41Z</time>
      </trkpt>
      <trkpt lat="43.65026" lon="1.38259">
        <ele>147</ele>
        <time>2024-04-25T17:48:42Z</time>
      </trkpt>
      <trkpt lat="43.65026" lon="1.38258">
        <ele>146</ele>
        <time>2024-04-25T17:48:43Z</time>
      </trkpt>
      <trkpt lat="43.65025" lon="1.38254">
        <ele>146</ele>
        <time>2024-04-25T17:48:44Z</time>
      </trkpt>
      <trkpt lat="43.65023" lon="1.38251">
        <ele>146</ele>
        <time>2024-04-25T17:48:45Z</time>
      </trkpt>
      <trkpt lat="43.65023" lon="1.38248">
        <ele>146</ele>
        <time>2024-04-25T17:48:46Z</time>
      </trkpt>
      <trkpt lat="43.65021" lon="1.38245">
        <ele>146</ele>
        <time>2024-04-25T17:48:47Z</time>
      </trkpt>
      <trkpt lat="43.6502" lon="1.38239">
        <ele>146</ele>
        <time>2024-04-25T17:48:48Z</time>
      </trkpt>
      <trkpt lat="43.6502" lon="1.38239">
        <ele>146</ele>
        <time>2024-04-25T17:48:49Z</time>
      </trkpt>
      <trkpt lat="43.65019" lon="1.38236">
        <ele>146</ele>
        <time>2024-04-25T17:48:50Z</time>
      </trkpt>
      <trkpt lat="43.65018" lon="1.38233">
        <ele>146</ele>
        <time>2024-04-25T17:48:51Z</time>
      </trkpt>
      <trkpt lat="43.65017" lon="1.3823">
        <ele>146</ele>
        <time>2024-04-25T17:48:52Z</time>
      </trkpt>
      <trkpt lat="43.65015" lon="1.38227">
        <ele>146</ele>
        <time>2024-04-25T17:48:53Z</time>
      </trkpt>
      <trkpt lat="43.65014" lon="1.38223">
        <ele>146</ele>
        <time>2024-04-25T17:48:54Z</time>
      </trkpt>
      <trkpt lat="43.65014" lon="1.3822">
        <ele>146</ele>
        <time>2024-04-25T17:48:55Z</time>
      </trkpt>
      <trkpt lat="43.65013" lon="1.38217">
        <ele>146</ele>
        <time>2024-04-25T17:48:56Z</time>
      </trkpt>
      <trkpt lat="43.65012" lon="1.38214">
        <ele>146</ele>
        <time>2024-04-25T17:48:57Z</time>
      </trkpt>
      <trkpt lat="43.65011" lon="1.3821">
        <ele>146</ele>
        <time>2024-04-25T17:48:58Z</time>
      </trkpt>
      <trkpt lat="43.65009" lon="1.38207">
        <ele>146</ele>
        <time>2024-04-25T17:48:59Z</time>
      </trkpt>
      <trkpt lat="43.65008" lon="1.38204">
        <ele>146</ele>
        <time>2024-04-25T17:49:00Z</time>
      </trkpt>
      <trkpt lat="43.65007" lon="1.382">
        <ele>146</ele>
        <time>2024-04-25T17:49:01Z</time>
      </trkpt>
      <trkpt lat="43.65004" lon="1.38194">
        <ele>146</ele>
        <time>2024-04-25T17:49:02Z</time>
      </trkpt>
      <trkpt lat="43.65004" lon="1.38194">
        <ele>146</ele>
        <time>2024-04-25T17:49:03Z</time>
      </trkpt>
      <trkpt lat="43.65" lon="1.38191">
        <ele>146</ele>
        <time>2024-04-25T17:49:04Z</time>
      </trkpt>
      <trkpt lat="43.65" lon="1.38191">
        <ele>146</ele>
        <time>2024-04-25T17:49:05Z</time>
      </trkpt>
      <trkpt lat="43.64999" lon="1.38189">
        <ele>146</ele>
        <time>2024-04-25T17:49:06Z</time>
      </trkpt>
      <trkpt lat="43.64997" lon="1.38187">
        <ele>146</ele>
        <time>2024-04-25T17:49:07Z</time>
      </trkpt>
      <trkpt lat="43.64996" lon="1.38184">
        <ele>146</ele>
        <time>2024-04-25T17:49:08Z</time>
      </trkpt>
      <trkpt lat="43.64994" lon="1.38178">
        <ele>147</ele>
        <time>2024-04-25T17:49:09Z</time>
      </trkpt>
      <trkpt lat="43.64994" lon="1.38178">
        <ele>147</ele>
        <time>2024-04-25T17:49:10Z</time>
      </trkpt>
      <trkpt lat="43.64994" lon="1.38174">
        <ele>147</ele>
        <time>2024-04-25T17:49:11Z</time>
      </trkpt>
      <trkpt lat="43.64995" lon="1.3817">
        <ele>146</ele>
        <time>2024-04-25T17:49:12Z</time>
      </trkpt>
      <trkpt lat="43.64996" lon="1.38167">
        <ele>146</ele>
        <time>2024-04-25T17:49:13Z</time>
      </trkpt>
      <trkpt lat="43.64996" lon="1.38164">
        <ele>146</ele>
        <time>2024-04-25T17:49:14Z</time>
      </trkpt>
      <trkpt lat="43.64997" lon="1.3816">
        <ele>146</ele>
        <time>2024-04-25T17:49:15Z</time>
      </trkpt>
      <trkpt lat="43.64998" lon="1.38157">
        <ele>146</ele>
        <time>2024-04-25T17:49:16Z</time>
      </trkpt>
      <trkpt lat="43.64999" lon="1.38153">
        <ele>146</ele>
        <time>2024-04-25T17:49:17Z</time>
      </trkpt>
      <trkpt lat="43.65" lon="1.3815">
        <ele>146</ele>
        <time>2024-04-25T17:49:18Z</time>
      </trkpt>
      <trkpt lat="43.65001" lon="1.38146">
        <ele>146</ele>
        <time>2024-04-25T17:49:19Z</time>
      </trkpt>
      <trkpt lat="43.65001" lon="1.38141">
        <ele>146</ele>
        <time>2024-04-25T17:49:20Z</time>
      </trkpt>
      <trkpt lat="43.65001" lon="1.38139">
        <ele>146</ele>
        <time>2024-04-25T17:49:21Z</time>
      </trkpt>
      <trkpt lat="43.65001" lon="1.38136">
        <ele>146</ele>
        <time>2024-04-25T17:49:22Z</time>
      </trkpt>
      <trkpt lat="43.65" lon="1.38132">
        <ele>146</ele>
        <time>2024-04-25T17:49:23Z</time>
      </trkpt>
      <trkpt lat="43.64999" lon="1.38129">
        <ele>146</ele>
        <time>2024-04-25T17:49:24Z</time>
      </trkpt>
      <trkpt lat="43.64998" lon="1.38125">
        <ele>146</ele>
        <time>2024-04-25T17:49:25Z</time>
      </trkpt>
      <trkpt lat="43.64997" lon="1.38122">
        <ele>146</ele>
        <time>2024-04-25T17:49:26Z</time>
      </trkpt>
      <trkpt lat="43.64996" lon="1.38119">
        <ele>146</ele>
        <time>2024-04-25T17:49:27Z</time>
      </trkpt>
      <trkpt lat="43.64995" lon="1.38116">
        <ele>146</ele>
        <time>2024-04-25T17:49:28Z</time>
      </trkpt>
      <trkpt lat="43.64994" lon="1.38113">
        <ele>146</ele>
        <time>2024-04-25T17:49:29Z</time>
      </trkpt>
      <trkpt lat="43.64993" lon="1.3811">
        <ele>146</ele>
        <time>2024-04-25T17:49:30Z</time>
      </trkpt>
      <trkpt lat="43.64993" lon="1.38107">
        <ele>146</ele>
        <time>2024-04-25T17:49:31Z</time>
      </trkpt>
      <trkpt lat="43.64992" lon="1.38104">
        <ele>146</ele>
        <time>2024-04-25T17:49:32Z</time>
      </trkpt>
      <trkpt lat="43.64991" lon="1.38101">
        <ele>145</ele>
        <time>2024-04-25T17:49:33Z</time>
      </trkpt>
      <trkpt lat="43.6499" lon="1.38097">
        <ele>145</ele>
        <time>2024-04-25T17:49:34Z</time>
      </trkpt>
      <trkpt lat="43.64989" lon="1.38094">
        <ele>145</ele>
        <time>2024-04-25T17:49:35Z</time>
      </trkpt>
      <trkpt lat="43.64988" lon="1.38091">
        <ele>145</ele>
        <time>2024-04-25T17:49:36Z</time>
      </trkpt>
      <trkpt lat="43.64987" lon="1.38088">
        <ele>145</ele>
        <time>2024-04-25T17:49:37Z</time>
      </trkpt>
      <trkpt lat="43.64986" lon="1.38085">
        <ele>145</ele>
        <time>2024-04-25T17:49:38Z</time>
      </trkpt>
      <trkpt lat="43.64985" lon="1.38082">
        <ele>145</ele>
        <time>2024-04-25T17:49:39Z</time>
      </trkpt>
      <trkpt lat="43.64984" lon="1.38079">
        <ele>145</ele>
        <time>2024-04-25T17:49:40Z</time>
      </trkpt>
      <trkpt lat="43.64983" lon="1.38075">
        <ele>145</ele>
        <time>2024-04-25T17:49:41Z</time>
      </trkpt>
      <trkpt lat="43.64982" lon="1.38072">
        <ele>146</ele>
        <time>2024-04-25T17:49:42Z</time>
      </trkpt>
      <trkpt lat="43.64981" lon="1.3807">
        <ele>146</ele>
        <time>2024-04-25T17:49:43Z</time>
      </trkpt>
      <trkpt lat="43.6498" lon="1.38066">
        <ele>146</ele>
        <time>2024-04-25T17:49:44Z</time>
      </trkpt>
      <trkpt lat="43.64979" lon="1.38063">
        <ele>146</ele>
        <time>2024-04-25T17:49:45Z</time>
      </trkpt>
      <trkpt lat="43.64978" lon="1.3806">
        <ele>146</ele>
        <time>2024-04-25T17:49:46Z</time>
      </trkpt>
      <trkpt lat="43.64977" lon="1.38057">
        <ele>146</ele>
        <time>2024-04-25T17:49:47Z</time>
      </trkpt>
      <trkpt lat="43.64976" lon="1.38054">
        <ele>146</ele>
        <time>2024-04-25T17:49:48Z</time>
      </trkpt>
      <trkpt lat="43.64975" lon="1.3805">
        <ele>146</ele>
        <time>2024-04-25T17:49:49Z</time>
      </trkpt>
      <trkpt lat="43.64974" lon="1.38048">
        <ele>145</ele>
        <time>2024-04-25T17:49:50Z</time>
      </trkpt>
      <trkpt lat="43.64972" lon="1.38044">
        <ele>145</ele>
        <time>2024-04-25T17:49:51Z</time>
      </trkpt>
      <trkpt lat="43.64971" lon="1.38041">
        <ele>145</ele>
        <time>2024-04-25T17:49:52Z</time>
      </trkpt>
      <trkpt lat="43.64968" lon="1.38034">
        <ele>145</ele>
        <time>2024-04-25T17:49:53Z</time>
      </trkpt>
      <trkpt lat="43.64968" lon="1.38034">
        <ele>145</ele>
        <time>2024-04-25T17:49:54Z</time>
      </trkpt>
      <trkpt lat="43.64968" lon="1.38031">
        <ele>145</ele>
        <time>2024-04-25T17:49:55Z</time>
      </trkpt>
      <trkpt lat="43.64967" lon="1.38028">
        <ele>145</ele>
        <time>2024-04-25T17:49:56Z</time>
      </trkpt>
      <trkpt lat="43.64965" lon="1.38025">
        <ele>145</ele>
        <time>2024-04-25T17:49:57Z</time>
      </trkpt>
      <trkpt lat="43.64964" lon="1.38022">
        <ele>145</ele>
        <time>2024-04-25T17:49:58Z</time>
      </trkpt>
      <trkpt lat="43.64963" lon="1.38018">
        <ele>145</ele>
        <time>2024-04-25T17:49:59Z</time>
      </trkpt>
      <trkpt lat="43.64962" lon="1.38016">
        <ele>145</ele>
        <time>2024-04-25T17:50:00Z</time>
      </trkpt>
      <trkpt lat="43.64961" lon="1.38012">
        <ele>145</ele>
        <time>2024-04-25T17:50:01Z</time>
      </trkpt>
      <trkpt lat="43.6496" lon="1.38009">
        <ele>145</ele>
        <time>2024-04-25T17:50:02Z</time>
      </trkpt>
      <trkpt lat="43.64958" lon="1.38003">
        <ele>145</ele>
        <time>2024-04-25T17:50:03Z</time>
      </trkpt>
      <trkpt lat="43.64958" lon="1.38003">
        <ele>145</ele>
        <time>2024-04-25T17:50:04Z</time>
      </trkpt>
      <trkpt lat="43.64956" lon="1.38">
        <ele>145</ele>
        <time>2024-04-25T17:50:05Z</time>
      </trkpt>
      <trkpt lat="43.64954" lon="1.37998">
        <ele>145</ele>
        <time>2024-04-25T17:50:06Z</time>
      </trkpt>
      <trkpt lat="43.64952" lon="1.37995">
        <ele>145</ele>
        <time>2024-04-25T17:50:07Z</time>
      </trkpt>
      <trkpt lat="43.6495" lon="1.37991">
        <ele>145</ele>
        <time>2024-04-25T17:50:08Z</time>
      </trkpt>
      <trkpt lat="43.64949" lon="1.37987">
        <ele>145</ele>
        <time>2024-04-25T17:50:09Z</time>
      </trkpt>
      <trkpt lat="43.64947" lon="1.3798">
        <ele>145</ele>
        <time>2024-04-25T17:50:10Z</time>
      </trkpt>
      <trkpt lat="43.64947" lon="1.3798">
        <ele>145</ele>
        <time>2024-04-25T17:50:11Z</time>
      </trkpt>
      <trkpt lat="43.64946" lon="1.37976">
        <ele>145</ele>
        <time>2024-04-25T17:50:12Z</time>
      </trkpt>
      <trkpt lat="43.64946" lon="1.37973">
        <ele>145</ele>
        <time>2024-04-25T17:50:13Z</time>
      </trkpt>
      <trkpt lat="43.64946" lon="1.37969">
        <ele>145</ele>
        <time>2024-04-25T17:50:14Z</time>
      </trkpt>
      <trkpt lat="43.64946" lon="1.37966">
        <ele>145</ele>
        <time>2024-04-25T17:50:15Z</time>
      </trkpt>
      <trkpt lat="43.64946" lon="1.37962">
        <ele>145</ele>
        <time>2024-04-25T17:50:16Z</time>
      </trkpt>
      <trkpt lat="43.64945" lon="1.37959">
        <ele>145</ele>
        <time>2024-04-25T17:50:17Z</time>
      </trkpt>
      <trkpt lat="43.64945" lon="1.37955">
        <ele>145</ele>
        <time>2024-04-25T17:50:18Z</time>
      </trkpt>
      <trkpt lat="43.64944" lon="1.37952">
        <ele>145</ele>
        <time>2024-04-25T17:50:19Z</time>
      </trkpt>
      <trkpt lat="43.64944" lon="1.37949">
        <ele>145</ele>
        <time>2024-04-25T17:50:20Z</time>
      </trkpt>
      <trkpt lat="43.64943" lon="1.37945">
        <ele>145</ele>
        <time>2024-04-25T17:50:21Z</time>
      </trkpt>
      <trkpt lat="43.64942" lon="1.37942">
        <ele>145</ele>
        <time>2024-04-25T17:50:22Z</time>
      </trkpt>
      <trkpt lat="43.64942" lon="1.37938">
        <ele>145</ele>
        <time>2024-04-25T17:50:23Z</time>
      </trkpt>
      <trkpt lat="43.6494" lon="1.37932">
        <ele>145</ele>
        <time>2024-04-25T17:50:24Z</time>
      </trkpt>
      <trkpt lat="43.6494" lon="1.37932">
        <ele>145</ele>
        <time>2024-04-25T17:50:25Z</time>
      </trkpt>
      <trkpt lat="43.64939" lon="1.37928">
        <ele>145</ele>
        <time>2024-04-25T17:50:26Z</time>
      </trkpt>
      <trkpt lat="43.64938" lon="1.37925">
        <ele>145</ele>
        <time>2024-04-25T17:50:27Z</time>
      </trkpt>
      <trkpt lat="43.64937" lon="1.37921">
        <ele>145</ele>
        <time>2024-04-25T17:50:28Z</time>
      </trkpt>
      <trkpt lat="43.64936" lon="1.37918">
        <ele>145</ele>
        <time>2024-04-25T17:50:29Z</time>
      </trkpt>
      <trkpt lat="43.64935" lon="1.37914">
        <ele>145</ele>
        <time>2024-04-25T17:50:30Z</time>
      </trkpt>
      <trkpt lat="43.64934" lon="1.3791">
        <ele>145</ele>
        <time>2024-04-25T17:50:31Z</time>
      </trkpt>
      <trkpt lat="43.64933" lon="1.37907">
        <ele>145</ele>
        <time>2024-04-25T17:50:32Z</time>
      </trkpt>
      <trkpt lat="43.64932" lon="1.37903">
        <ele>145</ele>
        <time>2024-04-25T17:50:33Z</time>
      </trkpt>
      <trkpt lat="43.64931" lon="1.379">
        <ele>145</ele>
        <time>2024-04-25T17:50:34Z</time>
      </trkpt>
      <trkpt lat="43.6493" lon="1.37896">
        <ele>145</ele>
        <time>2024-04-25T17:50:35Z</time>
      </trkpt>
      <trkpt lat="43.64929" lon="1.37893">
        <ele>145</ele>
        <time>2024-04-25T17:50:36Z</time>
      </trkpt>
      <trkpt lat="43.64929" lon="1.3789">
        <ele>145</ele>
        <time>2024-04-25T17:50:37Z</time>
      </trkpt>
      <trkpt lat="43.64928" lon="1.37887">
        <ele>145</ele>
        <time>2024-04-25T17:50:38Z</time>
      </trkpt>
      <trkpt lat="43.64928" lon="1.37884">
        <ele>145</ele>
        <time>2024-04-25T17:50:39Z</time>
      </trkpt>
      <trkpt lat="43.64927" lon="1.37881">
        <ele>145</ele>
        <time>2024-04-25T17:50:40Z</time>
      </trkpt>
      <trkpt lat="43.64926" lon="1.37877">
        <ele>145</ele>
        <time>2024-04-25T17:50:41Z</time>
      </trkpt>
      <trkpt lat="43.64925" lon="1.37874">
        <ele>146</ele>
        <time>2024-04-25T17:50:42Z</time>
      </trkpt>
      <trkpt lat="43.64924" lon="1.37871">
        <ele>146</ele>
        <time>2024-04-25T17:50:43Z</time>
      </trkpt>
      <trkpt lat="43.64923" lon="1.37868">
        <ele>145</ele>
        <time>2024-04-25T17:50:44Z</time>
      </trkpt>
      <trkpt lat="43.64923" lon="1.37864">
        <ele>145</ele>
        <time>2024-04-25T17:50:45Z</time>
      </trkpt>
      <trkpt lat="43.64922" lon="1.37861">
        <ele>145</ele>
        <time>2024-04-25T17:50:46Z</time>
      </trkpt>
      <trkpt lat="43.6492" lon="1.37855">
        <ele>146</ele>
        <time>2024-04-25T17:50:47Z</time>
      </trkpt>
      <trkpt lat="43.6492" lon="1.37855">
        <ele>146</ele>
        <time>2024-04-25T17:50:48Z</time>
      </trkpt>
      <trkpt lat="43.64919" lon="1.37852">
        <ele>146</ele>
        <time>2024-04-25T17:50:49Z</time>
      </trkpt>
      <trkpt lat="43.64919" lon="1.37848">
        <ele>146</ele>
        <time>2024-04-25T17:50:50Z</time>
      </trkpt>
      <trkpt lat="43.64918" lon="1.37845">
        <ele>146</ele>
        <time>2024-04-25T17:50:51Z</time>
      </trkpt>
      <trkpt lat="43.64917" lon="1.37842">
        <ele>146</ele>
        <time>2024-04-25T17:50:52Z</time>
      </trkpt>
      <trkpt lat="43.64917" lon="1.37838">
        <ele>146</ele>
        <time>2024-04-25T17:50:53Z</time>
      </trkpt>
      <trkpt lat="43.64916" lon="1.37835">
        <ele>146</ele>
        <time>2024-04-25T17:50:54Z</time>
      </trkpt>
      <trkpt lat="43.64915" lon="1.3783">
        <ele>146</ele>
        <time>2024-04-25T17:50:55Z</time>
      </trkpt>
      <trkpt lat="43.64914" lon="1.37828">
        <ele>146</ele>
        <time>2024-04-25T17:50:56Z</time>
      </trkpt>
      <trkpt lat="43.64913" lon="1.37823">
        <ele>146</ele>
        <time>2024-04-25T17:50:57Z</time>
      </trkpt>
      <trkpt lat="43.64913" lon="1.37822">
        <ele>146</ele>
        <time>2024-04-25T17:50:58Z</time>
      </trkpt>
      <trkpt lat="43.64912" lon="1.37818">
        <ele>147</ele>
        <time>2024-04-25T17:50:59Z</time>
      </trkpt>
      <trkpt lat="43.64911" lon="1.37814">
        <ele>147</ele>
        <time>2024-04-25T17:51:00Z</time>
      </trkpt>
      <trkpt lat="43.6491" lon="1.3781">
        <ele>147</ele>
        <time>2024-04-25T17:51:01Z</time>
      </trkpt>
      <trkpt lat="43.64909" lon="1.37807">
        <ele>147</ele>
        <time>2024-04-25T17:51:02Z</time>
      </trkpt>
      <trkpt lat="43.64907" lon="1.378">
        <ele>147</ele>
        <time>2024-04-25T17:51:03Z</time>
      </trkpt>
      <trkpt lat="43.64907" lon="1.378">
        <ele>147</ele>
        <time>2024-04-25T17:51:04Z</time>
      </trkpt>
      <trkpt lat="43.64906" lon="1.37797">
        <ele>147</ele>
        <time>2024-04-25T17:51:05Z</time>
      </trkpt>
      <trkpt lat="43.64905" lon="1.37794">
        <ele>147</ele>
        <time>2024-04-25T17:51:06Z</time>
      </trkpt>
      <trkpt lat="43.64904" lon="1.37791">
        <ele>146</ele>
        <time>2024-04-25T17:51:07Z</time>
      </trkpt>
      <trkpt lat="43.64903" lon="1.37787">
        <ele>146</ele>
        <time>2024-04-25T17:51:08Z</time>
      </trkpt>
      <trkpt lat="43.64903" lon="1.37784">
        <ele>146</ele>
        <time>2024-04-25T17:51:09Z</time>
      </trkpt>
      <trkpt lat="43.64902" lon="1.3778">
        <ele>146</ele>
        <time>2024-04-25T17:51:10Z</time>
      </trkpt>
      <trkpt lat="43.64901" lon="1.37777">
        <ele>146</ele>
        <time>2024-04-25T17:51:11Z</time>
      </trkpt>
      <trkpt lat="43.64901" lon="1.37774">
        <ele>146</ele>
        <time>2024-04-25T17:51:12Z</time>
      </trkpt>
      <trkpt lat="43.649" lon="1.37771">
        <ele>146</ele>
        <time>2024-04-25T17:51:13Z</time>
      </trkpt>
      <trkpt lat="43.64899" lon="1.37766">
        <ele>146</ele>
        <time>2024-04-25T17:51:14Z</time>
      </trkpt>
      <trkpt lat="43.64898" lon="1.37764">
        <ele>146</ele>
        <time>2024-04-25T17:51:15Z</time>
      </trkpt>
      <trkpt lat="43.64897" lon="1.37759">
        <ele>146</ele>
        <time>2024-04-25T17:51:16Z</time>
      </trkpt>
      <trkpt lat="43.64897" lon="1.37757">
        <ele>146</ele>
        <time>2024-04-25T17:51:17Z</time>
      </trkpt>
      <trkpt lat="43.64896" lon="1.37754">
        <ele>146</ele>
        <time>2024-04-25T17:51:18Z</time>
      </trkpt>
      <trkpt lat="43.64895" lon="1.37751">
        <ele>146</ele>
        <time>2024-04-25T17:51:19Z</time>
      </trkpt>
      <trkpt lat="43.64894" lon="1.37747">
        <ele>146</ele>
        <time>2024-04-25T17:51:20Z</time>
      </trkpt>
      <trkpt lat="43.64893" lon="1.37744">
        <ele>146</ele>
        <time>2024-04-25T17:51:21Z</time>
      </trkpt>
      <trkpt lat="43.64891" lon="1.37737">
        <ele>146</ele>
        <time>2024-04-25T17:51:22Z</time>
      </trkpt>
      <trkpt lat="43.64891" lon="1.37737">
        <ele>146</ele>
        <time>2024-04-25T17:51:23Z</time>
      </trkpt>
      <trkpt lat="43.64891" lon="1.37734">
        <ele>146</ele>
        <time>2024-04-25T17:51:24Z</time>
      </trkpt>
      <trkpt lat="43.6489" lon="1.3773">
        <ele>146</ele>
        <time>2024-04-25T17:51:25Z</time>
      </trkpt>
      <trkpt lat="43.64889" lon="1.37727">
        <ele>146</ele>
        <time>2024-04-25T17:51:26Z</time>
      </trkpt>
      <trkpt lat="43.64888" lon="1.37724">
        <ele>146</ele>
        <time>2024-04-25T17:51:27Z</time>
      </trkpt>
      <trkpt lat="43.64888" lon="1.3772">
        <ele>146</ele>
        <time>2024-04-25T17:51:28Z</time>
      </trkpt>
      <trkpt lat="43.64887" lon="1.37717">
        <ele>146</ele>
        <time>2024-04-25T17:51:29Z</time>
      </trkpt>
      <trkpt lat="43.64886" lon="1.37713">
        <ele>146</ele>
        <time>2024-04-25T17:51:30Z</time>
      </trkpt>
      <trkpt lat="43.64886" lon="1.3771">
        <ele>147</ele>
        <time>2024-04-25T17:51:31Z</time>
      </trkpt>
      <trkpt lat="43.64885" lon="1.37706">
        <ele>147</ele>
        <time>2024-04-25T17:51:32Z</time>
      </trkpt>
      <trkpt lat="43.64884" lon="1.377">
        <ele>147</ele>
        <time>2024-04-25T17:51:33Z</time>
      </trkpt>
      <trkpt lat="43.64884" lon="1.37698">
        <ele>147</ele>
        <time>2024-04-25T17:51:34Z</time>
      </trkpt>
      <trkpt lat="43.64882" lon="1.37693">
        <ele>147</ele>
        <time>2024-04-25T17:51:35Z</time>
      </trkpt>
      <trkpt lat="43.64882" lon="1.37691">
        <ele>147</ele>
        <time>2024-04-25T17:51:36Z</time>
      </trkpt>
      <trkpt lat="43.64881" lon="1.37688">
        <ele>147</ele>
        <time>2024-04-25T17:51:37Z</time>
      </trkpt>
      <trkpt lat="43.6488" lon="1.37684">
        <ele>148</ele>
        <time>2024-04-25T17:51:38Z</time>
      </trkpt>
      <trkpt lat="43.64879" lon="1.37677">
        <ele>148</ele>
        <time>2024-04-25T17:51:39Z</time>
      </trkpt>
      <trkpt lat="43.64879" lon="1.37677">
        <ele>148</ele>
        <time>2024-04-25T17:51:40Z</time>
      </trkpt>
      <trkpt lat="43.64878" lon="1.37674">
        <ele>148</ele>
        <time>2024-04-25T17:51:41Z</time>
      </trkpt>
      <trkpt lat="43.64877" lon="1.37671">
        <ele>147</ele>
        <time>2024-04-25T17:51:42Z</time>
      </trkpt>
      <trkpt lat="43.64876" lon="1.37667">
        <ele>147</ele>
        <time>2024-04-25T17:51:43Z</time>
      </trkpt>
      <trkpt lat="43.64875" lon="1.37664">
        <ele>147</ele>
        <time>2024-04-25T17:51:44Z</time>
      </trkpt>
      <trkpt lat="43.64874" lon="1.3766">
        <ele>147</ele>
        <time>2024-04-25T17:51:45Z</time>
      </trkpt>
      <trkpt lat="43.64871" lon="1.37654">
        <ele>147</ele>
        <time>2024-04-25T17:51:46Z</time>
      </trkpt>
      <trkpt lat="43.64871" lon="1.37654">
        <ele>147</ele>
        <time>2024-04-25T17:51:47Z</time>
      </trkpt>
      <trkpt lat="43.64869" lon="1.37652">
        <ele>147</ele>
        <time>2024-04-25T17:51:48Z</time>
      </trkpt>
      <trkpt lat="43.64868" lon="1.3765">
        <ele>147</ele>
        <time>2024-04-25T17:51:49Z</time>
      </trkpt>
      <trkpt lat="43.64866" lon="1.37649">
        <ele>147</ele>
        <time>2024-04-25T17:51:50Z</time>
      </trkpt>
      <trkpt lat="43.64863" lon="1.37647">
        <ele>148</ele>
        <time>2024-04-25T17:51:51Z</time>
      </trkpt>
      <trkpt lat="43.6486" lon="1.37645">
        <ele>148</ele>
        <time>2024-04-25T17:51:52Z</time>
      </trkpt>
      <trkpt lat="43.64858" lon="1.37644">
        <ele>148</ele>
        <time>2024-04-25T17:51:53Z</time>
      </trkpt>
      <trkpt lat="43.64856" lon="1.37643">
        <ele>148</ele>
        <time>2024-04-25T17:51:54Z</time>
      </trkpt>
      <trkpt lat="43.64855" lon="1.37641">
        <ele>148</ele>
        <time>2024-04-25T17:51:55Z</time>
      </trkpt>
      <trkpt lat="43.64853" lon="1.3764">
        <ele>148</ele>
        <time>2024-04-25T17:51:56Z</time>
      </trkpt>
      <trkpt lat="43.64851" lon="1.37638">
        <ele>148</ele>
        <time>2024-04-25T17:51:57Z</time>
      </trkpt>
      <trkpt lat="43.6485" lon="1.37637">
        <ele>148</ele>
        <time>2024-04-25T17:51:58Z</time>
      </trkpt>
      <trkpt lat="43.6485" lon="1.37637">
        <ele>148</ele>
        <time>2024-04-25T17:51:59Z</time>
      </trkpt>
      <trkpt lat="43.64848" lon="1.37635">
        <ele>147</ele>
        <time>2024-04-25T17:52:00Z</time>
      </trkpt>
      <trkpt lat="43.64847" lon="1.37635">
        <ele>147</ele>
        <time>2024-04-25T17:52:01Z</time>
      </trkpt>
    </trkseg>
  </trk>
</gpx>